GFSGL_prec_pwat_000.txt.gz
Precipitable_Water
0.53 0.52 0.50 0.48 0.46 0.44 0.43 0.45 0.48 0.51 0.55 0.58 0.53 0.50 0.48 0.45 0.43 0.41 0.39 0.38 0.36 0.34 0.32 0.30 0.27 0.27 0.27 0.27 0.27 0.27 0.28 0.28 0.26 0.30 0.34 0.38 0.40 0.42 0.44 0.48 0.51 0.47 0.48
0.52 0.48 0.46 0.45 0.44 0.43 0.44 0.46 0.48 0.46 0.47 0.46 0.44 0.42 0.38 0.36 0.36 0.34 0.32 0.29 0.25 0.22 0.21 0.21 0.21 0.22 0.23 0.24 0.24 0.24 0.25 0.26 0.24 0.22 0.26 0.28 0.31 0.36 0.40 0.41 0.44 0.51 0.46
0.51 0.45 0.42 0.41 0.40 0.41 0.42 0.45 0.45 0.43 0.41 0.41 0.39 0.36 0.34 0.33 0.30 0.26 0.24 0.22 0.21 0.21 0.21 0.21 0.21 0.22 0.22 0.23 0.25 0.25 0.26 0.27 0.26 0.25 0.25 0.29 0.29 0.31 0.34 0.38 0.40 0.42 0.43
0.46 0.41 0.37 0.37 0.38 0.40 0.42 0.43 0.43 0.43 0.42 0.40 0.37 0.36 0.32 0.28 0.24 0.22 0.21 0.21 0.21 0.22 0.23 0.23 0.24 0.24 0.23 0.23 0.24 0.24 0.24 0.23 0.23 0.23 0.23 0.25 0.27 0.29 0.30 0.29 0.29 0.35 0.37
0.42 0.39 0.38 0.40 0.44 0.44 0.44 0.45 0.50 0.47 0.40 0.39 0.37 0.31 0.27 0.24 0.21 0.21 0.22 0.22 0.22 0.22 0.23 0.23 0.23 0.24 0.24 0.25 0.24 0.23 0.23 0.21 0.19 0.18 0.18 0.19 0.20 0.22 0.23 0.26 0.27 0.29 0.31
0.46 0.48 0.49 0.48 0.49 0.50 0.52 0.50 0.46 0.43 0.40 0.37 0.31 0.24 0.20 0.19 0.21 0.23 0.24 0.23 0.22 0.21 0.20 0.21 0.23 0.25 0.25 0.25 0.25 0.25 0.26 0.23 0.22 0.21 0.21 0.20 0.21 0.23 0.25 0.25 0.26 0.25 0.23
0.47 0.50 0.53 0.54 0.52 0.48 0.46 0.44 0.42 0.38 0.35 0.29 0.22 0.19 0.18 0.20 0.22 0.23 0.23 0.22 0.20 0.21 0.23 0.25 0.26 0.27 0.28 0.28 0.28 0.28 0.29 0.29 0.30 0.29 0.26 0.26 0.26 0.28 0.29 0.27 0.28 0.27 0.26
0.44 0.46 0.49 0.49 0.47 0.42 0.38 0.35 0.35 0.32 0.26 0.21 0.19 0.19 0.20 0.20 0.22 0.21 0.21 0.21 0.22 0.25 0.27 0.29 0.29 0.29 0.30 0.30 0.30 0.30 0.30 0.30 0.31 0.32 0.31 0.31 0.33 0.34 0.33 0.31 0.29 0.28 0.29
0.36 0.36 0.37 0.39 0.39 0.36 0.34 0.30 0.27 0.23 0.19 0.18 0.19 0.20 0.20 0.20 0.21 0.20 0.21 0.23 0.24 0.28 0.30 0.31 0.31 0.31 0.32 0.33 0.31 0.31 0.30 0.31 0.34 0.34 0.34 0.35 0.36 0.36 0.36 0.34 0.30 0.28 0.25
0.36 0.35 0.37 0.36 0.32 0.29 0.27 0.24 0.21 0.20 0.19 0.19 0.19 0.20 0.19 0.18 0.18 0.21 0.23 0.26 0.28 0.28 0.30 0.31 0.32 0.32 0.33 0.33 0.32 0.31 0.29 0.31 0.32 0.33 0.33 0.34 0.36 0.37 0.37 0.36 0.34 0.29 0.29
0.39 0.36 0.33 0.30 0.27 0.24 0.22 0.21 0.20 0.19 0.19 0.19 0.18 0.18 0.18 0.18 0.19 0.23 0.28 0.29 0.29 0.29 0.29 0.30 0.32 0.33 0.34 0.35 0.34 0.32 0.30 0.32 0.32 0.34 0.33 0.33 0.34 0.35 0.36 0.37 0.37 0.35 0.31
0.34 0.31 0.27 0.24 0.23 0.22 0.21 0.20 0.19 0.20 0.19 0.17 0.17 0.16 0.17 0.18 0.22 0.27 0.30 0.31 0.32 0.31 0.31 0.32 0.33 0.33 0.34 0.35 0.35 0.34 0.34 0.34 0.34 0.33 0.32 0.31 0.31 0.32 0.34 0.36 0.37 0.38 0.39
0.28 0.23 0.22 0.22 0.22 0.21 0.20 0.20 0.20 0.20 0.18 0.17 0.16 0.16 0.16 0.20 0.25 0.29 0.30 0.32 0.33 0.33 0.33 0.33 0.32 0.31 0.32 0.33 0.33 0.34 0.35 0.34 0.33 0.31 0.30 0.30 0.32 0.34 0.35 0.35 0.36 0.37 0.39
0.21 0.20 0.21 0.21 0.20 0.21 0.22 0.22 0.21 0.19 0.18 0.18 0.16 0.16 0.17 0.20 0.26 0.29 0.32 0.33 0.34 0.34 0.32 0.31 0.30 0.29 0.30 0.30 0.31 0.32 0.33 0.33 0.32 0.31 0.31 0.32 0.34 0.34 0.33 0.34 0.31 0.32 0.31
0.20 0.20 0.21 0.21 0.20 0.21 0.22 0.22 0.21 0.22 0.22 0.19 0.17 0.18 0.18 0.21 0.27 0.32 0.32 0.32 0.33 0.33 0.32 0.30 0.28 0.26 0.26 0.27 0.29 0.31 0.33 0.34 0.33 0.34 0.32 0.31 0.31 0.31 0.31 0.33 0.31 0.32 0.30
0.21 0.21 0.21 0.21 0.22 0.22 0.22 0.22 0.25 0.24 0.23 0.21 0.21 0.20 0.21 0.28 0.31 0.31 0.32 0.33 0.33 0.33 0.30 0.28 0.26 0.26 0.26 0.27 0.27 0.29 0.31 0.31 0.32 0.33 0.31 0.30 0.28 0.27 0.28 0.30 0.31 0.31 0.30
0.22 0.22 0.23 0.24 0.23 0.22 0.23 0.22 0.20 0.22 0.21 0.20 0.20 0.20 0.24 0.29 0.30 0.31 0.32 0.32 0.32 0.32 0.29 0.28 0.27 0.26 0.26 0.26 0.27 0.27 0.27 0.30 0.33 0.33 0.33 0.31 0.30 0.30 0.31 0.30 0.31 0.31 0.30
0.25 0.24 0.23 0.25 0.24 0.24 0.24 0.22 0.21 0.19 0.16 0.17 0.19 0.21 0.26 0.28 0.29 0.29 0.30 0.30 0.29 0.29 0.29 0.28 0.27 0.27 0.27 0.26 0.26 0.26 0.27 0.29 0.30 0.31 0.31 0.31 0.31 0.30 0.29 0.30 0.31 0.30 0.29
0.26 0.22 0.24 0.26 0.26 0.26 0.24 0.22 0.21 0.19 0.17 0.17 0.17 0.22 0.26 0.27 0.28 0.28 0.29 0.27 0.27 0.27 0.28 0.28 0.28 0.28 0.28 0.28 0.27 0.27 0.26 0.27 0.28 0.29 0.29 0.30 0.30 0.29 0.27 0.28 0.29 0.29 0.28
0.25 0.25 0.26 0.25 0.25 0.25 0.23 0.21 0.20 0.18 0.17 0.16 0.18 0.22 0.24 0.25 0.24 0.25 0.26 0.26 0.26 0.27 0.27 0.27 0.28 0.29 0.28 0.28 0.28 0.28 0.27 0.27 0.27 0.27 0.28 0.28 0.29 0.29 0.26 0.25 0.25 0.25 0.25
0.25 0.27 0.26 0.25 0.25 0.24 0.22 0.21 0.20 0.18 0.17 0.16 0.21 0.23 0.24 0.23 0.23 0.24 0.25 0.25 0.26 0.26 0.27 0.27 0.28 0.28 0.29 0.28 0.28 0.28 0.28 0.27 0.27 0.27 0.26 0.27 0.27 0.26 0.27 0.25 0.24 0.24 0.23
0.26 0.27 0.26 0.25 0.24 0.23 0.23 0.22 0.20 0.19 0.18 0.18 0.20 0.23 0.23 0.23 0.23 0.24 0.24 0.25 0.26 0.26 0.27 0.27 0.27 0.27 0.28 0.28 0.28 0.28 0.28 0.27 0.28 0.27 0.27 0.27 0.26 0.26 0.26 0.25 0.24 0.23 0.22
0.27 0.26 0.26 0.25 0.24 0.23 0.23 0.21 0.21 0.20 0.20 0.19 0.18 0.21 0.22 0.22 0.23 0.23 0.24 0.25 0.25 0.25 0.25 0.25 0.25 0.25 0.25 0.25 0.25 0.25 0.25 0.26 0.28 0.28 0.27 0.26 0.26 0.26 0.26 0.25 0.25 0.24 0.22
0.27 0.26 0.25 0.25 0.24 0.24 0.23 0.21 0.20 0.21 0.21 0.19 0.18 0.20 0.22 0.22 0.22 0.23 0.24 0.24 0.24 0.22 0.21 0.20 0.19 0.19 0.19 0.19 0.19 0.19 0.18 0.17 0.17 0.18 0.19 0.20 0.23 0.26 0.26 0.25 0.25 0.25 0.25
0.26 0.25 0.25 0.25 0.25 0.24 0.22 0.20 0.20 0.21 0.20 0.18 0.17 0.19 0.22 0.22 0.22 0.23 0.23 0.23 0.20 0.18 0.17 0.16 0.15 0.15 0.16 0.16 0.17 0.17 0.17 0.17 0.16 0.15 0.14 0.14 0.14 0.14 0.15 0.17 0.22 0.24 0.25
0.26 0.26 0.26 0.26 0.25 0.24 0.23 0.20 0.19 0.21 0.20 0.18 0.17 0.18 0.21 0.22 0.22 0.22 0.22 0.20 0.18 0.17 0.16 0.15 0.15 0.15 0.14 0.14 0.14 0.14 0.15 0.15 0.15 0.15 0.14 0.13 0.13 0.13 0.14 0.14 0.14 0.14 0.15

GFSGL_prec_pwat_003.txt.gz
Precipitable_Water
0.51 0.49 0.44 0.40 0.38 0.39 0.40 0.41 0.43 0.46 0.46 0.45 0.46 0.47 0.48 0.45 0.43 0.41 0.38 0.36 0.35 0.33 0.31 0.28 0.26 0.26 0.24 0.24 0.25 0.25 0.25 0.26 0.22 0.26 0.29 0.31 0.32 0.34 0.35 0.39 0.43 0.51 0.53
0.49 0.47 0.43 0.39 0.36 0.36 0.36 0.39 0.42 0.42 0.46 0.44 0.41 0.40 0.39 0.37 0.36 0.34 0.31 0.29 0.26 0.23 0.22 0.22 0.22 0.22 0.22 0.23 0.23 0.22 0.23 0.24 0.24 0.23 0.28 0.28 0.29 0.32 0.34 0.34 0.36 0.41 0.46
0.48 0.44 0.40 0.36 0.34 0.36 0.38 0.40 0.41 0.43 0.43 0.43 0.42 0.39 0.38 0.36 0.33 0.30 0.27 0.24 0.23 0.23 0.22 0.22 0.21 0.22 0.21 0.22 0.23 0.23 0.23 0.24 0.25 0.24 0.24 0.29 0.29 0.30 0.29 0.31 0.33 0.33 0.36
0.45 0.41 0.39 0.36 0.35 0.38 0.40 0.42 0.45 0.47 0.45 0.43 0.40 0.38 0.36 0.32 0.28 0.25 0.23 0.21 0.21 0.21 0.21 0.22 0.22 0.22 0.21 0.21 0.21 0.21 0.22 0.21 0.22 0.22 0.22 0.23 0.25 0.26 0.26 0.24 0.23 0.27 0.26
0.43 0.42 0.41 0.41 0.40 0.42 0.46 0.47 0.48 0.48 0.45 0.43 0.40 0.37 0.34 0.30 0.25 0.23 0.23 0.22 0.21 0.21 0.20 0.20 0.20 0.21 0.22 0.22 0.23 0.22 0.23 0.22 0.21 0.20 0.18 0.18 0.18 0.20 0.20 0.21 0.20 0.20 0.22
0.43 0.42 0.46 0.49 0.49 0.49 0.48 0.48 0.47 0.47 0.47 0.43 0.37 0.33 0.29 0.24 0.26 0.25 0.24 0.22 0.20 0.18 0.17 0.18 0.19 0.21 0.22 0.23 0.24 0.25 0.25 0.24 0.23 0.22 0.21 0.19 0.19 0.20 0.22 0.21 0.20 0.19 0.18
0.44 0.45 0.47 0.49 0.47 0.48 0.48 0.46 0.44 0.39 0.36 0.33 0.31 0.29 0.23 0.23 0.24 0.24 0.22 0.20 0.18 0.17 0.18 0.20 0.21 0.24 0.27 0.27 0.27 0.28 0.29 0.29 0.29 0.28 0.25 0.25 0.24 0.25 0.26 0.25 0.25 0.25 0.24
0.44 0.41 0.40 0.39 0.38 0.39 0.38 0.35 0.33 0.31 0.29 0.27 0.24 0.23 0.23 0.23 0.22 0.21 0.20 0.18 0.17 0.19 0.21 0.24 0.27 0.28 0.29 0.30 0.29 0.29 0.30 0.31 0.31 0.31 0.30 0.29 0.30 0.30 0.30 0.30 0.29 0.28 0.28
0.38 0.39 0.39 0.36 0.32 0.31 0.30 0.28 0.27 0.25 0.23 0.23 0.23 0.22 0.20 0.20 0.20 0.19 0.18 0.17 0.18 0.21 0.26 0.29 0.29 0.29 0.30 0.31 0.31 0.30 0.30 0.31 0.34 0.35 0.34 0.33 0.32 0.33 0.33 0.32 0.29 0.28 0.25
0.37 0.36 0.34 0.32 0.30 0.26 0.24 0.22 0.22 0.22 0.22 0.22 0.20 0.20 0.20 0.19 0.18 0.18 0.19 0.19 0.21 0.25 0.28 0.29 0.30 0.31 0.32 0.32 0.32 0.31 0.29 0.30 0.31 0.31 0.33 0.34 0.35 0.34 0.35 0.35 0.33 0.28 0.27
0.35 0.32 0.29 0.26 0.23 0.22 0.21 0.22 0.21 0.20 0.20 0.19 0.19 0.19 0.18 0.18 0.18 0.19 0.20 0.22 0.25 0.27 0.28 0.29 0.32 0.33 0.32 0.33 0.33 0.32 0.32 0.33 0.32 0.31 0.30 0.32 0.33 0.34 0.34 0.35 0.36 0.34 0.30
0.32 0.28 0.23 0.22 0.22 0.21 0.20 0.20 0.20 0.20 0.19 0.19 0.18 0.17 0.18 0.18 0.19 0.19 0.22 0.26 0.30 0.29 0.29 0.32 0.32 0.32 0.31 0.31 0.32 0.33 0.34 0.35 0.33 0.31 0.31 0.30 0.31 0.32 0.34 0.34 0.35 0.36 0.37
0.27 0.22 0.20 0.21 0.21 0.21 0.20 0.19 0.20 0.20 0.19 0.19 0.19 0.17 0.16 0.17 0.18 0.20 0.24 0.30 0.32 0.31 0.33 0.31 0.31 0.30 0.28 0.29 0.30 0.30 0.31 0.31 0.30 0.30 0.30 0.31 0.32 0.33 0.34 0.34 0.36 0.37 0.38
0.23 0.21 0.21 0.20 0.19 0.20 0.20 0.21 0.21 0.20 0.20 0.20 0.18 0.17 0.17 0.16 0.18 0.22 0.29 0.31 0.32 0.33 0.33 0.33 0.30 0.28 0.28 0.28 0.29 0.30 0.31 0.32 0.31 0.30 0.30 0.32 0.33 0.33 0.33 0.34 0.33 0.33 0.33
0.22 0.21 0.21 0.21 0.21 0.21 0.21 0.23 0.24 0.24 0.23 0.20 0.19 0.19 0.17 0.16 0.19 0.27 0.29 0.30 0.31 0.32 0.31 0.30 0.28 0.27 0.26 0.26 0.27 0.28 0.30 0.31 0.31 0.32 0.31 0.31 0.30 0.31 0.31 0.33 0.32 0.31 0.29
0.20 0.22 0.23 0.22 0.22 0.24 0.23 0.24 0.26 0.24 0.23 0.21 0.21 0.20 0.20 0.20 0.25 0.28 0.29 0.31 0.31 0.32 0.29 0.28 0.26 0.26 0.25 0.25 0.24 0.25 0.27 0.29 0.30 0.31 0.31 0.30 0.29 0.28 0.27 0.29 0.31 0.30 0.29
0.22 0.23 0.23 0.22 0.23 0.24 0.24 0.23 0.20 0.21 0.22 0.20 0.19 0.20 0.20 0.22 0.27 0.28 0.29 0.30 0.30 0.30 0.27 0.27 0.26 0.26 0.25 0.25 0.25 0.25 0.25 0.27 0.30 0.30 0.30 0.30 0.30 0.29 0.28 0.28 0.29 0.29 0.29
0.24 0.25 0.23 0.23 0.24 0.25 0.23 0.22 0.21 0.19 0.17 0.16 0.18 0.19 0.21 0.25 0.26 0.27 0.28 0.28 0.27 0.27 0.27 0.26 0.26 0.27 0.26 0.25 0.25 0.25 0.25 0.26 0.27 0.28 0.29 0.29 0.30 0.29 0.28 0.28 0.29 0.28 0.28
0.25 0.24 0.24 0.25 0.25 0.24 0.24 0.22 0.21 0.20 0.18 0.17 0.16 0.20 0.23 0.25 0.25 0.26 0.26 0.25 0.25 0.25 0.26 0.26 0.27 0.27 0.27 0.27 0.27 0.26 0.26 0.26 0.26 0.26 0.27 0.27 0.28 0.28 0.26 0.27 0.27 0.28 0.28
0.24 0.24 0.25 0.24 0.24 0.24 0.22 0.22 0.20 0.19 0.18 0.17 0.17 0.19 0.22 0.23 0.22 0.23 0.24 0.24 0.25 0.25 0.25 0.26 0.26 0.27 0.27 0.27 0.27 0.27 0.26 0.26 0.26 0.26 0.26 0.26 0.27 0.27 0.25 0.24 0.25 0.24 0.24
0.24 0.25 0.25 0.25 0.24 0.23 0.22 0.21 0.20 0.20 0.19 0.19 0.17 0.20 0.22 0.21 0.21 0.22 0.23 0.24 0.24 0.25 0.25 0.25 0.26 0.26 0.27 0.27 0.27 0.27 0.27 0.27 0.27 0.26 0.25 0.25 0.26 0.25 0.26 0.26 0.24 0.23 0.23
0.25 0.25 0.25 0.24 0.24 0.23 0.23 0.22 0.21 0.20 0.21 0.19 0.17 0.19 0.22 0.22 0.22 0.22 0.23 0.23 0.24 0.25 0.25 0.25 0.25 0.25 0.24 0.24 0.23 0.23 0.24 0.25 0.26 0.26 0.26 0.26 0.25 0.25 0.25 0.25 0.24 0.23 0.22
0.25 0.25 0.24 0.24 0.24 0.24 0.23 0.22 0.20 0.21 0.20 0.18 0.17 0.18 0.21 0.21 0.21 0.22 0.22 0.23 0.23 0.22 0.21 0.21 0.20 0.19 0.19 0.19 0.18 0.17 0.15 0.15 0.16 0.18 0.19 0.21 0.23 0.24 0.25 0.24 0.25 0.24 0.22
0.25 0.24 0.24 0.24 0.24 0.24 0.22 0.21 0.19 0.21 0.20 0.18 0.17 0.18 0.21 0.21 0.21 0.22 0.22 0.21 0.20 0.19 0.17 0.16 0.15 0.15 0.16 0.17 0.17 0.17 0.17 0.17 0.16 0.15 0.15 0.14 0.15 0.16 0.19 0.21 0.23 0.24 0.24
0.25 0.24 0.24 0.24 0.24 0.24 0.23 0.21 0.19 0.20 0.20 0.18 0.17 0.18 0.21 0.21 0.21 0.22 0.22 0.20 0.18 0.17 0.16 0.15 0.15 0.15 0.14 0.14 0.15 0.15 0.16 0.15 0.15 0.14 0.13 0.13 0.14 0.14 0.15 0.15 0.15 0.17 0.19
0.25 0.25 0.25 0.25 0.24 0.24 0.23 0.21 0.19 0.19 0.20 0.20 0.18 0.17 0.19 0.21 0.21 0.21 0.20 0.19 0.18 0.17 0.16 0.15 0.15 0.14 0.14 0.13 0.13 0.13 0.13 0.13 0.13 0.14 0.13 0.12 0.12 0.12 0.12 0.12 0.13 0.13 0.13

GFSGL_prec_pwat_006.txt.gz
Precipitable_Water
0.50 0.50 0.51 0.48 0.43 0.38 0.36 0.37 0.40 0.44 0.44 0.41 0.43 0.45 0.47 0.45 0.44 0.42 0.41 0.40 0.37 0.33 0.31 0.28 0.26 0.25 0.23 0.23 0.24 0.24 0.24 0.24 0.21 0.22 0.26 0.28 0.27 0.29 0.30 0.30 0.32 0.35 0.39
0.52 0.53 0.50 0.46 0.40 0.37 0.36 0.38 0.41 0.39 0.39 0.41 0.45 0.46 0.42 0.39 0.38 0.37 0.35 0.33 0.30 0.27 0.26 0.24 0.22 0.23 0.22 0.23 0.24 0.23 0.24 0.25 0.23 0.20 0.24 0.26 0.26 0.28 0.31 0.31 0.31 0.30 0.31
0.56 0.51 0.45 0.40 0.37 0.38 0.37 0.39 0.41 0.42 0.43 0.45 0.46 0.45 0.42 0.40 0.38 0.36 0.33 0.29 0.26 0.23 0.22 0.22 0.22 0.23 0.22 0.22 0.22 0.21 0.22 0.22 0.22 0.21 0.20 0.23 0.24 0.25 0.25 0.27 0.28 0.29 0.31
0.53 0.46 0.41 0.40 0.38 0.40 0.43 0.43 0.45 0.46 0.47 0.49 0.49 0.46 0.43 0.39 0.35 0.33 0.30 0.25 0.24 0.23 0.23 0.23 0.22 0.21 0.20 0.19 0.19 0.19 0.19 0.19 0.20 0.19 0.19 0.19 0.21 0.23 0.23 0.21 0.20 0.23 0.22
0.46 0.44 0.43 0.45 0.46 0.45 0.44 0.45 0.45 0.47 0.49 0.49 0.48 0.45 0.40 0.36 0.34 0.31 0.27 0.25 0.24 0.22 0.21 0.20 0.19 0.19 0.19 0.19 0.20 0.20 0.21 0.22 0.22 0.22 0.21 0.21 0.21 0.21 0.20 0.20 0.19 0.19 0.20
0.44 0.45 0.47 0.46 0.46 0.47 0.45 0.44 0.44 0.44 0.44 0.44 0.40 0.34 0.32 0.31 0.29 0.29 0.28 0.26 0.24 0.21 0.19 0.18 0.18 0.18 0.19 0.21 0.23 0.25 0.26 0.24 0.23 0.23 0.22 0.21 0.22 0.22 0.23 0.22 0.20 0.19 0.16
0.42 0.39 0.40 0.39 0.38 0.38 0.39 0.39 0.37 0.34 0.32 0.30 0.29 0.28 0.26 0.26 0.27 0.27 0.25 0.23 0.20 0.19 0.18 0.17 0.18 0.20 0.23 0.25 0.27 0.28 0.29 0.29 0.29 0.28 0.26 0.26 0.25 0.26 0.26 0.25 0.24 0.23 0.21
0.36 0.37 0.37 0.37 0.32 0.32 0.30 0.28 0.26 0.25 0.23 0.23 0.23 0.24 0.24 0.23 0.23 0.22 0.21 0.20 0.19 0.19 0.19 0.19 0.21 0.23 0.27 0.28 0.28 0.29 0.30 0.30 0.31 0.31 0.30 0.30 0.31 0.31 0.30 0.29 0.28 0.27 0.28
0.35 0.34 0.33 0.30 0.28 0.26 0.22 0.21 0.21 0.21 0.21 0.22 0.23 0.21 0.20 0.20 0.21 0.20 0.20 0.19 0.18 0.18 0.20 0.23 0.26 0.27 0.29 0.30 0.30 0.29 0.30 0.31 0.33 0.34 0.34 0.35 0.34 0.34 0.34 0.31 0.28 0.26 0.24
0.34 0.33 0.32 0.29 0.24 0.20 0.20 0.20 0.21 0.21 0.21 0.20 0.20 0.21 0.21 0.20 0.20 0.20 0.20 0.19 0.18 0.19 0.22 0.27 0.29 0.30 0.31 0.32 0.31 0.30 0.28 0.30 0.31 0.32 0.33 0.33 0.33 0.34 0.35 0.35 0.32 0.27 0.26
0.34 0.32 0.29 0.24 0.21 0.20 0.20 0.20 0.20 0.20 0.19 0.19 0.19 0.20 0.21 0.20 0.19 0.19 0.20 0.20 0.20 0.21 0.26 0.28 0.30 0.32 0.31 0.31 0.31 0.29 0.29 0.31 0.32 0.33 0.33 0.33 0.32 0.32 0.33 0.34 0.35 0.33 0.28
0.32 0.29 0.24 0.23 0.21 0.20 0.19 0.19 0.19 0.19 0.19 0.19 0.19 0.20 0.20 0.20 0.20 0.19 0.20 0.21 0.23 0.26 0.28 0.30 0.32 0.31 0.31 0.29 0.29 0.29 0.30 0.31 0.31 0.30 0.30 0.30 0.31 0.31 0.32 0.33 0.34 0.35 0.36
0.30 0.26 0.23 0.21 0.21 0.20 0.19 0.19 0.19 0.21 0.21 0.21 0.20 0.19 0.18 0.19 0.18 0.19 0.21 0.23 0.27 0.29 0.31 0.32 0.31 0.31 0.29 0.28 0.29 0.29 0.30 0.30 0.30 0.29 0.29 0.30 0.31 0.33 0.34 0.35 0.35 0.36 0.36
0.27 0.24 0.21 0.21 0.22 0.21 0.21 0.22 0.23 0.23 0.21 0.20 0.19 0.18 0.18 0.18 0.18 0.19 0.22 0.25 0.29 0.30 0.31 0.30 0.30 0.30 0.28 0.28 0.28 0.29 0.29 0.30 0.29 0.29 0.30 0.31 0.33 0.33 0.32 0.33 0.31 0.32 0.31
0.26 0.23 0.21 0.23 0.23 0.22 0.23 0.24 0.25 0.24 0.23 0.21 0.20 0.19 0.17 0.17 0.18 0.22 0.24 0.27 0.28 0.29 0.30 0.29 0.28 0.27 0.25 0.25 0.25 0.26 0.28 0.28 0.28 0.29 0.30 0.30 0.30 0.30 0.30 0.32 0.31 0.31 0.29
0.23 0.22 0.22 0.22 0.23 0.23 0.23 0.24 0.26 0.24 0.24 0.23 0.21 0.20 0.19 0.20 0.22 0.25 0.27 0.28 0.28 0.29 0.27 0.26 0.26 0.26 0.24 0.24 0.24 0.24 0.25 0.26 0.27 0.28 0.29 0.29 0.28 0.28 0.27 0.28 0.28 0.27 0.27
0.22 0.22 0.22 0.23 0.22 0.22 0.23 0.22 0.20 0.22 0.23 0.21 0.20 0.19 0.20 0.22 0.24 0.25 0.26 0.27 0.27 0.27 0.25 0.25 0.25 0.25 0.25 0.24 0.24 0.24 0.24 0.26 0.27 0.27 0.27 0.28 0.28 0.29 0.27 0.26 0.27 0.28 0.27
0.22 0.23 0.23 0.23 0.23 0.23 0.23 0.22 0.21 0.20 0.18 0.18 0.19 0.20 0.21 0.23 0.24 0.25 0.25 0.26 0.25 0.25 0.25 0.24 0.24 0.25 0.26 0.25 0.25 0.25 0.25 0.26 0.26 0.26 0.27 0.27 0.28 0.28 0.27 0.26 0.27 0.26 0.27
0.23 0.22 0.22 0.24 0.24 0.24 0.23 0.22 0.22 0.20 0.19 0.19 0.19 0.17 0.20 0.23 0.24 0.24 0.24 0.23 0.23 0.23 0.24 0.24 0.25 0.25 0.26 0.26 0.26 0.26 0.26 0.25 0.25 0.25 0.26 0.26 0.27 0.27 0.27 0.26 0.26 0.27 0.27
0.22 0.23 0.24 0.23 0.23 0.23 0.23 0.22 0.21 0.20 0.19 0.20 0.18 0.16 0.20 0.21 0.21 0.22 0.23 0.23 0.23 0.23 0.24 0.24 0.25 0.25 0.26 0.26 0.27 0.27 0.26 0.26 0.26 0.25 0.24 0.25 0.26 0.26 0.25 0.25 0.24 0.23 0.23
0.23 0.24 0.24 0.23 0.23 0.23 0.23 0.22 0.21 0.19 0.20 0.19 0.17 0.18 0.21 0.21 0.21 0.21 0.22 0.22 0.23 0.23 0.24 0.24 0.24 0.25 0.24 0.23 0.21 0.21 0.22 0.24 0.24 0.25 0.25 0.24 0.24 0.24 0.25 0.25 0.25 0.24 0.23
0.24 0.24 0.23 0.22 0.23 0.23 0.23 0.22 0.20 0.19 0.20 0.19 0.16 0.18 0.21 0.21 0.21 0.21 0.22 0.22 0.22 0.22 0.22 0.21 0.20 0.19 0.18 0.17 0.16 0.15 0.14 0.14 0.16 0.18 0.20 0.22 0.22 0.23 0.23 0.24 0.24 0.23 0.23
0.24 0.23 0.23 0.23 0.23 0.23 0.23 0.22 0.20 0.19 0.20 0.18 0.17 0.18 0.21 0.21 0.21 0.21 0.22 0.21 0.20 0.19 0.18 0.17 0.15 0.15 0.16 0.17 0.17 0.17 0.15 0.14 0.14 0.15 0.15 0.16 0.17 0.18 0.20 0.21 0.21 0.22 0.23
0.24 0.23 0.23 0.23 0.23 0.23 0.23 0.21 0.20 0.18 0.19 0.19 0.17 0.18 0.20 0.21 0.21 0.21 0.21 0.20 0.18 0.17 0.16 0.15 0.15 0.14 0.14 0.15 0.15 0.15 0.15 0.15 0.14 0.14 0.14 0.14 0.15 0.16 0.16 0.16 0.17 0.19 0.20
0.23 0.23 0.24 0.24 0.23 0.23 0.23 0.22 0.21 0.19 0.18 0.20 0.18 0.17 0.19 0.21 0.21 0.21 0.20 0.19 0.18 0.17 0.16 0.15 0.15 0.15 0.14 0.13 0.13 0.13 0.13 0.13 0.13 0.14 0.13 0.12 0.12 0.13 0.13 0.14 0.14 0.14 0.15
0.23 0.24 0.24 0.24 0.24 0.24 0.23 0.22 0.22 0.20 0.18 0.19 0.19 0.17 0.17 0.16 0.19 0.21 0.21 0.22 0.20 0.18 0.17 0.16 0.15 0.14 0.14 0.14 0.13 0.12 0.11 0.11 0.12 0.12 0.12 0.12 0.11 0.10 0.10 0.11 0.11 0.11 0.12

GFSGL_prec_pwat_009.txt.gz
Precipitable_Water
0.59 0.59 0.57 0.54 0.48 0.41 0.40 0.40 0.41 0.45 0.46 0.43 0.44 0.46 0.48 0.51 0.50 0.44 0.42 0.41 0.38 0.37 0.36 0.33 0.31 0.29 0.28 0.28 0.28 0.27 0.25 0.25 0.22 0.23 0.27 0.29 0.28 0.27 0.27 0.29 0.32 0.32 0.31
0.57 0.55 0.52 0.46 0.43 0.38 0.37 0.39 0.42 0.41 0.41 0.43 0.45 0.48 0.50 0.48 0.46 0.41 0.40 0.38 0.35 0.33 0.30 0.27 0.25 0.25 0.25 0.26 0.26 0.25 0.26 0.26 0.24 0.22 0.24 0.26 0.27 0.28 0.29 0.29 0.30 0.32 0.32
0.54 0.51 0.46 0.42 0.40 0.41 0.42 0.45 0.46 0.46 0.46 0.47 0.49 0.49 0.48 0.46 0.42 0.39 0.36 0.35 0.33 0.31 0.27 0.24 0.24 0.25 0.24 0.24 0.24 0.23 0.23 0.23 0.23 0.22 0.20 0.22 0.24 0.25 0.23 0.25 0.25 0.27 0.27
0.46 0.42 0.41 0.43 0.45 0.46 0.46 0.46 0.46 0.47 0.46 0.47 0.47 0.46 0.46 0.44 0.41 0.37 0.34 0.33 0.30 0.27 0.26 0.26 0.25 0.24 0.22 0.21 0.20 0.19 0.19 0.19 0.19 0.19 0.19 0.19 0.20 0.22 0.23 0.22 0.21 0.24 0.22
0.45 0.45 0.45 0.45 0.49 0.46 0.42 0.41 0.42 0.43 0.42 0.44 0.43 0.41 0.36 0.33 0.32 0.32 0.30 0.28 0.26 0.26 0.25 0.24 0.23 0.22 0.21 0.20 0.19 0.19 0.20 0.20 0.20 0.20 0.20 0.20 0.21 0.22 0.22 0.24 0.23 0.24 0.24
0.45 0.40 0.39 0.39 0.38 0.36 0.36 0.35 0.36 0.34 0.31 0.29 0.27 0.27 0.26 0.26 0.27 0.28 0.28 0.26 0.25 0.24 0.22 0.22 0.21 0.20 0.20 0.21 0.22 0.24 0.24 0.23 0.22 0.23 0.23 0.22 0.22 0.23 0.24 0.24 0.23 0.22 0.19
0.37 0.36 0.34 0.34 0.32 0.30 0.29 0.26 0.23 0.22 0.22 0.22 0.22 0.23 0.23 0.24 0.23 0.24 0.24 0.23 0.22 0.21 0.20 0.19 0.19 0.19 0.21 0.23 0.24 0.25 0.26 0.28 0.28 0.27 0.25 0.25 0.25 0.27 0.27 0.26 0.26 0.25 0.24
0.33 0.34 0.36 0.33 0.30 0.28 0.24 0.21 0.20 0.21 0.21 0.21 0.21 0.21 0.20 0.21 0.22 0.21 0.21 0.22 0.21 0.21 0.20 0.19 0.20 0.21 0.23 0.25 0.26 0.27 0.28 0.29 0.30 0.30 0.30 0.29 0.30 0.30 0.30 0.30 0.29 0.28 0.29
0.31 0.34 0.33 0.30 0.28 0.23 0.21 0.20 0.20 0.19 0.19 0.19 0.19 0.20 0.20 0.20 0.21 0.21 0.21 0.21 0.20 0.19 0.20 0.21 0.22 0.23 0.26 0.29 0.28 0.27 0.29 0.29 0.32 0.32 0.33 0.34 0.34 0.34 0.34 0.32 0.30 0.28 0.26
0.33 0.33 0.32 0.30 0.24 0.22 0.21 0.19 0.19 0.19 0.19 0.19 0.20 0.22 0.22 0.22 0.22 0.21 0.21 0.20 0.19 0.19 0.21 0.22 0.25 0.28 0.30 0.30 0.29 0.29 0.27 0.28 0.29 0.32 0.33 0.33 0.34 0.35 0.36 0.35 0.32 0.28 0.27
0.33 0.33 0.32 0.27 0.25 0.21 0.21 0.21 0.19 0.19 0.21 0.22 0.22 0.23 0.23 0.22 0.21 0.20 0.20 0.20 0.20 0.20 0.20 0.22 0.28 0.30 0.30 0.30 0.30 0.29 0.27 0.29 0.29 0.30 0.30 0.31 0.33 0.34 0.34 0.33 0.34 0.32 0.29
0.34 0.33 0.30 0.26 0.22 0.22 0.22 0.21 0.20 0.22 0.23 0.23 0.22 0.22 0.22 0.22 0.21 0.20 0.20 0.22 0.22 0.21 0.22 0.28 0.30 0.30 0.30 0.30 0.29 0.29 0.29 0.29 0.30 0.29 0.29 0.30 0.30 0.31 0.32 0.33 0.33 0.34 0.35
0.32 0.31 0.28 0.24 0.23 0.23 0.22 0.21 0.22 0.24 0.23 0.21 0.21 0.20 0.20 0.20 0.20 0.21 0.22 0.23 0.23 0.24 0.29 0.29 0.29 0.29 0.29 0.29 0.28 0.29 0.29 0.29 0.29 0.28 0.28 0.30 0.32 0.34 0.35 0.35 0.35 0.35 0.36
0.31 0.29 0.25 0.24 0.23 0.24 0.24 0.24 0.24 0.24 0.22 0.21 0.21 0.20 0.19 0.18 0.19 0.21 0.22 0.23 0.25 0.28 0.28 0.29 0.29 0.29 0.29 0.28 0.28 0.28 0.28 0.28 0.28 0.28 0.28 0.31 0.33 0.32 0.32 0.33 0.32 0.32 0.31
0.29 0.25 0.24 0.24 0.23 0.23 0.24 0.24 0.25 0.25 0.24 0.22 0.21 0.20 0.19 0.18 0.21 0.23 0.23 0.24 0.26 0.27 0.28 0.27 0.27 0.27 0.26 0.25 0.25 0.26 0.27 0.27 0.27 0.28 0.28 0.28 0.28 0.29 0.28 0.30 0.30 0.30 0.29
0.23 0.22 0.23 0.23 0.23 0.23 0.22 0.23 0.26 0.25 0.25 0.23 0.22 0.21 0.21 0.21 0.23 0.24 0.25 0.26 0.26 0.27 0.26 0.24 0.24 0.25 0.25 0.24 0.24 0.24 0.25 0.26 0.26 0.27 0.27 0.28 0.27 0.28 0.26 0.26 0.27 0.27 0.26
0.21 0.22 0.22 0.23 0.22 0.22 0.22 0.22 0.21 0.24 0.23 0.21 0.22 0.22 0.20 0.20 0.24 0.24 0.25 0.25 0.26 0.26 0.24 0.24 0.24 0.24 0.25 0.25 0.25 0.25 0.25 0.26 0.27 0.26 0.26 0.27 0.28 0.28 0.28 0.26 0.26 0.27 0.26
0.22 0.23 0.22 0.23 0.23 0.23 0.23 0.22 0.22 0.21 0.18 0.20 0.22 0.20 0.19 0.21 0.23 0.24 0.24 0.24 0.23 0.24 0.24 0.23 0.23 0.24 0.25 0.25 0.26 0.26 0.26 0.26 0.26 0.26 0.26 0.26 0.27 0.28 0.27 0.27 0.27 0.27 0.27
0.21 0.22 0.24 0.24 0.23 0.23 0.23 0.22 0.22 0.21 0.19 0.20 0.20 0.18 0.19 0.22 0.22 0.23 0.23 0.22 0.22 0.22 0.23 0.23 0.24 0.24 0.25 0.25 0.26 0.27 0.27 0.26 0.26 0.25 0.25 0.25 0.26 0.26 0.26 0.27 0.27 0.26 0.27
0.23 0.24 0.24 0.24 0.23 0.23 0.23 0.22 0.21 0.19 0.19 0.20 0.18 0.17 0.21 0.21 0.20 0.21 0.22 0.22 0.22 0.22 0.23 0.23 0.24 0.24 0.23 0.21 0.19 0.20 0.22 0.24 0.24 0.25 0.24 0.24 0.25 0.25 0.25 0.25 0.25 0.25 0.24
0.23 0.24 0.24 0.23 0.23 0.23 0.22 0.22 0.21 0.19 0.18 0.20 0.17 0.19 0.21 0.21 0.20 0.21 0.21 0.21 0.21 0.21 0.21 0.21 0.21 0.20 0.19 0.18 0.17 0.16 0.15 0.15 0.17 0.19 0.22 0.23 0.24 0.23 0.24 0.25 0.25 0.25 0.24
0.23 0.23 0.23 0.22 0.23 0.23 0.23 0.22 0.21 0.18 0.18 0.19 0.17 0.18 0.21 0.21 0.21 0.21 0.21 0.20 0.20 0.19 0.18 0.17 0.17 0.17 0.17 0.17 0.17 0.16 0.15 0.14 0.14 0.15 0.16 0.18 0.20 0.22 0.23 0.23 0.23 0.24 0.23
0.23 0.23 0.23 0.23 0.23 0.23 0.23 0.23 0.21 0.19 0.18 0.19 0.18 0.17 0.20 0.21 0.21 0.21 0.20 0.20 0.19 0.18 0.17 0.16 0.15 0.15 0.16 0.16 0.16 0.15 0.14 0.14 0.14 0.14 0.14 0.15 0.16 0.17 0.18 0.19 0.20 0.20 0.21
0.23 0.23 0.23 0.23 0.23 0.23 0.23 0.22 0.22 0.21 0.18 0.18 0.19 0.17 0.18 0.20 0.21 0.21 0.20 0.20 0.19 0.18 0.17 0.16 0.15 0.15 0.15 0.14 0.14 0.14 0.14 0.14 0.14 0.14 0.13 0.13 0.13 0.14 0.15 0.16 0.16 0.16 0.17
0.23 0.23 0.23 0.23 0.23 0.23 0.23 0.23 0.22 0.21 0.20 0.19 0.18 0.17 0.16 0.17 0.20 0.21 0.21 0.22 0.21 0.19 0.17 0.16 0.15 0.15 0.15 0.14 0.13 0.13 0.12 0.12 0.12 0.13 0.13 0.12 0.11 0.11 0.12 0.13 0.13 0.13 0.13
0.23 0.23 0.23 0.24 0.23 0.23 0.24 0.23 0.23 0.22 0.21 0.19 0.19 0.17 0.16 0.16 0.16 0.17 0.19 0.21 0.20 0.19 0.17 0.16 0.16 0.15 0.14 0.14 0.14 0.14 0.13 0.12 0.11 0.11 0.12 0.12 0.11 0.11 0.11 0.11 0.12 0.12 0.12

GFSGL_prec_pwat_012.txt.gz
Precipitable_Water
0.61 0.58 0.55 0.51 0.45 0.42 0.41 0.43 0.45 0.46 0.44 0.46 0.46 0.48 0.50 0.51 0.52 0.50 0.48 0.46 0.43 0.41 0.40 0.38 0.36 0.35 0.34 0.33 0.33 0.33 0.31 0.30 0.26 0.28 0.30 0.32 0.32 0.33 0.34 0.35 0.35 0.35 0.38
0.54 0.51 0.48 0.46 0.43 0.43 0.44 0.45 0.47 0.46 0.46 0.45 0.48 0.49 0.49 0.50 0.49 0.46 0.44 0.42 0.38 0.37 0.37 0.35 0.33 0.30 0.29 0.29 0.29 0.29 0.28 0.29 0.27 0.24 0.26 0.27 0.28 0.30 0.31 0.31 0.31 0.32 0.32
0.50 0.47 0.44 0.43 0.43 0.42 0.43 0.44 0.44 0.45 0.46 0.49 0.48 0.47 0.47 0.47 0.46 0.44 0.43 0.40 0.38 0.36 0.34 0.31 0.29 0.28 0.27 0.27 0.27 0.26 0.26 0.25 0.25 0.24 0.22 0.24 0.24 0.25 0.24 0.27 0.27 0.28 0.29
0.44 0.41 0.41 0.41 0.43 0.43 0.41 0.40 0.40 0.41 0.42 0.43 0.43 0.42 0.39 0.35 0.34 0.35 0.34 0.34 0.33 0.32 0.31 0.30 0.28 0.27 0.26 0.25 0.24 0.23 0.23 0.22 0.22 0.21 0.20 0.20 0.22 0.23 0.23 0.22 0.23 0.26 0.26
0.41 0.39 0.37 0.36 0.37 0.37 0.36 0.35 0.34 0.33 0.30 0.28 0.26 0.26 0.26 0.26 0.26 0.26 0.26 0.27 0.27 0.26 0.27 0.27 0.26 0.26 0.25 0.24 0.22 0.21 0.21 0.20 0.21 0.21 0.20 0.20 0.21 0.21 0.21 0.24 0.23 0.25 0.27
0.36 0.35 0.35 0.35 0.35 0.34 0.33 0.30 0.27 0.25 0.24 0.24 0.23 0.23 0.24 0.24 0.24 0.22 0.22 0.22 0.22 0.22 0.22 0.23 0.23 0.22 0.22 0.22 0.22 0.22 0.22 0.21 0.20 0.21 0.21 0.21 0.21 0.23 0.25 0.25 0.25 0.24 0.21
0.34 0.33 0.34 0.35 0.34 0.31 0.29 0.25 0.23 0.23 0.24 0.22 0.21 0.22 0.22 0.22 0.21 0.21 0.20 0.20 0.20 0.21 0.22 0.22 0.21 0.20 0.21 0.22 0.23 0.24 0.25 0.25 0.26 0.25 0.23 0.24 0.24 0.27 0.28 0.27 0.27 0.26 0.25
0.33 0.33 0.35 0.33 0.31 0.30 0.25 0.25 0.24 0.22 0.20 0.20 0.21 0.21 0.21 0.22 0.23 0.23 0.22 0.22 0.22 0.22 0.22 0.22 0.21 0.21 0.22 0.24 0.23 0.24 0.25 0.27 0.29 0.30 0.30 0.29 0.29 0.30 0.30 0.30 0.29 0.29 0.31
0.33 0.33 0.34 0.32 0.31 0.26 0.25 0.24 0.21 0.21 0.20 0.20 0.21 0.23 0.23 0.24 0.25 0.23 0.21 0.21 0.21 0.21 0.21 0.22 0.22 0.23 0.24 0.25 0.25 0.25 0.26 0.28 0.31 0.32 0.33 0.32 0.32 0.33 0.33 0.33 0.31 0.29 0.27
0.30 0.32 0.31 0.32 0.31 0.27 0.24 0.22 0.22 0.21 0.20 0.23 0.25 0.26 0.25 0.24 0.25 0.23 0.21 0.21 0.20 0.21 0.22 0.23 0.24 0.24 0.26 0.27 0.28 0.27 0.26 0.27 0.29 0.30 0.30 0.32 0.36 0.34 0.34 0.33 0.33 0.29 0.28
0.32 0.33 0.33 0.34 0.30 0.25 0.23 0.23 0.23 0.22 0.24 0.25 0.25 0.25 0.25 0.25 0.23 0.23 0.22 0.21 0.21 0.21 0.21 0.22 0.24 0.28 0.29 0.29 0.29 0.28 0.29 0.30 0.28 0.29 0.29 0.30 0.31 0.33 0.34 0.37 0.36 0.33 0.30
0.37 0.37 0.34 0.33 0.28 0.24 0.24 0.23 0.24 0.23 0.24 0.25 0.24 0.24 0.25 0.25 0.23 0.23 0.21 0.23 0.24 0.22 0.22 0.24 0.28 0.28 0.28 0.28 0.29 0.30 0.29 0.29 0.29 0.29 0.29 0.29 0.30 0.31 0.33 0.35 0.35 0.35 0.35
0.38 0.35 0.34 0.32 0.26 0.26 0.24 0.23 0.23 0.24 0.25 0.24 0.23 0.22 0.22 0.23 0.23 0.24 0.25 0.24 0.24 0.23 0.26 0.28 0.28 0.28 0.28 0.29 0.30 0.29 0.29 0.30 0.28 0.28 0.28 0.29 0.32 0.34 0.35 0.36 0.36 0.36 0.35
0.35 0.33 0.33 0.26 0.25 0.25 0.25 0.25 0.24 0.24 0.24 0.23 0.22 0.21 0.21 0.22 0.22 0.23 0.24 0.24 0.25 0.27 0.27 0.29 0.28 0.28 0.29 0.30 0.29 0.29 0.29 0.29 0.27 0.27 0.28 0.29 0.31 0.31 0.31 0.32 0.31 0.33 0.32
0.31 0.31 0.26 0.24 0.24 0.23 0.24 0.24 0.24 0.26 0.24 0.22 0.21 0.21 0.22 0.20 0.20 0.23 0.24 0.24 0.25 0.26 0.26 0.27 0.26 0.26 0.27 0.27 0.27 0.27 0.27 0.27 0.27 0.28 0.28 0.28 0.28 0.29 0.28 0.29 0.28 0.29 0.28
0.28 0.23 0.23 0.23 0.24 0.24 0.23 0.23 0.26 0.25 0.24 0.22 0.22 0.23 0.22 0.20 0.22 0.24 0.25 0.25 0.26 0.26 0.25 0.24 0.24 0.25 0.25 0.26 0.25 0.26 0.26 0.26 0.26 0.27 0.28 0.28 0.27 0.28 0.27 0.28 0.28 0.28 0.27
0.23 0.22 0.23 0.23 0.24 0.24 0.23 0.23 0.22 0.24 0.24 0.23 0.24 0.22 0.20 0.21 0.23 0.24 0.24 0.25 0.25 0.25 0.23 0.23 0.23 0.24 0.25 0.26 0.26 0.26 0.26 0.26 0.27 0.27 0.27 0.27 0.27 0.28 0.28 0.27 0.28 0.28 0.27
0.21 0.21 0.23 0.24 0.24 0.24 0.24 0.23 0.23 0.21 0.20 0.21 0.24 0.20 0.21 0.23 0.23 0.23 0.24 0.25 0.23 0.24 0.23 0.23 0.23 0.24 0.25 0.25 0.26 0.26 0.27 0.27 0.26 0.26 0.26 0.26 0.27 0.27 0.26 0.26 0.27 0.27 0.28
0.21 0.23 0.24 0.25 0.24 0.24 0.24 0.24 0.23 0.22 0.20 0.20 0.21 0.20 0.23 0.23 0.23 0.23 0.23 0.23 0.22 0.22 0.23 0.23 0.24 0.24 0.22 0.21 0.21 0.22 0.25 0.26 0.26 0.26 0.25 0.25 0.26 0.26 0.25 0.26 0.26 0.27 0.27
0.22 0.23 0.23 0.24 0.23 0.23 0.24 0.23 0.22 0.21 0.19 0.19 0.19 0.18 0.21 0.22 0.21 0.21 0.22 0.22 0.22 0.22 0.22 0.22 0.22 0.21 0.20 0.19 0.18 0.18 0.17 0.18 0.20 0.23 0.25 0.25 0.25 0.26 0.25 0.25 0.25 0.25 0.24
0.23 0.23 0.23 0.23 0.23 0.23 0.23 0.23 0.23 0.21 0.19 0.19 0.19 0.19 0.20 0.21 0.21 0.21 0.21 0.20 0.20 0.19 0.19 0.19 0.19 0.19 0.18 0.19 0.18 0.18 0.17 0.16 0.16 0.16 0.18 0.22 0.24 0.23 0.25 0.25 0.25 0.25 0.24
0.23 0.23 0.23 0.23 0.23 0.23 0.23 0.24 0.23 0.22 0.20 0.19 0.19 0.18 0.19 0.21 0.21 0.21 0.21 0.20 0.19 0.19 0.18 0.18 0.17 0.17 0.17 0.17 0.17 0.16 0.16 0.15 0.15 0.15 0.16 0.17 0.18 0.20 0.22 0.23 0.23 0.24 0.24
0.22 0.23 0.23 0.23 0.23 0.23 0.23 0.24 0.23 0.23 0.21 0.20 0.20 0.18 0.17 0.19 0.21 0.21 0.21 0.21 0.20 0.19 0.17 0.17 0.17 0.16 0.16 0.17 0.17 0.16 0.15 0.14 0.14 0.15 0.14 0.15 0.16 0.16 0.18 0.18 0.18 0.19 0.19
0.22 0.23 0.23 0.23 0.23 0.23 0.23 0.23 0.24 0.23 0.22 0.20 0.20 0.19 0.17 0.17 0.19 0.21 0.22 0.22 0.22 0.20 0.19 0.17 0.16 0.16 0.16 0.16 0.15 0.15 0.14 0.14 0.14 0.14 0.14 0.13 0.13 0.14 0.15 0.15 0.15 0.15 0.16
0.22 0.23 0.23 0.23 0.23 0.23 0.23 0.24 0.23 0.23 0.22 0.21 0.20 0.20 0.18 0.17 0.17 0.18 0.20 0.22 0.22 0.21 0.19 0.18 0.17 0.16 0.16 0.15 0.15 0.14 0.14 0.13 0.12 0.12 0.14 0.14 0.13 0.13 0.13 0.14 0.14 0.14 0.14
0.23 0.23 0.23 0.24 0.24 0.23 0.23 0.23 0.23 0.23 0.22 0.22 0.21 0.20 0.19 0.18 0.17 0.17 0.18 0.19 0.19 0.19 0.18 0.18 0.18 0.17 0.16 0.16 0.15 0.15 0.14 0.14 0.13 0.12 0.14 0.13 0.12 0.12 0.13 0.12 0.12 0.13 0.13

GFSGL_prec_pwat_015.txt.gz
Precipitable_Water
0.62 0.60 0.56 0.53 0.49 0.46 0.43 0.43 0.43 0.43 0.41 0.44 0.44 0.47 0.48 0.47 0.48 0.48 0.49 0.49 0.48 0.46 0.44 0.41 0.40 0.40 0.37 0.35 0.35 0.36 0.37 0.35 0.29 0.31 0.33 0.35 0.36 0.37 0.39 0.41 0.42 0.43 0.44
0.56 0.51 0.46 0.45 0.45 0.44 0.43 0.43 0.43 0.40 0.44 0.46 0.48 0.47 0.47 0.47 0.48 0.48 0.46 0.44 0.43 0.42 0.42 0.41 0.39 0.37 0.34 0.34 0.33 0.32 0.31 0.31 0.30 0.27 0.30 0.31 0.31 0.33 0.34 0.35 0.37 0.38 0.39
0.47 0.41 0.40 0.42 0.43 0.39 0.41 0.39 0.38 0.38 0.38 0.39 0.41 0.43 0.43 0.40 0.36 0.32 0.32 0.34 0.34 0.36 0.35 0.34 0.33 0.33 0.31 0.31 0.31 0.30 0.29 0.29 0.28 0.26 0.24 0.26 0.27 0.28 0.28 0.30 0.31 0.33 0.34
0.41 0.40 0.39 0.39 0.38 0.37 0.39 0.38 0.36 0.35 0.33 0.30 0.29 0.28 0.28 0.27 0.27 0.28 0.28 0.25 0.25 0.26 0.28 0.29 0.29 0.28 0.28 0.28 0.28 0.27 0.27 0.25 0.24 0.23 0.22 0.23 0.24 0.25 0.26 0.25 0.25 0.28 0.28
0.38 0.37 0.36 0.37 0.36 0.38 0.37 0.34 0.33 0.30 0.28 0.27 0.26 0.26 0.26 0.25 0.25 0.24 0.23 0.20 0.20 0.21 0.22 0.23 0.24 0.26 0.27 0.26 0.24 0.23 0.23 0.23 0.22 0.22 0.21 0.22 0.23 0.24 0.24 0.26 0.26 0.27 0.29
0.37 0.36 0.36 0.35 0.36 0.36 0.34 0.32 0.27 0.27 0.26 0.26 0.25 0.24 0.25 0.24 0.25 0.23 0.22 0.21 0.20 0.21 0.21 0.22 0.23 0.24 0.25 0.25 0.24 0.23 0.22 0.21 0.20 0.20 0.20 0.20 0.21 0.22 0.24 0.25 0.26 0.26 0.24
0.37 0.35 0.35 0.37 0.36 0.34 0.32 0.27 0.27 0.27 0.26 0.24 0.24 0.24 0.23 0.24 0.26 0.25 0.25 0.24 0.22 0.22 0.23 0.24 0.24 0.24 0.24 0.23 0.25 0.27 0.26 0.25 0.25 0.23 0.21 0.21 0.22 0.24 0.26 0.26 0.27 0.27 0.27
0.38 0.38 0.39 0.35 0.35 0.32 0.31 0.27 0.28 0.26 0.25 0.24 0.24 0.24 0.25 0.26 0.28 0.26 0.24 0.23 0.23 0.23 0.24 0.24 0.23 0.22 0.23 0.24 0.24 0.23 0.24 0.25 0.27 0.29 0.28 0.27 0.28 0.30 0.29 0.29 0.29 0.29 0.30
0.36 0.32 0.34 0.36 0.35 0.32 0.30 0.29 0.27 0.25 0.25 0.23 0.24 0.26 0.25 0.26 0.27 0.27 0.25 0.23 0.23 0.22 0.23 0.24 0.24 0.23 0.24 0.25 0.24 0.23 0.23 0.25 0.30 0.32 0.32 0.31 0.31 0.31 0.32 0.30 0.29 0.29 0.27
0.37 0.32 0.31 0.34 0.34 0.33 0.30 0.29 0.26 0.25 0.24 0.25 0.26 0.26 0.26 0.26 0.29 0.26 0.25 0.23 0.21 0.22 0.22 0.23 0.24 0.25 0.26 0.26 0.26 0.25 0.24 0.26 0.27 0.29 0.31 0.31 0.33 0.34 0.33 0.33 0.31 0.27 0.27
0.38 0.36 0.35 0.42 0.39 0.34 0.31 0.28 0.25 0.25 0.25 0.28 0.27 0.27 0.27 0.29 0.27 0.27 0.26 0.24 0.23 0.24 0.23 0.23 0.25 0.27 0.26 0.27 0.27 0.27 0.27 0.29 0.29 0.29 0.29 0.30 0.31 0.31 0.32 0.35 0.35 0.33 0.29
0.39 0.37 0.40 0.43 0.37 0.34 0.30 0.26 0.26 0.24 0.25 0.25 0.26 0.25 0.26 0.27 0.27 0.27 0.26 0.24 0.25 0.23 0.23 0.24 0.27 0.27 0.27 0.27 0.28 0.29 0.29 0.29 0.29 0.29 0.29 0.30 0.31 0.31 0.33 0.34 0.36 0.38 0.38
0.37 0.38 0.41 0.36 0.36 0.31 0.27 0.25 0.23 0.24 0.24 0.24 0.23 0.22 0.23 0.25 0.26 0.25 0.23 0.24 0.25 0.24 0.27 0.27 0.28 0.28 0.28 0.28 0.29 0.28 0.29 0.30 0.29 0.28 0.27 0.29 0.31 0.33 0.33 0.33 0.35 0.37 0.37
0.35 0.35 0.35 0.33 0.30 0.25 0.25 0.24 0.24 0.24 0.23 0.22 0.21 0.20 0.22 0.23 0.22 0.22 0.23 0.25 0.25 0.26 0.26 0.27 0.28 0.28 0.28 0.29 0.30 0.30 0.30 0.29 0.28 0.27 0.28 0.30 0.32 0.31 0.30 0.32 0.30 0.30 0.30
0.33 0.32 0.30 0.26 0.25 0.25 0.24 0.25 0.24 0.25 0.25 0.22 0.20 0.21 0.21 0.19 0.21 0.23 0.24 0.24 0.25 0.25 0.26 0.27 0.26 0.25 0.25 0.27 0.28 0.28 0.28 0.28 0.27 0.28 0.28 0.29 0.29 0.29 0.30 0.31 0.28 0.28 0.27
0.30 0.28 0.25 0.24 0.24 0.24 0.24 0.23 0.26 0.26 0.25 0.23 0.22 0.22 0.21 0.22 0.23 0.24 0.24 0.25 0.26 0.26 0.25 0.24 0.23 0.24 0.24 0.25 0.26 0.26 0.27 0.26 0.26 0.27 0.28 0.28 0.28 0.28 0.28 0.30 0.29 0.27 0.26
0.26 0.22 0.21 0.23 0.24 0.23 0.23 0.23 0.22 0.25 0.26 0.24 0.23 0.22 0.21 0.23 0.23 0.23 0.24 0.25 0.26 0.25 0.24 0.23 0.23 0.24 0.24 0.25 0.26 0.26 0.26 0.27 0.28 0.27 0.27 0.27 0.27 0.28 0.28 0.27 0.28 0.28 0.27
0.23 0.21 0.24 0.25 0.24 0.24 0.23 0.23 0.24 0.22 0.21 0.21 0.24 0.21 0.21 0.23 0.23 0.23 0.23 0.25 0.24 0.24 0.24 0.23 0.23 0.24 0.23 0.22 0.23 0.25 0.27 0.28 0.27 0.27 0.27 0.27 0.27 0.27 0.27 0.26 0.27 0.26 0.26
0.20 0.22 0.24 0.25 0.24 0.24 0.24 0.24 0.24 0.23 0.22 0.21 0.21 0.21 0.20 0.22 0.24 0.24 0.23 0.23 0.22 0.23 0.23 0.23 0.24 0.23 0.21 0.20 0.20 0.20 0.21 0.23 0.25 0.26 0.26 0.26 0.26 0.26 0.26 0.26 0.26 0.26 0.26
0.22 0.22 0.23 0.24 0.24 0.24 0.24 0.23 0.23 0.23 0.22 0.20 0.20 0.20 0.18 0.20 0.21 0.21 0.22 0.22 0.21 0.21 0.21 0.22 0.22 0.21 0.20 0.20 0.20 0.20 0.20 0.19 0.18 0.20 0.24 0.25 0.26 0.26 0.25 0.25 0.25 0.25 0.25
0.22 0.23 0.24 0.23 0.24 0.23 0.23 0.23 0.23 0.23 0.22 0.21 0.20 0.22 0.18 0.18 0.20 0.21 0.21 0.21 0.20 0.19 0.19 0.19 0.19 0.20 0.19 0.19 0.18 0.18 0.18 0.18 0.17 0.16 0.17 0.19 0.23 0.24 0.25 0.25 0.25 0.25 0.25
0.21 0.23 0.24 0.24 0.24 0.24 0.24 0.23 0.23 0.23 0.23 0.22 0.21 0.21 0.20 0.20 0.19 0.20 0.21 0.21 0.21 0.20 0.18 0.18 0.18 0.18 0.18 0.18 0.18 0.17 0.16 0.15 0.15 0.15 0.15 0.16 0.18 0.18 0.20 0.21 0.21 0.22 0.22
0.22 0.22 0.23 0.24 0.25 0.24 0.24 0.24 0.24 0.24 0.23 0.22 0.22 0.20 0.20 0.19 0.19 0.19 0.20 0.22 0.22 0.21 0.20 0.18 0.18 0.17 0.17 0.17 0.17 0.16 0.15 0.14 0.14 0.14 0.14 0.15 0.15 0.15 0.17 0.16 0.17 0.16 0.17
0.22 0.22 0.23 0.23 0.24 0.24 0.24 0.24 0.24 0.24 0.23 0.22 0.22 0.22 0.21 0.20 0.19 0.19 0.19 0.21 0.22 0.22 0.21 0.20 0.18 0.17 0.17 0.16 0.16 0.16 0.15 0.14 0.14 0.13 0.15 0.15 0.14 0.14 0.15 0.15 0.16 0.16 0.15
0.24 0.23 0.23 0.23 0.24 0.24 0.24 0.24 0.23 0.23 0.23 0.23 0.22 0.22 0.22 0.21 0.20 0.19 0.19 0.19 0.20 0.21 0.21 0.20 0.20 0.18 0.17 0.17 0.16 0.15 0.15 0.14 0.14 0.14 0.15 0.16 0.14 0.14 0.14 0.14 0.13 0.16 0.14
0.24 0.23 0.24 0.24 0.24 0.24 0.24 0.23 0.23 0.23 0.23 0.23 0.23 0.22 0.22 0.21 0.20 0.20 0.19 0.19 0.19 0.19 0.19 0.18 0.18 0.18 0.18 0.19 0.17 0.16 0.16 0.15 0.14 0.14 0.15 0.15 0.14 0.13 0.12 0.14 0.13 0.14 0.14

GFSGL_prec_pwat_018.txt.gz
Precipitable_Water
0.57 0.56 0.52 0.47 0.43 0.42 0.45 0.44 0.41 0.36 0.34 0.35 0.40 0.43 0.43 0.44 0.44 0.42 0.43 0.43 0.41 0.41 0.43 0.45 0.45 0.45 0.43 0.42 0.40 0.39 0.38 0.39 0.34 0.36 0.37 0.38 0.37 0.39 0.43 0.46 0.50 0.47 0.45
0.55 0.49 0.42 0.39 0.41 0.43 0.42 0.41 0.35 0.34 0.36 0.37 0.37 0.36 0.39 0.39 0.40 0.40 0.35 0.34 0.34 0.34 0.33 0.34 0.35 0.36 0.35 0.36 0.34 0.34 0.34 0.34 0.31 0.28 0.31 0.32 0.32 0.33 0.34 0.35 0.37 0.40 0.41
0.49 0.40 0.39 0.39 0.40 0.40 0.38 0.35 0.37 0.36 0.34 0.33 0.32 0.29 0.28 0.28 0.27 0.26 0.25 0.27 0.25 0.24 0.21 0.23 0.25 0.27 0.27 0.28 0.28 0.28 0.30 0.30 0.30 0.28 0.26 0.28 0.28 0.28 0.27 0.28 0.28 0.30 0.33
0.42 0.39 0.36 0.38 0.38 0.37 0.36 0.35 0.37 0.36 0.32 0.29 0.28 0.28 0.27 0.26 0.25 0.26 0.26 0.26 0.24 0.22 0.19 0.20 0.21 0.23 0.23 0.25 0.27 0.27 0.27 0.27 0.26 0.24 0.23 0.23 0.23 0.24 0.25 0.24 0.24 0.26 0.25
0.43 0.40 0.39 0.39 0.41 0.40 0.39 0.36 0.35 0.33 0.28 0.29 0.28 0.27 0.26 0.26 0.26 0.25 0.24 0.24 0.23 0.22 0.22 0.22 0.23 0.24 0.25 0.26 0.25 0.24 0.23 0.21 0.21 0.20 0.20 0.21 0.23 0.24 0.25 0.28 0.29 0.31 0.32
0.47 0.44 0.44 0.41 0.42 0.42 0.37 0.34 0.34 0.29 0.29 0.29 0.27 0.26 0.26 0.26 0.27 0.25 0.26 0.25 0.25 0.23 0.21 0.21 0.24 0.25 0.26 0.27 0.27 0.26 0.24 0.20 0.20 0.20 0.20 0.19 0.19 0.22 0.24 0.25 0.26 0.26 0.24
0.42 0.42 0.43 0.46 0.42 0.41 0.35 0.31 0.32 0.29 0.30 0.29 0.26 0.26 0.25 0.27 0.28 0.28 0.28 0.27 0.25 0.24 0.23 0.24 0.24 0.25 0.26 0.27 0.28 0.28 0.28 0.29 0.27 0.24 0.21 0.20 0.20 0.22 0.23 0.22 0.22 0.23 0.24
0.34 0.35 0.42 0.41 0.44 0.41 0.37 0.32 0.33 0.30 0.30 0.27 0.26 0.26 0.26 0.26 0.27 0.28 0.27 0.26 0.24 0.23 0.23 0.22 0.22 0.23 0.25 0.25 0.24 0.24 0.24 0.24 0.25 0.25 0.27 0.27 0.28 0.28 0.28 0.29 0.29 0.29 0.29
0.31 0.35 0.39 0.40 0.41 0.40 0.37 0.36 0.33 0.30 0.29 0.27 0.28 0.28 0.27 0.27 0.27 0.29 0.30 0.27 0.25 0.24 0.23 0.25 0.25 0.23 0.23 0.25 0.25 0.24 0.23 0.23 0.26 0.27 0.30 0.31 0.31 0.32 0.32 0.31 0.27 0.26 0.23
0.34 0.39 0.40 0.45 0.45 0.42 0.40 0.38 0.32 0.32 0.29 0.28 0.27 0.28 0.28 0.26 0.28 0.29 0.30 0.28 0.25 0.24 0.24 0.25 0.25 0.25 0.27 0.27 0.26 0.24 0.22 0.23 0.24 0.25 0.26 0.27 0.28 0.29 0.31 0.32 0.32 0.27 0.26
0.32 0.34 0.34 0.37 0.40 0.39 0.39 0.34 0.32 0.27 0.27 0.27 0.25 0.26 0.25 0.25 0.28 0.30 0.29 0.27 0.24 0.22 0.22 0.23 0.24 0.27 0.27 0.27 0.26 0.25 0.24 0.27 0.27 0.27 0.27 0.28 0.30 0.31 0.32 0.33 0.33 0.32 0.29
0.31 0.32 0.34 0.39 0.44 0.38 0.35 0.33 0.27 0.25 0.25 0.24 0.24 0.23 0.24 0.26 0.27 0.26 0.27 0.25 0.24 0.24 0.23 0.25 0.27 0.26 0.27 0.27 0.27 0.28 0.28 0.28 0.27 0.28 0.28 0.28 0.30 0.32 0.34 0.35 0.36 0.37 0.37
0.30 0.32 0.34 0.36 0.36 0.37 0.32 0.26 0.23 0.24 0.24 0.23 0.22 0.21 0.20 0.23 0.22 0.25 0.23 0.23 0.25 0.25 0.26 0.26 0.27 0.28 0.27 0.28 0.28 0.29 0.29 0.28 0.28 0.27 0.27 0.28 0.30 0.31 0.33 0.32 0.34 0.35 0.35
0.31 0.32 0.33 0.31 0.31 0.27 0.25 0.24 0.23 0.23 0.23 0.22 0.21 0.19 0.19 0.20 0.21 0.23 0.23 0.24 0.25 0.26 0.26 0.26 0.27 0.27 0.27 0.27 0.28 0.29 0.29 0.29 0.28 0.27 0.27 0.29 0.31 0.31 0.30 0.31 0.30 0.29 0.28
0.32 0.31 0.30 0.27 0.25 0.24 0.23 0.23 0.24 0.25 0.24 0.22 0.21 0.20 0.19 0.18 0.21 0.23 0.23 0.24 0.25 0.26 0.26 0.26 0.25 0.24 0.24 0.25 0.26 0.27 0.28 0.27 0.26 0.27 0.27 0.28 0.28 0.29 0.28 0.30 0.30 0.28 0.26
0.30 0.27 0.23 0.21 0.22 0.22 0.23 0.23 0.25 0.25 0.26 0.25 0.24 0.22 0.21 0.21 0.23 0.23 0.23 0.25 0.26 0.26 0.25 0.23 0.23 0.23 0.23 0.24 0.24 0.25 0.26 0.26 0.26 0.27 0.27 0.27 0.27 0.27 0.27 0.29 0.31 0.28 0.27
0.28 0.23 0.20 0.22 0.23 0.23 0.22 0.22 0.21 0.24 0.26 0.26 0.25 0.23 0.22 0.20 0.22 0.23 0.23 0.24 0.27 0.26 0.23 0.23 0.23 0.23 0.23 0.23 0.24 0.25 0.25 0.27 0.27 0.27 0.27 0.27 0.27 0.27 0.28 0.26 0.27 0.27 0.27
0.26 0.22 0.23 0.24 0.24 0.23 0.22 0.22 0.23 0.22 0.21 0.22 0.25 0.24 0.22 0.20 0.21 0.23 0.24 0.23 0.22 0.24 0.23 0.23 0.23 0.23 0.21 0.20 0.20 0.21 0.24 0.27 0.26 0.26 0.26 0.26 0.27 0.27 0.26 0.26 0.26 0.26 0.26
0.25 0.22 0.21 0.22 0.24 0.23 0.23 0.23 0.23 0.23 0.22 0.22 0.23 0.23 0.22 0.19 0.20 0.22 0.23 0.21 0.21 0.20 0.21 0.22 0.23 0.22 0.20 0.20 0.20 0.20 0.20 0.19 0.20 0.24 0.25 0.26 0.26 0.26 0.25 0.26 0.26 0.26 0.26
0.24 0.23 0.22 0.22 0.23 0.24 0.23 0.22 0.22 0.22 0.22 0.22 0.21 0.22 0.21 0.18 0.18 0.19 0.20 0.21 0.20 0.19 0.19 0.19 0.20 0.21 0.20 0.20 0.19 0.19 0.18 0.18 0.18 0.18 0.19 0.24 0.25 0.25 0.25 0.25 0.25 0.25 0.24
0.24 0.23 0.23 0.23 0.22 0.24 0.23 0.23 0.23 0.23 0.22 0.22 0.22 0.23 0.21 0.18 0.18 0.18 0.19 0.19 0.20 0.19 0.18 0.17 0.18 0.18 0.18 0.18 0.18 0.17 0.17 0.16 0.15 0.15 0.16 0.17 0.18 0.20 0.23 0.24 0.23 0.24 0.24
0.23 0.21 0.22 0.23 0.24 0.23 0.23 0.23 0.23 0.24 0.23 0.22 0.22 0.22 0.22 0.21 0.20 0.18 0.19 0.19 0.20 0.21 0.20 0.18 0.18 0.17 0.17 0.17 0.17 0.16 0.15 0.13 0.12 0.13 0.14 0.15 0.16 0.16 0.18 0.18 0.18 0.18 0.19
0.23 0.22 0.22 0.22 0.23 0.24 0.24 0.24 0.24 0.24 0.23 0.23 0.22 0.22 0.22 0.21 0.20 0.19 0.19 0.19 0.20 0.21 0.22 0.20 0.19 0.18 0.17 0.17 0.17 0.16 0.15 0.14 0.13 0.13 0.14 0.14 0.15 0.14 0.15 0.15 0.16 0.16 0.15
0.23 0.23 0.22 0.23 0.23 0.24 0.24 0.23 0.24 0.23 0.23 0.23 0.22 0.22 0.22 0.22 0.20 0.20 0.20 0.20 0.20 0.20 0.21 0.21 0.20 0.19 0.18 0.18 0.17 0.16 0.16 0.15 0.14 0.14 0.15 0.16 0.15 0.14 0.14 0.14 0.14 0.16 0.14
0.25 0.24 0.23 0.23 0.23 0.24 0.24 0.24 0.24 0.23 0.23 0.24 0.23 0.23 0.22 0.22 0.21 0.20 0.20 0.20 0.20 0.19 0.19 0.19 0.18 0.18 0.18 0.19 0.19 0.17 0.16 0.16 0.15 0.15 0.15 0.16 0.14 0.14 0.13 0.14 0.13 0.14 0.14
0.26 0.25 0.24 0.23 0.23 0.23 0.24 0.24 0.23 0.23 0.23 0.23 0.23 0.23 0.22 0.22 0.21 0.20 0.20 0.20 0.20 0.20 0.19 0.20 0.19 0.19 0.18 0.19 0.18 0.17 0.16 0.16 0.15 0.16 0.17 0.16 0.14 0.14 0.12 0.13 0.13 0.13 0.13

GFSGL_prec_pwat_021.txt.gz
Precipitable_Water
0.57 0.56 0.51 0.43 0.37 0.39 0.38 0.38 0.38 0.37 0.31 0.33 0.33 0.31 0.31 0.32 0.32 0.33 0.32 0.31 0.30 0.33 0.34 0.31 0.29 0.31 0.36 0.39 0.40 0.38 0.37 0.37 0.32 0.33 0.36 0.36 0.34 0.37 0.40 0.44 0.46 0.51 0.54
0.52 0.48 0.41 0.41 0.41 0.42 0.39 0.37 0.38 0.36 0.33 0.31 0.29 0.28 0.28 0.28 0.28 0.28 0.27 0.26 0.24 0.26 0.26 0.26 0.24 0.21 0.21 0.24 0.27 0.28 0.28 0.29 0.28 0.27 0.31 0.31 0.31 0.32 0.34 0.34 0.35 0.39 0.44
0.43 0.41 0.42 0.43 0.45 0.43 0.41 0.41 0.42 0.41 0.33 0.29 0.26 0.25 0.27 0.27 0.26 0.26 0.26 0.25 0.25 0.26 0.25 0.24 0.22 0.19 0.18 0.20 0.23 0.23 0.24 0.25 0.26 0.25 0.25 0.28 0.28 0.28 0.28 0.29 0.30 0.30 0.33
0.40 0.42 0.42 0.44 0.46 0.44 0.45 0.44 0.47 0.43 0.34 0.30 0.27 0.26 0.28 0.25 0.25 0.24 0.24 0.25 0.25 0.24 0.25 0.24 0.23 0.22 0.21 0.23 0.24 0.24 0.23 0.22 0.23 0.22 0.22 0.22 0.24 0.24 0.24 0.23 0.22 0.26 0.28
0.39 0.40 0.40 0.42 0.45 0.44 0.46 0.48 0.45 0.41 0.35 0.30 0.28 0.28 0.28 0.26 0.24 0.24 0.25 0.26 0.25 0.24 0.24 0.24 0.23 0.24 0.26 0.26 0.27 0.27 0.26 0.24 0.22 0.20 0.19 0.19 0.20 0.19 0.19 0.23 0.24 0.26 0.27
0.34 0.34 0.37 0.41 0.45 0.46 0.46 0.48 0.49 0.41 0.35 0.31 0.29 0.28 0.27 0.25 0.27 0.28 0.28 0.26 0.24 0.23 0.22 0.21 0.23 0.24 0.25 0.26 0.28 0.29 0.29 0.27 0.25 0.22 0.21 0.19 0.20 0.20 0.20 0.20 0.22 0.23 0.22
0.32 0.33 0.34 0.36 0.38 0.41 0.44 0.48 0.44 0.38 0.33 0.30 0.30 0.31 0.26 0.27 0.30 0.29 0.27 0.26 0.26 0.25 0.24 0.23 0.21 0.22 0.24 0.24 0.25 0.26 0.27 0.27 0.27 0.26 0.23 0.22 0.21 0.21 0.23 0.22 0.22 0.22 0.21
0.29 0.28 0.30 0.32 0.34 0.36 0.37 0.44 0.43 0.38 0.34 0.30 0.32 0.30 0.28 0.30 0.28 0.26 0.28 0.29 0.28 0.28 0.27 0.25 0.23 0.23 0.25 0.25 0.24 0.24 0.24 0.25 0.26 0.25 0.25 0.23 0.25 0.26 0.27 0.26 0.26 0.27 0.29
0.27 0.29 0.31 0.33 0.32 0.33 0.34 0.37 0.42 0.34 0.33 0.33 0.29 0.28 0.27 0.24 0.25 0.26 0.27 0.27 0.27 0.26 0.25 0.23 0.23 0.24 0.25 0.28 0.26 0.24 0.23 0.24 0.28 0.28 0.28 0.28 0.28 0.29 0.30 0.30 0.25 0.24 0.22
0.29 0.31 0.34 0.33 0.34 0.35 0.37 0.33 0.33 0.34 0.31 0.27 0.26 0.27 0.25 0.24 0.25 0.25 0.28 0.27 0.24 0.23 0.24 0.24 0.25 0.25 0.27 0.27 0.25 0.23 0.21 0.21 0.23 0.23 0.24 0.24 0.25 0.25 0.27 0.27 0.27 0.24 0.25
0.32 0.32 0.31 0.34 0.35 0.38 0.40 0.39 0.34 0.29 0.26 0.26 0.25 0.24 0.23 0.23 0.22 0.24 0.25 0.24 0.23 0.23 0.23 0.24 0.25 0.26 0.26 0.27 0.27 0.25 0.24 0.25 0.25 0.25 0.25 0.26 0.28 0.29 0.31 0.32 0.33 0.31 0.28
0.31 0.29 0.30 0.32 0.34 0.36 0.36 0.32 0.27 0.25 0.24 0.23 0.22 0.22 0.22 0.20 0.20 0.22 0.23 0.23 0.24 0.24 0.24 0.25 0.26 0.27 0.27 0.27 0.27 0.28 0.28 0.28 0.27 0.26 0.26 0.26 0.28 0.30 0.32 0.34 0.36 0.36 0.36
0.28 0.29 0.30 0.31 0.32 0.31 0.26 0.24 0.23 0.24 0.23 0.21 0.21 0.20 0.19 0.20 0.19 0.21 0.23 0.24 0.24 0.25 0.26 0.26 0.27 0.27 0.26 0.27 0.27 0.27 0.28 0.28 0.26 0.26 0.26 0.27 0.29 0.32 0.34 0.34 0.34 0.34 0.35
0.28 0.29 0.30 0.29 0.28 0.26 0.25 0.24 0.22 0.21 0.21 0.21 0.20 0.19 0.19 0.19 0.18 0.22 0.23 0.24 0.25 0.26 0.26 0.26 0.26 0.26 0.26 0.26 0.26 0.26 0.27 0.27 0.26 0.26 0.26 0.28 0.30 0.30 0.29 0.31 0.30 0.30 0.27
0.29 0.30 0.27 0.24 0.22 0.21 0.22 0.22 0.22 0.23 0.23 0.22 0.21 0.21 0.19 0.17 0.18 0.22 0.23 0.23 0.25 0.26 0.26 0.25 0.24 0.24 0.23 0.24 0.25 0.25 0.26 0.26 0.25 0.26 0.26 0.26 0.27 0.28 0.28 0.30 0.30 0.29 0.26
0.29 0.28 0.25 0.20 0.21 0.23 0.22 0.21 0.24 0.24 0.25 0.25 0.24 0.23 0.22 0.21 0.21 0.21 0.22 0.23 0.25 0.25 0.24 0.23 0.22 0.23 0.22 0.22 0.23 0.24 0.25 0.25 0.25 0.26 0.26 0.26 0.26 0.26 0.27 0.27 0.28 0.27 0.26
0.29 0.28 0.23 0.21 0.23 0.22 0.21 0.20 0.18 0.22 0.25 0.24 0.25 0.25 0.23 0.21 0.21 0.21 0.21 0.22 0.22 0.23 0.22 0.22 0.22 0.22 0.21 0.21 0.20 0.21 0.22 0.26 0.26 0.26 0.26 0.26 0.26 0.27 0.26 0.26 0.26 0.26 0.26
0.30 0.27 0.23 0.21 0.21 0.22 0.21 0.21 0.21 0.21 0.20 0.21 0.24 0.25 0.23 0.22 0.20 0.20 0.21 0.20 0.19 0.19 0.19 0.20 0.22 0.22 0.20 0.19 0.19 0.19 0.19 0.20 0.22 0.25 0.25 0.25 0.26 0.26 0.25 0.25 0.25 0.25 0.25
0.30 0.27 0.23 0.22 0.21 0.22 0.22 0.23 0.22 0.21 0.21 0.21 0.22 0.24 0.23 0.22 0.20 0.19 0.20 0.18 0.17 0.17 0.17 0.17 0.19 0.20 0.20 0.19 0.19 0.18 0.19 0.18 0.17 0.18 0.22 0.25 0.25 0.25 0.24 0.25 0.25 0.25 0.25
0.29 0.26 0.24 0.22 0.21 0.21 0.22 0.22 0.21 0.22 0.22 0.21 0.21 0.21 0.22 0.20 0.18 0.18 0.18 0.18 0.18 0.17 0.17 0.16 0.17 0.18 0.18 0.18 0.18 0.17 0.16 0.14 0.14 0.16 0.17 0.19 0.22 0.24 0.23 0.24 0.24 0.24 0.23
0.28 0.24 0.23 0.23 0.21 0.22 0.22 0.21 0.22 0.21 0.21 0.22 0.21 0.23 0.22 0.19 0.19 0.19 0.18 0.17 0.17 0.18 0.18 0.17 0.16 0.16 0.16 0.16 0.17 0.16 0.15 0.13 0.12 0.13 0.14 0.15 0.16 0.17 0.18 0.20 0.21 0.21 0.21
0.25 0.22 0.22 0.21 0.22 0.22 0.23 0.24 0.22 0.21 0.22 0.22 0.23 0.22 0.22 0.21 0.20 0.20 0.19 0.18 0.18 0.19 0.20 0.19 0.18 0.17 0.17 0.16 0.16 0.15 0.15 0.13 0.12 0.12 0.14 0.14 0.14 0.15 0.15 0.15 0.16 0.16 0.15
0.23 0.21 0.21 0.22 0.22 0.22 0.22 0.23 0.23 0.22 0.23 0.22 0.22 0.22 0.22 0.21 0.20 0.20 0.19 0.20 0.19 0.19 0.19 0.20 0.19 0.18 0.18 0.18 0.18 0.16 0.15 0.14 0.14 0.14 0.14 0.15 0.14 0.13 0.14 0.14 0.14 0.14 0.13
0.25 0.24 0.23 0.22 0.22 0.22 0.22 0.23 0.23 0.24 0.22 0.22 0.22 0.23 0.22 0.22 0.21 0.20 0.20 0.20 0.20 0.20 0.20 0.19 0.18 0.17 0.17 0.18 0.19 0.19 0.17 0.16 0.16 0.15 0.16 0.16 0.15 0.14 0.13 0.14 0.14 0.14 0.13
0.29 0.27 0.25 0.24 0.22 0.21 0.22 0.22 0.23 0.23 0.24 0.22 0.22 0.23 0.23 0.22 0.21 0.21 0.20 0.20 0.19 0.19 0.19 0.19 0.19 0.19 0.18 0.18 0.18 0.18 0.16 0.16 0.16 0.16 0.17 0.16 0.15 0.14 0.13 0.14 0.13 0.13 0.13
0.31 0.31 0.29 0.25 0.22 0.21 0.20 0.22 0.23 0.23 0.22 0.22 0.23 0.24 0.23 0.22 0.22 0.22 0.21 0.20 0.20 0.19 0.19 0.19 0.19 0.19 0.19 0.20 0.20 0.18 0.17 0.16 0.16 0.17 0.17 0.16 0.14 0.13 0.14 0.13 0.13 0.12 0.12

GFSGL_prec_pwat_024.txt.gz
Precipitable_Water
0.51 0.50 0.48 0.44 0.39 0.42 0.41 0.41 0.43 0.44 0.44 0.43 0.42 0.37 0.31 0.29 0.28 0.27 0.27 0.27 0.26 0.25 0.25 0.25 0.25 0.27 0.26 0.24 0.23 0.22 0.25 0.31 0.29 0.30 0.33 0.32 0.32 0.33 0.34 0.35 0.40 0.43 0.48
0.47 0.44 0.41 0.40 0.40 0.40 0.42 0.41 0.42 0.42 0.44 0.45 0.46 0.35 0.31 0.30 0.29 0.27 0.24 0.23 0.22 0.22 0.23 0.24 0.23 0.23 0.21 0.21 0.20 0.18 0.19 0.23 0.23 0.21 0.25 0.25 0.26 0.27 0.30 0.32 0.34 0.35 0.38
0.40 0.38 0.39 0.39 0.39 0.42 0.43 0.44 0.44 0.48 0.47 0.50 0.40 0.35 0.31 0.30 0.29 0.26 0.24 0.22 0.22 0.23 0.24 0.24 0.22 0.22 0.20 0.21 0.21 0.21 0.21 0.22 0.23 0.21 0.20 0.22 0.23 0.26 0.25 0.27 0.30 0.31 0.34
0.34 0.33 0.34 0.36 0.39 0.43 0.42 0.44 0.44 0.46 0.49 0.46 0.38 0.34 0.33 0.32 0.29 0.26 0.24 0.24 0.25 0.25 0.25 0.23 0.21 0.21 0.21 0.22 0.23 0.24 0.25 0.23 0.23 0.22 0.20 0.21 0.21 0.21 0.22 0.21 0.21 0.25 0.25
0.33 0.34 0.36 0.37 0.36 0.34 0.35 0.38 0.40 0.40 0.41 0.46 0.38 0.34 0.33 0.31 0.29 0.27 0.25 0.25 0.25 0.23 0.23 0.23 0.23 0.23 0.22 0.23 0.26 0.25 0.27 0.25 0.24 0.23 0.22 0.22 0.21 0.20 0.18 0.21 0.20 0.21 0.22
0.32 0.33 0.34 0.32 0.30 0.30 0.32 0.32 0.34 0.38 0.39 0.37 0.38 0.34 0.32 0.31 0.31 0.28 0.27 0.25 0.24 0.23 0.23 0.25 0.25 0.25 0.23 0.24 0.25 0.25 0.26 0.25 0.24 0.24 0.23 0.22 0.21 0.21 0.22 0.20 0.20 0.19 0.17
0.30 0.30 0.28 0.28 0.28 0.29 0.30 0.33 0.36 0.37 0.38 0.41 0.35 0.34 0.32 0.30 0.28 0.26 0.25 0.25 0.24 0.25 0.26 0.25 0.24 0.23 0.22 0.23 0.24 0.25 0.25 0.25 0.26 0.26 0.23 0.22 0.22 0.22 0.22 0.21 0.20 0.21 0.20
0.28 0.27 0.29 0.30 0.29 0.30 0.32 0.33 0.36 0.39 0.36 0.33 0.33 0.30 0.28 0.25 0.25 0.25 0.25 0.24 0.24 0.25 0.24 0.23 0.23 0.23 0.25 0.24 0.25 0.26 0.26 0.27 0.26 0.26 0.25 0.25 0.25 0.25 0.25 0.24 0.23 0.24 0.25
0.25 0.28 0.30 0.30 0.28 0.30 0.34 0.33 0.35 0.35 0.32 0.30 0.29 0.26 0.24 0.23 0.24 0.23 0.23 0.22 0.22 0.22 0.23 0.24 0.25 0.25 0.26 0.27 0.25 0.23 0.24 0.23 0.25 0.25 0.26 0.29 0.29 0.29 0.29 0.27 0.22 0.22 0.20
0.29 0.30 0.31 0.30 0.28 0.32 0.36 0.37 0.38 0.33 0.30 0.28 0.26 0.25 0.23 0.21 0.21 0.21 0.20 0.21 0.21 0.22 0.24 0.25 0.26 0.26 0.27 0.27 0.26 0.25 0.22 0.22 0.23 0.23 0.23 0.23 0.23 0.23 0.23 0.23 0.22 0.20 0.21
0.31 0.30 0.29 0.28 0.29 0.32 0.35 0.37 0.33 0.29 0.26 0.24 0.23 0.23 0.22 0.21 0.19 0.19 0.19 0.21 0.22 0.22 0.23 0.24 0.26 0.27 0.27 0.27 0.26 0.25 0.25 0.26 0.25 0.25 0.25 0.25 0.26 0.27 0.28 0.29 0.30 0.28 0.25
0.30 0.30 0.28 0.28 0.30 0.30 0.29 0.28 0.25 0.24 0.23 0.23 0.21 0.20 0.21 0.20 0.19 0.19 0.20 0.22 0.23 0.23 0.24 0.25 0.27 0.27 0.26 0.27 0.27 0.27 0.27 0.27 0.26 0.25 0.24 0.24 0.26 0.27 0.30 0.32 0.33 0.35 0.35
0.29 0.29 0.29 0.29 0.30 0.29 0.26 0.24 0.23 0.23 0.22 0.20 0.20 0.19 0.19 0.19 0.18 0.19 0.20 0.22 0.23 0.25 0.26 0.27 0.26 0.26 0.26 0.26 0.26 0.26 0.26 0.25 0.24 0.23 0.24 0.25 0.28 0.30 0.32 0.33 0.34 0.35 0.35
0.29 0.30 0.30 0.27 0.26 0.24 0.23 0.22 0.22 0.21 0.20 0.19 0.19 0.19 0.19 0.19 0.18 0.19 0.21 0.21 0.24 0.25 0.25 0.26 0.25 0.25 0.26 0.26 0.25 0.26 0.25 0.25 0.25 0.24 0.25 0.27 0.29 0.30 0.30 0.32 0.30 0.30 0.28
0.30 0.31 0.29 0.27 0.24 0.23 0.22 0.23 0.22 0.22 0.21 0.20 0.21 0.21 0.19 0.18 0.18 0.21 0.20 0.20 0.21 0.23 0.23 0.24 0.23 0.23 0.22 0.23 0.24 0.24 0.25 0.25 0.25 0.25 0.25 0.25 0.26 0.27 0.27 0.29 0.29 0.28 0.26
0.30 0.30 0.29 0.26 0.23 0.23 0.22 0.21 0.24 0.23 0.24 0.24 0.25 0.23 0.22 0.22 0.21 0.21 0.20 0.20 0.19 0.21 0.20 0.21 0.21 0.22 0.20 0.20 0.20 0.20 0.22 0.24 0.24 0.24 0.25 0.25 0.25 0.25 0.26 0.26 0.27 0.27 0.25
0.30 0.30 0.29 0.27 0.23 0.22 0.20 0.19 0.18 0.21 0.23 0.23 0.24 0.25 0.24 0.22 0.21 0.21 0.20 0.19 0.18 0.17 0.15 0.17 0.19 0.20 0.19 0.19 0.19 0.19 0.18 0.20 0.24 0.24 0.24 0.24 0.25 0.26 0.25 0.25 0.25 0.25 0.25
0.31 0.31 0.30 0.27 0.22 0.20 0.21 0.20 0.20 0.19 0.18 0.20 0.23 0.24 0.24 0.22 0.21 0.20 0.19 0.18 0.17 0.16 0.14 0.15 0.16 0.18 0.18 0.19 0.18 0.17 0.18 0.17 0.17 0.21 0.24 0.24 0.24 0.24 0.24 0.24 0.25 0.24 0.24
0.30 0.30 0.29 0.26 0.24 0.22 0.21 0.21 0.22 0.20 0.20 0.21 0.21 0.23 0.23 0.23 0.21 0.20 0.20 0.17 0.15 0.16 0.16 0.13 0.15 0.16 0.16 0.17 0.18 0.17 0.15 0.13 0.14 0.17 0.18 0.22 0.24 0.23 0.23 0.24 0.24 0.24 0.23
0.30 0.30 0.29 0.25 0.23 0.22 0.21 0.21 0.21 0.21 0.21 0.20 0.20 0.21 0.22 0.21 0.19 0.19 0.19 0.18 0.16 0.16 0.17 0.16 0.15 0.15 0.15 0.15 0.16 0.16 0.15 0.13 0.12 0.14 0.16 0.17 0.18 0.22 0.22 0.23 0.23 0.22 0.22
0.31 0.29 0.26 0.23 0.22 0.23 0.23 0.22 0.22 0.21 0.20 0.20 0.22 0.23 0.23 0.20 0.19 0.19 0.19 0.18 0.17 0.16 0.17 0.18 0.17 0.15 0.15 0.15 0.15 0.14 0.14 0.13 0.13 0.12 0.14 0.14 0.14 0.15 0.16 0.16 0.17 0.18 0.20
0.31 0.28 0.24 0.22 0.21 0.21 0.21 0.22 0.23 0.23 0.21 0.21 0.22 0.22 0.23 0.21 0.20 0.20 0.20 0.19 0.19 0.18 0.18 0.18 0.18 0.17 0.17 0.17 0.17 0.16 0.15 0.14 0.14 0.13 0.14 0.14 0.13 0.13 0.14 0.13 0.14 0.14 0.13
0.31 0.27 0.24 0.23 0.23 0.22 0.22 0.23 0.23 0.23 0.22 0.23 0.22 0.22 0.23 0.22 0.21 0.20 0.20 0.19 0.19 0.19 0.19 0.18 0.17 0.17 0.16 0.16 0.17 0.18 0.17 0.16 0.16 0.15 0.15 0.15 0.14 0.13 0.13 0.13 0.13 0.13 0.12
0.32 0.29 0.27 0.26 0.25 0.23 0.22 0.21 0.22 0.23 0.24 0.23 0.23 0.22 0.23 0.23 0.22 0.21 0.21 0.20 0.20 0.20 0.20 0.18 0.18 0.18 0.18 0.17 0.17 0.17 0.17 0.16 0.16 0.16 0.17 0.16 0.15 0.14 0.13 0.13 0.13 0.13 0.12
0.33 0.31 0.31 0.30 0.29 0.27 0.23 0.20 0.20 0.22 0.23 0.23 0.23 0.22 0.23 0.24 0.23 0.22 0.22 0.21 0.20 0.20 0.20 0.19 0.18 0.18 0.18 0.18 0.19 0.18 0.17 0.16 0.16 0.17 0.18 0.17 0.15 0.14 0.14 0.13 0.13 0.13 0.12
0.34 0.32 0.31 0.31 0.31 0.31 0.28 0.22 0.20 0.21 0.22 0.22 0.22 0.22 0.23 0.23 0.23 0.23 0.23 0.22 0.21 0.21 0.20 0.20 0.19 0.18 0.18 0.18 0.19 0.19 0.17 0.16 0.17 0.18 0.18 0.18 0.16 0.14 0.15 0.14 0.14 0.13 0.13

GFSGL_prec_pwat_027.txt.gz
Precipitable_Water
0.50 0.48 0.43 0.39 0.40 0.41 0.41 0.42 0.44 0.46 0.48 0.46 0.44 0.44 0.46 0.40 0.37 0.33 0.31 0.29 0.26 0.24 0.24 0.23 0.23 0.24 0.23 0.22 0.22 0.21 0.20 0.20 0.17 0.18 0.23 0.25 0.28 0.29 0.29 0.30 0.29 0.31 0.34
0.47 0.42 0.39 0.39 0.38 0.37 0.37 0.40 0.45 0.46 0.45 0.42 0.41 0.43 0.46 0.38 0.35 0.33 0.30 0.29 0.27 0.24 0.25 0.24 0.23 0.23 0.21 0.20 0.20 0.20 0.20 0.21 0.20 0.17 0.20 0.22 0.22 0.23 0.24 0.24 0.26 0.27 0.29
0.39 0.37 0.35 0.34 0.34 0.33 0.33 0.31 0.31 0.32 0.34 0.35 0.37 0.41 0.38 0.34 0.35 0.33 0.31 0.28 0.26 0.26 0.26 0.24 0.23 0.20 0.19 0.19 0.20 0.20 0.22 0.24 0.25 0.23 0.21 0.23 0.23 0.23 0.21 0.21 0.21 0.23 0.26
0.36 0.34 0.33 0.34 0.34 0.31 0.31 0.30 0.29 0.30 0.33 0.37 0.40 0.36 0.36 0.37 0.35 0.33 0.31 0.29 0.26 0.27 0.26 0.24 0.22 0.21 0.21 0.22 0.21 0.22 0.25 0.25 0.26 0.24 0.24 0.24 0.23 0.23 0.22 0.20 0.18 0.19 0.20
0.33 0.32 0.32 0.32 0.30 0.29 0.29 0.29 0.28 0.33 0.37 0.39 0.40 0.39 0.38 0.35 0.33 0.32 0.30 0.27 0.25 0.23 0.24 0.23 0.24 0.26 0.26 0.24 0.22 0.22 0.22 0.22 0.23 0.24 0.23 0.24 0.23 0.23 0.21 0.21 0.20 0.19 0.19
0.31 0.29 0.29 0.28 0.29 0.30 0.30 0.28 0.31 0.35 0.36 0.37 0.39 0.37 0.32 0.31 0.31 0.29 0.28 0.25 0.24 0.23 0.22 0.24 0.25 0.24 0.23 0.23 0.23 0.24 0.25 0.23 0.22 0.22 0.22 0.22 0.22 0.23 0.24 0.22 0.21 0.18 0.15
0.29 0.29 0.29 0.31 0.30 0.29 0.29 0.30 0.31 0.33 0.36 0.36 0.34 0.30 0.27 0.27 0.27 0.27 0.26 0.24 0.22 0.21 0.21 0.22 0.22 0.23 0.24 0.24 0.25 0.25 0.26 0.27 0.27 0.26 0.23 0.23 0.22 0.23 0.24 0.22 0.21 0.20 0.18
0.28 0.29 0.31 0.31 0.28 0.27 0.29 0.30 0.32 0.34 0.34 0.32 0.30 0.27 0.26 0.25 0.26 0.24 0.24 0.20 0.19 0.19 0.21 0.22 0.23 0.24 0.26 0.26 0.26 0.26 0.25 0.25 0.26 0.26 0.26 0.26 0.27 0.26 0.25 0.24 0.23 0.22 0.22
0.27 0.29 0.30 0.27 0.27 0.28 0.29 0.33 0.34 0.35 0.34 0.31 0.28 0.25 0.24 0.23 0.22 0.21 0.20 0.19 0.18 0.19 0.22 0.23 0.25 0.25 0.27 0.27 0.26 0.25 0.24 0.24 0.26 0.25 0.26 0.26 0.27 0.28 0.29 0.27 0.22 0.21 0.18
0.28 0.27 0.28 0.28 0.28 0.27 0.28 0.32 0.35 0.35 0.31 0.28 0.25 0.24 0.24 0.20 0.21 0.19 0.19 0.18 0.17 0.19 0.22 0.24 0.26 0.27 0.28 0.27 0.26 0.24 0.22 0.23 0.24 0.24 0.25 0.25 0.26 0.24 0.24 0.24 0.24 0.20 0.18
0.28 0.29 0.28 0.29 0.28 0.27 0.29 0.32 0.31 0.29 0.26 0.24 0.23 0.23 0.21 0.21 0.20 0.19 0.19 0.18 0.18 0.19 0.21 0.23 0.26 0.27 0.27 0.27 0.27 0.25 0.24 0.26 0.25 0.26 0.25 0.26 0.26 0.26 0.26 0.26 0.25 0.23 0.21
0.29 0.29 0.30 0.30 0.29 0.28 0.27 0.27 0.26 0.24 0.23 0.23 0.21 0.20 0.21 0.21 0.20 0.19 0.20 0.20 0.20 0.20 0.21 0.24 0.26 0.26 0.27 0.26 0.26 0.26 0.26 0.25 0.25 0.24 0.23 0.23 0.24 0.26 0.28 0.30 0.31 0.31 0.32
0.28 0.30 0.30 0.31 0.30 0.29 0.26 0.24 0.23 0.22 0.21 0.20 0.19 0.19 0.20 0.21 0.20 0.19 0.20 0.20 0.20 0.20 0.21 0.23 0.25 0.25 0.26 0.25 0.26 0.26 0.25 0.24 0.23 0.22 0.22 0.24 0.26 0.28 0.30 0.31 0.33 0.34 0.34
0.28 0.29 0.30 0.29 0.28 0.28 0.26 0.23 0.22 0.21 0.20 0.19 0.19 0.19 0.20 0.20 0.19 0.19 0.20 0.19 0.19 0.19 0.19 0.21 0.23 0.24 0.24 0.24 0.25 0.25 0.25 0.25 0.24 0.23 0.23 0.25 0.28 0.28 0.29 0.31 0.30 0.32 0.30
0.27 0.29 0.30 0.30 0.28 0.28 0.26 0.24 0.23 0.23 0.22 0.20 0.20 0.21 0.20 0.19 0.19 0.21 0.19 0.18 0.18 0.18 0.16 0.17 0.20 0.21 0.19 0.19 0.20 0.20 0.22 0.24 0.23 0.24 0.24 0.25 0.26 0.27 0.27 0.29 0.28 0.28 0.25
0.27 0.29 0.30 0.29 0.29 0.29 0.26 0.23 0.24 0.24 0.25 0.25 0.24 0.23 0.23 0.22 0.22 0.21 0.20 0.18 0.18 0.17 0.14 0.13 0.14 0.18 0.18 0.18 0.17 0.18 0.18 0.19 0.23 0.23 0.23 0.23 0.23 0.24 0.24 0.26 0.27 0.26 0.25
0.27 0.29 0.30 0.30 0.29 0.27 0.24 0.22 0.19 0.22 0.24 0.24 0.24 0.24 0.25 0.23 0.22 0.20 0.20 0.18 0.17 0.17 0.14 0.12 0.13 0.14 0.15 0.18 0.18 0.17 0.16 0.15 0.18 0.22 0.23 0.23 0.23 0.24 0.24 0.24 0.24 0.25 0.24
0.29 0.30 0.30 0.30 0.29 0.27 0.22 0.21 0.21 0.20 0.19 0.20 0.23 0.23 0.24 0.23 0.22 0.20 0.19 0.18 0.15 0.16 0.16 0.14 0.12 0.13 0.13 0.15 0.16 0.16 0.14 0.13 0.15 0.18 0.19 0.23 0.23 0.23 0.23 0.23 0.23 0.22 0.23
0.30 0.30 0.30 0.31 0.29 0.27 0.23 0.21 0.21 0.22 0.20 0.21 0.21 0.22 0.24 0.24 0.22 0.21 0.20 0.17 0.15 0.14 0.15 0.16 0.15 0.14 0.13 0.13 0.15 0.15 0.15 0.13 0.13 0.15 0.16 0.17 0.20 0.22 0.22 0.23 0.22 0.23 0.22
0.33 0.32 0.31 0.30 0.27 0.25 0.24 0.22 0.21 0.21 0.21 0.20 0.20 0.21 0.23 0.22 0.19 0.19 0.19 0.18 0.17 0.15 0.15 0.16 0.17 0.16 0.14 0.13 0.14 0.14 0.14 0.13 0.13 0.14 0.14 0.14 0.15 0.16 0.19 0.21 0.22 0.21 0.21
0.33 0.32 0.31 0.29 0.25 0.22 0.22 0.22 0.23 0.23 0.22 0.21 0.21 0.23 0.23 0.22 0.20 0.20 0.19 0.18 0.18 0.17 0.16 0.16 0.16 0.16 0.16 0.15 0.15 0.15 0.15 0.14 0.14 0.14 0.15 0.15 0.13 0.12 0.14 0.14 0.15 0.15 0.16
0.33 0.33 0.32 0.28 0.25 0.23 0.22 0.22 0.22 0.22 0.22 0.22 0.22 0.23 0.23 0.22 0.22 0.21 0.20 0.19 0.19 0.18 0.18 0.17 0.16 0.16 0.15 0.15 0.14 0.15 0.15 0.15 0.15 0.15 0.15 0.16 0.15 0.13 0.13 0.12 0.13 0.13 0.12
0.33 0.32 0.31 0.29 0.27 0.26 0.25 0.24 0.22 0.22 0.22 0.22 0.22 0.23 0.22 0.22 0.22 0.22 0.21 0.21 0.20 0.19 0.19 0.18 0.17 0.16 0.16 0.16 0.16 0.16 0.15 0.14 0.15 0.16 0.16 0.16 0.15 0.15 0.14 0.13 0.12 0.12 0.11
0.32 0.32 0.31 0.30 0.29 0.28 0.28 0.27 0.25 0.22 0.21 0.22 0.23 0.23 0.23 0.22 0.22 0.23 0.23 0.22 0.21 0.21 0.20 0.20 0.18 0.18 0.17 0.16 0.17 0.17 0.17 0.15 0.15 0.16 0.17 0.16 0.15 0.15 0.14 0.14 0.13 0.13 0.12
0.32 0.31 0.31 0.30 0.30 0.30 0.30 0.29 0.29 0.28 0.22 0.21 0.22 0.23 0.23 0.22 0.23 0.23 0.24 0.23 0.22 0.21 0.21 0.21 0.20 0.19 0.18 0.17 0.17 0.17 0.17 0.16 0.15 0.17 0.18 0.18 0.17 0.15 0.15 0.14 0.14 0.14 0.13
0.32 0.32 0.32 0.33 0.31 0.31 0.31 0.30 0.30 0.29 0.28 0.24 0.21 0.22 0.23 0.23 0.23 0.23 0.23 0.24 0.24 0.23 0.22 0.22 0.21 0.20 0.19 0.18 0.18 0.17 0.17 0.16 0.15 0.16 0.17 0.17 0.16 0.15 0.16 0.16 0.15 0.15 0.14

GFSGL_prec_pwat_030.txt.gz
Precipitable_Water
0.56 0.52 0.46 0.43 0.42 0.41 0.38 0.36 0.33 0.33 0.32 0.30 0.33 0.35 0.36 0.38 0.41 0.37 0.33 0.32 0.31 0.30 0.29 0.28 0.25 0.25 0.24 0.24 0.23 0.21 0.19 0.20 0.17 0.18 0.20 0.22 0.22 0.23 0.24 0.24 0.26 0.28 0.27
0.49 0.44 0.40 0.40 0.38 0.36 0.34 0.33 0.33 0.30 0.30 0.29 0.33 0.37 0.39 0.40 0.37 0.32 0.33 0.34 0.31 0.30 0.29 0.25 0.23 0.24 0.22 0.21 0.20 0.19 0.20 0.21 0.21 0.19 0.21 0.22 0.23 0.24 0.27 0.24 0.21 0.21 0.22
0.42 0.40 0.39 0.37 0.35 0.31 0.29 0.28 0.28 0.28 0.28 0.31 0.36 0.39 0.37 0.35 0.35 0.36 0.36 0.33 0.30 0.29 0.25 0.24 0.23 0.22 0.20 0.21 0.22 0.23 0.23 0.22 0.24 0.23 0.21 0.24 0.25 0.26 0.25 0.25 0.23 0.22 0.21
0.41 0.38 0.36 0.34 0.30 0.28 0.28 0.29 0.28 0.28 0.29 0.34 0.36 0.36 0.38 0.36 0.36 0.34 0.30 0.29 0.27 0.26 0.25 0.23 0.23 0.22 0.22 0.23 0.24 0.24 0.23 0.23 0.23 0.22 0.22 0.23 0.24 0.26 0.27 0.24 0.22 0.23 0.20
0.36 0.35 0.33 0.31 0.30 0.30 0.30 0.29 0.29 0.30 0.34 0.35 0.36 0.36 0.37 0.32 0.29 0.27 0.27 0.26 0.24 0.23 0.22 0.22 0.22 0.23 0.25 0.25 0.24 0.24 0.24 0.23 0.23 0.22 0.21 0.22 0.22 0.22 0.23 0.26 0.24 0.23 0.22
0.33 0.32 0.31 0.30 0.31 0.30 0.28 0.29 0.30 0.31 0.33 0.36 0.35 0.33 0.31 0.27 0.27 0.27 0.26 0.24 0.22 0.19 0.18 0.19 0.20 0.22 0.22 0.24 0.25 0.26 0.26 0.24 0.23 0.23 0.22 0.21 0.21 0.22 0.23 0.24 0.24 0.22 0.19
0.31 0.30 0.30 0.31 0.30 0.27 0.29 0.31 0.29 0.31 0.33 0.33 0.32 0.31 0.28 0.26 0.26 0.25 0.24 0.21 0.18 0.17 0.17 0.17 0.19 0.22 0.24 0.25 0.26 0.26 0.26 0.27 0.27 0.25 0.23 0.22 0.22 0.25 0.25 0.23 0.23 0.23 0.21
0.28 0.29 0.30 0.29 0.26 0.28 0.29 0.30 0.32 0.33 0.32 0.33 0.31 0.29 0.25 0.24 0.23 0.22 0.22 0.20 0.18 0.17 0.18 0.19 0.21 0.23 0.25 0.26 0.27 0.27 0.27 0.26 0.26 0.26 0.25 0.24 0.25 0.26 0.27 0.27 0.25 0.24 0.24
0.28 0.27 0.27 0.27 0.26 0.27 0.26 0.27 0.31 0.33 0.34 0.32 0.29 0.25 0.23 0.22 0.21 0.20 0.20 0.18 0.17 0.17 0.19 0.20 0.23 0.24 0.26 0.28 0.26 0.25 0.25 0.25 0.28 0.28 0.28 0.27 0.26 0.27 0.27 0.27 0.23 0.22 0.19
0.26 0.27 0.28 0.28 0.27 0.26 0.27 0.27 0.31 0.33 0.30 0.28 0.26 0.24 0.24 0.21 0.20 0.20 0.20 0.19 0.16 0.17 0.19 0.20 0.22 0.25 0.27 0.27 0.26 0.25 0.23 0.23 0.24 0.25 0.26 0.27 0.28 0.28 0.27 0.25 0.23 0.21 0.21
0.28 0.27 0.28 0.28 0.29 0.29 0.28 0.29 0.29 0.29 0.27 0.25 0.23 0.24 0.22 0.21 0.20 0.20 0.21 0.19 0.18 0.18 0.18 0.18 0.21 0.25 0.26 0.26 0.27 0.25 0.24 0.25 0.24 0.24 0.25 0.25 0.26 0.27 0.28 0.28 0.27 0.22 0.19
0.27 0.26 0.28 0.29 0.30 0.30 0.28 0.28 0.28 0.27 0.24 0.23 0.22 0.21 0.21 0.21 0.21 0.20 0.21 0.20 0.19 0.18 0.17 0.18 0.20 0.23 0.24 0.25 0.26 0.26 0.26 0.25 0.24 0.23 0.22 0.23 0.23 0.25 0.27 0.29 0.30 0.29 0.29
0.26 0.26 0.27 0.29 0.30 0.29 0.27 0.27 0.26 0.25 0.22 0.21 0.21 0.19 0.20 0.21 0.21 0.21 0.21 0.20 0.18 0.18 0.17 0.16 0.18 0.21 0.22 0.22 0.24 0.24 0.24 0.24 0.23 0.22 0.22 0.22 0.24 0.27 0.29 0.29 0.31 0.32 0.32
0.25 0.25 0.26 0.28 0.29 0.28 0.29 0.27 0.26 0.23 0.21 0.21 0.20 0.20 0.20 0.21 0.20 0.20 0.21 0.19 0.17 0.18 0.16 0.15 0.15 0.18 0.19 0.19 0.19 0.21 0.21 0.23 0.23 0.22 0.23 0.24 0.26 0.27 0.27 0.29 0.29 0.30 0.29
0.26 0.25 0.26 0.29 0.29 0.28 0.29 0.28 0.27 0.25 0.23 0.21 0.22 0.22 0.20 0.19 0.20 0.21 0.20 0.18 0.16 0.16 0.15 0.13 0.13 0.12 0.14 0.17 0.17 0.18 0.18 0.17 0.22 0.23 0.23 0.23 0.24 0.26 0.27 0.29 0.29 0.28 0.26
0.25 0.25 0.27 0.28 0.29 0.28 0.29 0.28 0.29 0.26 0.24 0.25 0.26 0.25 0.23 0.23 0.23 0.23 0.20 0.19 0.17 0.16 0.14 0.13 0.12 0.12 0.11 0.14 0.16 0.15 0.14 0.15 0.17 0.21 0.23 0.23 0.22 0.22 0.23 0.25 0.26 0.25 0.24
0.26 0.28 0.28 0.29 0.29 0.29 0.28 0.26 0.21 0.22 0.24 0.24 0.25 0.24 0.24 0.24 0.24 0.22 0.20 0.18 0.17 0.15 0.14 0.14 0.13 0.12 0.12 0.12 0.14 0.15 0.14 0.13 0.16 0.18 0.19 0.22 0.22 0.22 0.22 0.22 0.23 0.23 0.23
0.29 0.30 0.30 0.30 0.30 0.30 0.29 0.26 0.23 0.20 0.19 0.21 0.23 0.25 0.24 0.25 0.24 0.22 0.21 0.19 0.16 0.15 0.14 0.14 0.14 0.13 0.13 0.12 0.13 0.13 0.14 0.14 0.14 0.16 0.17 0.17 0.20 0.22 0.21 0.21 0.21 0.21 0.21
0.30 0.29 0.31 0.31 0.31 0.31 0.29 0.26 0.24 0.22 0.21 0.21 0.22 0.23 0.24 0.25 0.24 0.23 0.22 0.18 0.16 0.15 0.14 0.14 0.14 0.15 0.14 0.14 0.13 0.13 0.13 0.13 0.14 0.14 0.15 0.15 0.14 0.16 0.20 0.22 0.21 0.21 0.20
0.30 0.30 0.31 0.31 0.31 0.29 0.26 0.25 0.24 0.24 0.22 0.22 0.21 0.21 0.22 0.23 0.21 0.21 0.20 0.19 0.18 0.17 0.16 0.15 0.14 0.14 0.14 0.14 0.14 0.14 0.14 0.13 0.14 0.14 0.15 0.16 0.14 0.13 0.14 0.15 0.17 0.19 0.20
0.30 0.30 0.31 0.31 0.30 0.30 0.26 0.24 0.23 0.23 0.22 0.22 0.23 0.25 0.24 0.22 0.21 0.21 0.21 0.20 0.19 0.18 0.17 0.16 0.16 0.15 0.14 0.14 0.13 0.13 0.13 0.13 0.14 0.14 0.15 0.16 0.16 0.14 0.13 0.13 0.13 0.13 0.13
0.31 0.30 0.30 0.30 0.31 0.29 0.27 0.25 0.25 0.25 0.23 0.22 0.21 0.23 0.24 0.23 0.22 0.22 0.22 0.22 0.21 0.21 0.20 0.19 0.17 0.16 0.16 0.15 0.14 0.14 0.14 0.13 0.12 0.13 0.14 0.16 0.16 0.15 0.15 0.13 0.12 0.12 0.11
0.30 0.30 0.29 0.30 0.30 0.30 0.28 0.27 0.27 0.27 0.26 0.25 0.22 0.22 0.22 0.22 0.22 0.22 0.22 0.23 0.23 0.22 0.22 0.21 0.19 0.18 0.18 0.17 0.16 0.15 0.14 0.14 0.13 0.13 0.14 0.15 0.15 0.15 0.15 0.14 0.13 0.11 0.10
0.31 0.29 0.29 0.29 0.30 0.30 0.29 0.29 0.29 0.29 0.29 0.28 0.28 0.24 0.22 0.22 0.23 0.22 0.22 0.23 0.24 0.23 0.23 0.22 0.21 0.20 0.20 0.18 0.17 0.17 0.17 0.16 0.14 0.14 0.15 0.15 0.15 0.15 0.15 0.15 0.14 0.14 0.13
0.31 0.31 0.29 0.30 0.30 0.30 0.30 0.30 0.30 0.30 0.30 0.29 0.29 0.28 0.27 0.23 0.23 0.23 0.23 0.23 0.24 0.24 0.23 0.23 0.23 0.22 0.21 0.20 0.18 0.17 0.17 0.16 0.14 0.14 0.15 0.15 0.15 0.15 0.15 0.16 0.15 0.14 0.14
0.31 0.31 0.30 0.30 0.30 0.30 0.30 0.30 0.30 0.31 0.30 0.30 0.30 0.30 0.28 0.27 0.24 0.23 0.24 0.24 0.23 0.24 0.25 0.24 0.24 0.23 0.23 0.22 0.20 0.19 0.18 0.17 0.15 0.14 0.14 0.14 0.14 0.14 0.14 0.15 0.15 0.15 0.15

GFSGL_prec_pwat_033.txt.gz
Precipitable_Water
0.67 0.58 0.52 0.48 0.45 0.41 0.38 0.36 0.31 0.30 0.30 0.29 0.30 0.32 0.35 0.38 0.42 0.43 0.38 0.35 0.33 0.33 0.33 0.32 0.29 0.28 0.26 0.25 0.25 0.22 0.20 0.19 0.17 0.18 0.21 0.22 0.23 0.25 0.25 0.26 0.27 0.27 0.25
0.54 0.49 0.46 0.43 0.40 0.37 0.33 0.30 0.32 0.31 0.30 0.30 0.31 0.32 0.36 0.39 0.41 0.38 0.34 0.34 0.32 0.31 0.30 0.28 0.25 0.25 0.24 0.23 0.22 0.21 0.22 0.23 0.21 0.18 0.21 0.22 0.24 0.26 0.26 0.27 0.28 0.28 0.26
0.47 0.44 0.41 0.39 0.37 0.32 0.32 0.33 0.33 0.30 0.30 0.32 0.34 0.36 0.36 0.35 0.36 0.36 0.34 0.31 0.29 0.27 0.26 0.25 0.24 0.23 0.21 0.21 0.21 0.22 0.23 0.25 0.24 0.22 0.21 0.23 0.23 0.26 0.26 0.27 0.27 0.28 0.27
0.43 0.41 0.38 0.35 0.33 0.33 0.34 0.33 0.30 0.31 0.32 0.33 0.35 0.36 0.37 0.37 0.35 0.33 0.29 0.25 0.26 0.26 0.25 0.24 0.22 0.20 0.20 0.20 0.22 0.24 0.25 0.25 0.24 0.23 0.22 0.22 0.23 0.24 0.26 0.24 0.24 0.27 0.26
0.41 0.38 0.35 0.35 0.35 0.35 0.33 0.29 0.30 0.31 0.32 0.33 0.34 0.36 0.34 0.32 0.31 0.30 0.26 0.25 0.23 0.21 0.20 0.18 0.18 0.19 0.20 0.21 0.23 0.24 0.24 0.23 0.23 0.23 0.22 0.21 0.21 0.21 0.21 0.24 0.24 0.25 0.26
0.38 0.33 0.35 0.34 0.35 0.33 0.29 0.29 0.30 0.31 0.32 0.33 0.33 0.31 0.30 0.31 0.31 0.25 0.24 0.23 0.20 0.18 0.16 0.17 0.17 0.18 0.20 0.23 0.24 0.26 0.26 0.24 0.23 0.22 0.21 0.21 0.21 0.22 0.23 0.23 0.23 0.22 0.20
0.33 0.33 0.33 0.33 0.31 0.28 0.28 0.29 0.29 0.30 0.32 0.32 0.32 0.30 0.29 0.28 0.25 0.23 0.23 0.21 0.18 0.17 0.17 0.16 0.17 0.19 0.21 0.23 0.25 0.27 0.29 0.28 0.28 0.26 0.23 0.22 0.21 0.23 0.23 0.22 0.23 0.23 0.22
0.32 0.32 0.32 0.30 0.28 0.28 0.27 0.27 0.27 0.30 0.32 0.32 0.30 0.29 0.27 0.25 0.24 0.22 0.20 0.19 0.18 0.17 0.17 0.18 0.18 0.19 0.21 0.24 0.26 0.26 0.26 0.26 0.27 0.28 0.27 0.26 0.26 0.27 0.25 0.24 0.24 0.26 0.26
0.29 0.29 0.29 0.29 0.28 0.27 0.26 0.26 0.27 0.28 0.31 0.31 0.29 0.27 0.25 0.23 0.23 0.21 0.20 0.19 0.19 0.18 0.19 0.19 0.19 0.19 0.22 0.25 0.25 0.25 0.24 0.24 0.27 0.26 0.26 0.27 0.28 0.28 0.27 0.26 0.23 0.23 0.21
0.29 0.29 0.29 0.29 0.27 0.27 0.27 0.27 0.28 0.31 0.31 0.31 0.28 0.26 0.25 0.23 0.22 0.20 0.20 0.20 0.19 0.18 0.18 0.19 0.19 0.20 0.22 0.24 0.24 0.24 0.23 0.24 0.24 0.24 0.24 0.25 0.28 0.28 0.29 0.28 0.25 0.21 0.20
0.30 0.29 0.27 0.27 0.27 0.28 0.28 0.27 0.28 0.28 0.29 0.29 0.26 0.25 0.24 0.23 0.21 0.21 0.20 0.20 0.19 0.17 0.17 0.17 0.17 0.19 0.21 0.23 0.24 0.25 0.24 0.25 0.25 0.24 0.24 0.24 0.25 0.26 0.28 0.30 0.29 0.26 0.22
0.29 0.26 0.26 0.26 0.27 0.27 0.27 0.27 0.27 0.27 0.27 0.26 0.24 0.23 0.23 0.23 0.22 0.21 0.21 0.21 0.20 0.17 0.17 0.17 0.16 0.17 0.20 0.19 0.20 0.22 0.22 0.22 0.25 0.24 0.23 0.23 0.23 0.24 0.26 0.28 0.30 0.31 0.30
0.26 0.25 0.25 0.26 0.26 0.27 0.27 0.27 0.26 0.26 0.25 0.24 0.22 0.21 0.21 0.22 0.23 0.21 0.21 0.21 0.20 0.17 0.18 0.16 0.15 0.15 0.15 0.17 0.18 0.20 0.21 0.20 0.23 0.22 0.22 0.23 0.25 0.27 0.29 0.30 0.31 0.32 0.32
0.24 0.25 0.26 0.25 0.25 0.28 0.28 0.28 0.27 0.27 0.26 0.23 0.21 0.21 0.21 0.22 0.22 0.22 0.22 0.22 0.20 0.17 0.16 0.15 0.14 0.14 0.13 0.15 0.17 0.18 0.18 0.18 0.20 0.23 0.23 0.24 0.26 0.27 0.27 0.29 0.28 0.29 0.29
0.25 0.26 0.27 0.27 0.26 0.27 0.28 0.28 0.28 0.29 0.28 0.23 0.22 0.22 0.22 0.21 0.22 0.23 0.22 0.21 0.19 0.18 0.15 0.15 0.14 0.13 0.13 0.13 0.14 0.15 0.15 0.15 0.17 0.21 0.23 0.23 0.23 0.24 0.26 0.28 0.28 0.28 0.27
0.25 0.26 0.27 0.27 0.27 0.27 0.28 0.28 0.31 0.30 0.28 0.26 0.24 0.24 0.25 0.25 0.24 0.24 0.23 0.21 0.19 0.17 0.14 0.13 0.13 0.13 0.13 0.13 0.13 0.13 0.14 0.14 0.15 0.18 0.19 0.22 0.22 0.22 0.23 0.25 0.26 0.25 0.25
0.26 0.27 0.27 0.27 0.28 0.27 0.28 0.28 0.26 0.27 0.26 0.24 0.24 0.24 0.25 0.25 0.25 0.25 0.24 0.22 0.20 0.18 0.15 0.13 0.14 0.14 0.13 0.13 0.13 0.13 0.13 0.14 0.15 0.17 0.17 0.17 0.20 0.23 0.22 0.22 0.22 0.23 0.23
0.28 0.28 0.29 0.28 0.29 0.30 0.29 0.29 0.29 0.25 0.23 0.22 0.24 0.24 0.24 0.25 0.25 0.26 0.24 0.22 0.19 0.18 0.16 0.14 0.14 0.14 0.14 0.14 0.14 0.13 0.13 0.13 0.14 0.14 0.17 0.15 0.15 0.16 0.21 0.22 0.22 0.21 0.21
0.27 0.27 0.29 0.29 0.29 0.30 0.31 0.30 0.28 0.26 0.24 0.24 0.24 0.24 0.24 0.24 0.25 0.26 0.24 0.22 0.20 0.18 0.18 0.16 0.16 0.15 0.14 0.14 0.14 0.13 0.14 0.14 0.14 0.14 0.16 0.17 0.16 0.14 0.13 0.17 0.20 0.21 0.20
0.28 0.29 0.29 0.29 0.29 0.29 0.30 0.29 0.27 0.24 0.24 0.24 0.24 0.23 0.24 0.23 0.22 0.23 0.23 0.22 0.21 0.20 0.20 0.18 0.17 0.16 0.15 0.15 0.14 0.13 0.13 0.14 0.13 0.13 0.14 0.17 0.17 0.16 0.14 0.13 0.13 0.15 0.17
0.28 0.28 0.29 0.29 0.29 0.29 0.30 0.29 0.29 0.26 0.25 0.25 0.25 0.26 0.25 0.23 0.22 0.23 0.22 0.22 0.22 0.22 0.21 0.20 0.19 0.18 0.17 0.16 0.15 0.14 0.13 0.13 0.13 0.12 0.13 0.15 0.16 0.16 0.16 0.16 0.14 0.13 0.12
0.29 0.29 0.28 0.27 0.29 0.30 0.30 0.30 0.29 0.28 0.27 0.27 0.27 0.27 0.26 0.24 0.23 0.22 0.23 0.22 0.23 0.24 0.24 0.23 0.21 0.21 0.20 0.18 0.17 0.16 0.14 0.14 0.13 0.13 0.12 0.14 0.14 0.15 0.16 0.16 0.15 0.13 0.11
0.31 0.31 0.31 0.29 0.29 0.29 0.30 0.30 0.29 0.29 0.28 0.28 0.28 0.28 0.28 0.28 0.25 0.23 0.23 0.24 0.24 0.24 0.24 0.24 0.23 0.22 0.22 0.21 0.20 0.18 0.16 0.16 0.15 0.13 0.13 0.14 0.14 0.15 0.14 0.15 0.15 0.15 0.13
0.31 0.30 0.31 0.30 0.30 0.29 0.29 0.30 0.30 0.30 0.30 0.29 0.30 0.30 0.29 0.29 0.29 0.28 0.25 0.25 0.25 0.24 0.25 0.24 0.23 0.23 0.23 0.22 0.22 0.20 0.19 0.18 0.17 0.14 0.13 0.14 0.14 0.14 0.14 0.15 0.15 0.15 0.15
0.30 0.30 0.30 0.30 0.29 0.29 0.29 0.29 0.29 0.30 0.30 0.30 0.30 0.31 0.31 0.31 0.30 0.29 0.29 0.26 0.25 0.24 0.24 0.25 0.24 0.24 0.24 0.23 0.23 0.21 0.20 0.19 0.17 0.15 0.14 0.14 0.14 0.14 0.13 0.14 0.15 0.16 0.16
0.28 0.29 0.29 0.29 0.29 0.29 0.28 0.28 0.28 0.28 0.28 0.29 0.29 0.30 0.31 0.31 0.31 0.30 0.29 0.29 0.26 0.25 0.25 0.25 0.25 0.25 0.25 0.25 0.24 0.23 0.21 0.19 0.18 0.15 0.13 0.14 0.13 0.13 0.13 0.14 0.14 0.14 0.15

GFSGL_prec_pwat_036.txt.gz
Precipitable_Water
0.68 0.66 0.64 0.55 0.48 0.45 0.43 0.40 0.36 0.34 0.33 0.32 0.33 0.33 0.34 0.36 0.39 0.40 0.39 0.43 0.37 0.34 0.34 0.33 0.31 0.31 0.28 0.27 0.26 0.25 0.23 0.22 0.19 0.19 0.23 0.24 0.24 0.25 0.26 0.28 0.29 0.29 0.28
0.68 0.62 0.53 0.47 0.44 0.42 0.38 0.35 0.35 0.35 0.34 0.34 0.36 0.36 0.36 0.37 0.38 0.35 0.34 0.36 0.35 0.33 0.30 0.28 0.26 0.27 0.26 0.25 0.24 0.23 0.22 0.22 0.22 0.20 0.23 0.24 0.24 0.25 0.25 0.25 0.28 0.29 0.29
0.59 0.51 0.47 0.45 0.42 0.37 0.36 0.36 0.37 0.34 0.34 0.36 0.35 0.35 0.35 0.35 0.36 0.37 0.36 0.34 0.32 0.27 0.26 0.25 0.24 0.24 0.22 0.21 0.21 0.21 0.21 0.23 0.25 0.24 0.23 0.24 0.24 0.25 0.25 0.26 0.27 0.28 0.29
0.49 0.45 0.44 0.42 0.37 0.38 0.38 0.38 0.35 0.35 0.33 0.33 0.34 0.33 0.34 0.34 0.34 0.32 0.31 0.31 0.28 0.25 0.24 0.23 0.21 0.20 0.19 0.19 0.19 0.20 0.21 0.23 0.24 0.24 0.23 0.23 0.24 0.24 0.24 0.23 0.23 0.26 0.28
0.46 0.44 0.40 0.39 0.39 0.39 0.38 0.35 0.34 0.34 0.33 0.34 0.33 0.33 0.33 0.31 0.29 0.30 0.29 0.25 0.24 0.21 0.20 0.19 0.19 0.19 0.19 0.20 0.20 0.21 0.22 0.23 0.23 0.23 0.23 0.23 0.22 0.22 0.22 0.23 0.21 0.23 0.24
0.46 0.40 0.38 0.39 0.37 0.37 0.34 0.32 0.32 0.33 0.34 0.34 0.33 0.32 0.31 0.29 0.29 0.26 0.24 0.23 0.21 0.20 0.18 0.18 0.19 0.19 0.20 0.20 0.22 0.23 0.25 0.24 0.24 0.24 0.24 0.23 0.22 0.23 0.22 0.24 0.23 0.23 0.21
0.41 0.37 0.38 0.36 0.34 0.33 0.31 0.31 0.30 0.30 0.32 0.33 0.33 0.32 0.30 0.31 0.27 0.25 0.23 0.21 0.20 0.19 0.18 0.18 0.19 0.19 0.20 0.20 0.22 0.24 0.27 0.28 0.29 0.27 0.24 0.24 0.24 0.24 0.24 0.23 0.22 0.22 0.22
0.37 0.36 0.35 0.34 0.32 0.31 0.31 0.29 0.29 0.29 0.31 0.32 0.32 0.31 0.30 0.29 0.26 0.24 0.22 0.21 0.21 0.20 0.19 0.20 0.19 0.19 0.20 0.21 0.21 0.23 0.25 0.26 0.26 0.27 0.27 0.26 0.25 0.25 0.26 0.27 0.25 0.24 0.24
0.34 0.34 0.34 0.33 0.31 0.30 0.29 0.29 0.29 0.28 0.29 0.32 0.33 0.31 0.29 0.28 0.24 0.23 0.21 0.21 0.21 0.20 0.21 0.20 0.19 0.18 0.19 0.20 0.21 0.22 0.24 0.24 0.27 0.26 0.26 0.26 0.25 0.26 0.27 0.26 0.23 0.22 0.21
0.34 0.33 0.33 0.31 0.30 0.28 0.29 0.29 0.29 0.29 0.29 0.32 0.32 0.31 0.29 0.27 0.25 0.23 0.21 0.21 0.21 0.20 0.20 0.19 0.19 0.18 0.17 0.21 0.20 0.20 0.22 0.22 0.22 0.24 0.25 0.25 0.25 0.26 0.28 0.29 0.26 0.23 0.22
0.34 0.33 0.31 0.29 0.28 0.29 0.29 0.29 0.28 0.28 0.29 0.30 0.30 0.30 0.28 0.27 0.26 0.23 0.21 0.21 0.20 0.20 0.18 0.18 0.19 0.18 0.16 0.19 0.19 0.19 0.20 0.21 0.22 0.24 0.25 0.25 0.25 0.25 0.26 0.28 0.30 0.29 0.25
0.34 0.31 0.28 0.28 0.29 0.28 0.28 0.29 0.28 0.27 0.27 0.28 0.28 0.28 0.27 0.27 0.25 0.24 0.22 0.21 0.21 0.20 0.18 0.18 0.18 0.15 0.15 0.15 0.17 0.18 0.18 0.21 0.22 0.24 0.24 0.24 0.24 0.25 0.27 0.29 0.31 0.31 0.31
0.29 0.27 0.28 0.29 0.29 0.29 0.28 0.27 0.27 0.27 0.26 0.27 0.26 0.25 0.24 0.25 0.26 0.25 0.23 0.21 0.22 0.20 0.19 0.17 0.16 0.15 0.15 0.15 0.16 0.16 0.18 0.19 0.20 0.22 0.23 0.23 0.25 0.27 0.29 0.30 0.32 0.34 0.33
0.27 0.27 0.28 0.28 0.28 0.29 0.28 0.28 0.27 0.27 0.27 0.27 0.26 0.23 0.23 0.23 0.25 0.25 0.25 0.24 0.23 0.21 0.20 0.17 0.17 0.16 0.16 0.16 0.17 0.17 0.17 0.17 0.18 0.20 0.22 0.25 0.26 0.26 0.27 0.29 0.28 0.30 0.29
0.27 0.27 0.27 0.28 0.28 0.28 0.27 0.27 0.28 0.29 0.29 0.27 0.26 0.24 0.22 0.22 0.25 0.26 0.23 0.23 0.23 0.21 0.18 0.18 0.17 0.16 0.15 0.15 0.16 0.16 0.16 0.15 0.16 0.19 0.20 0.22 0.24 0.24 0.24 0.27 0.28 0.28 0.27
0.26 0.26 0.27 0.27 0.28 0.28 0.27 0.27 0.30 0.30 0.30 0.29 0.27 0.24 0.24 0.25 0.25 0.25 0.24 0.24 0.23 0.21 0.18 0.17 0.16 0.17 0.16 0.15 0.15 0.15 0.16 0.15 0.14 0.17 0.18 0.18 0.19 0.23 0.23 0.24 0.25 0.26 0.25
0.27 0.26 0.27 0.27 0.28 0.28 0.27 0.27 0.26 0.30 0.31 0.29 0.27 0.25 0.25 0.24 0.25 0.25 0.25 0.25 0.23 0.21 0.18 0.18 0.17 0.17 0.17 0.16 0.15 0.15 0.15 0.16 0.16 0.16 0.18 0.18 0.17 0.17 0.22 0.23 0.23 0.23 0.23
0.28 0.28 0.28 0.28 0.28 0.28 0.28 0.28 0.29 0.27 0.26 0.26 0.29 0.27 0.26 0.25 0.25 0.25 0.26 0.25 0.21 0.21 0.20 0.19 0.18 0.18 0.17 0.16 0.15 0.14 0.15 0.16 0.16 0.16 0.17 0.18 0.19 0.16 0.16 0.20 0.22 0.22 0.21
0.28 0.28 0.29 0.29 0.29 0.29 0.29 0.29 0.30 0.29 0.28 0.26 0.27 0.28 0.28 0.27 0.25 0.25 0.25 0.24 0.21 0.20 0.21 0.20 0.20 0.19 0.18 0.18 0.17 0.16 0.15 0.15 0.14 0.15 0.16 0.17 0.19 0.18 0.17 0.15 0.16 0.18 0.21
0.30 0.30 0.29 0.28 0.29 0.29 0.28 0.28 0.29 0.29 0.29 0.28 0.26 0.27 0.28 0.28 0.25 0.23 0.24 0.24 0.23 0.22 0.22 0.22 0.22 0.21 0.20 0.20 0.19 0.18 0.16 0.16 0.15 0.14 0.14 0.16 0.17 0.18 0.18 0.17 0.15 0.14 0.15
0.31 0.31 0.31 0.29 0.29 0.29 0.28 0.27 0.30 0.30 0.29 0.29 0.28 0.30 0.29 0.27 0.26 0.25 0.25 0.25 0.24 0.23 0.22 0.23 0.23 0.23 0.22 0.22 0.20 0.19 0.18 0.17 0.16 0.14 0.14 0.14 0.15 0.15 0.17 0.18 0.18 0.16 0.13
0.33 0.32 0.32 0.31 0.31 0.31 0.30 0.29 0.29 0.30 0.30 0.30 0.30 0.30 0.31 0.30 0.29 0.28 0.27 0.25 0.25 0.26 0.25 0.25 0.24 0.23 0.23 0.23 0.22 0.21 0.19 0.18 0.17 0.16 0.15 0.14 0.15 0.16 0.15 0.16 0.17 0.17 0.16
0.32 0.31 0.30 0.30 0.30 0.31 0.31 0.30 0.29 0.30 0.31 0.31 0.31 0.31 0.31 0.30 0.30 0.30 0.30 0.30 0.28 0.27 0.27 0.26 0.25 0.24 0.24 0.24 0.24 0.23 0.21 0.20 0.19 0.18 0.15 0.15 0.15 0.15 0.16 0.16 0.15 0.16 0.16
0.30 0.30 0.28 0.27 0.28 0.28 0.30 0.29 0.29 0.30 0.31 0.31 0.31 0.31 0.31 0.31 0.31 0.31 0.32 0.32 0.32 0.31 0.29 0.27 0.26 0.25 0.25 0.25 0.25 0.24 0.23 0.22 0.21 0.19 0.16 0.15 0.15 0.15 0.15 0.15 0.16 0.16 0.16
0.29 0.29 0.28 0.27 0.27 0.28 0.29 0.29 0.30 0.29 0.29 0.29 0.29 0.30 0.30 0.31 0.31 0.32 0.33 0.33 0.32 0.31 0.31 0.29 0.27 0.26 0.26 0.25 0.25 0.25 0.25 0.22 0.21 0.20 0.17 0.16 0.15 0.14 0.14 0.14 0.14 0.15 0.15
0.29 0.29 0.28 0.28 0.28 0.28 0.29 0.29 0.28 0.28 0.27 0.26 0.26 0.26 0.27 0.28 0.30 0.31 0.32 0.32 0.32 0.31 0.31 0.30 0.28 0.27 0.26 0.25 0.25 0.26 0.25 0.23 0.21 0.20 0.18 0.16 0.15 0.14 0.14 0.14 0.14 0.14 0.14

GFSGL_prec_pwat_039.txt.gz
Precipitable_Water
0.74 0.72 0.71 0.73 0.60 0.53 0.49 0.45 0.42 0.42 0.40 0.36 0.36 0.36 0.36 0.36 0.38 0.36 0.38 0.38 0.37 0.38 0.37 0.37 0.35 0.34 0.30 0.29 0.28 0.27 0.25 0.24 0.21 0.20 0.22 0.24 0.26 0.27 0.27 0.28 0.28 0.28 0.27
0.72 0.73 0.76 0.63 0.52 0.48 0.45 0.43 0.42 0.40 0.38 0.36 0.36 0.36 0.36 0.35 0.35 0.34 0.34 0.35 0.34 0.33 0.33 0.32 0.29 0.27 0.26 0.25 0.24 0.23 0.22 0.22 0.20 0.18 0.20 0.23 0.26 0.27 0.26 0.26 0.27 0.28 0.28
0.72 0.69 0.60 0.54 0.50 0.46 0.43 0.43 0.42 0.39 0.37 0.36 0.37 0.36 0.35 0.35 0.35 0.36 0.34 0.34 0.32 0.31 0.30 0.28 0.25 0.24 0.22 0.21 0.21 0.20 0.20 0.20 0.21 0.21 0.21 0.25 0.25 0.26 0.25 0.26 0.26 0.26 0.28
0.65 0.59 0.50 0.50 0.48 0.43 0.42 0.42 0.41 0.38 0.37 0.37 0.37 0.37 0.35 0.35 0.34 0.33 0.31 0.30 0.29 0.26 0.26 0.24 0.23 0.21 0.20 0.19 0.18 0.19 0.19 0.20 0.20 0.21 0.22 0.23 0.24 0.26 0.26 0.24 0.24 0.26 0.25
0.60 0.50 0.48 0.48 0.45 0.43 0.43 0.42 0.39 0.38 0.38 0.38 0.36 0.35 0.36 0.34 0.31 0.30 0.28 0.26 0.24 0.23 0.23 0.22 0.21 0.20 0.19 0.19 0.19 0.19 0.20 0.20 0.20 0.21 0.21 0.23 0.25 0.25 0.24 0.24 0.24 0.23 0.25
0.53 0.52 0.50 0.43 0.42 0.42 0.42 0.39 0.37 0.36 0.36 0.36 0.37 0.35 0.34 0.33 0.31 0.29 0.27 0.25 0.23 0.22 0.21 0.20 0.20 0.20 0.21 0.21 0.21 0.22 0.22 0.20 0.21 0.24 0.24 0.23 0.23 0.24 0.26 0.26 0.24 0.22 0.20
0.54 0.50 0.44 0.42 0.40 0.41 0.37 0.36 0.35 0.34 0.35 0.35 0.34 0.35 0.33 0.34 0.32 0.29 0.26 0.24 0.22 0.22 0.22 0.21 0.20 0.20 0.22 0.21 0.21 0.20 0.22 0.24 0.26 0.26 0.24 0.25 0.25 0.26 0.24 0.23 0.22 0.24 0.23
0.51 0.45 0.39 0.42 0.41 0.38 0.36 0.35 0.34 0.35 0.34 0.33 0.34 0.34 0.33 0.34 0.32 0.28 0.25 0.24 0.23 0.23 0.23 0.21 0.20 0.20 0.20 0.19 0.17 0.19 0.21 0.23 0.24 0.25 0.26 0.26 0.25 0.25 0.24 0.23 0.25 0.24 0.24
0.47 0.39 0.43 0.41 0.38 0.35 0.33 0.32 0.35 0.33 0.31 0.32 0.33 0.33 0.34 0.34 0.31 0.28 0.25 0.23 0.23 0.23 0.22 0.21 0.22 0.19 0.19 0.18 0.16 0.19 0.19 0.20 0.25 0.23 0.23 0.26 0.26 0.26 0.26 0.25 0.24 0.23 0.21
0.40 0.44 0.40 0.37 0.35 0.32 0.31 0.32 0.34 0.32 0.31 0.30 0.30 0.33 0.35 0.33 0.31 0.28 0.25 0.23 0.22 0.22 0.22 0.22 0.21 0.19 0.19 0.16 0.15 0.17 0.18 0.19 0.19 0.19 0.24 0.26 0.27 0.27 0.28 0.29 0.28 0.24 0.23
0.48 0.41 0.39 0.36 0.32 0.32 0.32 0.32 0.32 0.31 0.31 0.29 0.29 0.32 0.33 0.33 0.31 0.28 0.25 0.23 0.22 0.21 0.20 0.20 0.20 0.20 0.18 0.15 0.16 0.16 0.18 0.17 0.19 0.22 0.25 0.26 0.27 0.26 0.28 0.28 0.28 0.28 0.25
0.41 0.39 0.35 0.32 0.32 0.31 0.31 0.31 0.31 0.31 0.29 0.28 0.29 0.29 0.30 0.31 0.31 0.27 0.25 0.24 0.22 0.20 0.20 0.21 0.20 0.17 0.16 0.15 0.16 0.17 0.16 0.19 0.21 0.20 0.23 0.24 0.24 0.24 0.27 0.29 0.32 0.33 0.33
0.38 0.33 0.31 0.32 0.33 0.33 0.31 0.29 0.28 0.28 0.28 0.28 0.28 0.28 0.29 0.30 0.29 0.29 0.26 0.25 0.23 0.22 0.22 0.21 0.19 0.17 0.17 0.17 0.17 0.18 0.19 0.19 0.18 0.19 0.20 0.22 0.25 0.27 0.27 0.29 0.31 0.32 0.34
0.33 0.31 0.32 0.32 0.31 0.32 0.32 0.30 0.28 0.27 0.27 0.28 0.27 0.27 0.28 0.27 0.26 0.28 0.29 0.26 0.25 0.24 0.24 0.23 0.19 0.19 0.19 0.18 0.18 0.19 0.19 0.19 0.17 0.18 0.19 0.21 0.25 0.26 0.25 0.27 0.27 0.28 0.28
0.32 0.32 0.31 0.31 0.31 0.31 0.29 0.29 0.29 0.29 0.29 0.28 0.29 0.29 0.27 0.25 0.25 0.28 0.28 0.26 0.26 0.25 0.22 0.21 0.19 0.19 0.18 0.18 0.18 0.18 0.18 0.18 0.17 0.16 0.19 0.20 0.19 0.21 0.25 0.26 0.26 0.27 0.26
0.31 0.30 0.30 0.29 0.29 0.29 0.28 0.27 0.30 0.30 0.30 0.30 0.31 0.29 0.27 0.26 0.25 0.26 0.25 0.25 0.25 0.24 0.21 0.19 0.19 0.19 0.18 0.18 0.17 0.17 0.18 0.18 0.17 0.17 0.18 0.19 0.20 0.17 0.20 0.25 0.25 0.24 0.24
0.27 0.27 0.28 0.28 0.27 0.27 0.27 0.27 0.25 0.29 0.32 0.31 0.32 0.30 0.28 0.26 0.26 0.27 0.26 0.26 0.26 0.25 0.20 0.19 0.20 0.20 0.19 0.19 0.18 0.17 0.16 0.17 0.17 0.17 0.17 0.19 0.19 0.20 0.18 0.20 0.23 0.23 0.22
0.29 0.29 0.29 0.30 0.30 0.29 0.28 0.28 0.28 0.27 0.27 0.29 0.33 0.33 0.31 0.29 0.28 0.27 0.27 0.27 0.24 0.25 0.22 0.20 0.20 0.21 0.21 0.19 0.19 0.18 0.18 0.18 0.17 0.16 0.17 0.18 0.18 0.19 0.20 0.17 0.17 0.21 0.21
0.29 0.30 0.31 0.31 0.30 0.30 0.30 0.29 0.29 0.28 0.28 0.29 0.31 0.32 0.32 0.31 0.30 0.29 0.28 0.25 0.23 0.24 0.24 0.23 0.23 0.22 0.22 0.21 0.21 0.20 0.20 0.18 0.18 0.17 0.16 0.16 0.17 0.18 0.18 0.19 0.18 0.16 0.18
0.30 0.31 0.31 0.31 0.31 0.29 0.30 0.30 0.29 0.28 0.28 0.29 0.30 0.30 0.32 0.30 0.29 0.30 0.29 0.27 0.24 0.23 0.24 0.24 0.24 0.23 0.23 0.23 0.23 0.22 0.21 0.20 0.19 0.18 0.16 0.16 0.17 0.17 0.17 0.17 0.19 0.18 0.16
0.30 0.32 0.33 0.32 0.33 0.32 0.30 0.30 0.29 0.29 0.29 0.29 0.30 0.33 0.33 0.31 0.29 0.30 0.31 0.31 0.29 0.27 0.25 0.25 0.25 0.24 0.24 0.23 0.23 0.22 0.22 0.21 0.20 0.19 0.17 0.17 0.16 0.16 0.17 0.17 0.17 0.18 0.18
0.30 0.31 0.31 0.30 0.31 0.31 0.31 0.31 0.31 0.29 0.29 0.29 0.30 0.33 0.34 0.32 0.31 0.31 0.31 0.31 0.31 0.32 0.32 0.28 0.26 0.26 0.25 0.24 0.23 0.23 0.22 0.22 0.22 0.21 0.19 0.17 0.16 0.16 0.17 0.16 0.16 0.16 0.17
0.30 0.29 0.29 0.29 0.29 0.29 0.28 0.27 0.28 0.30 0.29 0.30 0.30 0.31 0.33 0.32 0.32 0.32 0.31 0.32 0.32 0.33 0.33 0.32 0.30 0.27 0.27 0.27 0.25 0.24 0.23 0.23 0.23 0.23 0.20 0.18 0.17 0.16 0.16 0.16 0.16 0.16 0.15
0.31 0.28 0.28 0.28 0.28 0.28 0.28 0.27 0.29 0.30 0.30 0.30 0.30 0.31 0.32 0.32 0.32 0.32 0.33 0.33 0.33 0.34 0.34 0.34 0.33 0.31 0.28 0.28 0.27 0.26 0.25 0.25 0.25 0.23 0.21 0.19 0.18 0.17 0.16 0.15 0.15 0.16 0.16
0.31 0.31 0.31 0.29 0.28 0.28 0.27 0.27 0.28 0.29 0.29 0.30 0.30 0.30 0.30 0.30 0.30 0.30 0.31 0.33 0.33 0.34 0.34 0.34 0.34 0.32 0.31 0.29 0.28 0.27 0.26 0.25 0.25 0.24 0.23 0.20 0.19 0.17 0.15 0.14 0.15 0.14 0.15
0.28 0.29 0.30 0.29 0.28 0.27 0.27 0.27 0.27 0.28 0.29 0.30 0.30 0.31 0.29 0.27 0.26 0.26 0.28 0.29 0.30 0.32 0.33 0.34 0.33 0.32 0.31 0.31 0.30 0.29 0.27 0.25 0.25 0.23 0.23 0.21 0.19 0.18 0.17 0.16 0.15 0.14 0.15

GFSGL_prec_pwat_042.txt.gz
Precipitable_Water
0.77 0.78 0.74 0.73 0.73 0.70 0.65 0.60 0.56 0.46 0.41 0.41 0.40 0.39 0.40 0.39 0.38 0.36 0.35 0.34 0.33 0.34 0.36 0.35 0.34 0.34 0.33 0.33 0.31 0.28 0.25 0.23 0.19 0.20 0.21 0.22 0.22 0.22 0.22 0.26 0.27 0.25 0.25
0.76 0.74 0.73 0.72 0.72 0.64 0.61 0.57 0.49 0.44 0.44 0.41 0.40 0.39 0.39 0.39 0.37 0.33 0.31 0.34 0.31 0.31 0.32 0.31 0.29 0.30 0.28 0.26 0.23 0.21 0.20 0.20 0.18 0.16 0.18 0.19 0.21 0.22 0.24 0.25 0.26 0.27 0.25
0.72 0.72 0.71 0.69 0.65 0.58 0.59 0.51 0.46 0.46 0.43 0.41 0.39 0.38 0.40 0.39 0.35 0.34 0.33 0.34 0.34 0.31 0.29 0.27 0.26 0.24 0.21 0.21 0.20 0.19 0.18 0.18 0.19 0.18 0.17 0.20 0.21 0.23 0.23 0.26 0.26 0.27 0.29
0.71 0.70 0.64 0.62 0.62 0.57 0.53 0.48 0.46 0.44 0.41 0.40 0.41 0.40 0.39 0.37 0.35 0.35 0.35 0.33 0.31 0.28 0.24 0.24 0.23 0.22 0.20 0.19 0.18 0.17 0.18 0.18 0.18 0.18 0.18 0.19 0.21 0.24 0.26 0.25 0.24 0.26 0.25
0.68 0.62 0.61 0.58 0.57 0.58 0.50 0.45 0.45 0.45 0.42 0.42 0.41 0.42 0.39 0.36 0.36 0.34 0.33 0.29 0.27 0.24 0.22 0.23 0.22 0.22 0.20 0.20 0.19 0.19 0.19 0.18 0.17 0.18 0.18 0.21 0.22 0.22 0.21 0.25 0.25 0.26 0.24
0.61 0.57 0.57 0.58 0.57 0.51 0.44 0.46 0.47 0.43 0.40 0.40 0.39 0.39 0.36 0.35 0.35 0.33 0.32 0.29 0.27 0.23 0.21 0.22 0.22 0.21 0.20 0.21 0.22 0.21 0.20 0.18 0.18 0.20 0.20 0.20 0.21 0.25 0.27 0.24 0.23 0.21 0.18
0.55 0.57 0.57 0.57 0.50 0.44 0.47 0.47 0.41 0.40 0.39 0.38 0.36 0.37 0.35 0.35 0.34 0.34 0.33 0.30 0.26 0.22 0.23 0.23 0.22 0.21 0.22 0.21 0.19 0.19 0.16 0.19 0.22 0.21 0.21 0.23 0.23 0.23 0.23 0.21 0.21 0.20 0.20
0.56 0.56 0.55 0.53 0.47 0.48 0.46 0.41 0.39 0.40 0.38 0.35 0.35 0.37 0.37 0.36 0.35 0.35 0.33 0.30 0.27 0.23 0.24 0.23 0.22 0.21 0.21 0.19 0.18 0.16 0.15 0.18 0.21 0.21 0.23 0.22 0.22 0.24 0.24 0.24 0.24 0.23 0.24
0.53 0.57 0.51 0.48 0.48 0.46 0.40 0.37 0.38 0.37 0.37 0.35 0.34 0.34 0.35 0.35 0.36 0.35 0.32 0.31 0.26 0.23 0.24 0.23 0.22 0.21 0.20 0.19 0.17 0.14 0.14 0.16 0.21 0.21 0.19 0.21 0.26 0.27 0.27 0.28 0.24 0.23 0.21
0.52 0.52 0.53 0.49 0.42 0.38 0.39 0.36 0.36 0.36 0.34 0.34 0.33 0.34 0.34 0.33 0.35 0.34 0.33 0.28 0.23 0.22 0.23 0.23 0.21 0.21 0.20 0.19 0.16 0.13 0.13 0.15 0.16 0.17 0.20 0.24 0.26 0.28 0.29 0.28 0.27 0.22 0.22
0.56 0.54 0.48 0.46 0.43 0.39 0.37 0.36 0.34 0.32 0.32 0.33 0.32 0.32 0.32 0.32 0.33 0.33 0.32 0.27 0.23 0.22 0.21 0.20 0.22 0.22 0.20 0.17 0.15 0.15 0.15 0.17 0.17 0.19 0.20 0.21 0.26 0.26 0.26 0.26 0.28 0.28 0.25
0.56 0.51 0.47 0.43 0.40 0.38 0.37 0.34 0.33 0.32 0.31 0.31 0.30 0.30 0.32 0.32 0.31 0.31 0.29 0.27 0.25 0.22 0.21 0.21 0.21 0.21 0.18 0.17 0.17 0.17 0.17 0.18 0.19 0.17 0.18 0.19 0.21 0.24 0.26 0.27 0.28 0.30 0.31
0.50 0.45 0.41 0.39 0.38 0.35 0.33 0.31 0.31 0.30 0.28 0.28 0.27 0.27 0.28 0.31 0.32 0.33 0.32 0.29 0.26 0.24 0.23 0.23 0.22 0.21 0.20 0.19 0.18 0.17 0.18 0.18 0.18 0.16 0.16 0.19 0.19 0.22 0.26 0.27 0.27 0.29 0.30
0.43 0.39 0.37 0.34 0.32 0.31 0.31 0.31 0.31 0.30 0.29 0.29 0.27 0.26 0.27 0.29 0.29 0.30 0.30 0.29 0.29 0.26 0.25 0.25 0.24 0.21 0.21 0.20 0.19 0.19 0.18 0.18 0.17 0.16 0.16 0.18 0.21 0.20 0.21 0.25 0.25 0.25 0.26
0.35 0.32 0.31 0.29 0.28 0.29 0.30 0.30 0.29 0.30 0.30 0.28 0.27 0.28 0.29 0.29 0.30 0.31 0.28 0.29 0.30 0.29 0.27 0.24 0.21 0.20 0.21 0.19 0.19 0.19 0.18 0.18 0.17 0.17 0.16 0.17 0.19 0.20 0.18 0.22 0.26 0.24 0.23
0.27 0.25 0.25 0.26 0.27 0.27 0.27 0.27 0.30 0.30 0.30 0.29 0.30 0.31 0.31 0.33 0.32 0.29 0.28 0.27 0.27 0.26 0.24 0.21 0.21 0.20 0.21 0.20 0.18 0.18 0.19 0.18 0.17 0.16 0.17 0.17 0.18 0.18 0.19 0.19 0.23 0.24 0.21
0.23 0.24 0.25 0.26 0.27 0.27 0.27 0.26 0.24 0.27 0.30 0.30 0.32 0.33 0.34 0.32 0.32 0.29 0.27 0.28 0.28 0.27 0.23 0.21 0.21 0.21 0.21 0.21 0.20 0.19 0.18 0.19 0.18 0.17 0.16 0.16 0.17 0.17 0.18 0.20 0.18 0.20 0.21
0.25 0.25 0.26 0.27 0.29 0.30 0.30 0.29 0.29 0.27 0.25 0.26 0.30 0.32 0.35 0.34 0.34 0.32 0.30 0.29 0.26 0.26 0.24 0.22 0.21 0.22 0.21 0.21 0.21 0.20 0.20 0.20 0.19 0.18 0.16 0.16 0.16 0.16 0.16 0.17 0.18 0.17 0.17
0.26 0.27 0.29 0.30 0.32 0.33 0.33 0.31 0.29 0.30 0.28 0.27 0.28 0.31 0.34 0.34 0.33 0.35 0.33 0.30 0.27 0.25 0.25 0.24 0.24 0.24 0.24 0.23 0.21 0.22 0.22 0.21 0.20 0.19 0.18 0.17 0.16 0.16 0.15 0.17 0.17 0.18 0.17
0.28 0.29 0.31 0.33 0.34 0.33 0.34 0.32 0.30 0.31 0.30 0.28 0.28 0.28 0.32 0.33 0.30 0.30 0.32 0.31 0.30 0.29 0.27 0.25 0.25 0.25 0.24 0.25 0.23 0.22 0.22 0.21 0.21 0.22 0.21 0.18 0.17 0.16 0.15 0.16 0.16 0.16 0.17
0.32 0.32 0.32 0.31 0.32 0.33 0.32 0.30 0.30 0.31 0.30 0.29 0.28 0.31 0.32 0.32 0.31 0.31 0.32 0.32 0.31 0.31 0.30 0.30 0.29 0.27 0.26 0.25 0.24 0.23 0.21 0.21 0.21 0.22 0.21 0.19 0.18 0.15 0.16 0.16 0.16 0.16 0.16
0.28 0.28 0.28 0.29 0.31 0.30 0.28 0.29 0.28 0.27 0.27 0.26 0.30 0.32 0.32 0.32 0.32 0.32 0.32 0.32 0.33 0.34 0.34 0.34 0.32 0.31 0.30 0.27 0.25 0.24 0.22 0.21 0.21 0.22 0.22 0.21 0.19 0.18 0.17 0.16 0.16 0.15 0.15
0.22 0.24 0.26 0.27 0.29 0.31 0.28 0.29 0.28 0.28 0.28 0.28 0.30 0.30 0.30 0.31 0.32 0.32 0.33 0.33 0.34 0.34 0.34 0.34 0.33 0.32 0.33 0.32 0.30 0.27 0.24 0.23 0.22 0.23 0.22 0.22 0.20 0.19 0.18 0.16 0.15 0.15 0.15
0.19 0.18 0.20 0.22 0.29 0.30 0.30 0.30 0.29 0.27 0.28 0.28 0.28 0.29 0.31 0.31 0.31 0.32 0.33 0.34 0.34 0.34 0.34 0.34 0.34 0.33 0.33 0.33 0.32 0.31 0.29 0.27 0.26 0.24 0.24 0.22 0.20 0.20 0.19 0.17 0.15 0.15 0.15
0.19 0.20 0.23 0.23 0.25 0.30 0.30 0.29 0.27 0.27 0.27 0.27 0.28 0.29 0.31 0.31 0.31 0.31 0.31 0.31 0.30 0.30 0.32 0.33 0.34 0.34 0.34 0.33 0.32 0.32 0.30 0.29 0.27 0.25 0.23 0.23 0.21 0.20 0.19 0.16 0.15 0.15 0.15
0.22 0.25 0.26 0.27 0.28 0.29 0.27 0.25 0.25 0.25 0.24 0.24 0.25 0.26 0.27 0.28 0.29 0.30 0.32 0.30 0.28 0.30 0.31 0.32 0.32 0.33 0.34 0.33 0.33 0.32 0.31 0.29 0.27 0.25 0.24 0.24 0.22 0.21 0.20 0.19 0.17 0.16 0.15

GFSGL_prec_pwat_045.txt.gz
Precipitable_Water
0.83 0.83 0.83 0.82 0.80 0.77 0.72 0.69 0.69 0.69 0.60 0.46 0.42 0.40 0.42 0.43 0.41 0.39 0.36 0.34 0.34 0.32 0.32 0.32 0.31 0.31 0.30 0.29 0.28 0.28 0.25 0.23 0.18 0.18 0.19 0.20 0.19 0.19 0.20 0.21 0.22 0.23 0.24
0.83 0.82 0.81 0.81 0.79 0.73 0.70 0.69 0.68 0.62 0.49 0.45 0.44 0.44 0.42 0.43 0.40 0.39 0.33 0.33 0.34 0.33 0.32 0.30 0.28 0.27 0.25 0.26 0.23 0.20 0.19 0.18 0.16 0.13 0.15 0.16 0.17 0.19 0.20 0.20 0.22 0.25 0.25
0.81 0.81 0.82 0.78 0.73 0.69 0.66 0.68 0.62 0.55 0.49 0.47 0.46 0.43 0.41 0.41 0.40 0.39 0.35 0.37 0.37 0.33 0.29 0.27 0.25 0.24 0.22 0.21 0.19 0.18 0.17 0.17 0.17 0.16 0.14 0.16 0.18 0.20 0.21 0.24 0.24 0.25 0.27
0.79 0.77 0.74 0.70 0.69 0.64 0.65 0.59 0.59 0.55 0.47 0.46 0.48 0.41 0.44 0.43 0.41 0.40 0.36 0.36 0.34 0.33 0.30 0.26 0.23 0.22 0.20 0.19 0.19 0.17 0.18 0.17 0.17 0.16 0.15 0.16 0.18 0.21 0.22 0.22 0.23 0.25 0.24
0.72 0.71 0.68 0.66 0.64 0.61 0.60 0.63 0.57 0.50 0.48 0.48 0.42 0.45 0.43 0.42 0.43 0.39 0.35 0.35 0.34 0.31 0.30 0.25 0.23 0.23 0.23 0.21 0.18 0.19 0.19 0.17 0.16 0.15 0.15 0.17 0.18 0.20 0.21 0.24 0.22 0.21 0.21
0.70 0.67 0.61 0.59 0.58 0.60 0.64 0.56 0.52 0.50 0.48 0.45 0.44 0.41 0.43 0.40 0.40 0.38 0.35 0.33 0.32 0.30 0.27 0.24 0.24 0.23 0.22 0.21 0.21 0.21 0.20 0.16 0.13 0.15 0.17 0.17 0.19 0.22 0.22 0.20 0.20 0.19 0.17
0.65 0.60 0.59 0.58 0.60 0.63 0.56 0.52 0.50 0.48 0.44 0.45 0.43 0.41 0.37 0.38 0.39 0.37 0.33 0.33 0.32 0.30 0.29 0.25 0.23 0.24 0.23 0.21 0.21 0.20 0.17 0.17 0.15 0.17 0.17 0.19 0.19 0.20 0.20 0.21 0.21 0.21 0.21
0.61 0.59 0.57 0.58 0.61 0.57 0.54 0.52 0.47 0.46 0.44 0.43 0.41 0.38 0.36 0.37 0.37 0.36 0.33 0.33 0.33 0.32 0.30 0.26 0.23 0.23 0.22 0.20 0.19 0.17 0.16 0.14 0.14 0.17 0.20 0.19 0.19 0.22 0.26 0.26 0.25 0.25 0.25
0.58 0.57 0.60 0.60 0.56 0.55 0.49 0.48 0.46 0.43 0.41 0.39 0.38 0.36 0.35 0.35 0.37 0.36 0.34 0.32 0.32 0.30 0.28 0.24 0.23 0.23 0.22 0.21 0.18 0.16 0.14 0.13 0.16 0.17 0.19 0.21 0.22 0.25 0.28 0.28 0.24 0.22 0.19
0.60 0.62 0.62 0.60 0.55 0.50 0.48 0.44 0.43 0.39 0.35 0.34 0.34 0.35 0.35 0.34 0.35 0.33 0.31 0.31 0.29 0.29 0.26 0.23 0.24 0.23 0.21 0.21 0.19 0.15 0.12 0.13 0.16 0.17 0.17 0.19 0.21 0.24 0.26 0.26 0.25 0.21 0.21
0.67 0.65 0.61 0.57 0.52 0.47 0.43 0.40 0.35 0.33 0.32 0.30 0.31 0.32 0.32 0.32 0.32 0.32 0.32 0.29 0.28 0.25 0.23 0.21 0.23 0.23 0.22 0.21 0.19 0.16 0.15 0.17 0.17 0.17 0.17 0.17 0.20 0.20 0.23 0.26 0.27 0.26 0.23
0.64 0.60 0.56 0.50 0.45 0.40 0.35 0.32 0.32 0.30 0.28 0.29 0.28 0.29 0.31 0.32 0.31 0.31 0.32 0.31 0.30 0.27 0.24 0.24 0.23 0.24 0.22 0.20 0.20 0.18 0.18 0.18 0.17 0.17 0.17 0.16 0.17 0.19 0.19 0.24 0.26 0.27 0.28
0.56 0.49 0.43 0.38 0.33 0.31 0.29 0.28 0.27 0.28 0.27 0.26 0.27 0.26 0.27 0.30 0.30 0.31 0.32 0.33 0.32 0.30 0.27 0.26 0.25 0.25 0.23 0.21 0.21 0.20 0.20 0.18 0.16 0.16 0.15 0.16 0.17 0.19 0.21 0.19 0.25 0.27 0.27
0.41 0.36 0.31 0.27 0.26 0.27 0.26 0.26 0.26 0.27 0.26 0.26 0.26 0.26 0.27 0.27 0.29 0.31 0.32 0.32 0.31 0.28 0.28 0.28 0.26 0.26 0.25 0.21 0.22 0.20 0.20 0.19 0.17 0.16 0.15 0.16 0.17 0.19 0.18 0.20 0.21 0.25 0.23
0.28 0.24 0.23 0.23 0.23 0.23 0.25 0.26 0.27 0.29 0.29 0.27 0.27 0.27 0.26 0.25 0.29 0.32 0.32 0.32 0.31 0.30 0.28 0.28 0.25 0.24 0.22 0.21 0.21 0.21 0.19 0.19 0.18 0.17 0.16 0.15 0.15 0.17 0.17 0.20 0.20 0.22 0.21
0.21 0.21 0.20 0.21 0.22 0.24 0.24 0.25 0.30 0.30 0.30 0.31 0.31 0.30 0.29 0.31 0.32 0.34 0.33 0.33 0.32 0.30 0.27 0.24 0.23 0.22 0.21 0.21 0.21 0.20 0.19 0.20 0.19 0.18 0.17 0.16 0.15 0.15 0.16 0.17 0.19 0.18 0.19
0.21 0.21 0.22 0.22 0.23 0.24 0.26 0.27 0.24 0.27 0.31 0.31 0.30 0.31 0.29 0.29 0.31 0.34 0.34 0.33 0.31 0.28 0.25 0.24 0.23 0.21 0.20 0.21 0.22 0.21 0.19 0.20 0.20 0.20 0.18 0.17 0.16 0.15 0.15 0.16 0.16 0.18 0.16
0.24 0.24 0.24 0.25 0.26 0.27 0.28 0.30 0.31 0.30 0.27 0.27 0.29 0.31 0.31 0.30 0.31 0.33 0.35 0.34 0.30 0.30 0.28 0.26 0.23 0.22 0.22 0.22 0.22 0.21 0.20 0.20 0.21 0.21 0.19 0.18 0.17 0.16 0.15 0.14 0.15 0.15 0.17
0.27 0.27 0.28 0.29 0.30 0.31 0.33 0.34 0.34 0.34 0.32 0.30 0.27 0.29 0.31 0.32 0.31 0.33 0.34 0.31 0.29 0.28 0.29 0.28 0.27 0.24 0.24 0.24 0.23 0.23 0.22 0.20 0.21 0.20 0.19 0.19 0.19 0.17 0.15 0.15 0.15 0.15 0.15
0.29 0.30 0.30 0.30 0.30 0.29 0.29 0.30 0.31 0.32 0.30 0.30 0.28 0.28 0.29 0.29 0.28 0.29 0.31 0.32 0.30 0.30 0.30 0.29 0.29 0.28 0.26 0.26 0.25 0.25 0.23 0.22 0.21 0.19 0.20 0.21 0.20 0.18 0.16 0.15 0.15 0.15 0.14
0.19 0.19 0.20 0.20 0.20 0.22 0.24 0.25 0.28 0.31 0.28 0.28 0.27 0.27 0.28 0.28 0.28 0.30 0.30 0.31 0.31 0.31 0.31 0.31 0.31 0.30 0.30 0.29 0.28 0.25 0.24 0.23 0.22 0.20 0.20 0.21 0.20 0.18 0.17 0.17 0.16 0.16 0.15
0.19 0.19 0.18 0.16 0.16 0.16 0.19 0.22 0.26 0.29 0.30 0.28 0.27 0.27 0.28 0.28 0.29 0.30 0.30 0.32 0.33 0.34 0.34 0.32 0.32 0.32 0.31 0.31 0.30 0.29 0.26 0.24 0.23 0.21 0.20 0.21 0.21 0.20 0.19 0.18 0.16 0.15 0.15
0.14 0.15 0.16 0.17 0.18 0.19 0.21 0.21 0.25 0.30 0.29 0.29 0.28 0.27 0.27 0.27 0.28 0.30 0.31 0.32 0.34 0.34 0.35 0.34 0.33 0.33 0.33 0.32 0.33 0.32 0.29 0.27 0.25 0.24 0.22 0.21 0.21 0.21 0.20 0.19 0.17 0.15 0.15
0.17 0.17 0.18 0.19 0.21 0.22 0.23 0.23 0.23 0.28 0.29 0.27 0.27 0.26 0.25 0.27 0.29 0.30 0.31 0.32 0.32 0.33 0.34 0.34 0.34 0.34 0.33 0.33 0.33 0.34 0.32 0.31 0.30 0.27 0.25 0.22 0.21 0.21 0.20 0.19 0.18 0.16 0.15
0.14 0.15 0.16 0.17 0.19 0.20 0.22 0.23 0.24 0.25 0.25 0.25 0.24 0.23 0.23 0.24 0.25 0.27 0.28 0.30 0.32 0.32 0.31 0.32 0.32 0.32 0.33 0.33 0.33 0.33 0.33 0.32 0.30 0.29 0.27 0.24 0.22 0.21 0.20 0.20 0.18 0.16 0.16
0.13 0.14 0.14 0.15 0.15 0.17 0.18 0.19 0.20 0.21 0.21 0.22 0.21 0.21 0.21 0.21 0.22 0.23 0.25 0.25 0.26 0.27 0.30 0.31 0.31 0.32 0.32 0.33 0.33 0.33 0.33 0.32 0.30 0.29 0.27 0.25 0.21 0.21 0.20 0.19 0.19 0.18 0.16

GFSGL_prec_pwat_048.txt.gz
Precipitable_Water
0.93 0.93 0.90 0.89 0.88 0.87 0.85 0.77 0.81 0.80 0.77 0.71 0.63 0.51 0.45 0.41 0.44 0.44 0.41 0.42 0.38 0.37 0.37 0.34 0.33 0.32 0.29 0.28 0.27 0.26 0.24 0.22 0.17 0.16 0.17 0.17 0.16 0.15 0.17 0.18 0.19 0.20 0.21
0.89 0.88 0.82 0.82 0.86 0.84 0.83 0.82 0.81 0.77 0.74 0.67 0.58 0.50 0.45 0.45 0.46 0.40 0.43 0.41 0.39 0.37 0.36 0.32 0.30 0.29 0.27 0.26 0.24 0.22 0.19 0.19 0.16 0.13 0.15 0.15 0.15 0.15 0.18 0.19 0.20 0.22 0.24
0.93 0.86 0.82 0.87 0.83 0.90 0.75 0.70 0.79 0.71 0.66 0.60 0.56 0.53 0.46 0.45 0.44 0.46 0.42 0.43 0.42 0.37 0.35 0.33 0.31 0.29 0.26 0.23 0.21 0.20 0.19 0.18 0.17 0.16 0.15 0.16 0.14 0.18 0.18 0.21 0.21 0.23 0.24
0.89 0.92 0.86 0.82 0.83 0.69 0.70 0.75 0.67 0.61 0.59 0.58 0.56 0.47 0.47 0.48 0.46 0.48 0.45 0.43 0.40 0.37 0.36 0.34 0.33 0.29 0.24 0.21 0.21 0.20 0.18 0.17 0.17 0.16 0.14 0.13 0.16 0.19 0.20 0.19 0.20 0.20 0.19
0.90 0.84 0.80 0.78 0.71 0.70 0.69 0.66 0.67 0.62 0.60 0.56 0.49 0.48 0.49 0.48 0.47 0.43 0.41 0.40 0.38 0.34 0.35 0.34 0.31 0.29 0.26 0.23 0.21 0.20 0.18 0.17 0.16 0.14 0.13 0.13 0.15 0.17 0.18 0.21 0.18 0.19 0.20
0.81 0.73 0.73 0.71 0.67 0.68 0.67 0.67 0.64 0.62 0.56 0.52 0.50 0.49 0.46 0.44 0.43 0.42 0.40 0.37 0.34 0.32 0.31 0.31 0.30 0.29 0.26 0.24 0.24 0.22 0.20 0.18 0.15 0.14 0.12 0.13 0.15 0.18 0.18 0.18 0.18 0.20 0.18
0.68 0.70 0.68 0.66 0.65 0.64 0.64 0.62 0.61 0.57 0.56 0.51 0.47 0.45 0.43 0.41 0.39 0.37 0.37 0.35 0.33 0.30 0.30 0.30 0.29 0.29 0.25 0.23 0.22 0.21 0.20 0.20 0.17 0.13 0.12 0.14 0.16 0.17 0.19 0.19 0.22 0.22 0.21
0.65 0.63 0.62 0.62 0.63 0.64 0.64 0.61 0.62 0.57 0.49 0.46 0.43 0.41 0.37 0.35 0.36 0.35 0.35 0.33 0.31 0.30 0.31 0.32 0.29 0.27 0.24 0.22 0.21 0.19 0.19 0.18 0.14 0.15 0.16 0.16 0.18 0.21 0.22 0.24 0.25 0.25 0.24
0.63 0.63 0.64 0.66 0.63 0.63 0.65 0.61 0.53 0.48 0.43 0.39 0.35 0.31 0.30 0.31 0.33 0.34 0.33 0.31 0.29 0.29 0.32 0.31 0.29 0.25 0.23 0.23 0.21 0.18 0.18 0.15 0.16 0.17 0.19 0.19 0.19 0.21 0.23 0.23 0.22 0.21 0.19
0.63 0.65 0.65 0.67 0.69 0.63 0.55 0.49 0.43 0.38 0.33 0.29 0.27 0.27 0.28 0.28 0.31 0.32 0.32 0.29 0.27 0.28 0.30 0.29 0.26 0.24 0.23 0.22 0.21 0.19 0.15 0.14 0.15 0.17 0.17 0.18 0.18 0.19 0.20 0.21 0.22 0.21 0.21
0.67 0.68 0.71 0.67 0.57 0.50 0.43 0.38 0.34 0.29 0.26 0.25 0.25 0.26 0.27 0.29 0.30 0.32 0.32 0.30 0.28 0.28 0.28 0.27 0.27 0.25 0.23 0.23 0.23 0.19 0.17 0.18 0.17 0.17 0.17 0.18 0.18 0.18 0.19 0.20 0.20 0.23 0.22
0.69 0.63 0.59 0.53 0.46 0.39 0.31 0.25 0.25 0.24 0.23 0.24 0.24 0.25 0.28 0.29 0.31 0.31 0.32 0.32 0.31 0.29 0.29 0.29 0.29 0.27 0.25 0.25 0.23 0.21 0.21 0.21 0.19 0.17 0.16 0.16 0.16 0.16 0.18 0.20 0.19 0.22 0.27
0.53 0.48 0.42 0.36 0.30 0.25 0.22 0.22 0.22 0.23 0.23 0.22 0.24 0.24 0.25 0.28 0.30 0.31 0.31 0.32 0.32 0.31 0.31 0.30 0.29 0.27 0.26 0.25 0.25 0.23 0.22 0.20 0.19 0.17 0.16 0.16 0.16 0.17 0.18 0.18 0.21 0.22 0.25
0.38 0.33 0.27 0.21 0.20 0.21 0.22 0.22 0.22 0.22 0.22 0.23 0.24 0.24 0.25 0.26 0.27 0.29 0.30 0.31 0.32 0.33 0.33 0.33 0.30 0.29 0.27 0.26 0.26 0.23 0.22 0.21 0.19 0.18 0.17 0.18 0.18 0.17 0.16 0.17 0.18 0.19 0.19
0.23 0.20 0.19 0.19 0.19 0.19 0.20 0.22 0.23 0.25 0.26 0.25 0.26 0.26 0.25 0.24 0.25 0.28 0.29 0.30 0.32 0.32 0.33 0.32 0.29 0.27 0.25 0.24 0.24 0.23 0.23 0.22 0.19 0.19 0.19 0.18 0.17 0.16 0.15 0.17 0.17 0.17 0.16
0.20 0.20 0.21 0.21 0.22 0.22 0.23 0.23 0.27 0.29 0.31 0.31 0.32 0.32 0.31 0.31 0.30 0.29 0.29 0.31 0.33 0.34 0.30 0.28 0.26 0.25 0.24 0.24 0.22 0.21 0.22 0.22 0.20 0.20 0.20 0.20 0.18 0.17 0.15 0.16 0.16 0.15 0.16
0.22 0.22 0.23 0.24 0.24 0.24 0.25 0.26 0.25 0.27 0.32 0.33 0.35 0.36 0.38 0.34 0.32 0.31 0.30 0.30 0.32 0.33 0.28 0.27 0.27 0.25 0.25 0.24 0.22 0.21 0.21 0.22 0.21 0.20 0.20 0.20 0.19 0.18 0.16 0.15 0.15 0.15 0.14
0.26 0.27 0.27 0.27 0.28 0.28 0.29 0.29 0.30 0.29 0.27 0.28 0.33 0.34 0.36 0.36 0.34 0.33 0.32 0.32 0.29 0.31 0.29 0.28 0.27 0.27 0.27 0.24 0.23 0.22 0.22 0.22 0.21 0.20 0.20 0.21 0.19 0.19 0.17 0.15 0.15 0.14 0.14
0.19 0.19 0.19 0.20 0.21 0.21 0.22 0.22 0.22 0.23 0.23 0.25 0.26 0.30 0.33 0.33 0.33 0.33 0.32 0.30 0.28 0.28 0.29 0.29 0.29 0.29 0.28 0.27 0.25 0.24 0.23 0.22 0.22 0.21 0.21 0.20 0.19 0.19 0.18 0.16 0.15 0.15 0.14
0.16 0.15 0.16 0.16 0.16 0.16 0.15 0.15 0.15 0.16 0.20 0.23 0.25 0.28 0.32 0.29 0.26 0.25 0.26 0.28 0.30 0.30 0.29 0.30 0.30 0.30 0.30 0.29 0.27 0.25 0.25 0.24 0.23 0.22 0.21 0.20 0.20 0.20 0.18 0.17 0.16 0.15 0.14
0.13 0.13 0.14 0.15 0.15 0.16 0.16 0.16 0.17 0.17 0.18 0.19 0.22 0.31 0.32 0.29 0.26 0.26 0.26 0.28 0.30 0.30 0.30 0.31 0.31 0.31 0.31 0.31 0.30 0.28 0.27 0.25 0.25 0.24 0.23 0.21 0.20 0.19 0.20 0.18 0.18 0.16 0.15
0.14 0.14 0.14 0.15 0.16 0.16 0.18 0.20 0.20 0.21 0.21 0.21 0.24 0.29 0.31 0.29 0.28 0.27 0.27 0.28 0.30 0.31 0.33 0.33 0.32 0.32 0.32 0.31 0.31 0.30 0.29 0.28 0.27 0.25 0.24 0.22 0.20 0.20 0.20 0.19 0.19 0.17 0.16
0.13 0.13 0.13 0.13 0.14 0.15 0.17 0.18 0.19 0.19 0.21 0.23 0.26 0.27 0.27 0.26 0.26 0.26 0.26 0.29 0.32 0.32 0.33 0.33 0.33 0.32 0.33 0.33 0.33 0.32 0.30 0.29 0.29 0.29 0.26 0.23 0.21 0.20 0.20 0.20 0.19 0.17 0.16
0.12 0.12 0.11 0.11 0.12 0.13 0.14 0.15 0.17 0.18 0.19 0.21 0.22 0.23 0.23 0.24 0.24 0.25 0.25 0.26 0.27 0.28 0.31 0.33 0.33 0.32 0.33 0.33 0.34 0.34 0.34 0.33 0.33 0.30 0.29 0.26 0.23 0.21 0.21 0.20 0.19 0.18 0.17
0.11 0.11 0.10 0.10 0.11 0.11 0.12 0.13 0.13 0.15 0.16 0.18 0.19 0.19 0.21 0.21 0.21 0.20 0.21 0.22 0.24 0.25 0.27 0.28 0.30 0.32 0.32 0.32 0.32 0.33 0.34 0.34 0.33 0.32 0.30 0.27 0.25 0.23 0.21 0.21 0.20 0.19 0.17
0.10 0.10 0.10 0.10 0.10 0.11 0.11 0.11 0.12 0.13 0.13 0.15 0.16 0.17 0.18 0.19 0.19 0.18 0.19 0.19 0.20 0.22 0.23 0.25 0.28 0.30 0.32 0.32 0.32 0.33 0.33 0.33 0.32 0.32 0.30 0.27 0.25 0.23 0.21 0.21 0.20 0.18 0.18

GFSGL_prec_pwat_051.txt.gz
Precipitable_Water
0.92 0.94 1.00 0.98 0.96 0.94 0.89 0.86 0.86 0.85 0.90 0.89 0.76 0.72 0.66 0.58 0.55 0.48 0.45 0.44 0.44 0.43 0.44 0.40 0.36 0.37 0.34 0.33 0.32 0.29 0.25 0.22 0.17 0.16 0.18 0.18 0.16 0.16 0.14 0.17 0.18 0.19 0.20
1.04 1.06 1.01 0.97 0.92 0.88 0.85 0.85 0.81 0.89 0.86 0.75 0.74 0.69 0.62 0.57 0.52 0.46 0.48 0.46 0.45 0.43 0.41 0.39 0.36 0.36 0.33 0.31 0.30 0.26 0.21 0.21 0.18 0.15 0.15 0.16 0.15 0.15 0.15 0.16 0.17 0.20 0.22
1.03 0.99 0.94 0.90 0.92 0.89 0.84 0.83 0.92 0.78 0.75 0.71 0.67 0.63 0.58 0.54 0.52 0.50 0.48 0.47 0.43 0.42 0.42 0.38 0.34 0.32 0.31 0.32 0.27 0.23 0.21 0.21 0.19 0.16 0.15 0.17 0.15 0.14 0.14 0.17 0.19 0.20 0.21
1.00 0.95 0.92 0.92 0.89 0.81 0.85 0.86 0.78 0.74 0.68 0.65 0.66 0.60 0.57 0.54 0.51 0.49 0.46 0.43 0.41 0.39 0.36 0.33 0.31 0.31 0.31 0.26 0.24 0.22 0.21 0.19 0.19 0.17 0.16 0.14 0.13 0.14 0.16 0.16 0.16 0.19 0.17
0.94 0.93 0.91 0.89 0.82 0.84 0.79 0.75 0.69 0.68 0.70 0.65 0.61 0.59 0.55 0.53 0.49 0.46 0.42 0.38 0.35 0.32 0.31 0.30 0.29 0.29 0.29 0.28 0.26 0.24 0.21 0.20 0.19 0.17 0.15 0.12 0.12 0.12 0.14 0.16 0.16 0.17 0.20
0.92 0.91 0.86 0.79 0.77 0.74 0.73 0.69 0.69 0.67 0.63 0.64 0.62 0.58 0.51 0.48 0.44 0.40 0.36 0.32 0.30 0.29 0.28 0.28 0.28 0.29 0.29 0.30 0.29 0.24 0.23 0.20 0.18 0.16 0.14 0.11 0.11 0.14 0.15 0.16 0.17 0.17 0.17
0.81 0.77 0.75 0.74 0.70 0.68 0.66 0.64 0.64 0.66 0.67 0.66 0.57 0.50 0.45 0.40 0.37 0.32 0.31 0.29 0.29 0.29 0.28 0.27 0.27 0.29 0.31 0.29 0.28 0.24 0.23 0.23 0.21 0.18 0.12 0.12 0.13 0.14 0.16 0.16 0.18 0.19 0.20
0.67 0.68 0.70 0.67 0.65 0.64 0.66 0.68 0.70 0.69 0.62 0.53 0.46 0.39 0.34 0.30 0.28 0.29 0.30 0.30 0.29 0.28 0.28 0.28 0.27 0.30 0.29 0.28 0.25 0.22 0.22 0.22 0.21 0.16 0.14 0.15 0.16 0.17 0.18 0.19 0.20 0.20 0.21
0.65 0.64 0.64 0.64 0.67 0.69 0.68 0.68 0.66 0.56 0.48 0.39 0.33 0.27 0.23 0.23 0.26 0.28 0.29 0.29 0.28 0.28 0.29 0.29 0.30 0.29 0.28 0.25 0.23 0.22 0.22 0.22 0.19 0.17 0.18 0.19 0.19 0.18 0.18 0.18 0.16 0.17 0.15
0.60 0.62 0.67 0.72 0.71 0.69 0.65 0.57 0.51 0.43 0.35 0.28 0.24 0.24 0.24 0.23 0.26 0.28 0.30 0.30 0.28 0.27 0.29 0.29 0.31 0.29 0.28 0.26 0.24 0.22 0.21 0.20 0.17 0.16 0.17 0.18 0.19 0.19 0.19 0.18 0.18 0.16 0.16
0.66 0.71 0.73 0.72 0.65 0.60 0.54 0.45 0.38 0.29 0.24 0.22 0.22 0.23 0.24 0.25 0.26 0.29 0.31 0.30 0.28 0.27 0.27 0.28 0.30 0.31 0.30 0.28 0.26 0.24 0.22 0.22 0.19 0.18 0.18 0.18 0.18 0.18 0.18 0.18 0.19 0.18 0.17
0.68 0.65 0.63 0.58 0.52 0.45 0.38 0.30 0.25 0.23 0.22 0.21 0.21 0.21 0.23 0.26 0.28 0.29 0.30 0.32 0.31 0.28 0.27 0.29 0.30 0.31 0.31 0.29 0.27 0.26 0.25 0.24 0.22 0.19 0.18 0.17 0.17 0.17 0.17 0.17 0.18 0.19 0.22
0.55 0.51 0.46 0.41 0.36 0.30 0.24 0.22 0.21 0.21 0.19 0.19 0.20 0.20 0.21 0.25 0.28 0.29 0.30 0.31 0.32 0.30 0.30 0.30 0.32 0.33 0.33 0.31 0.28 0.28 0.27 0.25 0.22 0.19 0.17 0.17 0.18 0.18 0.19 0.17 0.18 0.18 0.19
0.41 0.37 0.32 0.27 0.23 0.22 0.21 0.21 0.20 0.19 0.20 0.21 0.21 0.22 0.23 0.25 0.26 0.27 0.29 0.30 0.31 0.32 0.32 0.32 0.32 0.33 0.33 0.32 0.29 0.28 0.27 0.25 0.23 0.21 0.18 0.18 0.19 0.19 0.18 0.17 0.16 0.16 0.15
0.31 0.26 0.24 0.23 0.22 0.22 0.22 0.23 0.23 0.24 0.26 0.25 0.25 0.26 0.27 0.25 0.26 0.31 0.31 0.30 0.30 0.30 0.31 0.30 0.29 0.29 0.29 0.29 0.28 0.28 0.27 0.25 0.23 0.23 0.20 0.18 0.18 0.19 0.18 0.18 0.16 0.16 0.14
0.24 0.23 0.23 0.23 0.23 0.23 0.23 0.22 0.26 0.27 0.28 0.30 0.32 0.33 0.33 0.33 0.34 0.36 0.37 0.36 0.34 0.32 0.29 0.26 0.25 0.28 0.27 0.27 0.26 0.26 0.27 0.24 0.22 0.23 0.21 0.19 0.18 0.19 0.18 0.18 0.17 0.15 0.14
0.22 0.22 0.22 0.21 0.20 0.20 0.20 0.19 0.17 0.18 0.22 0.22 0.23 0.26 0.29 0.31 0.33 0.37 0.36 0.37 0.36 0.34 0.29 0.26 0.25 0.27 0.27 0.27 0.27 0.27 0.25 0.23 0.23 0.24 0.21 0.19 0.19 0.19 0.19 0.18 0.16 0.15 0.14
0.18 0.16 0.15 0.14 0.14 0.14 0.14 0.14 0.15 0.14 0.13 0.12 0.14 0.17 0.21 0.24 0.26 0.30 0.34 0.34 0.32 0.32 0.29 0.27 0.25 0.27 0.28 0.28 0.28 0.27 0.26 0.24 0.23 0.23 0.22 0.20 0.20 0.19 0.18 0.18 0.17 0.15 0.14
0.14 0.14 0.14 0.14 0.14 0.15 0.14 0.14 0.14 0.15 0.15 0.15 0.16 0.16 0.17 0.19 0.27 0.32 0.34 0.32 0.28 0.27 0.27 0.27 0.28 0.28 0.29 0.29 0.29 0.29 0.27 0.24 0.23 0.22 0.22 0.21 0.20 0.19 0.19 0.18 0.17 0.17 0.15
0.14 0.14 0.14 0.13 0.14 0.14 0.14 0.14 0.15 0.16 0.16 0.16 0.17 0.18 0.20 0.21 0.21 0.29 0.30 0.29 0.28 0.27 0.28 0.28 0.30 0.30 0.30 0.30 0.29 0.29 0.28 0.25 0.24 0.23 0.22 0.22 0.22 0.20 0.19 0.18 0.17 0.17 0.16
0.13 0.13 0.13 0.13 0.13 0.12 0.13 0.13 0.15 0.15 0.15 0.15 0.16 0.21 0.24 0.23 0.22 0.28 0.28 0.28 0.27 0.27 0.28 0.29 0.29 0.30 0.31 0.30 0.30 0.29 0.29 0.27 0.25 0.25 0.24 0.23 0.22 0.20 0.19 0.19 0.19 0.18 0.17
0.12 0.12 0.11 0.11 0.11 0.11 0.11 0.12 0.13 0.13 0.14 0.15 0.16 0.18 0.20 0.22 0.23 0.25 0.27 0.26 0.26 0.27 0.30 0.31 0.30 0.31 0.31 0.31 0.31 0.30 0.29 0.28 0.28 0.27 0.26 0.24 0.23 0.22 0.20 0.19 0.19 0.18 0.18
0.11 0.11 0.10 0.10 0.10 0.10 0.10 0.11 0.11 0.11 0.12 0.12 0.15 0.16 0.18 0.20 0.20 0.21 0.23 0.23 0.24 0.24 0.26 0.27 0.29 0.31 0.32 0.32 0.33 0.32 0.30 0.29 0.30 0.30 0.28 0.27 0.25 0.23 0.20 0.19 0.19 0.19 0.18
0.10 0.10 0.09 0.09 0.09 0.09 0.09 0.10 0.10 0.10 0.11 0.11 0.12 0.14 0.16 0.17 0.18 0.19 0.20 0.21 0.21 0.22 0.23 0.25 0.27 0.28 0.30 0.32 0.33 0.33 0.33 0.33 0.33 0.31 0.30 0.28 0.26 0.25 0.22 0.20 0.20 0.19 0.18
0.09 0.09 0.09 0.08 0.09 0.09 0.09 0.09 0.09 0.10 0.10 0.10 0.11 0.12 0.13 0.15 0.17 0.17 0.18 0.19 0.19 0.20 0.20 0.21 0.24 0.26 0.27 0.28 0.31 0.32 0.33 0.33 0.33 0.32 0.31 0.29 0.27 0.25 0.24 0.22 0.20 0.20 0.19
0.09 0.09 0.09 0.09 0.09 0.09 0.09 0.09 0.09 0.09 0.10 0.10 0.11 0.11 0.12 0.13 0.15 0.16 0.17 0.17 0.18 0.18 0.19 0.20 0.22 0.24 0.25 0.28 0.30 0.33 0.33 0.33 0.32 0.32 0.31 0.29 0.26 0.25 0.24 0.22 0.20 0.20 0.19

GFSGL_prec_pwat_054.txt.gz
Precipitable_Water
1.06 1.08 1.08 1.05 1.03 1.06 1.05 1.00 0.98 0.96 0.91 0.90 0.92 0.91 0.80 0.73 0.72 0.65 0.57 0.54 0.50 0.48 0.49 0.47 0.42 0.39 0.35 0.31 0.29 0.27 0.25 0.24 0.18 0.17 0.19 0.20 0.19 0.18 0.16 0.15 0.16 0.17 0.19
1.11 1.12 1.09 1.12 1.13 1.10 1.05 1.04 0.96 0.92 0.93 0.92 0.84 0.80 0.73 0.69 0.67 0.61 0.55 0.51 0.50 0.48 0.45 0.40 0.36 0.32 0.27 0.26 0.25 0.26 0.25 0.23 0.20 0.16 0.18 0.18 0.18 0.17 0.15 0.14 0.16 0.18 0.19
1.10 1.10 1.08 1.08 1.07 1.04 1.02 0.95 0.92 0.88 0.88 0.86 0.81 0.72 0.69 0.68 0.62 0.59 0.54 0.52 0.48 0.43 0.38 0.33 0.28 0.26 0.24 0.25 0.27 0.27 0.24 0.23 0.22 0.19 0.17 0.19 0.17 0.16 0.13 0.15 0.16 0.17 0.18
1.07 1.07 1.05 1.04 1.03 0.98 0.95 0.90 0.86 0.83 0.80 0.80 0.72 0.71 0.68 0.63 0.61 0.55 0.53 0.48 0.42 0.34 0.30 0.29 0.27 0.26 0.25 0.26 0.27 0.25 0.25 0.24 0.23 0.19 0.18 0.17 0.16 0.15 0.14 0.13 0.13 0.15 0.16
0.93 0.91 0.95 0.98 0.96 0.91 0.86 0.82 0.79 0.82 0.77 0.70 0.67 0.68 0.66 0.63 0.58 0.52 0.46 0.39 0.31 0.28 0.28 0.28 0.28 0.28 0.27 0.27 0.26 0.25 0.25 0.24 0.22 0.19 0.18 0.16 0.15 0.12 0.11 0.14 0.13 0.14 0.17
0.86 0.85 0.85 0.84 0.84 0.80 0.74 0.75 0.76 0.70 0.66 0.66 0.70 0.67 0.67 0.61 0.50 0.44 0.37 0.30 0.28 0.26 0.26 0.28 0.28 0.28 0.28 0.29 0.29 0.30 0.28 0.24 0.22 0.19 0.18 0.16 0.14 0.12 0.14 0.14 0.14 0.14 0.13
0.74 0.73 0.72 0.74 0.78 0.71 0.72 0.70 0.64 0.65 0.70 0.71 0.70 0.67 0.54 0.46 0.40 0.34 0.30 0.27 0.26 0.26 0.28 0.28 0.27 0.28 0.28 0.27 0.29 0.29 0.29 0.27 0.24 0.22 0.19 0.17 0.13 0.14 0.15 0.15 0.15 0.15 0.15
0.67 0.71 0.74 0.71 0.66 0.66 0.67 0.69 0.71 0.72 0.70 0.68 0.60 0.50 0.41 0.34 0.29 0.26 0.26 0.27 0.27 0.27 0.29 0.29 0.28 0.28 0.29 0.28 0.28 0.26 0.25 0.24 0.24 0.24 0.22 0.17 0.16 0.18 0.18 0.17 0.16 0.16 0.16
0.67 0.66 0.64 0.65 0.66 0.69 0.70 0.70 0.71 0.69 0.62 0.55 0.46 0.37 0.29 0.25 0.25 0.25 0.25 0.26 0.26 0.27 0.30 0.30 0.30 0.28 0.30 0.31 0.27 0.24 0.23 0.23 0.25 0.25 0.22 0.20 0.20 0.20 0.20 0.18 0.15 0.14 0.12
0.61 0.63 0.67 0.69 0.71 0.70 0.69 0.66 0.63 0.57 0.48 0.40 0.32 0.28 0.25 0.24 0.25 0.26 0.27 0.27 0.26 0.27 0.30 0.31 0.31 0.30 0.31 0.31 0.28 0.26 0.24 0.22 0.23 0.23 0.20 0.19 0.20 0.20 0.20 0.18 0.17 0.14 0.14
0.62 0.65 0.70 0.70 0.66 0.62 0.58 0.53 0.49 0.41 0.33 0.27 0.24 0.23 0.23 0.24 0.24 0.26 0.28 0.28 0.27 0.28 0.28 0.29 0.30 0.31 0.31 0.31 0.31 0.29 0.26 0.25 0.24 0.23 0.21 0.21 0.20 0.19 0.19 0.19 0.18 0.17 0.15
0.63 0.61 0.57 0.55 0.52 0.48 0.43 0.37 0.31 0.26 0.22 0.20 0.20 0.19 0.21 0.23 0.25 0.25 0.27 0.30 0.30 0.30 0.28 0.29 0.30 0.31 0.31 0.31 0.31 0.31 0.30 0.27 0.25 0.24 0.23 0.22 0.20 0.18 0.19 0.19 0.19 0.18 0.19
0.51 0.48 0.46 0.43 0.39 0.35 0.29 0.24 0.22 0.22 0.21 0.20 0.20 0.20 0.21 0.23 0.25 0.27 0.29 0.30 0.31 0.31 0.30 0.31 0.32 0.33 0.33 0.32 0.32 0.32 0.31 0.29 0.26 0.25 0.23 0.22 0.21 0.20 0.20 0.20 0.20 0.19 0.18
0.44 0.40 0.37 0.33 0.29 0.27 0.26 0.25 0.24 0.23 0.22 0.23 0.23 0.23 0.25 0.25 0.26 0.27 0.29 0.32 0.31 0.32 0.31 0.32 0.32 0.33 0.33 0.33 0.31 0.32 0.31 0.30 0.27 0.26 0.24 0.24 0.24 0.20 0.19 0.20 0.18 0.17 0.16
0.35 0.31 0.27 0.25 0.23 0.22 0.21 0.21 0.20 0.20 0.21 0.19 0.19 0.20 0.20 0.18 0.20 0.25 0.28 0.30 0.32 0.34 0.35 0.33 0.31 0.30 0.29 0.29 0.29 0.29 0.30 0.29 0.27 0.27 0.25 0.23 0.23 0.20 0.19 0.20 0.19 0.18 0.15
0.26 0.24 0.21 0.18 0.16 0.15 0.15 0.15 0.16 0.16 0.16 0.16 0.17 0.17 0.17 0.18 0.18 0.19 0.21 0.24 0.30 0.34 0.31 0.31 0.28 0.27 0.27 0.27 0.27 0.27 0.28 0.28 0.28 0.28 0.26 0.23 0.22 0.20 0.19 0.19 0.19 0.18 0.15
0.20 0.18 0.16 0.15 0.15 0.15 0.14 0.13 0.12 0.13 0.15 0.15 0.16 0.16 0.17 0.18 0.19 0.18 0.19 0.20 0.26 0.29 0.27 0.30 0.28 0.27 0.26 0.27 0.27 0.27 0.26 0.28 0.29 0.27 0.24 0.22 0.23 0.20 0.19 0.18 0.18 0.17 0.16
0.17 0.16 0.15 0.15 0.15 0.15 0.14 0.13 0.13 0.12 0.12 0.13 0.14 0.15 0.16 0.17 0.19 0.20 0.20 0.22 0.23 0.27 0.28 0.28 0.28 0.27 0.28 0.27 0.27 0.27 0.28 0.28 0.27 0.27 0.24 0.23 0.23 0.20 0.19 0.18 0.18 0.17 0.16
0.17 0.16 0.16 0.15 0.14 0.14 0.13 0.12 0.12 0.13 0.13 0.12 0.12 0.13 0.15 0.15 0.17 0.21 0.22 0.22 0.24 0.27 0.29 0.29 0.28 0.27 0.27 0.27 0.29 0.28 0.28 0.28 0.27 0.26 0.24 0.23 0.22 0.20 0.19 0.19 0.18 0.17 0.16
0.17 0.16 0.14 0.13 0.12 0.12 0.11 0.11 0.11 0.11 0.11 0.11 0.11 0.12 0.13 0.14 0.14 0.16 0.19 0.24 0.27 0.27 0.27 0.27 0.27 0.28 0.28 0.29 0.29 0.29 0.28 0.28 0.27 0.26 0.24 0.23 0.23 0.22 0.20 0.19 0.18 0.17 0.17
0.15 0.14 0.12 0.12 0.11 0.11 0.10 0.10 0.10 0.10 0.10 0.10 0.10 0.12 0.12 0.13 0.14 0.16 0.18 0.19 0.21 0.23 0.24 0.24 0.26 0.27 0.29 0.29 0.29 0.29 0.28 0.28 0.28 0.27 0.25 0.24 0.24 0.22 0.22 0.20 0.19 0.18 0.18
0.13 0.12 0.11 0.10 0.10 0.10 0.10 0.10 0.10 0.09 0.09 0.09 0.09 0.10 0.11 0.11 0.13 0.15 0.17 0.19 0.20 0.21 0.22 0.23 0.23 0.26 0.28 0.29 0.29 0.29 0.28 0.28 0.28 0.28 0.26 0.26 0.24 0.23 0.22 0.21 0.19 0.18 0.18
0.12 0.11 0.10 0.10 0.09 0.09 0.09 0.09 0.09 0.09 0.09 0.09 0.09 0.10 0.10 0.11 0.11 0.13 0.15 0.17 0.19 0.20 0.21 0.22 0.22 0.23 0.26 0.27 0.29 0.30 0.29 0.28 0.30 0.30 0.28 0.26 0.26 0.25 0.23 0.22 0.19 0.18 0.18
0.11 0.10 0.09 0.09 0.09 0.08 0.08 0.08 0.09 0.08 0.09 0.09 0.09 0.10 0.10 0.10 0.11 0.12 0.13 0.16 0.17 0.18 0.20 0.20 0.21 0.20 0.22 0.24 0.26 0.28 0.31 0.32 0.32 0.31 0.30 0.28 0.27 0.26 0.25 0.23 0.21 0.19 0.18
0.10 0.09 0.09 0.08 0.08 0.08 0.08 0.08 0.08 0.08 0.08 0.09 0.09 0.10 0.10 0.10 0.10 0.11 0.12 0.13 0.15 0.17 0.18 0.19 0.20 0.20 0.20 0.22 0.25 0.27 0.29 0.31 0.32 0.32 0.31 0.29 0.28 0.27 0.25 0.24 0.22 0.20 0.19
0.10 0.09 0.08 0.08 0.08 0.08 0.08 0.07 0.08 0.08 0.08 0.08 0.08 0.09 0.09 0.10 0.10 0.10 0.11 0.12 0.13 0.15 0.16 0.18 0.19 0.19 0.20 0.21 0.23 0.25 0.27 0.29 0.31 0.32 0.31 0.29 0.27 0.26 0.25 0.24 0.22 0.21 0.19

GFSGL_prec_pwat_060.txt.gz
Precipitable_Water
1.03 1.04 1.04 1.08 1.10 1.17 1.18 1.19 1.21 1.21 1.17 1.11 1.03 0.99 0.97 0.93 0.93 0.87 0.80 0.76 0.75 0.71 0.66 0.59 0.54 0.52 0.45 0.38 0.33 0.30 0.28 0.27 0.22 0.23 0.27 0.29 0.28 0.27 0.27 0.26 0.24 0.21 0.18
0.97 1.01 1.01 1.07 1.10 1.13 1.14 1.17 1.20 1.13 1.10 1.09 1.07 1.01 0.97 0.89 0.87 0.81 0.78 0.77 0.70 0.65 0.61 0.57 0.52 0.47 0.41 0.36 0.33 0.30 0.28 0.28 0.26 0.22 0.27 0.27 0.27 0.28 0.27 0.26 0.23 0.20 0.17
0.98 1.00 1.02 1.05 1.04 1.05 1.08 1.10 1.10 1.11 1.10 1.05 0.99 0.96 0.89 0.81 0.77 0.80 0.77 0.70 0.66 0.62 0.57 0.53 0.47 0.44 0.37 0.34 0.32 0.30 0.29 0.28 0.28 0.27 0.24 0.27 0.27 0.28 0.26 0.25 0.23 0.19 0.18
1.03 1.01 0.96 0.97 0.97 0.96 0.97 0.95 0.96 0.98 0.92 0.95 0.86 0.82 0.77 0.74 0.79 0.78 0.72 0.68 0.64 0.60 0.56 0.48 0.43 0.38 0.34 0.32 0.31 0.30 0.29 0.28 0.28 0.27 0.25 0.25 0.26 0.27 0.26 0.22 0.21 0.18 0.16
1.01 0.97 0.95 0.95 0.92 0.90 0.87 0.89 0.90 0.88 0.82 0.78 0.76 0.75 0.72 0.76 0.75 0.73 0.70 0.68 0.61 0.55 0.48 0.43 0.40 0.36 0.32 0.31 0.29 0.28 0.28 0.28 0.27 0.25 0.24 0.24 0.24 0.24 0.22 0.22 0.20 0.17 0.17
0.94 0.92 0.91 0.88 0.86 0.84 0.81 0.79 0.77 0.75 0.73 0.73 0.74 0.72 0.72 0.73 0.74 0.72 0.69 0.62 0.53 0.45 0.39 0.37 0.36 0.37 0.35 0.31 0.30 0.30 0.29 0.27 0.26 0.26 0.25 0.25 0.25 0.25 0.23 0.23 0.20 0.16 0.15
0.81 0.80 0.77 0.73 0.68 0.66 0.66 0.66 0.68 0.69 0.69 0.68 0.71 0.71 0.71 0.72 0.71 0.62 0.53 0.44 0.39 0.37 0.35 0.34 0.33 0.34 0.34 0.33 0.34 0.32 0.31 0.30 0.30 0.29 0.26 0.27 0.26 0.25 0.24 0.23 0.19 0.18 0.17
0.64 0.63 0.63 0.61 0.61 0.63 0.66 0.66 0.67 0.66 0.66 0.68 0.69 0.68 0.65 0.58 0.50 0.42 0.37 0.34 0.32 0.30 0.30 0.32 0.32 0.31 0.33 0.35 0.34 0.32 0.32 0.32 0.32 0.32 0.29 0.28 0.27 0.27 0.26 0.23 0.21 0.21 0.20
0.55 0.57 0.60 0.64 0.61 0.61 0.61 0.63 0.66 0.66 0.66 0.64 0.58 0.51 0.45 0.40 0.37 0.32 0.29 0.28 0.27 0.28 0.30 0.32 0.32 0.31 0.32 0.33 0.33 0.31 0.31 0.31 0.34 0.32 0.31 0.30 0.29 0.28 0.26 0.23 0.21 0.20 0.18
0.57 0.59 0.61 0.61 0.59 0.60 0.61 0.60 0.58 0.53 0.47 0.44 0.38 0.34 0.31 0.28 0.28 0.26 0.26 0.27 0.26 0.28 0.29 0.29 0.30 0.30 0.30 0.32 0.33 0.32 0.31 0.30 0.33 0.32 0.30 0.28 0.29 0.28 0.27 0.25 0.24 0.20 0.19
0.58 0.58 0.58 0.59 0.58 0.55 0.51 0.48 0.43 0.37 0.33 0.31 0.29 0.30 0.30 0.31 0.30 0.30 0.29 0.28 0.27 0.26 0.26 0.27 0.29 0.30 0.32 0.31 0.34 0.35 0.34 0.35 0.33 0.32 0.31 0.30 0.29 0.27 0.26 0.26 0.26 0.24 0.21
0.55 0.55 0.53 0.50 0.47 0.45 0.40 0.36 0.33 0.31 0.30 0.29 0.28 0.25 0.25 0.26 0.25 0.23 0.21 0.20 0.20 0.19 0.18 0.19 0.22 0.27 0.30 0.33 0.33 0.34 0.35 0.35 0.35 0.34 0.30 0.28 0.27 0.27 0.27 0.28 0.28 0.27 0.25
0.51 0.49 0.46 0.43 0.38 0.34 0.31 0.28 0.27 0.26 0.23 0.21 0.21 0.21 0.22 0.23 0.22 0.22 0.21 0.19 0.17 0.17 0.18 0.18 0.19 0.21 0.21 0.26 0.32 0.36 0.34 0.35 0.34 0.31 0.30 0.29 0.30 0.29 0.30 0.29 0.29 0.27 0.26
0.46 0.42 0.37 0.32 0.29 0.26 0.25 0.24 0.23 0.22 0.21 0.20 0.20 0.20 0.20 0.19 0.19 0.19 0.17 0.18 0.17 0.17 0.18 0.20 0.20 0.18 0.18 0.21 0.24 0.30 0.35 0.35 0.32 0.31 0.30 0.30 0.32 0.30 0.29 0.29 0.27 0.27 0.24
0.37 0.32 0.29 0.27 0.25 0.24 0.24 0.23 0.21 0.23 0.20 0.19 0.20 0.18 0.17 0.16 0.16 0.16 0.16 0.16 0.16 0.17 0.19 0.19 0.18 0.20 0.19 0.21 0.25 0.27 0.33 0.34 0.32 0.32 0.31 0.30 0.30 0.29 0.28 0.29 0.28 0.26 0.22
0.30 0.28 0.26 0.26 0.26 0.24 0.22 0.21 0.23 0.20 0.20 0.21 0.19 0.16 0.16 0.15 0.14 0.14 0.14 0.14 0.14 0.16 0.18 0.20 0.20 0.20 0.20 0.22 0.24 0.26 0.31 0.32 0.30 0.31 0.30 0.29 0.28 0.27 0.27 0.28 0.27 0.25 0.21
0.28 0.27 0.27 0.26 0.24 0.22 0.20 0.20 0.19 0.21 0.20 0.20 0.17 0.15 0.15 0.13 0.13 0.13 0.12 0.12 0.14 0.15 0.17 0.18 0.18 0.20 0.25 0.26 0.25 0.26 0.29 0.31 0.30 0.30 0.29 0.29 0.28 0.28 0.27 0.27 0.26 0.23 0.21
0.28 0.27 0.27 0.25 0.22 0.21 0.21 0.20 0.19 0.17 0.16 0.16 0.17 0.15 0.14 0.13 0.12 0.12 0.12 0.12 0.11 0.13 0.15 0.17 0.19 0.21 0.24 0.27 0.31 0.30 0.30 0.30 0.29 0.28 0.29 0.29 0.29 0.28 0.27 0.25 0.25 0.23 0.21
0.29 0.26 0.24 0.23 0.22 0.20 0.20 0.19 0.18 0.16 0.15 0.15 0.15 0.14 0.14 0.12 0.12 0.13 0.13 0.12 0.11 0.11 0.12 0.14 0.18 0.20 0.23 0.25 0.27 0.30 0.29 0.29 0.29 0.28 0.29 0.28 0.29 0.28 0.26 0.26 0.24 0.23 0.21
0.26 0.23 0.22 0.22 0.20 0.19 0.18 0.17 0.15 0.15 0.14 0.14 0.13 0.13 0.12 0.11 0.11 0.11 0.12 0.12 0.11 0.11 0.11 0.12 0.15 0.18 0.21 0.23 0.24 0.26 0.27 0.29 0.28 0.29 0.29 0.28 0.29 0.28 0.27 0.26 0.24 0.23 0.20
0.24 0.22 0.20 0.20 0.19 0.18 0.17 0.15 0.15 0.14 0.13 0.12 0.12 0.13 0.11 0.10 0.11 0.11 0.11 0.11 0.11 0.11 0.11 0.12 0.12 0.16 0.19 0.21 0.22 0.23 0.24 0.25 0.28 0.28 0.28 0.29 0.29 0.27 0.27 0.27 0.25 0.23 0.22
0.22 0.20 0.20 0.19 0.18 0.17 0.15 0.15 0.14 0.13 0.12 0.12 0.12 0.12 0.11 0.11 0.11 0.10 0.10 0.10 0.11 0.11 0.12 0.12 0.12 0.13 0.17 0.19 0.20 0.21 0.22 0.23 0.25 0.27 0.27 0.28 0.29 0.28 0.27 0.26 0.25 0.24 0.22
0.21 0.20 0.19 0.17 0.16 0.15 0.14 0.14 0.13 0.12 0.11 0.11 0.11 0.10 0.10 0.10 0.09 0.09 0.10 0.10 0.10 0.10 0.11 0.11 0.12 0.12 0.15 0.18 0.20 0.20 0.21 0.22 0.23 0.24 0.24 0.27 0.28 0.28 0.27 0.26 0.25 0.24 0.22
0.20 0.19 0.17 0.16 0.15 0.14 0.13 0.12 0.12 0.11 0.11 0.10 0.10 0.10 0.09 0.09 0.09 0.09 0.09 0.10 0.10 0.10 0.10 0.10 0.11 0.12 0.13 0.16 0.19 0.20 0.21 0.22 0.22 0.23 0.24 0.25 0.27 0.28 0.27 0.27 0.26 0.25 0.24
0.19 0.18 0.16 0.15 0.14 0.13 0.12 0.12 0.11 0.11 0.10 0.10 0.09 0.09 0.09 0.09 0.09 0.09 0.09 0.09 0.09 0.09 0.10 0.10 0.10 0.12 0.13 0.14 0.18 0.19 0.20 0.21 0.21 0.22 0.24 0.25 0.27 0.28 0.28 0.27 0.26 0.25 0.24
0.18 0.17 0.16 0.15 0.14 0.13 0.12 0.11 0.10 0.10 0.09 0.09 0.09 0.09 0.09 0.09 0.09 0.09 0.09 0.09 0.10 0.10 0.11 0.11 0.10 0.11 0.13 0.14 0.17 0.19 0.20 0.20 0.20 0.21 0.23 0.24 0.25 0.27 0.28 0.27 0.26 0.25 0.24

GFSGL_prec_pwat_063.txt.gz
Precipitable_Water
1.24 1.24 1.24 1.22 1.20 1.22 1.19 1.18 1.17 1.21 1.19 1.16 1.15 1.08 1.09 1.05 1.01 0.98 0.93 0.88 0.82 0.81 0.80 0.75 0.69 0.66 0.60 0.58 0.53 0.47 0.40 0.35 0.27 0.27 0.30 0.30 0.30 0.33 0.32 0.33 0.33 0.30 0.28
1.23 1.22 1.16 1.10 1.11 1.13 1.14 1.17 1.15 1.11 1.10 1.07 1.02 1.02 1.04 0.99 0.96 0.93 0.86 0.81 0.78 0.75 0.75 0.70 0.64 0.62 0.58 0.56 0.51 0.43 0.36 0.34 0.30 0.26 0.28 0.29 0.30 0.32 0.31 0.30 0.31 0.27 0.27
1.10 1.08 1.06 1.03 1.06 1.08 1.06 1.05 1.03 1.01 1.01 0.98 0.94 0.95 0.98 0.88 0.86 0.82 0.75 0.73 0.73 0.73 0.68 0.65 0.63 0.61 0.57 0.49 0.41 0.37 0.35 0.33 0.32 0.30 0.28 0.29 0.30 0.31 0.30 0.30 0.30 0.29 0.27
0.97 0.96 0.98 1.02 1.02 1.00 1.01 0.99 0.97 0.96 0.92 0.90 0.88 0.84 0.83 0.78 0.76 0.75 0.75 0.72 0.70 0.69 0.70 0.67 0.60 0.54 0.46 0.40 0.38 0.36 0.34 0.33 0.33 0.31 0.29 0.28 0.29 0.29 0.30 0.27 0.27 0.28 0.26
0.89 0.93 0.97 1.01 1.01 0.99 1.00 0.97 0.94 0.90 0.88 0.85 0.81 0.77 0.75 0.75 0.74 0.74 0.72 0.70 0.69 0.68 0.64 0.57 0.50 0.45 0.42 0.40 0.36 0.32 0.31 0.30 0.30 0.28 0.27 0.27 0.26 0.26 0.25 0.27 0.28 0.27 0.24
0.96 0.96 0.99 0.98 0.97 0.94 0.90 0.87 0.84 0.80 0.79 0.76 0.73 0.71 0.72 0.71 0.72 0.73 0.71 0.67 0.63 0.55 0.48 0.43 0.42 0.42 0.41 0.40 0.39 0.37 0.35 0.30 0.28 0.28 0.26 0.26 0.27 0.28 0.29 0.30 0.28 0.24 0.21
0.92 0.92 0.91 0.88 0.82 0.78 0.73 0.67 0.67 0.67 0.69 0.68 0.68 0.68 0.68 0.70 0.71 0.67 0.60 0.53 0.45 0.38 0.36 0.36 0.35 0.35 0.35 0.35 0.36 0.37 0.38 0.37 0.36 0.33 0.30 0.28 0.28 0.29 0.30 0.30 0.27 0.25 0.23
0.71 0.70 0.70 0.68 0.64 0.62 0.61 0.62 0.63 0.64 0.63 0.65 0.66 0.68 0.66 0.63 0.58 0.49 0.41 0.36 0.33 0.32 0.32 0.32 0.32 0.32 0.32 0.32 0.33 0.32 0.35 0.39 0.39 0.38 0.37 0.33 0.33 0.32 0.31 0.30 0.29 0.26 0.24
0.63 0.62 0.62 0.60 0.58 0.57 0.57 0.58 0.61 0.62 0.62 0.61 0.59 0.55 0.48 0.44 0.41 0.36 0.32 0.29 0.29 0.29 0.30 0.30 0.29 0.29 0.29 0.29 0.29 0.30 0.30 0.32 0.36 0.41 0.40 0.37 0.37 0.33 0.32 0.30 0.27 0.25 0.21
0.59 0.57 0.58 0.58 0.57 0.56 0.59 0.59 0.59 0.57 0.51 0.47 0.42 0.38 0.35 0.33 0.38 0.35 0.32 0.31 0.28 0.27 0.27 0.27 0.26 0.27 0.29 0.30 0.30 0.29 0.27 0.30 0.32 0.35 0.39 0.38 0.36 0.32 0.32 0.30 0.27 0.24 0.22
0.56 0.57 0.57 0.57 0.56 0.56 0.54 0.51 0.47 0.42 0.38 0.37 0.34 0.36 0.36 0.35 0.34 0.30 0.27 0.23 0.22 0.20 0.19 0.18 0.20 0.20 0.21 0.21 0.23 0.25 0.27 0.31 0.32 0.32 0.35 0.37 0.36 0.33 0.31 0.30 0.28 0.25 0.23
0.55 0.53 0.52 0.50 0.47 0.48 0.45 0.42 0.38 0.37 0.34 0.33 0.31 0.28 0.29 0.29 0.29 0.27 0.24 0.22 0.20 0.18 0.16 0.17 0.17 0.17 0.17 0.16 0.17 0.17 0.20 0.23 0.31 0.32 0.33 0.33 0.33 0.32 0.32 0.31 0.30 0.29 0.29
0.51 0.49 0.48 0.47 0.44 0.40 0.36 0.33 0.30 0.28 0.28 0.28 0.25 0.25 0.25 0.27 0.25 0.26 0.23 0.18 0.16 0.16 0.17 0.16 0.15 0.15 0.16 0.19 0.20 0.19 0.21 0.21 0.23 0.27 0.32 0.32 0.35 0.33 0.32 0.31 0.31 0.31 0.31
0.48 0.47 0.45 0.41 0.35 0.31 0.29 0.27 0.27 0.28 0.27 0.24 0.23 0.24 0.24 0.23 0.22 0.22 0.17 0.17 0.17 0.16 0.15 0.15 0.15 0.19 0.21 0.22 0.23 0.25 0.26 0.25 0.23 0.24 0.29 0.34 0.35 0.33 0.31 0.32 0.30 0.29 0.27
0.46 0.42 0.38 0.35 0.31 0.29 0.28 0.28 0.28 0.28 0.23 0.22 0.24 0.22 0.20 0.19 0.19 0.17 0.16 0.16 0.15 0.15 0.15 0.16 0.19 0.20 0.20 0.21 0.24 0.25 0.25 0.30 0.27 0.28 0.32 0.33 0.33 0.32 0.31 0.32 0.30 0.28 0.26
0.41 0.38 0.36 0.33 0.31 0.28 0.28 0.29 0.28 0.25 0.23 0.23 0.21 0.19 0.19 0.19 0.17 0.16 0.16 0.16 0.14 0.15 0.14 0.15 0.15 0.16 0.18 0.19 0.20 0.23 0.28 0.28 0.29 0.32 0.33 0.31 0.30 0.28 0.29 0.30 0.29 0.28 0.26
0.39 0.35 0.31 0.31 0.30 0.29 0.27 0.25 0.23 0.27 0.26 0.25 0.23 0.20 0.18 0.17 0.17 0.16 0.15 0.15 0.15 0.14 0.13 0.13 0.14 0.14 0.16 0.20 0.22 0.24 0.26 0.29 0.33 0.32 0.32 0.29 0.29 0.29 0.29 0.27 0.28 0.27 0.26
0.35 0.33 0.32 0.32 0.31 0.29 0.26 0.24 0.24 0.23 0.22 0.23 0.24 0.21 0.19 0.17 0.16 0.15 0.15 0.15 0.14 0.14 0.13 0.12 0.12 0.12 0.14 0.17 0.21 0.24 0.26 0.29 0.32 0.31 0.29 0.30 0.29 0.28 0.27 0.27 0.27 0.26 0.25
0.33 0.33 0.34 0.32 0.28 0.25 0.25 0.24 0.23 0.22 0.22 0.21 0.20 0.20 0.20 0.17 0.15 0.16 0.16 0.15 0.13 0.13 0.13 0.12 0.12 0.12 0.12 0.15 0.18 0.22 0.24 0.26 0.28 0.30 0.29 0.28 0.29 0.29 0.28 0.28 0.28 0.26 0.26
0.34 0.31 0.30 0.28 0.26 0.25 0.24 0.23 0.22 0.21 0.20 0.19 0.18 0.18 0.18 0.15 0.13 0.15 0.15 0.14 0.13 0.13 0.12 0.11 0.12 0.12 0.13 0.13 0.15 0.19 0.22 0.23 0.25 0.27 0.30 0.29 0.29 0.29 0.28 0.28 0.27 0.26 0.24
0.33 0.30 0.27 0.26 0.25 0.24 0.23 0.22 0.21 0.20 0.19 0.18 0.17 0.18 0.16 0.13 0.13 0.14 0.13 0.13 0.12 0.11 0.11 0.11 0.11 0.12 0.12 0.13 0.13 0.16 0.19 0.21 0.23 0.24 0.26 0.27 0.29 0.28 0.29 0.29 0.28 0.27 0.26
0.30 0.28 0.26 0.25 0.23 0.23 0.21 0.20 0.19 0.19 0.18 0.17 0.16 0.16 0.15 0.14 0.14 0.13 0.12 0.12 0.12 0.12 0.12 0.11 0.11 0.11 0.12 0.12 0.13 0.14 0.17 0.19 0.21 0.22 0.23 0.24 0.25 0.28 0.29 0.28 0.27 0.26 0.25
0.28 0.26 0.25 0.23 0.23 0.21 0.21 0.20 0.19 0.18 0.17 0.16 0.15 0.14 0.14 0.13 0.12 0.12 0.11 0.11 0.11 0.11 0.11 0.11 0.11 0.11 0.11 0.11 0.13 0.14 0.15 0.18 0.20 0.21 0.21 0.22 0.23 0.25 0.28 0.27 0.27 0.26 0.25
0.26 0.25 0.23 0.22 0.22 0.20 0.20 0.19 0.18 0.17 0.16 0.15 0.14 0.14 0.13 0.12 0.11 0.11 0.11 0.11 0.11 0.11 0.11 0.11 0.12 0.11 0.11 0.11 0.12 0.14 0.14 0.18 0.20 0.20 0.21 0.21 0.22 0.24 0.25 0.27 0.27 0.26 0.25
0.26 0.25 0.23 0.22 0.21 0.20 0.19 0.18 0.17 0.16 0.15 0.14 0.13 0.12 0.11 0.11 0.10 0.10 0.10 0.11 0.10 0.10 0.11 0.11 0.12 0.12 0.12 0.11 0.12 0.13 0.14 0.17 0.19 0.20 0.20 0.20 0.21 0.22 0.24 0.26 0.27 0.26 0.26
0.25 0.23 0.22 0.21 0.20 0.19 0.18 0.16 0.15 0.14 0.13 0.12 0.11 0.10 0.10 0.10 0.10 0.10 0.10 0.10 0.10 0.10 0.10 0.11 0.11 0.12 0.12 0.12 0.12 0.13 0.15 0.16 0.18 0.19 0.20 0.20 0.20 0.22 0.24 0.26 0.27 0.26 0.26

GFSGL_prec_pwat_066.txt.gz
Precipitable_Water
1.11 1.13 1.11 1.17 1.22 1.28 1.31 1.28 1.19 1.25 1.23 1.19 1.13 1.12 1.07 1.04 0.97 0.93 0.95 0.94 0.93 0.84 0.80 0.77 0.78 0.78 0.74 0.66 0.63 0.61 0.56 0.50 0.37 0.33 0.33 0.33 0.31 0.31 0.32 0.34 0.35 0.34 0.32
1.19 1.26 1.29 1.36 1.38 1.25 1.16 1.17 1.20 1.17 1.19 1.13 1.09 1.02 1.00 0.97 0.92 0.89 0.89 0.86 0.80 0.72 0.72 0.71 0.71 0.69 0.67 0.65 0.60 0.54 0.49 0.43 0.36 0.28 0.32 0.32 0.31 0.31 0.31 0.31 0.32 0.33 0.32
1.24 1.28 1.28 1.28 1.20 1.09 1.07 1.09 1.11 1.08 1.05 1.04 1.02 0.99 0.95 0.90 0.85 0.83 0.81 0.76 0.72 0.72 0.71 0.70 0.67 0.67 0.63 0.57 0.50 0.46 0.43 0.40 0.39 0.36 0.32 0.35 0.34 0.35 0.32 0.32 0.32 0.33 0.33
1.10 1.10 1.05 1.02 1.04 0.99 1.00 1.03 1.05 1.03 1.02 1.01 1.00 0.94 0.88 0.85 0.81 0.78 0.75 0.73 0.72 0.71 0.71 0.69 0.68 0.60 0.52 0.46 0.44 0.41 0.40 0.39 0.39 0.35 0.34 0.34 0.34 0.35 0.33 0.31 0.30 0.32 0.30
0.95 0.94 0.91 0.94 0.97 1.02 1.05 1.04 1.04 1.02 0.97 0.95 0.89 0.81 0.78 0.77 0.74 0.74 0.71 0.70 0.69 0.69 0.68 0.64 0.57 0.50 0.45 0.43 0.41 0.41 0.40 0.37 0.34 0.31 0.28 0.28 0.30 0.30 0.29 0.30 0.28 0.30 0.29
0.91 0.90 0.95 0.97 1.03 1.01 0.99 0.99 0.95 0.90 0.85 0.80 0.77 0.73 0.72 0.71 0.72 0.71 0.70 0.69 0.66 0.60 0.53 0.47 0.46 0.43 0.42 0.43 0.44 0.44 0.42 0.38 0.35 0.34 0.34 0.31 0.31 0.32 0.32 0.31 0.30 0.28 0.24
0.89 0.93 0.96 0.98 0.95 0.93 0.93 0.84 0.75 0.69 0.67 0.66 0.67 0.67 0.66 0.67 0.68 0.67 0.64 0.57 0.48 0.42 0.38 0.36 0.35 0.36 0.35 0.33 0.33 0.34 0.34 0.36 0.37 0.35 0.34 0.35 0.35 0.35 0.34 0.32 0.30 0.29 0.26
0.87 0.88 0.88 0.82 0.74 0.71 0.69 0.67 0.64 0.63 0.63 0.62 0.62 0.64 0.64 0.63 0.62 0.56 0.50 0.41 0.36 0.34 0.33 0.33 0.33 0.32 0.33 0.33 0.30 0.29 0.30 0.31 0.33 0.36 0.36 0.37 0.39 0.40 0.39 0.36 0.33 0.30 0.27
0.68 0.66 0.66 0.66 0.63 0.63 0.59 0.56 0.57 0.58 0.59 0.60 0.60 0.57 0.55 0.50 0.46 0.40 0.36 0.35 0.33 0.32 0.32 0.30 0.28 0.26 0.26 0.26 0.25 0.23 0.23 0.24 0.29 0.31 0.34 0.36 0.39 0.39 0.40 0.37 0.31 0.28 0.23
0.63 0.64 0.65 0.65 0.59 0.54 0.55 0.56 0.58 0.57 0.56 0.56 0.51 0.46 0.41 0.39 0.38 0.36 0.34 0.32 0.28 0.24 0.23 0.21 0.19 0.18 0.18 0.18 0.18 0.18 0.16 0.16 0.18 0.19 0.23 0.29 0.36 0.39 0.41 0.39 0.34 0.27 0.25
0.64 0.64 0.60 0.57 0.56 0.57 0.57 0.56 0.55 0.49 0.47 0.43 0.39 0.39 0.38 0.38 0.36 0.32 0.29 0.25 0.23 0.21 0.19 0.17 0.17 0.18 0.17 0.15 0.14 0.14 0.13 0.14 0.15 0.17 0.17 0.17 0.26 0.34 0.36 0.33 0.35 0.30 0.25
0.63 0.56 0.54 0.53 0.52 0.51 0.48 0.46 0.43 0.43 0.41 0.39 0.35 0.32 0.32 0.34 0.32 0.29 0.27 0.24 0.23 0.19 0.17 0.17 0.17 0.16 0.15 0.17 0.20 0.21 0.22 0.22 0.22 0.20 0.19 0.19 0.20 0.30 0.35 0.33 0.33 0.33 0.30
0.55 0.50 0.48 0.47 0.47 0.47 0.46 0.42 0.39 0.37 0.34 0.31 0.30 0.29 0.30 0.30 0.30 0.28 0.26 0.23 0.18 0.18 0.17 0.17 0.16 0.16 0.18 0.20 0.21 0.23 0.24 0.26 0.25 0.23 0.22 0.21 0.19 0.26 0.35 0.37 0.37 0.35 0.31
0.51 0.49 0.47 0.46 0.44 0.41 0.37 0.34 0.35 0.33 0.31 0.29 0.28 0.27 0.28 0.27 0.26 0.24 0.22 0.18 0.18 0.18 0.17 0.16 0.17 0.19 0.19 0.17 0.18 0.19 0.21 0.22 0.26 0.26 0.25 0.28 0.27 0.27 0.32 0.36 0.33 0.31 0.28
0.51 0.49 0.47 0.44 0.41 0.37 0.36 0.33 0.33 0.32 0.29 0.28 0.28 0.26 0.23 0.22 0.23 0.21 0.19 0.18 0.18 0.18 0.17 0.17 0.18 0.17 0.15 0.14 0.14 0.17 0.20 0.21 0.22 0.29 0.29 0.28 0.28 0.30 0.32 0.36 0.33 0.30 0.27
0.48 0.48 0.47 0.44 0.40 0.36 0.34 0.32 0.33 0.33 0.31 0.27 0.24 0.23 0.23 0.23 0.21 0.20 0.19 0.19 0.18 0.18 0.17 0.16 0.15 0.15 0.13 0.12 0.12 0.13 0.17 0.21 0.23 0.27 0.31 0.30 0.30 0.32 0.31 0.32 0.31 0.28 0.26
0.48 0.47 0.45 0.41 0.39 0.35 0.33 0.32 0.33 0.34 0.33 0.30 0.29 0.26 0.24 0.22 0.21 0.21 0.19 0.19 0.18 0.20 0.17 0.16 0.15 0.14 0.13 0.12 0.12 0.12 0.13 0.20 0.25 0.27 0.31 0.30 0.33 0.32 0.30 0.29 0.28 0.28 0.26
0.46 0.46 0.43 0.40 0.37 0.35 0.34 0.33 0.30 0.28 0.28 0.29 0.30 0.27 0.26 0.24 0.22 0.20 0.19 0.19 0.18 0.17 0.16 0.15 0.13 0.13 0.12 0.12 0.11 0.11 0.12 0.16 0.21 0.25 0.26 0.30 0.30 0.30 0.29 0.28 0.28 0.26 0.26
0.47 0.44 0.42 0.38 0.38 0.35 0.32 0.29 0.29 0.28 0.27 0.27 0.26 0.26 0.26 0.24 0.22 0.19 0.21 0.19 0.16 0.15 0.15 0.14 0.12 0.12 0.11 0.11 0.12 0.12 0.12 0.13 0.17 0.21 0.23 0.25 0.29 0.29 0.27 0.28 0.28 0.28 0.27
0.39 0.40 0.42 0.40 0.36 0.34 0.32 0.30 0.29 0.27 0.26 0.25 0.24 0.23 0.23 0.21 0.17 0.16 0.18 0.17 0.16 0.15 0.14 0.12 0.12 0.11 0.11 0.11 0.11 0.11 0.12 0.12 0.14 0.19 0.21 0.23 0.25 0.27 0.28 0.27 0.28 0.27 0.26
0.48 0.41 0.37 0.37 0.35 0.33 0.31 0.29 0.27 0.26 0.24 0.23 0.22 0.22 0.21 0.18 0.16 0.17 0.17 0.15 0.15 0.14 0.12 0.12 0.12 0.11 0.11 0.11 0.11 0.10 0.11 0.12 0.13 0.17 0.19 0.21 0.22 0.23 0.25 0.27 0.28 0.28 0.27
0.41 0.38 0.36 0.33 0.31 0.30 0.28 0.26 0.25 0.24 0.23 0.22 0.22 0.21 0.20 0.18 0.18 0.16 0.15 0.14 0.13 0.12 0.12 0.12 0.11 0.11 0.11 0.11 0.11 0.10 0.10 0.10 0.12 0.14 0.18 0.19 0.21 0.22 0.23 0.24 0.28 0.27 0.26
0.37 0.34 0.32 0.30 0.29 0.27 0.26 0.26 0.24 0.23 0.23 0.21 0.20 0.19 0.18 0.17 0.16 0.15 0.14 0.13 0.12 0.12 0.11 0.11 0.10 0.11 0.11 0.11 0.12 0.12 0.11 0.11 0.12 0.13 0.16 0.18 0.19 0.20 0.21 0.22 0.23 0.26 0.25
0.32 0.31 0.29 0.27 0.27 0.25 0.24 0.24 0.22 0.22 0.21 0.20 0.19 0.17 0.16 0.16 0.14 0.13 0.12 0.12 0.11 0.11 0.10 0.11 0.11 0.10 0.11 0.12 0.12 0.13 0.12 0.12 0.12 0.13 0.16 0.17 0.18 0.19 0.20 0.21 0.23 0.25 0.26
0.29 0.28 0.27 0.26 0.25 0.24 0.23 0.22 0.21 0.20 0.19 0.18 0.16 0.16 0.15 0.14 0.13 0.12 0.11 0.11 0.10 0.10 0.10 0.10 0.10 0.11 0.11 0.11 0.11 0.12 0.12 0.13 0.13 0.14 0.14 0.17 0.18 0.19 0.20 0.21 0.22 0.23 0.26
0.28 0.26 0.25 0.24 0.22 0.22 0.21 0.19 0.18 0.18 0.17 0.16 0.15 0.14 0.13 0.12 0.11 0.10 0.10 0.09 0.10 0.10 0.10 0.10 0.10 0.11 0.11 0.11 0.12 0.12 0.12 0.12 0.13 0.14 0.15 0.17 0.18 0.18 0.19 0.20 0.21 0.22 0.25

GFSGL_prec_pwat_069.txt.gz
Precipitable_Water
1.00 0.97 1.00 1.06 1.11 1.18 1.24 1.33 1.35 1.38 1.30 1.24 1.21 1.18 1.12 1.07 1.06 1.04 1.01 0.91 0.87 0.81 0.79 0.77 0.76 0.74 0.72 0.71 0.72 0.66 0.61 0.56 0.43 0.40 0.41 0.40 0.37 0.34 0.33 0.35 0.34 0.34 0.35
1.07 1.11 1.19 1.23 1.25 1.33 1.44 1.36 1.23 1.19 1.23 1.16 1.12 1.05 1.03 1.02 1.03 1.00 0.90 0.85 0.76 0.77 0.77 0.74 0.70 0.71 0.69 0.70 0.65 0.61 0.54 0.48 0.41 0.36 0.39 0.37 0.35 0.36 0.37 0.37 0.37 0.37 0.37
1.24 1.31 1.37 1.27 1.37 1.20 1.16 1.22 1.24 1.18 1.14 1.10 1.08 1.05 1.02 1.01 0.98 0.88 0.81 0.81 0.78 0.77 0.72 0.71 0.70 0.69 0.67 0.66 0.59 0.51 0.46 0.45 0.43 0.39 0.35 0.37 0.36 0.38 0.36 0.38 0.37 0.38 0.42
0.93 1.02 1.14 1.11 1.14 1.16 1.17 1.10 1.08 1.08 1.08 1.06 1.05 1.03 0.98 0.93 0.87 0.79 0.77 0.77 0.72 0.73 0.73 0.70 0.71 0.68 0.62 0.55 0.48 0.44 0.43 0.41 0.40 0.39 0.37 0.36 0.38 0.37 0.37 0.34 0.32 0.32 0.34
0.87 0.95 0.94 0.98 1.00 1.01 0.99 1.01 1.04 1.07 1.04 1.03 1.01 0.95 0.89 0.82 0.75 0.76 0.74 0.72 0.71 0.70 0.69 0.69 0.65 0.59 0.50 0.47 0.46 0.45 0.45 0.42 0.42 0.41 0.37 0.36 0.34 0.33 0.32 0.33 0.35 0.36 0.37
0.87 0.86 0.89 0.90 0.92 0.91 0.93 1.00 1.02 1.00 0.97 0.95 0.88 0.80 0.73 0.72 0.74 0.73 0.72 0.68 0.67 0.66 0.61 0.54 0.47 0.44 0.41 0.41 0.40 0.40 0.40 0.37 0.34 0.34 0.34 0.33 0.32 0.32 0.34 0.34 0.34 0.35 0.31
0.85 0.87 0.88 0.88 0.86 0.90 0.95 0.92 0.90 0.86 0.81 0.74 0.70 0.67 0.66 0.67 0.68 0.68 0.68 0.65 0.60 0.51 0.43 0.36 0.35 0.36 0.34 0.33 0.32 0.31 0.30 0.31 0.31 0.31 0.28 0.29 0.29 0.32 0.34 0.34 0.34 0.35 0.33
0.76 0.79 0.81 0.83 0.86 0.85 0.81 0.74 0.70 0.68 0.66 0.65 0.62 0.63 0.61 0.62 0.63 0.62 0.60 0.52 0.43 0.37 0.34 0.33 0.32 0.30 0.31 0.30 0.27 0.24 0.22 0.21 0.21 0.22 0.24 0.26 0.30 0.34 0.34 0.32 0.34 0.34 0.37
0.73 0.78 0.82 0.79 0.72 0.67 0.65 0.65 0.64 0.63 0.58 0.56 0.57 0.57 0.58 0.58 0.60 0.54 0.44 0.38 0.35 0.33 0.33 0.30 0.26 0.23 0.21 0.20 0.18 0.16 0.15 0.14 0.15 0.16 0.17 0.17 0.18 0.17 0.20 0.30 0.29 0.29 0.29
0.69 0.65 0.65 0.66 0.65 0.63 0.61 0.59 0.57 0.55 0.55 0.55 0.55 0.55 0.52 0.46 0.43 0.39 0.37 0.36 0.32 0.28 0.25 0.23 0.21 0.21 0.20 0.19 0.18 0.18 0.17 0.18 0.20 0.21 0.20 0.20 0.20 0.18 0.18 0.18 0.25 0.26 0.29
0.62 0.63 0.64 0.64 0.63 0.62 0.58 0.55 0.54 0.54 0.53 0.51 0.47 0.46 0.44 0.42 0.39 0.38 0.36 0.31 0.27 0.23 0.21 0.20 0.20 0.20 0.19 0.19 0.22 0.22 0.21 0.23 0.22 0.22 0.22 0.23 0.22 0.22 0.20 0.24 0.25 0.29 0.30
0.63 0.63 0.63 0.64 0.63 0.59 0.54 0.54 0.52 0.51 0.49 0.46 0.42 0.39 0.39 0.38 0.36 0.35 0.32 0.29 0.26 0.22 0.20 0.20 0.20 0.19 0.20 0.22 0.21 0.21 0.21 0.20 0.21 0.20 0.19 0.21 0.22 0.23 0.24 0.23 0.26 0.33 0.36
0.63 0.63 0.62 0.61 0.58 0.52 0.48 0.47 0.48 0.48 0.43 0.38 0.35 0.34 0.34 0.35 0.36 0.35 0.31 0.28 0.24 0.21 0.21 0.20 0.20 0.21 0.22 0.21 0.19 0.18 0.18 0.18 0.18 0.18 0.18 0.18 0.24 0.27 0.28 0.26 0.28 0.31 0.35
0.61 0.58 0.56 0.55 0.51 0.48 0.48 0.48 0.46 0.42 0.38 0.36 0.34 0.33 0.34 0.34 0.33 0.31 0.27 0.23 0.22 0.21 0.21 0.20 0.20 0.22 0.21 0.19 0.18 0.17 0.16 0.15 0.16 0.17 0.19 0.20 0.24 0.29 0.28 0.28 0.24 0.30 0.32
0.57 0.55 0.53 0.51 0.49 0.48 0.49 0.46 0.41 0.40 0.40 0.36 0.34 0.33 0.32 0.30 0.28 0.25 0.23 0.22 0.22 0.22 0.22 0.21 0.20 0.19 0.17 0.17 0.16 0.15 0.14 0.13 0.12 0.15 0.19 0.21 0.23 0.29 0.29 0.32 0.31 0.30 0.29
0.54 0.52 0.51 0.50 0.48 0.46 0.43 0.41 0.40 0.37 0.36 0.33 0.32 0.31 0.28 0.27 0.26 0.25 0.24 0.23 0.23 0.23 0.21 0.20 0.19 0.18 0.16 0.15 0.14 0.13 0.12 0.11 0.11 0.12 0.18 0.22 0.23 0.26 0.29 0.32 0.33 0.31 0.27
0.54 0.53 0.51 0.49 0.47 0.44 0.42 0.39 0.36 0.38 0.38 0.40 0.37 0.33 0.31 0.29 0.27 0.27 0.26 0.24 0.23 0.23 0.20 0.19 0.17 0.16 0.15 0.14 0.13 0.12 0.10 0.11 0.12 0.11 0.14 0.21 0.23 0.24 0.29 0.30 0.29 0.28 0.26
0.54 0.53 0.51 0.47 0.44 0.43 0.41 0.38 0.39 0.41 0.37 0.35 0.37 0.36 0.34 0.30 0.28 0.27 0.27 0.25 0.22 0.20 0.19 0.18 0.16 0.15 0.14 0.12 0.11 0.10 0.10 0.10 0.10 0.11 0.11 0.17 0.22 0.23 0.23 0.28 0.29 0.27 0.26
0.52 0.49 0.47 0.47 0.44 0.42 0.43 0.43 0.39 0.36 0.35 0.34 0.34 0.34 0.33 0.31 0.29 0.25 0.24 0.22 0.20 0.19 0.19 0.17 0.15 0.14 0.13 0.12 0.11 0.10 0.10 0.09 0.09 0.10 0.10 0.13 0.19 0.21 0.22 0.23 0.27 0.28 0.27
0.51 0.50 0.47 0.46 0.47 0.44 0.42 0.40 0.38 0.35 0.34 0.33 0.31 0.31 0.30 0.27 0.24 0.22 0.21 0.21 0.20 0.19 0.17 0.15 0.14 0.13 0.12 0.11 0.10 0.10 0.09 0.09 0.09 0.09 0.10 0.12 0.16 0.19 0.20 0.21 0.23 0.25 0.26
0.48 0.47 0.47 0.45 0.44 0.42 0.40 0.37 0.35 0.33 0.31 0.29 0.28 0.28 0.26 0.24 0.22 0.21 0.21 0.19 0.18 0.17 0.15 0.14 0.13 0.12 0.10 0.10 0.10 0.10 0.09 0.09 0.10 0.09 0.10 0.11 0.13 0.18 0.19 0.20 0.22 0.23 0.26
0.45 0.43 0.42 0.41 0.39 0.37 0.35 0.32 0.31 0.29 0.28 0.27 0.26 0.25 0.24 0.23 0.21 0.20 0.19 0.18 0.17 0.16 0.15 0.14 0.12 0.10 0.10 0.10 0.09 0.09 0.09 0.10 0.10 0.10 0.09 0.10 0.12 0.17 0.18 0.19 0.20 0.22 0.22
0.41 0.39 0.37 0.36 0.35 0.33 0.31 0.31 0.28 0.26 0.25 0.24 0.22 0.21 0.20 0.19 0.19 0.18 0.17 0.16 0.16 0.15 0.14 0.12 0.10 0.10 0.10 0.10 0.10 0.11 0.10 0.10 0.11 0.11 0.10 0.11 0.12 0.15 0.17 0.18 0.19 0.20 0.21
0.37 0.34 0.33 0.31 0.30 0.28 0.27 0.26 0.24 0.23 0.23 0.22 0.20 0.19 0.19 0.17 0.17 0.16 0.16 0.15 0.14 0.12 0.11 0.10 0.10 0.09 0.10 0.10 0.11 0.11 0.11 0.11 0.12 0.12 0.11 0.10 0.11 0.14 0.17 0.17 0.19 0.19 0.20
0.32 0.30 0.28 0.27 0.26 0.25 0.24 0.23 0.22 0.21 0.20 0.19 0.18 0.17 0.16 0.16 0.15 0.14 0.13 0.12 0.11 0.10 0.09 0.09 0.09 0.10 0.10 0.10 0.10 0.11 0.11 0.12 0.12 0.12 0.12 0.11 0.12 0.13 0.16 0.17 0.18 0.19 0.20
0.28 0.26 0.25 0.24 0.23 0.22 0.20 0.19 0.18 0.17 0.16 0.16 0.15 0.14 0.13 0.12 0.11 0.10 0.10 0.10 0.09 0.09 0.09 0.09 0.09 0.10 0.10 0.11 0.11 0.12 0.12 0.12 0.12 0.12 0.12 0.12 0.12 0.13 0.16 0.17 0.18 0.19 0.20

GFSGL_prec_pwat_072.txt.gz
Precipitable_Water
0.99 0.96 0.97 0.95 0.96 1.03 1.10 1.16 1.24 1.33 1.33 1.32 1.18 1.16 1.26 1.24 1.18 1.12 1.10 1.07 1.01 0.89 0.92 0.82 0.76 0.77 0.74 0.73 0.72 0.69 0.66 0.64 0.53 0.54 0.51 0.44 0.40 0.40 0.40 0.40 0.38 0.36 0.36
1.17 1.20 1.23 1.26 1.30 1.27 1.23 1.30 1.35 1.28 1.23 1.13 1.24 1.25 1.22 1.16 1.16 1.10 1.05 0.99 0.93 0.84 0.81 0.75 0.76 0.77 0.69 0.71 0.69 0.66 0.63 0.61 0.54 0.42 0.40 0.38 0.39 0.42 0.41 0.38 0.38 0.39 0.39
1.20 1.23 1.15 1.15 1.29 1.29 1.36 1.32 1.31 1.17 1.02 1.13 1.16 1.17 1.17 1.13 1.10 1.06 1.01 0.94 0.87 0.77 0.75 0.76 0.71 0.68 0.68 0.68 0.66 0.64 0.61 0.54 0.43 0.38 0.37 0.41 0.39 0.40 0.39 0.41 0.40 0.42 0.41
1.17 1.12 0.89 0.97 1.11 1.27 1.24 1.24 1.18 1.11 1.06 1.10 1.16 1.17 1.11 1.07 1.05 1.01 0.95 0.85 0.77 0.78 0.73 0.74 0.71 0.70 0.68 0.65 0.62 0.56 0.47 0.41 0.40 0.38 0.38 0.37 0.38 0.40 0.44 0.40 0.35 0.38 0.38
0.96 0.86 0.84 0.91 0.95 1.07 1.05 1.07 1.06 1.02 1.06 1.12 1.13 1.08 1.05 1.01 0.98 0.91 0.85 0.79 0.75 0.71 0.72 0.72 0.70 0.68 0.65 0.61 0.50 0.42 0.38 0.35 0.34 0.33 0.32 0.32 0.32 0.32 0.31 0.34 0.34 0.35 0.34
0.94 0.88 0.83 0.85 0.91 0.93 0.95 0.96 0.96 0.98 1.03 1.05 1.01 0.98 0.94 0.90 0.85 0.77 0.71 0.71 0.70 0.69 0.66 0.64 0.64 0.56 0.47 0.41 0.39 0.38 0.36 0.33 0.31 0.31 0.30 0.28 0.29 0.30 0.32 0.31 0.31 0.30 0.26
0.85 0.80 0.80 0.84 0.86 0.89 0.91 0.91 0.91 0.95 0.97 0.95 0.90 0.84 0.79 0.75 0.71 0.70 0.71 0.70 0.67 0.64 0.61 0.54 0.45 0.38 0.36 0.35 0.33 0.32 0.31 0.30 0.28 0.25 0.21 0.20 0.19 0.21 0.22 0.22 0.24 0.25 0.25
0.79 0.79 0.82 0.82 0.84 0.88 0.89 0.87 0.91 0.91 0.83 0.77 0.75 0.71 0.67 0.66 0.67 0.68 0.67 0.64 0.59 0.53 0.44 0.37 0.33 0.32 0.32 0.29 0.26 0.22 0.19 0.18 0.18 0.19 0.19 0.20 0.21 0.21 0.20 0.19 0.18 0.17 0.19
0.82 0.78 0.77 0.82 0.83 0.83 0.84 0.79 0.74 0.71 0.69 0.66 0.65 0.63 0.61 0.62 0.63 0.61 0.59 0.53 0.44 0.37 0.34 0.33 0.32 0.28 0.24 0.23 0.20 0.20 0.20 0.21 0.24 0.24 0.25 0.24 0.25 0.25 0.25 0.24 0.19 0.17 0.14
0.73 0.74 0.81 0.82 0.80 0.71 0.68 0.69 0.69 0.67 0.63 0.61 0.58 0.57 0.57 0.57 0.59 0.56 0.48 0.40 0.34 0.32 0.32 0.29 0.25 0.23 0.22 0.22 0.23 0.23 0.21 0.22 0.23 0.22 0.23 0.23 0.24 0.23 0.24 0.27 0.24 0.19 0.18
0.76 0.77 0.72 0.71 0.69 0.69 0.67 0.66 0.64 0.61 0.58 0.56 0.55 0.54 0.52 0.52 0.47 0.42 0.39 0.35 0.33 0.31 0.27 0.24 0.23 0.22 0.23 0.25 0.26 0.23 0.22 0.22 0.21 0.20 0.19 0.20 0.21 0.22 0.22 0.25 0.27 0.26 0.21
0.71 0.68 0.67 0.67 0.66 0.66 0.64 0.63 0.62 0.59 0.54 0.51 0.50 0.48 0.47 0.45 0.42 0.39 0.38 0.36 0.33 0.29 0.25 0.24 0.23 0.24 0.26 0.26 0.24 0.23 0.22 0.21 0.18 0.17 0.17 0.17 0.18 0.19 0.19 0.22 0.27 0.29 0.30
0.67 0.65 0.66 0.67 0.65 0.65 0.63 0.61 0.60 0.58 0.52 0.49 0.47 0.45 0.43 0.42 0.40 0.38 0.37 0.35 0.32 0.26 0.25 0.24 0.25 0.26 0.26 0.24 0.23 0.22 0.21 0.18 0.17 0.15 0.15 0.15 0.16 0.19 0.20 0.22 0.28 0.30 0.30
0.67 0.66 0.66 0.64 0.62 0.61 0.61 0.61 0.58 0.56 0.53 0.51 0.48 0.44 0.40 0.38 0.37 0.36 0.34 0.31 0.28 0.26 0.26 0.26 0.26 0.26 0.25 0.24 0.23 0.21 0.19 0.18 0.16 0.15 0.14 0.14 0.14 0.18 0.19 0.23 0.26 0.28 0.28
0.67 0.65 0.64 0.63 0.60 0.57 0.56 0.55 0.54 0.55 0.53 0.48 0.44 0.41 0.38 0.36 0.36 0.36 0.35 0.29 0.28 0.28 0.26 0.26 0.26 0.24 0.23 0.22 0.21 0.19 0.18 0.17 0.15 0.14 0.12 0.11 0.11 0.15 0.18 0.22 0.24 0.27 0.28
0.64 0.61 0.60 0.59 0.57 0.55 0.53 0.52 0.53 0.50 0.47 0.44 0.41 0.38 0.36 0.36 0.38 0.34 0.33 0.30 0.29 0.29 0.28 0.26 0.24 0.23 0.21 0.20 0.19 0.18 0.17 0.15 0.13 0.12 0.11 0.10 0.10 0.12 0.17 0.21 0.24 0.28 0.26
0.63 0.61 0.58 0.55 0.52 0.50 0.48 0.46 0.44 0.44 0.45 0.42 0.41 0.41 0.42 0.38 0.34 0.32 0.32 0.32 0.30 0.29 0.25 0.24 0.23 0.21 0.20 0.20 0.18 0.17 0.15 0.14 0.13 0.11 0.10 0.09 0.10 0.11 0.15 0.19 0.23 0.27 0.27
0.61 0.60 0.57 0.55 0.54 0.52 0.49 0.46 0.46 0.43 0.42 0.45 0.46 0.42 0.40 0.40 0.38 0.36 0.35 0.33 0.29 0.27 0.25 0.23 0.22 0.21 0.20 0.18 0.17 0.15 0.14 0.13 0.11 0.09 0.09 0.08 0.09 0.10 0.12 0.18 0.21 0.22 0.25
0.58 0.55 0.53 0.51 0.49 0.49 0.49 0.48 0.46 0.45 0.42 0.41 0.41 0.41 0.40 0.39 0.37 0.35 0.33 0.29 0.26 0.25 0.24 0.22 0.21 0.20 0.18 0.16 0.15 0.13 0.12 0.11 0.10 0.09 0.09 0.08 0.09 0.09 0.10 0.16 0.19 0.21 0.22
0.52 0.50 0.49 0.48 0.46 0.45 0.45 0.43 0.42 0.40 0.39 0.38 0.37 0.36 0.36 0.34 0.31 0.29 0.28 0.26 0.24 0.23 0.21 0.20 0.19 0.17 0.16 0.14 0.13 0.12 0.11 0.10 0.09 0.09 0.09 0.09 0.08 0.09 0.09 0.13 0.17 0.19 0.21
0.47 0.46 0.46 0.45 0.43 0.42 0.41 0.39 0.38 0.37 0.35 0.34 0.34 0.33 0.32 0.30 0.29 0.28 0.26 0.23 0.21 0.20 0.19 0.18 0.17 0.16 0.14 0.13 0.12 0.11 0.10 0.09 0.09 0.09 0.09 0.09 0.09 0.09 0.10 0.12 0.16 0.18 0.20
0.45 0.44 0.43 0.41 0.40 0.38 0.37 0.37 0.35 0.34 0.33 0.31 0.31 0.30 0.29 0.26 0.24 0.22 0.21 0.20 0.20 0.19 0.18 0.17 0.15 0.14 0.13 0.11 0.10 0.10 0.09 0.09 0.09 0.09 0.09 0.10 0.10 0.10 0.10 0.11 0.16 0.18 0.19
0.41 0.39 0.38 0.37 0.36 0.35 0.34 0.33 0.31 0.30 0.29 0.27 0.25 0.23 0.22 0.21 0.20 0.19 0.18 0.18 0.17 0.16 0.15 0.14 0.13 0.11 0.11 0.10 0.10 0.10 0.09 0.09 0.10 0.10 0.10 0.10 0.10 0.10 0.10 0.11 0.15 0.17 0.18
0.37 0.35 0.34 0.33 0.32 0.30 0.29 0.27 0.26 0.24 0.23 0.21 0.20 0.19 0.18 0.18 0.17 0.16 0.16 0.15 0.13 0.13 0.12 0.11 0.10 0.09 0.09 0.09 0.10 0.10 0.10 0.11 0.11 0.11 0.11 0.10 0.10 0.10 0.10 0.11 0.14 0.16 0.17
0.33 0.31 0.29 0.27 0.26 0.24 0.22 0.20 0.19 0.18 0.17 0.17 0.16 0.15 0.15 0.14 0.13 0.12 0.11 0.11 0.10 0.10 0.09 0.09 0.09 0.09 0.09 0.09 0.10 0.10 0.11 0.11 0.12 0.12 0.11 0.11 0.10 0.10 0.10 0.11 0.14 0.16 0.17
0.26 0.23 0.21 0.19 0.17 0.16 0.15 0.14 0.13 0.13 0.12 0.12 0.11 0.11 0.10 0.10 0.09 0.09 0.09 0.09 0.09 0.08 0.08 0.08 0.08 0.09 0.09 0.10 0.10 0.11 0.11 0.12 0.12 0.12 0.12 0.11 0.11 0.10 0.11 0.11 0.14 0.16 0.17

GFSGL_prec_pwat_075.txt.gz
Precipitable_Water
0.94 0.94 0.94 0.94 0.95 0.97 0.98 1.01 1.09 1.20 1.25 1.29 1.31 1.29 1.26 1.23 1.20 1.20 1.19 1.21 1.14 1.11 1.08 1.00 0.96 0.85 0.83 0.75 0.70 0.72 0.67 0.64 0.54 0.58 0.63 0.64 0.60 0.51 0.42 0.43 0.43 0.43 0.44
1.14 1.16 1.18 1.14 1.04 1.07 1.08 1.13 1.14 1.15 1.24 1.24 1.21 1.17 1.10 1.12 1.17 1.14 1.14 1.17 1.11 1.08 1.02 0.92 0.90 0.81 0.72 0.73 0.73 0.69 0.67 0.66 0.59 0.52 0.58 0.56 0.45 0.42 0.42 0.42 0.40 0.41 0.41
1.09 1.12 1.11 1.10 1.06 0.98 1.03 1.14 1.21 1.23 1.31 1.16 1.09 1.08 1.13 1.10 1.17 1.18 1.16 1.11 1.09 1.02 0.98 0.91 0.81 0.75 0.69 0.72 0.70 0.65 0.67 0.66 0.62 0.57 0.49 0.43 0.42 0.42 0.40 0.40 0.38 0.38 0.40
0.92 1.00 1.01 1.13 1.01 1.00 1.02 1.13 1.23 1.21 1.19 1.11 1.14 1.13 1.09 1.09 1.10 1.11 1.11 1.06 0.99 0.96 0.92 0.82 0.77 0.70 0.69 0.67 0.67 0.67 0.66 0.62 0.57 0.44 0.39 0.37 0.36 0.37 0.36 0.32 0.30 0.33 0.33
0.87 0.95 0.98 1.03 1.08 1.07 1.03 1.04 1.10 1.10 1.09 1.08 1.10 1.04 1.06 1.07 1.08 1.07 1.03 0.98 0.93 0.83 0.79 0.79 0.76 0.72 0.69 0.71 0.67 0.62 0.58 0.47 0.38 0.34 0.32 0.32 0.31 0.30 0.28 0.28 0.26 0.27 0.27
0.84 0.92 1.01 1.06 1.05 1.00 0.96 0.97 1.00 1.02 1.04 1.03 1.00 1.03 1.03 1.03 1.04 1.01 0.97 0.89 0.85 0.79 0.72 0.68 0.68 0.66 0.66 0.63 0.59 0.54 0.42 0.35 0.33 0.31 0.28 0.25 0.23 0.22 0.21 0.19 0.20 0.18 0.15
0.86 0.90 0.96 0.95 0.91 0.90 0.92 0.90 0.92 0.95 1.00 0.98 0.97 1.00 0.98 0.98 0.95 0.91 0.86 0.80 0.73 0.69 0.66 0.66 0.62 0.61 0.60 0.55 0.48 0.38 0.35 0.33 0.29 0.25 0.21 0.20 0.20 0.21 0.22 0.21 0.22 0.21 0.19
0.85 0.88 0.92 0.89 0.88 0.87 0.82 0.85 0.89 0.93 0.93 0.92 0.97 0.97 0.89 0.86 0.84 0.80 0.76 0.70 0.67 0.64 0.62 0.60 0.58 0.53 0.49 0.38 0.32 0.30 0.27 0.25 0.24 0.25 0.25 0.24 0.25 0.25 0.25 0.24 0.24 0.24 0.24
0.81 0.88 0.92 0.90 0.87 0.79 0.81 0.86 0.90 0.90 0.91 0.88 0.82 0.79 0.76 0.75 0.74 0.70 0.66 0.62 0.59 0.57 0.56 0.53 0.48 0.39 0.34 0.32 0.26 0.24 0.23 0.23 0.27 0.27 0.26 0.25 0.25 0.24 0.25 0.25 0.22 0.22 0.19
0.82 0.88 0.91 0.85 0.81 0.84 0.87 0.87 0.85 0.79 0.75 0.74 0.71 0.71 0.69 0.66 0.66 0.65 0.61 0.57 0.52 0.50 0.47 0.39 0.33 0.31 0.28 0.28 0.27 0.25 0.23 0.24 0.24 0.23 0.22 0.21 0.22 0.24 0.25 0.25 0.25 0.21 0.20
0.85 0.84 0.80 0.80 0.83 0.82 0.79 0.77 0.74 0.71 0.69 0.66 0.64 0.64 0.64 0.64 0.62 0.60 0.58 0.54 0.48 0.40 0.35 0.32 0.28 0.28 0.27 0.29 0.29 0.26 0.26 0.26 0.25 0.23 0.22 0.21 0.22 0.21 0.22 0.24 0.24 0.24 0.21
0.80 0.77 0.79 0.79 0.77 0.75 0.73 0.71 0.70 0.68 0.64 0.62 0.60 0.60 0.60 0.60 0.58 0.56 0.51 0.46 0.42 0.37 0.32 0.29 0.27 0.29 0.29 0.30 0.28 0.27 0.27 0.26 0.24 0.22 0.21 0.20 0.19 0.18 0.19 0.20 0.22 0.23 0.26
0.80 0.79 0.76 0.75 0.73 0.73 0.70 0.68 0.66 0.65 0.63 0.60 0.58 0.57 0.56 0.56 0.54 0.51 0.48 0.43 0.39 0.34 0.31 0.29 0.29 0.28 0.30 0.28 0.29 0.28 0.27 0.25 0.23 0.20 0.19 0.19 0.19 0.18 0.18 0.17 0.19 0.22 0.24
0.77 0.74 0.72 0.70 0.69 0.69 0.69 0.68 0.65 0.63 0.61 0.60 0.57 0.56 0.55 0.54 0.51 0.48 0.43 0.40 0.36 0.32 0.30 0.31 0.33 0.31 0.30 0.29 0.28 0.28 0.26 0.24 0.22 0.20 0.19 0.19 0.18 0.17 0.15 0.15 0.14 0.17 0.19
0.76 0.74 0.72 0.71 0.69 0.67 0.67 0.65 0.64 0.64 0.63 0.59 0.57 0.55 0.52 0.48 0.45 0.42 0.40 0.36 0.37 0.38 0.34 0.32 0.30 0.28 0.28 0.28 0.28 0.26 0.24 0.22 0.21 0.20 0.19 0.17 0.16 0.14 0.12 0.12 0.12 0.15 0.18
0.76 0.75 0.73 0.71 0.69 0.66 0.63 0.60 0.61 0.61 0.60 0.58 0.56 0.53 0.49 0.46 0.41 0.39 0.36 0.38 0.37 0.34 0.30 0.28 0.27 0.27 0.27 0.27 0.25 0.23 0.23 0.22 0.21 0.19 0.17 0.16 0.14 0.12 0.10 0.10 0.11 0.14 0.17
0.78 0.74 0.70 0.67 0.62 0.62 0.59 0.58 0.56 0.55 0.53 0.48 0.46 0.44 0.42 0.40 0.40 0.41 0.40 0.38 0.36 0.36 0.33 0.32 0.29 0.28 0.27 0.26 0.25 0.24 0.22 0.21 0.20 0.17 0.15 0.14 0.12 0.11 0.09 0.08 0.09 0.11 0.16
0.69 0.66 0.62 0.57 0.54 0.54 0.55 0.53 0.51 0.48 0.45 0.45 0.47 0.45 0.45 0.44 0.43 0.42 0.40 0.39 0.35 0.34 0.32 0.30 0.28 0.27 0.26 0.25 0.23 0.21 0.19 0.18 0.17 0.15 0.13 0.12 0.11 0.10 0.08 0.07 0.08 0.09 0.14
0.59 0.57 0.56 0.55 0.53 0.51 0.50 0.47 0.46 0.44 0.43 0.43 0.43 0.43 0.42 0.41 0.39 0.38 0.36 0.34 0.31 0.30 0.30 0.28 0.27 0.26 0.23 0.21 0.19 0.18 0.17 0.15 0.14 0.12 0.11 0.11 0.10 0.09 0.08 0.08 0.08 0.09 0.12
0.55 0.52 0.50 0.48 0.47 0.46 0.45 0.44 0.43 0.42 0.40 0.39 0.38 0.37 0.36 0.35 0.33 0.32 0.32 0.31 0.29 0.28 0.27 0.25 0.23 0.21 0.19 0.18 0.17 0.16 0.14 0.13 0.12 0.11 0.10 0.10 0.09 0.09 0.08 0.08 0.08 0.09 0.11
0.49 0.49 0.48 0.46 0.44 0.43 0.41 0.40 0.39 0.38 0.36 0.35 0.34 0.34 0.33 0.31 0.30 0.29 0.28 0.27 0.25 0.23 0.21 0.20 0.19 0.18 0.17 0.16 0.15 0.13 0.12 0.11 0.10 0.10 0.09 0.09 0.09 0.08 0.09 0.09 0.09 0.09 0.11
0.47 0.45 0.43 0.41 0.40 0.39 0.38 0.37 0.36 0.34 0.33 0.32 0.31 0.31 0.30 0.28 0.26 0.23 0.21 0.20 0.19 0.19 0.18 0.17 0.16 0.15 0.14 0.13 0.11 0.10 0.10 0.09 0.09 0.09 0.09 0.09 0.09 0.09 0.09 0.09 0.09 0.09 0.11
0.42 0.41 0.39 0.38 0.37 0.36 0.34 0.33 0.32 0.30 0.28 0.26 0.24 0.22 0.20 0.18 0.17 0.17 0.16 0.16 0.15 0.14 0.14 0.13 0.12 0.11 0.11 0.10 0.10 0.10 0.09 0.09 0.09 0.10 0.09 0.09 0.09 0.09 0.10 0.09 0.09 0.10 0.11
0.38 0.36 0.34 0.33 0.31 0.29 0.27 0.25 0.23 0.20 0.18 0.17 0.16 0.15 0.15 0.14 0.13 0.13 0.12 0.11 0.11 0.10 0.10 0.09 0.09 0.09 0.09 0.09 0.09 0.09 0.10 0.10 0.10 0.10 0.10 0.10 0.10 0.10 0.10 0.10 0.10 0.10 0.11
0.32 0.30 0.27 0.24 0.21 0.18 0.16 0.15 0.13 0.13 0.12 0.12 0.11 0.11 0.11 0.10 0.10 0.09 0.09 0.08 0.08 0.08 0.08 0.08 0.08 0.08 0.08 0.08 0.09 0.09 0.10 0.10 0.11 0.11 0.11 0.11 0.10 0.10 0.10 0.10 0.10 0.10 0.12
0.20 0.17 0.15 0.14 0.13 0.12 0.11 0.10 0.10 0.10 0.09 0.09 0.09 0.09 0.08 0.08 0.08 0.08 0.08 0.07 0.07 0.07 0.08 0.08 0.08 0.08 0.08 0.09 0.09 0.10 0.10 0.11 0.11 0.11 0.11 0.11 0.11 0.11 0.11 0.10 0.10 0.10 0.12

GFSGL_prec_pwat_078.txt.gz
Precipitable_Water
0.81 0.75 0.75 0.78 0.81 0.81 0.80 0.78 0.78 0.85 0.89 0.90 0.97 1.07 1.15 1.22 1.26 1.21 1.25 1.21 1.17 1.18 1.16 1.13 1.18 1.12 1.04 1.04 0.92 0.86 0.75 0.67 0.58 0.64 0.68 0.69 0.67 0.63 0.64 0.63 0.55 0.49 0.46
0.95 0.97 0.97 0.94 0.96 0.90 0.89 0.90 0.93 0.93 1.00 1.05 1.14 1.22 1.20 1.15 1.17 1.20 1.16 1.18 1.12 1.10 1.10 1.11 1.13 1.05 1.03 0.96 0.85 0.75 0.73 0.69 0.65 0.60 0.61 0.63 0.63 0.63 0.56 0.44 0.44 0.45 0.44
0.97 0.98 1.03 1.05 1.08 1.03 1.00 0.95 1.00 1.04 1.15 1.18 1.18 1.17 1.20 1.21 1.08 1.07 1.11 1.07 1.06 1.09 1.08 1.11 1.05 1.02 0.92 0.83 0.84 0.76 0.72 0.69 0.67 0.61 0.59 0.63 0.62 0.52 0.42 0.40 0.37 0.37 0.37
0.84 0.87 0.89 1.01 1.10 1.10 1.12 1.03 1.01 1.07 1.16 1.18 1.18 1.16 1.11 1.13 1.09 1.07 1.09 1.08 1.05 1.07 1.04 1.05 0.99 0.93 0.88 0.83 0.75 0.72 0.72 0.66 0.64 0.60 0.58 0.55 0.47 0.41 0.38 0.33 0.29 0.28 0.25
0.76 0.80 0.84 0.94 1.04 1.09 1.09 1.10 1.06 1.04 1.06 1.11 1.17 1.20 1.14 1.10 1.06 1.07 1.06 1.02 0.98 1.02 0.98 0.96 0.93 0.89 0.77 0.77 0.73 0.68 0.64 0.61 0.58 0.55 0.49 0.41 0.35 0.32 0.27 0.26 0.23 0.24 0.24
0.73 0.75 0.85 0.89 0.97 1.04 1.09 1.07 1.05 1.00 1.00 1.02 1.04 1.08 1.07 1.00 1.02 1.05 1.02 1.02 0.99 0.95 0.88 0.84 0.77 0.79 0.72 0.74 0.67 0.63 0.60 0.57 0.52 0.46 0.39 0.30 0.27 0.25 0.24 0.24 0.24 0.22 0.20
0.74 0.76 0.87 0.88 0.94 1.00 1.01 0.98 0.95 0.94 0.94 0.91 0.93 0.96 0.99 1.02 1.00 1.01 1.00 0.96 0.90 0.84 0.79 0.74 0.69 0.70 0.67 0.59 0.61 0.59 0.55 0.52 0.44 0.35 0.28 0.25 0.24 0.25 0.26 0.25 0.24 0.24 0.23
0.78 0.77 0.85 0.88 0.90 0.95 0.94 0.92 0.91 0.91 0.84 0.84 0.88 0.92 0.92 0.92 0.94 0.94 0.90 0.85 0.83 0.78 0.73 0.71 0.65 0.59 0.58 0.57 0.53 0.48 0.44 0.38 0.32 0.29 0.28 0.28 0.28 0.28 0.28 0.28 0.28 0.27 0.28
0.79 0.77 0.84 0.89 0.90 0.93 0.95 0.93 0.89 0.84 0.87 0.88 0.90 0.89 0.89 0.88 0.84 0.82 0.79 0.75 0.71 0.67 0.63 0.59 0.57 0.55 0.53 0.51 0.44 0.38 0.32 0.28 0.29 0.29 0.28 0.27 0.26 0.27 0.28 0.29 0.26 0.25 0.22
0.79 0.80 0.87 0.92 0.91 0.91 0.87 0.80 0.85 0.87 0.86 0.88 0.85 0.83 0.80 0.76 0.76 0.74 0.72 0.68 0.62 0.58 0.56 0.54 0.53 0.50 0.47 0.43 0.36 0.30 0.25 0.25 0.26 0.25 0.25 0.25 0.25 0.26 0.27 0.28 0.26 0.23 0.22
0.84 0.87 0.88 0.90 0.87 0.84 0.82 0.85 0.85 0.84 0.82 0.78 0.75 0.74 0.73 0.71 0.70 0.69 0.66 0.62 0.59 0.56 0.54 0.52 0.50 0.46 0.40 0.35 0.31 0.28 0.26 0.28 0.28 0.28 0.26 0.23 0.25 0.26 0.24 0.23 0.23 0.23 0.21
0.87 0.86 0.84 0.84 0.82 0.83 0.83 0.81 0.79 0.76 0.72 0.70 0.69 0.68 0.68 0.67 0.66 0.64 0.63 0.61 0.60 0.56 0.53 0.49 0.42 0.38 0.35 0.32 0.29 0.30 0.32 0.28 0.27 0.25 0.25 0.27 0.25 0.23 0.22 0.22 0.22 0.22 0.23
0.82 0.80 0.79 0.80 0.80 0.81 0.78 0.75 0.72 0.72 0.69 0.67 0.66 0.64 0.63 0.63 0.63 0.62 0.60 0.58 0.56 0.51 0.45 0.40 0.36 0.33 0.32 0.32 0.33 0.32 0.30 0.29 0.29 0.28 0.27 0.25 0.24 0.23 0.23 0.21 0.21 0.20 0.21
0.81 0.81 0.81 0.79 0.78 0.77 0.75 0.74 0.72 0.70 0.68 0.66 0.64 0.62 0.61 0.60 0.59 0.58 0.56 0.54 0.51 0.46 0.41 0.37 0.36 0.37 0.36 0.35 0.35 0.34 0.32 0.31 0.30 0.27 0.25 0.24 0.23 0.23 0.21 0.20 0.18 0.17 0.16
0.81 0.79 0.78 0.77 0.75 0.73 0.73 0.73 0.72 0.73 0.72 0.68 0.66 0.64 0.59 0.56 0.56 0.56 0.53 0.49 0.45 0.41 0.36 0.36 0.35 0.35 0.33 0.32 0.30 0.29 0.29 0.29 0.27 0.25 0.24 0.24 0.22 0.21 0.19 0.18 0.16 0.15 0.13
0.77 0.76 0.77 0.74 0.72 0.71 0.71 0.70 0.71 0.70 0.68 0.65 0.63 0.61 0.58 0.55 0.53 0.50 0.47 0.42 0.38 0.37 0.36 0.35 0.34 0.32 0.30 0.29 0.29 0.29 0.29 0.27 0.26 0.26 0.24 0.21 0.19 0.19 0.17 0.16 0.15 0.12 0.10
0.77 0.75 0.73 0.71 0.69 0.68 0.65 0.62 0.58 0.59 0.58 0.54 0.52 0.49 0.47 0.44 0.43 0.41 0.42 0.43 0.42 0.40 0.36 0.35 0.33 0.32 0.30 0.30 0.29 0.28 0.26 0.26 0.25 0.23 0.21 0.19 0.18 0.16 0.14 0.13 0.11 0.10 0.09
0.74 0.71 0.67 0.65 0.63 0.59 0.57 0.55 0.52 0.48 0.46 0.46 0.48 0.47 0.46 0.45 0.43 0.42 0.41 0.40 0.36 0.35 0.33 0.31 0.30 0.29 0.28 0.26 0.26 0.25 0.24 0.22 0.20 0.19 0.17 0.16 0.14 0.13 0.12 0.11 0.10 0.08 0.07
0.67 0.63 0.61 0.57 0.55 0.53 0.51 0.48 0.46 0.45 0.44 0.43 0.43 0.43 0.43 0.42 0.40 0.39 0.37 0.34 0.32 0.31 0.30 0.28 0.27 0.26 0.25 0.24 0.22 0.20 0.18 0.17 0.16 0.14 0.13 0.13 0.12 0.11 0.10 0.09 0.09 0.08 0.07
0.58 0.56 0.54 0.50 0.48 0.46 0.45 0.45 0.44 0.43 0.41 0.40 0.38 0.37 0.37 0.36 0.33 0.32 0.32 0.30 0.29 0.28 0.26 0.24 0.22 0.20 0.19 0.18 0.17 0.16 0.15 0.14 0.13 0.12 0.11 0.11 0.10 0.10 0.09 0.09 0.08 0.08 0.08
0.50 0.49 0.47 0.46 0.44 0.44 0.43 0.41 0.40 0.39 0.37 0.36 0.35 0.34 0.34 0.31 0.29 0.28 0.25 0.23 0.21 0.19 0.18 0.17 0.16 0.16 0.15 0.15 0.14 0.13 0.12 0.11 0.10 0.10 0.10 0.10 0.10 0.09 0.09 0.09 0.09 0.09 0.08
0.48 0.46 0.45 0.43 0.42 0.40 0.39 0.38 0.36 0.35 0.33 0.31 0.29 0.27 0.24 0.21 0.19 0.17 0.16 0.15 0.15 0.15 0.14 0.13 0.12 0.11 0.11 0.10 0.10 0.09 0.09 0.08 0.09 0.09 0.09 0.09 0.09 0.09 0.09 0.09 0.09 0.09 0.09
0.43 0.42 0.40 0.39 0.37 0.35 0.33 0.31 0.28 0.25 0.22 0.19 0.17 0.16 0.15 0.14 0.13 0.12 0.11 0.11 0.11 0.10 0.10 0.09 0.08 0.08 0.08 0.08 0.08 0.08 0.08 0.08 0.09 0.09 0.09 0.09 0.09 0.09 0.09 0.09 0.09 0.09 0.09
0.37 0.35 0.33 0.31 0.28 0.24 0.20 0.18 0.16 0.15 0.13 0.12 0.12 0.12 0.11 0.11 0.10 0.10 0.09 0.09 0.09 0.08 0.08 0.08 0.08 0.07 0.08 0.08 0.08 0.08 0.08 0.09 0.10 0.10 0.10 0.09 0.10 0.10 0.10 0.10 0.10 0.10 0.09
0.28 0.24 0.20 0.17 0.15 0.14 0.13 0.12 0.11 0.11 0.10 0.10 0.10 0.09 0.09 0.09 0.08 0.08 0.08 0.07 0.07 0.07 0.07 0.07 0.07 0.07 0.07 0.07 0.08 0.08 0.09 0.10 0.10 0.10 0.10 0.10 0.10 0.10 0.10 0.10 0.10 0.10 0.10
0.16 0.15 0.14 0.13 0.12 0.11 0.10 0.10 0.09 0.09 0.09 0.08 0.08 0.08 0.07 0.07 0.07 0.06 0.06 0.07 0.07 0.07 0.07 0.07 0.07 0.07 0.07 0.08 0.08 0.09 0.10 0.10 0.10 0.11 0.11 0.10 0.10 0.10 0.11 0.10 0.10 0.10 0.10

GFSGL_prec_pwat_081.txt.gz
Precipitable_Water
0.72 0.75 0.78 0.81 0.85 0.85 0.84 0.86 0.87 0.89 0.89 0.87 0.88 0.88 0.89 0.95 1.02 0.97 1.09 1.16 1.15 1.21 1.20 1.10 1.11 1.22 1.15 1.13 1.15 1.06 1.02 0.97 0.77 0.74 0.75 0.74 0.71 0.72 0.69 0.67 0.66 0.66 0.64
0.88 0.83 0.80 0.78 0.81 0.80 0.79 0.80 0.83 0.84 0.87 0.87 0.87 0.87 0.92 0.96 1.01 1.10 1.17 1.20 1.17 1.16 1.20 1.19 1.12 1.14 1.09 1.09 1.08 1.03 0.97 0.92 0.81 0.67 0.75 0.70 0.68 0.69 0.67 0.64 0.63 0.56 0.49
0.95 0.95 0.93 0.92 0.93 0.93 0.94 0.96 0.92 0.89 0.89 0.88 0.90 0.94 1.00 1.07 1.14 1.18 1.21 1.17 1.14 1.10 1.11 1.07 1.04 1.04 1.03 1.00 1.02 0.94 0.91 0.87 0.78 0.73 0.61 0.67 0.65 0.65 0.62 0.59 0.51 0.44 0.41
0.84 0.84 0.84 0.86 0.82 0.88 0.98 0.99 0.97 0.95 0.96 0.97 1.01 1.07 1.14 1.19 1.19 1.16 1.16 1.13 1.09 1.06 1.08 1.08 1.04 1.00 0.98 0.95 0.94 0.88 0.83 0.82 0.72 0.66 0.65 0.59 0.59 0.60 0.55 0.45 0.36 0.32 0.27
0.75 0.75 0.77 0.84 0.89 0.91 0.93 1.01 1.07 1.07 1.07 1.07 1.06 1.07 1.11 1.16 1.18 1.18 1.15 1.11 1.05 1.03 1.04 1.00 0.98 0.97 0.98 0.93 0.91 0.86 0.78 0.71 0.67 0.63 0.61 0.55 0.53 0.47 0.41 0.33 0.26 0.26 0.27
0.73 0.68 0.74 0.79 0.81 0.85 0.94 1.03 1.10 1.13 1.14 1.09 1.04 1.03 1.02 1.03 1.12 1.16 1.13 1.06 0.99 1.00 0.94 0.94 0.93 0.89 0.91 0.88 0.84 0.77 0.75 0.67 0.63 0.57 0.52 0.49 0.46 0.38 0.31 0.25 0.25 0.25 0.23
0.73 0.76 0.75 0.80 0.83 0.87 0.94 1.01 1.05 1.07 1.09 1.05 1.04 1.01 0.99 1.00 1.01 1.04 1.04 1.00 0.96 0.93 0.89 0.87 0.83 0.83 0.79 0.76 0.68 0.65 0.66 0.63 0.58 0.54 0.49 0.41 0.36 0.32 0.29 0.26 0.26 0.27 0.28
0.79 0.81 0.83 0.83 0.87 0.89 0.90 0.94 0.98 1.00 0.98 0.98 0.95 0.94 0.90 0.88 0.93 0.95 0.96 0.95 0.90 0.87 0.85 0.80 0.74 0.75 0.74 0.68 0.64 0.62 0.56 0.52 0.50 0.47 0.41 0.37 0.35 0.32 0.30 0.29 0.30 0.32 0.32
0.80 0.82 0.85 0.85 0.86 0.89 0.87 0.88 0.92 0.93 0.93 0.91 0.90 0.84 0.82 0.84 0.88 0.90 0.90 0.88 0.85 0.79 0.75 0.73 0.70 0.67 0.66 0.64 0.58 0.53 0.51 0.48 0.46 0.42 0.37 0.33 0.30 0.27 0.28 0.31 0.31 0.29 0.30
0.84 0.88 0.92 0.87 0.85 0.86 0.91 0.92 0.92 0.90 0.85 0.83 0.80 0.83 0.85 0.83 0.85 0.85 0.84 0.78 0.71 0.69 0.68 0.68 0.66 0.62 0.60 0.57 0.52 0.48 0.44 0.41 0.37 0.33 0.30 0.29 0.29 0.29 0.32 0.32 0.29 0.30 0.28
0.92 0.89 0.87 0.86 0.85 0.88 0.88 0.88 0.86 0.81 0.80 0.81 0.82 0.84 0.83 0.82 0.79 0.79 0.77 0.73 0.69 0.65 0.61 0.59 0.58 0.58 0.57 0.53 0.48 0.44 0.38 0.34 0.31 0.30 0.29 0.29 0.29 0.30 0.30 0.30 0.31 0.29 0.26
0.88 0.85 0.85 0.86 0.85 0.85 0.82 0.80 0.80 0.81 0.80 0.79 0.77 0.75 0.74 0.73 0.72 0.70 0.68 0.66 0.63 0.60 0.57 0.56 0.56 0.55 0.51 0.45 0.40 0.37 0.34 0.32 0.30 0.29 0.30 0.31 0.32 0.32 0.32 0.30 0.29 0.27 0.27
0.86 0.85 0.85 0.85 0.84 0.83 0.80 0.80 0.79 0.79 0.76 0.73 0.71 0.68 0.66 0.67 0.66 0.66 0.64 0.62 0.60 0.60 0.59 0.55 0.52 0.49 0.44 0.40 0.39 0.39 0.37 0.37 0.37 0.34 0.32 0.33 0.33 0.31 0.29 0.28 0.26 0.27 0.25
0.85 0.84 0.83 0.83 0.82 0.83 0.82 0.81 0.77 0.74 0.72 0.70 0.68 0.66 0.65 0.64 0.63 0.63 0.62 0.61 0.59 0.57 0.54 0.50 0.48 0.45 0.42 0.40 0.38 0.36 0.36 0.35 0.32 0.30 0.31 0.31 0.30 0.28 0.27 0.28 0.25 0.23 0.22
0.81 0.81 0.80 0.78 0.77 0.77 0.77 0.76 0.76 0.76 0.75 0.71 0.70 0.67 0.63 0.61 0.61 0.61 0.58 0.55 0.53 0.50 0.46 0.43 0.39 0.37 0.36 0.36 0.37 0.36 0.34 0.33 0.31 0.31 0.30 0.29 0.28 0.27 0.25 0.25 0.23 0.22 0.19
0.80 0.79 0.76 0.77 0.75 0.74 0.73 0.72 0.73 0.73 0.72 0.71 0.67 0.64 0.61 0.59 0.57 0.53 0.49 0.47 0.44 0.41 0.39 0.38 0.38 0.38 0.36 0.35 0.34 0.33 0.32 0.31 0.30 0.29 0.28 0.26 0.25 0.23 0.22 0.21 0.19 0.17 0.15
0.82 0.79 0.77 0.76 0.74 0.72 0.69 0.66 0.63 0.63 0.63 0.61 0.58 0.56 0.53 0.50 0.48 0.46 0.45 0.43 0.43 0.41 0.38 0.37 0.35 0.34 0.33 0.32 0.30 0.29 0.28 0.27 0.27 0.25 0.23 0.21 0.18 0.17 0.16 0.15 0.14 0.13 0.12
0.78 0.76 0.71 0.67 0.66 0.65 0.64 0.61 0.58 0.54 0.50 0.49 0.50 0.48 0.47 0.45 0.44 0.42 0.41 0.40 0.37 0.37 0.35 0.33 0.31 0.31 0.29 0.28 0.26 0.24 0.21 0.20 0.18 0.17 0.16 0.16 0.15 0.13 0.12 0.12 0.12 0.11 0.10
0.70 0.68 0.64 0.62 0.60 0.58 0.56 0.53 0.50 0.48 0.45 0.43 0.43 0.42 0.42 0.41 0.39 0.38 0.37 0.34 0.32 0.31 0.30 0.27 0.25 0.23 0.21 0.19 0.18 0.17 0.16 0.15 0.15 0.14 0.13 0.12 0.12 0.11 0.11 0.11 0.10 0.10 0.10
0.62 0.61 0.58 0.56 0.53 0.51 0.49 0.47 0.45 0.44 0.42 0.41 0.39 0.38 0.38 0.36 0.34 0.32 0.30 0.27 0.24 0.21 0.20 0.18 0.17 0.16 0.15 0.14 0.13 0.13 0.12 0.11 0.11 0.11 0.11 0.10 0.10 0.10 0.10 0.10 0.10 0.09 0.09
0.54 0.53 0.50 0.49 0.47 0.46 0.44 0.43 0.42 0.40 0.38 0.36 0.34 0.33 0.30 0.27 0.23 0.21 0.19 0.17 0.16 0.14 0.14 0.13 0.12 0.11 0.11 0.10 0.10 0.09 0.09 0.09 0.09 0.09 0.09 0.09 0.09 0.09 0.10 0.10 0.10 0.10 0.10
0.49 0.48 0.47 0.45 0.44 0.42 0.41 0.39 0.36 0.33 0.30 0.26 0.23 0.21 0.19 0.17 0.15 0.14 0.13 0.12 0.12 0.11 0.11 0.10 0.09 0.09 0.09 0.08 0.08 0.08 0.08 0.08 0.08 0.08 0.08 0.09 0.09 0.10 0.10 0.10 0.10 0.10 0.10
0.44 0.42 0.41 0.39 0.37 0.33 0.30 0.27 0.23 0.21 0.18 0.16 0.15 0.14 0.13 0.12 0.12 0.11 0.11 0.10 0.09 0.09 0.09 0.08 0.08 0.08 0.08 0.08 0.08 0.08 0.08 0.08 0.08 0.09 0.09 0.09 0.09 0.10 0.10 0.10 0.10 0.10 0.10
0.37 0.34 0.30 0.27 0.23 0.21 0.18 0.16 0.15 0.14 0.13 0.12 0.12 0.11 0.11 0.10 0.10 0.09 0.08 0.08 0.08 0.08 0.08 0.07 0.07 0.07 0.07 0.07 0.08 0.08 0.08 0.09 0.09 0.09 0.10 0.09 0.09 0.10 0.10 0.10 0.10 0.10 0.10
0.24 0.21 0.19 0.17 0.15 0.14 0.13 0.13 0.12 0.11 0.11 0.10 0.10 0.10 0.09 0.08 0.07 0.07 0.07 0.07 0.07 0.07 0.07 0.07 0.07 0.07 0.07 0.07 0.07 0.08 0.09 0.09 0.10 0.10 0.10 0.10 0.10 0.10 0.10 0.10 0.10 0.10 0.10
0.16 0.15 0.14 0.13 0.12 0.12 0.11 0.11 0.10 0.10 0.09 0.08 0.08 0.07 0.07 0.07 0.07 0.07 0.07 0.07 0.07 0.07 0.07 0.07 0.07 0.07 0.07 0.08 0.08 0.09 0.10 0.10 0.10 0.10 0.10 0.10 0.10 0.10 0.10 0.10 0.10 0.10 0.11

GFSGL_prec_pwat_084.txt.gz
Precipitable_Water
0.80 0.84 0.88 0.92 0.95 0.97 0.95 0.95 0.96 1.00 1.01 1.00 0.97 0.96 0.95 0.93 0.95 0.97 0.99 1.01 1.03 1.05 1.04 1.12 1.14 1.23 1.16 1.18 1.17 1.14 1.05 1.07 0.93 0.96 1.01 0.98 0.90 0.85 0.76 0.76 0.73 0.72 0.69
0.79 0.82 0.83 0.89 0.93 0.95 0.96 0.97 1.00 0.99 1.02 0.99 0.97 0.95 0.95 0.95 0.96 0.97 0.99 1.03 1.02 1.00 1.05 1.15 1.12 1.16 1.14 1.16 1.10 1.07 1.03 1.09 0.97 0.90 0.91 0.88 0.85 0.86 0.81 0.75 0.73 0.70 0.64
0.91 0.89 0.86 0.84 0.84 0.86 0.89 0.90 0.96 0.94 0.93 0.95 0.95 0.94 0.93 0.93 0.92 0.96 0.99 1.03 1.04 1.06 1.16 1.13 1.13 1.11 1.05 1.06 1.05 1.02 1.01 0.98 0.93 0.87 0.84 0.84 0.83 0.82 0.76 0.71 0.71 0.70 0.63
0.94 0.92 0.91 0.91 0.90 0.92 0.96 0.97 1.02 1.06 0.99 0.98 0.96 0.93 0.91 0.91 0.93 0.97 1.03 1.09 1.15 1.14 1.16 1.14 1.11 1.09 1.07 1.04 1.02 0.99 0.96 0.91 0.89 0.83 0.79 0.80 0.79 0.74 0.71 0.66 0.59 0.58 0.50
0.89 0.85 0.83 0.88 0.89 0.84 0.84 0.92 0.98 0.99 0.99 1.02 1.03 1.03 1.04 1.05 1.05 1.06 1.09 1.13 1.13 1.12 1.12 1.12 1.08 1.08 1.05 1.03 0.98 0.95 0.90 0.88 0.87 0.78 0.74 0.68 0.68 0.65 0.60 0.57 0.49 0.46 0.40
0.77 0.76 0.81 0.84 0.87 0.88 0.86 0.83 0.93 1.00 1.01 1.05 1.06 1.09 1.10 1.12 1.11 1.11 1.11 1.09 1.11 1.09 1.07 1.05 1.03 0.98 1.00 0.97 0.95 0.93 0.87 0.81 0.75 0.74 0.65 0.61 0.63 0.60 0.56 0.49 0.43 0.36 0.32
0.72 0.74 0.75 0.76 0.77 0.80 0.84 0.86 0.87 0.98 1.07 1.13 1.16 1.17 1.11 1.10 1.09 1.07 1.05 1.02 0.98 0.95 0.97 0.96 0.94 0.92 0.92 0.89 0.86 0.83 0.79 0.77 0.74 0.72 0.64 0.62 0.57 0.53 0.49 0.43 0.39 0.37 0.34
0.72 0.73 0.75 0.77 0.79 0.84 0.86 0.84 0.90 0.95 0.99 1.01 1.04 1.05 1.03 1.01 0.99 0.95 0.95 0.93 0.90 0.89 0.89 0.88 0.87 0.86 0.86 0.83 0.78 0.74 0.71 0.70 0.67 0.63 0.60 0.56 0.51 0.48 0.46 0.42 0.39 0.35 0.35
0.75 0.76 0.78 0.81 0.83 0.85 0.86 0.88 0.91 0.91 0.91 0.93 0.95 0.93 0.92 0.90 0.91 0.89 0.85 0.83 0.83 0.84 0.84 0.85 0.84 0.83 0.81 0.76 0.70 0.65 0.63 0.61 0.59 0.54 0.50 0.48 0.44 0.40 0.36 0.33 0.32 0.34 0.34
0.79 0.83 0.89 0.91 0.89 0.89 0.88 0.87 0.89 0.90 0.88 0.89 0.89 0.89 0.87 0.85 0.86 0.84 0.86 0.84 0.82 0.81 0.81 0.80 0.78 0.74 0.69 0.66 0.62 0.58 0.52 0.53 0.50 0.47 0.45 0.42 0.39 0.37 0.36 0.34 0.33 0.31 0.33
0.87 0.88 0.89 0.92 0.92 0.92 0.87 0.85 0.85 0.85 0.85 0.84 0.83 0.82 0.82 0.80 0.81 0.84 0.85 0.81 0.77 0.73 0.70 0.67 0.67 0.67 0.62 0.57 0.54 0.52 0.50 0.49 0.45 0.41 0.39 0.38 0.36 0.35 0.33 0.35 0.37 0.36 0.34
0.90 0.89 0.92 0.94 0.94 0.90 0.86 0.83 0.83 0.82 0.81 0.78 0.76 0.76 0.78 0.81 0.80 0.80 0.78 0.75 0.71 0.66 0.63 0.62 0.61 0.60 0.55 0.50 0.50 0.47 0.44 0.43 0.44 0.41 0.39 0.39 0.38 0.38 0.39 0.39 0.38 0.35 0.33
0.93 0.95 0.96 0.95 0.91 0.89 0.87 0.85 0.83 0.82 0.78 0.76 0.76 0.76 0.75 0.75 0.74 0.72 0.69 0.67 0.65 0.64 0.64 0.62 0.61 0.59 0.54 0.51 0.49 0.45 0.42 0.41 0.39 0.37 0.37 0.37 0.36 0.35 0.34 0.33 0.33 0.32 0.31
0.93 0.93 0.92 0.89 0.85 0.84 0.84 0.82 0.80 0.80 0.77 0.76 0.74 0.72 0.70 0.69 0.67 0.67 0.68 0.68 0.65 0.63 0.60 0.58 0.56 0.53 0.48 0.44 0.41 0.41 0.41 0.41 0.38 0.36 0.35 0.34 0.34 0.33 0.32 0.31 0.30 0.29 0.27
0.90 0.87 0.85 0.83 0.80 0.79 0.80 0.80 0.80 0.80 0.78 0.74 0.73 0.69 0.66 0.65 0.65 0.66 0.64 0.61 0.60 0.57 0.54 0.49 0.45 0.42 0.40 0.40 0.40 0.39 0.38 0.37 0.35 0.34 0.33 0.31 0.30 0.29 0.28 0.27 0.25 0.23 0.21
0.86 0.82 0.80 0.78 0.78 0.77 0.78 0.75 0.77 0.76 0.76 0.74 0.72 0.68 0.66 0.64 0.61 0.58 0.55 0.52 0.49 0.47 0.45 0.42 0.40 0.39 0.38 0.37 0.35 0.34 0.33 0.32 0.31 0.28 0.26 0.24 0.22 0.21 0.20 0.19 0.19 0.17 0.16
0.82 0.79 0.78 0.77 0.76 0.75 0.72 0.71 0.68 0.68 0.68 0.66 0.64 0.61 0.59 0.57 0.55 0.52 0.49 0.46 0.43 0.43 0.39 0.37 0.36 0.36 0.34 0.33 0.31 0.27 0.24 0.23 0.22 0.20 0.19 0.18 0.17 0.16 0.15 0.14 0.14 0.14 0.14
0.81 0.78 0.76 0.74 0.72 0.69 0.67 0.65 0.63 0.59 0.56 0.55 0.56 0.54 0.51 0.49 0.47 0.45 0.44 0.43 0.39 0.38 0.36 0.34 0.31 0.28 0.25 0.22 0.20 0.19 0.18 0.17 0.16 0.15 0.14 0.13 0.13 0.12 0.12 0.12 0.12 0.12 0.12
0.73 0.71 0.68 0.65 0.64 0.63 0.62 0.59 0.57 0.53 0.51 0.49 0.48 0.47 0.46 0.44 0.42 0.40 0.39 0.37 0.33 0.28 0.25 0.22 0.20 0.18 0.17 0.16 0.15 0.15 0.14 0.12 0.12 0.11 0.11 0.10 0.11 0.10 0.10 0.10 0.11 0.11 0.11
0.64 0.62 0.60 0.59 0.58 0.57 0.55 0.52 0.50 0.48 0.46 0.45 0.43 0.41 0.41 0.39 0.35 0.31 0.27 0.23 0.21 0.19 0.17 0.16 0.15 0.14 0.14 0.13 0.12 0.11 0.11 0.10 0.10 0.10 0.09 0.10 0.10 0.10 0.09 0.10 0.10 0.10 0.10
0.58 0.57 0.56 0.54 0.52 0.49 0.49 0.47 0.46 0.44 0.41 0.39 0.36 0.33 0.29 0.26 0.22 0.20 0.18 0.17 0.16 0.15 0.14 0.13 0.13 0.12 0.11 0.11 0.10 0.10 0.09 0.09 0.09 0.09 0.09 0.09 0.09 0.09 0.09 0.10 0.10 0.10 0.10
0.50 0.49 0.48 0.46 0.45 0.44 0.43 0.42 0.39 0.35 0.30 0.26 0.23 0.21 0.19 0.18 0.16 0.16 0.15 0.14 0.14 0.13 0.12 0.11 0.10 0.10 0.10 0.09 0.09 0.09 0.09 0.08 0.09 0.09 0.09 0.09 0.09 0.09 0.10 0.10 0.10 0.10 0.10
0.43 0.41 0.40 0.39 0.37 0.34 0.31 0.28 0.25 0.22 0.20 0.18 0.17 0.16 0.15 0.15 0.14 0.14 0.13 0.12 0.11 0.10 0.10 0.09 0.09 0.09 0.09 0.09 0.09 0.09 0.08 0.08 0.09 0.09 0.09 0.09 0.09 0.10 0.10 0.10 0.10 0.10 0.10
0.37 0.34 0.30 0.27 0.25 0.22 0.20 0.18 0.17 0.16 0.16 0.15 0.15 0.14 0.13 0.13 0.12 0.11 0.10 0.10 0.09 0.09 0.09 0.09 0.08 0.08 0.08 0.08 0.08 0.09 0.09 0.09 0.09 0.10 0.10 0.10 0.10 0.10 0.10 0.10 0.10 0.10 0.10
0.24 0.22 0.20 0.19 0.18 0.17 0.16 0.15 0.15 0.14 0.14 0.13 0.13 0.12 0.11 0.10 0.09 0.09 0.09 0.09 0.08 0.08 0.08 0.08 0.08 0.08 0.08 0.08 0.08 0.08 0.09 0.10 0.10 0.10 0.10 0.10 0.10 0.10 0.10 0.10 0.10 0.10 0.10
0.19 0.18 0.17 0.16 0.15 0.15 0.14 0.13 0.13 0.12 0.11 0.11 0.10 0.10 0.09 0.09 0.08 0.08 0.08 0.08 0.08 0.07 0.08 0.08 0.08 0.08 0.08 0.08 0.09 0.10 0.10 0.10 0.10 0.11 0.11 0.11 0.11 0.11 0.11 0.11 0.11 0.11 0.11

GFSGL_prec_pwat_087.txt.gz
Precipitable_Water
0.80 0.88 0.92 0.95 1.01 1.05 1.03 1.01 1.02 1.00 0.96 0.96 0.99 1.00 1.05 1.01 1.02 1.04 1.01 1.01 0.98 1.00 1.06 1.08 1.08 1.13 1.09 1.10 1.17 1.17 1.11 1.13 0.93 0.95 1.07 1.11 1.07 1.04 0.98 0.98 0.96 0.88 0.87
0.80 0.81 0.87 0.93 0.97 1.01 1.03 1.03 1.04 1.00 1.02 1.04 1.03 1.01 1.02 1.01 1.01 0.98 0.96 0.98 0.97 0.98 1.02 1.07 1.10 1.14 1.11 1.14 1.18 1.14 1.07 1.07 1.00 0.88 0.96 0.94 0.93 0.96 0.90 0.91 0.88 0.88 0.84
0.80 0.81 0.84 0.87 0.92 0.93 0.98 1.04 1.08 1.06 1.05 1.07 1.07 1.02 1.01 0.99 0.98 1.00 1.00 1.01 1.01 1.03 1.05 1.06 1.06 1.09 1.10 1.14 1.12 1.08 1.07 1.06 1.03 0.94 0.90 0.98 0.94 0.92 0.90 0.90 0.87 0.87 0.83
0.83 0.82 0.83 0.85 0.88 0.92 0.98 1.05 1.04 1.05 1.02 1.04 1.07 1.08 1.08 1.04 1.02 1.03 1.01 1.00 1.01 1.02 1.03 1.04 1.06 1.12 1.10 1.10 1.06 1.04 1.03 0.98 0.97 0.92 0.90 0.88 0.88 0.86 0.86 0.81 0.79 0.78 0.72
0.91 0.89 0.89 0.91 0.90 0.91 0.93 0.97 0.99 1.00 1.01 1.07 1.09 1.07 1.02 1.02 1.00 0.99 0.97 0.96 0.95 0.97 1.06 1.12 1.16 1.18 1.16 1.13 1.07 1.06 1.02 0.95 0.92 0.89 0.84 0.82 0.79 0.76 0.75 0.76 0.70 0.70 0.67
0.92 0.91 0.95 0.97 0.94 0.91 0.87 0.87 0.90 0.94 0.97 1.01 1.02 1.01 1.04 1.04 1.06 1.07 1.12 1.13 1.14 1.10 1.05 1.04 1.04 1.02 1.02 1.04 1.07 1.05 1.02 0.94 0.88 0.84 0.81 0.76 0.75 0.72 0.73 0.70 0.67 0.63 0.55
0.93 0.94 0.93 0.89 0.90 0.92 0.94 0.88 0.84 0.85 0.88 0.91 0.98 1.02 1.05 1.12 1.16 1.20 1.21 1.17 1.11 1.06 1.01 0.95 0.93 0.95 0.93 0.93 0.91 0.94 0.92 0.90 0.88 0.83 0.77 0.74 0.71 0.72 0.70 0.64 0.61 0.56 0.49
0.86 0.88 0.86 0.84 0.82 0.85 0.87 0.87 0.88 0.89 0.86 0.87 0.96 1.06 1.08 1.12 1.15 1.16 1.15 1.11 1.05 0.98 0.92 0.89 0.88 0.86 0.84 0.84 0.85 0.81 0.80 0.79 0.79 0.79 0.76 0.71 0.68 0.65 0.61 0.56 0.52 0.50 0.49
0.82 0.81 0.84 0.83 0.83 0.85 0.85 0.88 0.93 0.94 0.91 0.92 0.94 0.95 0.96 0.98 1.03 1.03 1.02 0.97 0.92 0.84 0.84 0.83 0.81 0.81 0.82 0.82 0.80 0.76 0.76 0.74 0.73 0.67 0.64 0.61 0.57 0.51 0.47 0.46 0.42 0.39 0.37
0.88 0.88 0.91 0.91 0.89 0.90 0.93 0.90 0.92 0.94 0.91 0.90 0.87 0.89 0.89 0.88 0.90 0.91 0.92 0.88 0.84 0.81 0.78 0.80 0.81 0.81 0.80 0.76 0.73 0.68 0.62 0.60 0.59 0.56 0.53 0.51 0.52 0.50 0.46 0.42 0.37 0.34 0.33
0.97 0.98 0.99 0.97 0.97 0.97 0.94 0.95 0.92 0.89 0.88 0.84 0.82 0.82 0.85 0.87 0.86 0.87 0.88 0.85 0.79 0.77 0.76 0.76 0.76 0.74 0.69 0.66 0.63 0.60 0.56 0.56 0.54 0.50 0.48 0.46 0.45 0.43 0.42 0.43 0.42 0.40 0.37
0.94 0.98 0.98 0.98 0.97 0.96 0.95 0.94 0.92 0.90 0.86 0.83 0.82 0.81 0.82 0.83 0.83 0.82 0.80 0.81 0.79 0.75 0.72 0.70 0.70 0.66 0.61 0.59 0.56 0.55 0.53 0.52 0.52 0.50 0.47 0.44 0.41 0.41 0.42 0.42 0.42 0.39 0.37
0.97 0.96 0.96 0.97 0.95 0.95 0.95 0.95 0.93 0.90 0.83 0.81 0.81 0.77 0.76 0.76 0.76 0.76 0.76 0.76 0.74 0.71 0.70 0.67 0.65 0.63 0.61 0.59 0.55 0.50 0.48 0.47 0.44 0.41 0.39 0.38 0.39 0.39 0.38 0.36 0.36 0.36 0.35
0.86 0.88 0.86 0.88 0.88 0.91 0.95 0.96 0.93 0.86 0.81 0.80 0.77 0.73 0.73 0.74 0.73 0.73 0.74 0.74 0.72 0.69 0.66 0.65 0.61 0.57 0.54 0.52 0.50 0.48 0.45 0.41 0.38 0.37 0.38 0.38 0.37 0.35 0.33 0.32 0.28 0.25 0.23
0.87 0.88 0.88 0.90 0.91 0.91 0.91 0.88 0.85 0.87 0.82 0.76 0.74 0.74 0.73 0.71 0.70 0.71 0.70 0.67 0.64 0.62 0.59 0.55 0.52 0.49 0.47 0.44 0.42 0.41 0.40 0.38 0.36 0.36 0.32 0.28 0.25 0.23 0.22 0.22 0.21 0.20 0.17
0.89 0.88 0.89 0.90 0.89 0.87 0.85 0.83 0.82 0.78 0.77 0.76 0.75 0.74 0.70 0.69 0.66 0.64 0.62 0.58 0.56 0.55 0.52 0.48 0.46 0.43 0.41 0.39 0.38 0.36 0.34 0.30 0.27 0.24 0.21 0.20 0.18 0.17 0.17 0.16 0.15 0.14 0.14
0.88 0.86 0.83 0.81 0.81 0.80 0.77 0.74 0.71 0.71 0.72 0.70 0.68 0.66 0.64 0.62 0.59 0.57 0.54 0.52 0.51 0.49 0.45 0.43 0.40 0.38 0.36 0.32 0.28 0.25 0.22 0.22 0.20 0.19 0.17 0.16 0.14 0.13 0.12 0.12 0.12 0.12 0.12
0.80 0.79 0.77 0.75 0.73 0.72 0.71 0.68 0.66 0.62 0.59 0.58 0.59 0.58 0.56 0.54 0.53 0.51 0.50 0.50 0.45 0.42 0.39 0.36 0.32 0.27 0.23 0.20 0.19 0.18 0.17 0.17 0.16 0.15 0.14 0.13 0.12 0.12 0.11 0.11 0.11 0.10 0.11
0.72 0.71 0.70 0.69 0.67 0.65 0.64 0.62 0.59 0.56 0.53 0.52 0.52 0.51 0.51 0.49 0.47 0.45 0.44 0.40 0.36 0.31 0.26 0.22 0.20 0.19 0.18 0.17 0.16 0.16 0.15 0.14 0.13 0.12 0.12 0.11 0.11 0.11 0.10 0.10 0.10 0.10 0.10
0.64 0.65 0.64 0.61 0.60 0.58 0.57 0.55 0.53 0.51 0.49 0.47 0.46 0.46 0.46 0.44 0.40 0.35 0.29 0.25 0.21 0.20 0.18 0.18 0.17 0.16 0.15 0.14 0.14 0.13 0.12 0.11 0.11 0.11 0.10 0.10 0.10 0.10 0.10 0.09 0.10 0.09 0.10
0.56 0.57 0.57 0.55 0.54 0.52 0.51 0.49 0.48 0.46 0.44 0.42 0.40 0.38 0.34 0.29 0.24 0.21 0.20 0.18 0.17 0.17 0.16 0.15 0.14 0.14 0.13 0.13 0.12 0.11 0.11 0.10 0.10 0.10 0.10 0.10 0.10 0.09 0.10 0.10 0.10 0.10 0.10
0.48 0.47 0.48 0.47 0.47 0.46 0.45 0.44 0.42 0.38 0.34 0.29 0.25 0.22 0.21 0.19 0.18 0.17 0.16 0.16 0.16 0.15 0.14 0.13 0.12 0.12 0.11 0.11 0.11 0.10 0.10 0.09 0.09 0.09 0.09 0.09 0.09 0.09 0.10 0.10 0.10 0.10 0.10
0.45 0.44 0.43 0.42 0.42 0.40 0.36 0.32 0.28 0.25 0.23 0.21 0.20 0.19 0.18 0.17 0.16 0.15 0.15 0.14 0.13 0.13 0.13 0.12 0.11 0.11 0.11 0.10 0.10 0.10 0.09 0.09 0.09 0.10 0.09 0.10 0.10 0.10 0.10 0.10 0.10 0.10 0.10
0.40 0.38 0.34 0.31 0.28 0.26 0.23 0.21 0.20 0.20 0.19 0.19 0.18 0.17 0.16 0.15 0.14 0.13 0.13 0.12 0.11 0.11 0.11 0.11 0.10 0.10 0.09 0.09 0.09 0.09 0.09 0.10 0.10 0.10 0.10 0.10 0.10 0.10 0.10 0.10 0.10 0.10 0.10
0.28 0.26 0.24 0.23 0.22 0.21 0.20 0.19 0.18 0.17 0.16 0.15 0.14 0.14 0.13 0.13 0.12 0.12 0.11 0.11 0.10 0.10 0.10 0.09 0.10 0.09 0.09 0.09 0.09 0.09 0.10 0.10 0.10 0.10 0.10 0.10 0.10 0.10 0.11 0.11 0.11 0.11 0.11
0.22 0.21 0.21 0.20 0.19 0.18 0.17 0.15 0.14 0.14 0.13 0.13 0.13 0.12 0.12 0.11 0.11 0.10 0.10 0.10 0.09 0.08 0.09 0.09 0.09 0.09 0.09 0.09 0.09 0.10 0.10 0.10 0.10 0.10 0.11 0.11 0.11 0.11 0.11 0.11 0.11 0.11 0.11

GFSGL_prec_pwat_090.txt.gz
Precipitable_Water
0.79 0.88 0.93 0.95 0.98 0.98 0.98 1.00 0.96 0.93 0.91 0.94 0.98 1.01 1.08 1.09 1.12 1.07 1.04 1.01 0.98 0.98 1.01 1.01 1.03 1.04 1.05 1.06 1.09 1.09 1.10 1.05 0.95 1.04 1.10 1.09 1.12 1.07 1.09 1.09 1.05 1.02 0.99
0.73 0.81 0.87 0.95 0.98 0.99 0.98 1.01 1.05 1.00 0.93 0.91 0.94 0.97 1.00 1.08 1.08 1.10 1.09 1.06 0.98 0.99 0.98 0.99 0.98 1.03 1.04 1.06 1.08 1.03 1.04 1.10 1.05 0.96 1.02 1.05 1.07 1.07 1.05 1.05 1.05 1.00 0.96
0.73 0.73 0.79 0.87 0.93 0.97 1.00 1.04 1.06 1.05 1.02 0.98 0.94 0.93 0.95 0.99 1.02 1.02 1.04 1.04 1.00 1.01 1.02 1.00 1.01 1.03 1.02 1.04 1.03 1.03 1.05 1.09 1.09 1.00 0.96 1.00 0.98 0.99 0.99 0.99 0.98 0.94 0.93
0.82 0.77 0.73 0.79 0.86 0.90 0.98 1.05 1.09 1.10 1.05 1.02 0.98 0.99 0.99 1.04 1.07 1.08 1.04 1.04 1.04 1.03 1.03 1.03 1.05 1.05 1.01 1.02 1.03 1.04 1.11 1.10 1.07 1.02 1.01 0.96 0.94 0.95 0.92 0.88 0.86 0.89 0.85
0.84 0.86 0.81 0.83 0.88 0.89 0.91 0.98 1.05 1.08 1.07 1.05 1.04 1.02 1.04 1.06 1.10 1.11 1.08 1.05 1.02 1.00 1.02 1.06 1.06 1.07 1.06 1.12 1.10 1.06 1.05 0.99 0.94 0.87 0.92 0.87 0.85 0.88 0.83 0.83 0.77 0.80 0.80
0.91 0.90 0.96 0.96 0.96 0.93 0.90 0.92 0.94 0.97 1.01 1.02 1.00 1.00 1.00 1.09 1.13 1.10 1.06 1.06 1.07 1.06 1.03 1.05 1.07 1.08 1.08 1.09 1.06 1.02 1.00 0.94 0.84 0.83 0.85 0.82 0.73 0.80 0.81 0.75 0.76 0.72 0.67
0.97 0.99 1.00 1.00 1.01 1.00 1.00 0.98 0.93 0.88 0.90 0.91 0.94 0.98 1.00 1.06 1.07 1.08 1.09 1.09 1.07 1.08 1.10 1.11 1.09 1.08 1.07 1.03 0.98 0.93 0.88 0.86 0.87 0.76 0.76 0.80 0.72 0.77 0.76 0.74 0.71 0.69 0.65
0.99 1.00 1.03 1.02 1.03 1.05 1.00 0.97 0.97 0.97 0.89 0.87 0.89 0.95 0.96 0.95 1.03 1.09 1.12 1.12 1.11 1.10 1.12 1.08 1.05 1.01 0.98 0.91 0.85 0.80 0.80 0.78 0.79 0.81 0.79 0.77 0.76 0.75 0.72 0.67 0.62 0.59 0.57
0.93 0.93 1.00 1.05 1.04 1.04 0.98 0.96 1.00 1.00 1.00 0.99 0.96 0.92 0.90 0.89 0.93 0.99 1.04 1.05 1.03 1.04 1.00 0.99 0.96 0.91 0.86 0.83 0.79 0.77 0.77 0.75 0.77 0.75 0.72 0.69 0.65 0.60 0.55 0.51 0.50 0.48 0.46
1.00 1.00 1.02 1.04 1.04 1.00 1.00 1.00 0.99 0.96 0.94 0.96 0.95 0.97 0.96 0.94 0.94 0.97 0.98 0.96 0.92 0.89 0.90 0.88 0.85 0.82 0.79 0.73 0.72 0.69 0.69 0.69 0.66 0.63 0.62 0.57 0.54 0.54 0.55 0.52 0.48 0.42 0.39
1.07 1.11 1.08 1.08 1.05 1.04 1.00 1.00 0.98 0.97 0.96 0.95 0.94 0.94 0.95 0.95 0.93 0.91 0.91 0.89 0.87 0.83 0.80 0.79 0.78 0.76 0.74 0.73 0.70 0.66 0.63 0.63 0.57 0.55 0.55 0.56 0.53 0.50 0.48 0.47 0.45 0.41 0.37
0.94 1.00 0.99 1.02 1.02 0.98 0.98 0.99 0.99 0.99 0.94 0.92 0.93 0.91 0.91 0.92 0.91 0.89 0.89 0.88 0.85 0.80 0.76 0.75 0.71 0.68 0.65 0.65 0.63 0.62 0.59 0.59 0.56 0.52 0.49 0.46 0.44 0.42 0.41 0.40 0.38 0.37 0.36
0.94 0.95 1.03 1.05 1.03 1.04 0.98 0.98 0.96 0.98 0.96 0.93 0.91 0.88 0.85 0.85 0.83 0.82 0.82 0.81 0.80 0.76 0.73 0.70 0.69 0.67 0.64 0.61 0.60 0.58 0.56 0.52 0.47 0.44 0.42 0.41 0.39 0.38 0.37 0.34 0.32 0.31 0.29
0.95 0.95 0.93 0.95 0.99 1.03 1.02 1.01 0.97 0.93 0.94 0.92 0.89 0.85 0.83 0.82 0.80 0.77 0.76 0.76 0.73 0.71 0.70 0.68 0.65 0.63 0.59 0.58 0.56 0.51 0.48 0.45 0.42 0.40 0.37 0.33 0.30 0.27 0.24 0.24 0.22 0.22 0.20
0.81 0.85 0.87 0.89 0.94 0.94 0.93 0.94 0.92 0.92 0.90 0.85 0.83 0.81 0.78 0.74 0.75 0.75 0.73 0.69 0.67 0.66 0.64 0.62 0.58 0.55 0.52 0.49 0.48 0.45 0.43 0.40 0.34 0.29 0.26 0.24 0.23 0.21 0.19 0.19 0.17 0.15 0.14
0.83 0.79 0.78 0.79 0.80 0.80 0.80 0.81 0.84 0.81 0.80 0.78 0.79 0.77 0.74 0.74 0.71 0.68 0.67 0.65 0.64 0.62 0.57 0.53 0.50 0.49 0.46 0.44 0.41 0.36 0.33 0.29 0.26 0.24 0.21 0.19 0.18 0.16 0.15 0.14 0.14 0.12 0.11
0.80 0.80 0.78 0.74 0.75 0.76 0.76 0.74 0.70 0.71 0.71 0.65 0.70 0.69 0.68 0.66 0.63 0.61 0.60 0.58 0.57 0.55 0.50 0.48 0.45 0.42 0.37 0.32 0.29 0.26 0.23 0.22 0.20 0.18 0.17 0.15 0.15 0.13 0.12 0.11 0.11 0.11 0.10
0.75 0.75 0.73 0.70 0.68 0.70 0.69 0.67 0.64 0.62 0.60 0.58 0.60 0.60 0.59 0.58 0.57 0.56 0.55 0.52 0.47 0.46 0.43 0.37 0.32 0.28 0.25 0.23 0.21 0.19 0.18 0.17 0.16 0.15 0.14 0.13 0.12 0.11 0.11 0.10 0.10 0.10 0.09
0.68 0.67 0.66 0.65 0.62 0.63 0.62 0.60 0.58 0.57 0.55 0.54 0.54 0.54 0.54 0.53 0.51 0.50 0.48 0.43 0.36 0.29 0.26 0.23 0.21 0.20 0.18 0.18 0.17 0.16 0.15 0.15 0.14 0.12 0.12 0.11 0.11 0.10 0.10 0.10 0.09 0.09 0.09
0.60 0.62 0.61 0.60 0.59 0.59 0.56 0.54 0.53 0.51 0.51 0.50 0.49 0.48 0.48 0.46 0.40 0.34 0.29 0.26 0.23 0.21 0.20 0.19 0.18 0.17 0.16 0.16 0.15 0.14 0.12 0.11 0.11 0.11 0.10 0.10 0.10 0.10 0.09 0.09 0.09 0.09 0.09
0.55 0.54 0.53 0.50 0.50 0.51 0.51 0.49 0.47 0.46 0.44 0.43 0.41 0.40 0.36 0.30 0.26 0.23 0.21 0.20 0.19 0.18 0.17 0.16 0.15 0.15 0.14 0.13 0.12 0.11 0.11 0.10 0.10 0.10 0.10 0.10 0.09 0.09 0.10 0.10 0.10 0.10 0.10
0.50 0.48 0.48 0.47 0.46 0.45 0.44 0.43 0.42 0.40 0.37 0.32 0.29 0.27 0.25 0.23 0.21 0.19 0.18 0.18 0.17 0.16 0.15 0.13 0.13 0.12 0.12 0.11 0.11 0.10 0.09 0.09 0.10 0.10 0.09 0.09 0.10 0.09 0.09 0.09 0.09 0.10 0.10
0.46 0.45 0.44 0.43 0.42 0.41 0.38 0.35 0.31 0.28 0.25 0.23 0.21 0.20 0.19 0.18 0.17 0.16 0.15 0.14 0.13 0.13 0.12 0.12 0.11 0.10 0.11 0.10 0.10 0.10 0.09 0.09 0.09 0.10 0.09 0.09 0.09 0.09 0.10 0.09 0.10 0.10 0.10
0.41 0.39 0.38 0.35 0.30 0.27 0.25 0.24 0.23 0.22 0.21 0.20 0.18 0.17 0.16 0.15 0.14 0.14 0.13 0.12 0.12 0.11 0.11 0.10 0.10 0.10 0.10 0.09 0.09 0.09 0.09 0.10 0.10 0.10 0.10 0.09 0.09 0.09 0.10 0.10 0.10 0.10 0.10
0.31 0.28 0.26 0.24 0.23 0.21 0.21 0.20 0.19 0.18 0.17 0.16 0.15 0.14 0.14 0.14 0.13 0.12 0.11 0.11 0.10 0.09 0.09 0.10 0.10 0.09 0.09 0.08 0.09 0.09 0.10 0.10 0.10 0.10 0.10 0.10 0.10 0.10 0.10 0.10 0.11 0.11 0.11
0.25 0.24 0.23 0.22 0.21 0.19 0.17 0.15 0.14 0.14 0.14 0.13 0.13 0.13 0.13 0.12 0.11 0.11 0.10 0.10 0.09 0.09 0.09 0.09 0.09 0.08 0.08 0.09 0.10 0.10 0.09 0.09 0.10 0.10 0.10 0.10 0.10 0.11 0.11 0.11 0.11 0.11 0.11

GFSGL_prec_pwat_093.txt.gz
Precipitable_Water
0.77 0.85 0.89 0.90 0.94 0.96 0.97 0.95 0.96 0.94 0.96 0.94 0.92 0.89 0.88 0.90 1.00 1.06 1.10 1.07 1.04 1.04 1.01 0.96 0.94 0.97 0.97 1.00 1.03 1.01 0.99 1.01 0.90 0.99 1.06 1.07 1.12 1.13 1.14 1.14 1.14 1.08 1.08
0.75 0.77 0.86 0.92 0.94 0.92 0.93 0.96 0.97 0.92 0.91 0.90 0.88 0.87 0.88 0.91 0.99 1.06 1.07 1.05 1.01 0.99 0.98 0.99 0.96 1.02 1.03 1.04 1.02 0.98 1.00 1.02 0.97 0.90 0.99 1.03 1.08 1.16 1.12 1.13 1.13 1.14 1.10
0.72 0.75 0.79 0.84 0.90 0.91 0.94 0.98 1.00 0.99 0.96 0.92 0.90 0.91 0.93 0.96 0.98 1.03 1.06 1.10 1.13 1.09 1.06 1.03 1.01 1.01 0.99 1.01 1.01 1.00 1.02 1.02 1.02 0.96 0.94 1.04 1.12 1.08 0.99 1.09 1.10 1.07 1.06
0.75 0.76 0.74 0.79 0.83 0.89 0.93 0.94 0.99 1.02 1.00 0.96 0.92 0.89 0.89 0.93 1.00 1.06 1.08 1.06 1.05 1.05 1.06 1.07 1.07 1.03 1.01 1.00 1.02 1.03 1.01 0.99 1.04 1.00 0.92 0.98 0.97 0.95 0.89 0.91 0.90 0.98 0.91
0.81 0.78 0.78 0.79 0.84 0.88 0.90 0.93 0.95 0.98 1.00 1.02 1.00 0.95 0.90 0.89 0.92 1.00 1.04 1.06 1.06 1.04 1.05 1.08 1.09 1.06 1.06 1.07 1.05 1.01 1.04 1.02 1.03 0.98 0.85 0.83 0.88 0.86 0.79 0.82 0.86 0.84 0.84
0.91 0.86 0.87 0.86 0.86 0.87 0.91 0.94 0.96 0.96 0.97 0.97 0.98 0.97 0.94 0.92 0.90 0.90 0.96 1.01 1.04 1.08 1.07 1.04 1.05 1.05 1.05 1.04 1.06 1.10 1.08 1.03 0.97 0.93 0.88 0.78 0.75 0.81 0.81 0.75 0.79 0.74 0.69
0.98 0.99 0.96 0.95 0.93 0.93 0.93 0.94 0.95 0.97 1.01 0.95 0.94 0.96 0.94 0.95 0.95 0.96 1.00 1.04 1.07 1.08 1.07 1.05 1.04 1.04 1.04 1.04 1.07 1.03 1.06 1.05 1.00 0.93 0.80 0.79 0.73 0.77 0.75 0.75 0.74 0.70 0.68
0.96 0.98 1.01 1.00 1.01 1.05 1.05 1.00 0.99 0.97 0.96 1.00 0.98 0.97 0.95 0.93 0.96 0.98 1.02 1.04 1.04 1.07 1.06 1.07 1.05 1.03 1.03 1.04 0.98 0.99 0.91 0.90 0.87 0.82 0.79 0.77 0.79 0.77 0.73 0.71 0.66 0.62 0.59
0.97 0.97 1.00 1.04 1.06 1.09 1.07 1.09 1.13 1.09 1.06 1.03 1.01 0.97 0.96 0.95 0.98 1.00 1.02 1.01 0.98 0.96 0.97 0.98 0.97 0.95 0.92 0.91 0.92 0.80 0.86 0.82 0.75 0.74 0.70 0.66 0.63 0.62 0.60 0.57 0.53 0.52 0.51
1.08 1.00 1.08 1.07 1.02 1.05 1.12 1.17 1.18 1.16 1.04 1.02 1.02 1.01 1.01 0.98 0.98 0.99 1.02 1.00 0.94 0.91 0.90 0.89 0.85 0.85 0.83 0.81 0.81 0.79 0.69 0.69 0.71 0.65 0.63 0.61 0.61 0.60 0.59 0.56 0.51 0.46 0.43
1.05 1.15 1.14 1.12 1.09 1.08 1.10 1.11 1.11 1.06 1.01 0.99 0.99 0.98 0.99 1.02 1.01 1.01 1.03 1.00 0.96 0.89 0.85 0.83 0.81 0.81 0.79 0.80 0.75 0.75 0.74 0.71 0.65 0.62 0.61 0.58 0.56 0.54 0.50 0.47 0.46 0.42 0.38
0.97 1.02 1.07 1.09 1.11 1.05 1.04 1.08 1.06 1.03 0.99 0.98 0.97 0.95 0.96 0.98 0.98 0.98 1.00 1.00 0.96 0.88 0.85 0.80 0.76 0.75 0.76 0.77 0.75 0.72 0.68 0.66 0.63 0.59 0.55 0.51 0.48 0.44 0.42 0.40 0.38 0.35 0.33
0.88 0.93 0.99 1.06 1.09 1.10 1.01 0.97 1.02 1.02 0.99 0.95 0.93 0.91 0.89 0.92 0.91 0.92 0.90 0.91 0.88 0.83 0.80 0.76 0.75 0.73 0.71 0.71 0.68 0.65 0.63 0.59 0.55 0.50 0.45 0.42 0.39 0.36 0.33 0.30 0.29 0.27 0.26
0.82 0.87 0.92 0.94 0.95 0.96 0.98 0.99 0.98 0.96 0.93 0.90 0.86 0.86 0.85 0.84 0.81 0.79 0.81 0.79 0.78 0.77 0.73 0.74 0.70 0.68 0.65 0.64 0.61 0.58 0.54 0.52 0.48 0.43 0.37 0.34 0.32 0.29 0.27 0.25 0.22 0.20 0.17
0.78 0.82 0.83 0.87 0.88 0.88 0.89 0.89 0.90 0.90 0.88 0.89 0.86 0.80 0.80 0.78 0.76 0.74 0.69 0.71 0.70 0.68 0.66 0.65 0.62 0.60 0.58 0.55 0.53 0.51 0.45 0.39 0.34 0.32 0.30 0.27 0.25 0.21 0.19 0.18 0.16 0.15 0.13
0.78 0.78 0.77 0.76 0.77 0.82 0.80 0.79 0.83 0.83 0.81 0.78 0.82 0.77 0.73 0.73 0.70 0.71 0.68 0.64 0.65 0.63 0.59 0.54 0.54 0.53 0.51 0.47 0.41 0.37 0.34 0.30 0.26 0.23 0.20 0.19 0.17 0.16 0.15 0.14 0.13 0.12 0.11
0.72 0.73 0.73 0.73 0.71 0.68 0.71 0.71 0.70 0.73 0.72 0.71 0.70 0.70 0.67 0.67 0.64 0.62 0.61 0.59 0.57 0.55 0.51 0.49 0.47 0.42 0.37 0.33 0.29 0.25 0.22 0.21 0.20 0.18 0.17 0.16 0.14 0.13 0.12 0.11 0.11 0.10 0.09
0.64 0.66 0.63 0.66 0.65 0.64 0.63 0.64 0.64 0.62 0.59 0.58 0.60 0.61 0.60 0.60 0.58 0.57 0.56 0.53 0.50 0.49 0.43 0.37 0.32 0.29 0.26 0.24 0.22 0.20 0.19 0.17 0.16 0.15 0.14 0.12 0.11 0.11 0.10 0.10 0.09 0.09 0.09
0.59 0.58 0.61 0.60 0.60 0.59 0.60 0.59 0.58 0.56 0.55 0.54 0.53 0.53 0.54 0.53 0.53 0.51 0.48 0.42 0.34 0.30 0.28 0.26 0.24 0.22 0.20 0.19 0.18 0.17 0.15 0.14 0.13 0.12 0.11 0.11 0.11 0.10 0.09 0.09 0.09 0.09 0.09
0.56 0.54 0.55 0.56 0.53 0.52 0.53 0.53 0.52 0.51 0.50 0.48 0.47 0.46 0.47 0.46 0.39 0.33 0.30 0.28 0.26 0.24 0.22 0.20 0.19 0.18 0.17 0.15 0.14 0.13 0.12 0.11 0.11 0.10 0.10 0.10 0.09 0.09 0.09 0.09 0.09 0.08 0.09
0.49 0.49 0.48 0.49 0.47 0.46 0.45 0.45 0.45 0.44 0.44 0.43 0.42 0.39 0.33 0.29 0.26 0.24 0.22 0.21 0.20 0.19 0.18 0.16 0.15 0.14 0.13 0.12 0.11 0.11 0.10 0.10 0.10 0.10 0.09 0.09 0.09 0.08 0.09 0.09 0.09 0.09 0.09
0.47 0.46 0.45 0.44 0.44 0.44 0.42 0.42 0.41 0.40 0.38 0.34 0.31 0.28 0.25 0.23 0.21 0.20 0.19 0.18 0.16 0.15 0.14 0.13 0.12 0.12 0.11 0.11 0.10 0.10 0.09 0.09 0.09 0.09 0.08 0.08 0.08 0.09 0.09 0.09 0.09 0.09 0.09
0.43 0.42 0.42 0.42 0.41 0.41 0.39 0.36 0.32 0.28 0.25 0.24 0.22 0.21 0.20 0.18 0.17 0.16 0.14 0.14 0.13 0.12 0.12 0.12 0.11 0.11 0.11 0.10 0.10 0.09 0.09 0.08 0.09 0.09 0.08 0.08 0.08 0.09 0.09 0.09 0.09 0.09 0.09
0.40 0.39 0.38 0.37 0.33 0.29 0.27 0.25 0.24 0.22 0.21 0.20 0.19 0.18 0.16 0.14 0.13 0.12 0.12 0.12 0.11 0.11 0.10 0.10 0.10 0.10 0.09 0.09 0.09 0.09 0.09 0.09 0.09 0.09 0.09 0.09 0.09 0.09 0.09 0.09 0.09 0.10 0.10
0.32 0.29 0.27 0.25 0.24 0.23 0.22 0.21 0.20 0.19 0.18 0.17 0.15 0.14 0.14 0.13 0.12 0.12 0.11 0.10 0.09 0.09 0.10 0.09 0.09 0.09 0.08 0.08 0.09 0.09 0.09 0.09 0.09 0.09 0.09 0.09 0.09 0.09 0.10 0.10 0.10 0.10 0.11
0.26 0.25 0.24 0.23 0.21 0.20 0.18 0.17 0.16 0.16 0.15 0.15 0.14 0.13 0.12 0.11 0.11 0.10 0.10 0.09 0.09 0.09 0.08 0.08 0.08 0.08 0.08 0.08 0.09 0.09 0.09 0.09 0.09 0.09 0.09 0.09 0.09 0.10 0.10 0.10 0.11 0.11 0.11

GFSGL_prec_pwat_096.txt.gz
Precipitable_Water
0.68 0.73 0.78 0.83 0.89 0.91 0.93 0.98 1.00 1.02 1.07 1.10 1.09 1.10 1.15 1.14 1.10 1.07 1.06 1.07 1.05 1.09 1.13 1.13 1.12 1.08 1.01 0.98 0.97 0.96 0.95 0.97 0.89 0.88 0.97 1.02 1.05 1.07 1.08 1.15 1.18 1.20 1.21
0.70 0.72 0.77 0.83 0.86 0.86 0.88 0.92 0.96 0.93 0.92 0.98 0.98 0.94 0.99 1.01 1.01 1.00 0.99 1.03 1.05 1.05 1.08 1.09 1.07 1.09 0.99 0.95 0.95 0.94 0.97 1.01 0.95 0.85 0.94 0.97 1.01 1.09 1.10 1.11 1.09 1.17 1.16
0.71 0.71 0.76 0.80 0.84 0.86 0.90 0.95 0.96 0.96 0.92 0.90 0.88 0.88 0.87 0.90 0.93 0.97 1.02 1.04 1.05 1.06 1.05 1.04 1.03 1.02 0.98 0.97 0.97 0.99 1.02 1.02 1.00 0.95 0.94 1.03 1.02 1.07 1.04 1.04 1.01 1.05 1.06
0.75 0.70 0.73 0.77 0.82 0.86 0.92 0.94 0.96 0.98 0.97 0.96 0.95 0.89 0.90 0.88 0.87 0.89 0.93 0.98 1.04 1.07 1.09 1.08 1.06 1.05 1.02 1.02 1.01 1.01 1.02 1.01 1.00 0.98 0.99 0.96 0.98 1.00 1.00 0.93 0.88 0.91 0.96
0.88 0.77 0.72 0.79 0.83 0.86 0.88 0.91 0.94 0.95 0.97 0.99 0.96 0.93 0.90 0.89 0.89 0.89 0.89 0.91 0.93 0.95 1.05 1.11 1.12 1.12 1.10 1.09 1.07 1.06 1.06 1.03 1.02 0.99 0.92 0.93 0.91 0.95 0.89 0.93 0.83 0.80 0.82
0.96 0.88 0.85 0.79 0.83 0.85 0.85 0.89 0.92 0.94 0.95 0.95 0.94 0.93 0.90 0.88 0.88 0.88 0.91 0.93 0.98 1.01 1.02 1.06 1.06 1.06 1.04 1.06 1.08 1.09 1.09 1.05 1.01 0.97 0.96 0.96 0.90 0.86 0.92 0.83 0.76 0.70 0.66
1.05 1.01 0.98 0.94 0.86 0.85 0.90 0.89 0.88 0.90 0.96 0.95 0.95 0.95 0.91 0.92 0.93 0.91 0.90 0.90 0.90 0.92 0.99 1.01 1.00 1.01 1.02 1.07 1.04 1.04 1.05 1.05 1.06 1.01 0.94 0.91 0.84 0.84 0.87 0.74 0.68 0.68 0.67
1.07 1.06 1.06 1.04 1.03 1.01 0.94 0.90 0.93 0.95 0.93 0.96 0.98 0.98 0.97 0.95 0.97 0.98 0.96 0.92 0.86 0.87 0.91 0.93 0.96 1.01 1.02 1.00 0.99 0.98 0.98 0.97 0.97 0.97 0.88 0.87 0.83 0.84 0.78 0.69 0.64 0.61 0.59
1.09 1.07 1.10 1.13 1.08 1.09 1.06 1.02 1.03 1.04 1.03 1.03 1.02 1.03 1.01 0.97 0.98 0.98 0.97 0.94 0.90 0.91 0.93 0.94 0.95 0.94 0.96 0.93 0.93 0.86 0.85 0.81 0.79 0.79 0.78 0.73 0.76 0.67 0.67 0.66 0.60 0.58 0.55
0.94 1.02 1.13 1.14 1.12 1.09 1.10 1.12 1.18 1.18 1.14 1.09 1.08 1.08 1.05 1.03 1.03 1.04 1.03 0.98 0.92 0.90 0.89 0.92 0.94 0.93 0.89 0.82 0.77 0.83 0.77 0.69 0.71 0.73 0.77 0.74 0.73 0.68 0.66 0.62 0.57 0.52 0.48
0.80 0.91 1.01 1.11 1.16 1.19 1.20 1.21 1.15 1.13 1.13 1.12 1.10 1.10 1.05 1.02 1.02 1.03 1.06 1.05 0.99 0.95 0.90 0.90 0.88 0.88 0.87 0.85 0.85 0.78 0.79 0.74 0.72 0.71 0.67 0.67 0.65 0.62 0.59 0.55 0.51 0.46 0.42
0.76 0.75 0.82 0.95 1.04 1.12 1.14 1.15 1.17 1.14 1.08 1.03 1.01 1.01 1.02 0.98 0.98 1.00 1.00 1.00 0.94 0.92 0.85 0.83 0.83 0.82 0.81 0.79 0.75 0.70 0.72 0.69 0.64 0.63 0.59 0.57 0.55 0.52 0.50 0.47 0.42 0.38 0.35
0.74 0.74 0.75 0.79 0.88 0.93 1.01 1.07 1.08 1.08 1.03 1.00 0.95 0.92 0.92 0.92 0.95 0.95 0.94 0.93 0.88 0.87 0.84 0.77 0.76 0.73 0.73 0.71 0.69 0.67 0.65 0.61 0.58 0.55 0.52 0.48 0.44 0.41 0.37 0.33 0.30 0.25 0.22
0.73 0.74 0.76 0.77 0.81 0.86 0.89 0.95 0.96 0.96 0.97 0.96 0.94 0.90 0.86 0.85 0.87 0.86 0.86 0.81 0.81 0.78 0.77 0.74 0.71 0.69 0.69 0.64 0.62 0.61 0.59 0.56 0.53 0.45 0.40 0.37 0.34 0.29 0.25 0.22 0.19 0.18 0.16
0.70 0.72 0.75 0.78 0.79 0.80 0.82 0.82 0.84 0.86 0.85 0.84 0.82 0.84 0.82 0.77 0.76 0.77 0.76 0.75 0.75 0.70 0.69 0.66 0.64 0.61 0.59 0.57 0.55 0.53 0.50 0.43 0.37 0.33 0.29 0.25 0.22 0.21 0.20 0.19 0.18 0.15 0.13
0.64 0.67 0.67 0.68 0.72 0.75 0.76 0.75 0.77 0.79 0.78 0.73 0.76 0.75 0.75 0.74 0.71 0.69 0.70 0.69 0.67 0.64 0.60 0.58 0.56 0.54 0.51 0.49 0.43 0.36 0.32 0.29 0.26 0.25 0.23 0.22 0.19 0.17 0.16 0.15 0.14 0.12 0.11
0.57 0.59 0.61 0.63 0.63 0.63 0.63 0.63 0.65 0.69 0.71 0.70 0.69 0.70 0.67 0.66 0.66 0.65 0.64 0.61 0.59 0.58 0.54 0.52 0.49 0.47 0.41 0.36 0.32 0.28 0.25 0.24 0.23 0.21 0.18 0.16 0.15 0.13 0.12 0.11 0.11 0.10 0.09
0.56 0.54 0.55 0.56 0.58 0.58 0.57 0.57 0.57 0.56 0.55 0.56 0.60 0.60 0.59 0.59 0.59 0.58 0.57 0.55 0.52 0.51 0.48 0.42 0.36 0.32 0.28 0.26 0.24 0.22 0.20 0.19 0.17 0.15 0.14 0.13 0.12 0.11 0.10 0.09 0.09 0.09 0.08
0.55 0.53 0.52 0.52 0.51 0.50 0.51 0.52 0.54 0.53 0.52 0.52 0.52 0.53 0.54 0.54 0.53 0.52 0.51 0.47 0.40 0.33 0.30 0.27 0.25 0.23 0.21 0.20 0.18 0.17 0.15 0.14 0.13 0.12 0.11 0.11 0.10 0.10 0.09 0.09 0.09 0.08 0.08
0.51 0.49 0.48 0.46 0.46 0.46 0.44 0.44 0.46 0.48 0.48 0.48 0.47 0.47 0.47 0.46 0.42 0.36 0.32 0.29 0.27 0.25 0.23 0.22 0.21 0.19 0.17 0.16 0.15 0.14 0.13 0.12 0.11 0.10 0.10 0.09 0.09 0.09 0.08 0.08 0.08 0.08 0.09
0.47 0.45 0.45 0.44 0.43 0.43 0.43 0.41 0.41 0.41 0.41 0.42 0.42 0.42 0.36 0.31 0.28 0.27 0.25 0.24 0.22 0.21 0.20 0.18 0.17 0.16 0.14 0.13 0.12 0.11 0.10 0.10 0.10 0.09 0.09 0.09 0.08 0.08 0.09 0.09 0.09 0.09 0.09
0.45 0.43 0.43 0.42 0.42 0.42 0.41 0.41 0.40 0.39 0.38 0.34 0.29 0.26 0.25 0.23 0.21 0.20 0.19 0.19 0.18 0.17 0.16 0.14 0.13 0.12 0.12 0.11 0.10 0.10 0.09 0.09 0.09 0.09 0.09 0.09 0.09 0.08 0.08 0.08 0.09 0.09 0.09
0.41 0.40 0.40 0.40 0.40 0.39 0.38 0.37 0.34 0.30 0.26 0.24 0.22 0.21 0.20 0.19 0.19 0.18 0.17 0.16 0.15 0.14 0.13 0.12 0.11 0.11 0.10 0.10 0.10 0.09 0.09 0.09 0.09 0.09 0.09 0.08 0.08 0.08 0.09 0.08 0.09 0.09 0.09
0.37 0.37 0.36 0.36 0.35 0.31 0.28 0.25 0.24 0.22 0.21 0.20 0.19 0.19 0.17 0.16 0.15 0.15 0.14 0.14 0.13 0.12 0.12 0.11 0.11 0.10 0.10 0.09 0.09 0.09 0.09 0.09 0.09 0.09 0.09 0.08 0.08 0.08 0.09 0.09 0.09 0.09 0.09
0.34 0.32 0.29 0.26 0.25 0.23 0.22 0.22 0.21 0.20 0.19 0.17 0.17 0.16 0.16 0.15 0.14 0.13 0.13 0.12 0.12 0.11 0.11 0.10 0.10 0.09 0.09 0.09 0.09 0.09 0.09 0.09 0.09 0.09 0.09 0.09 0.08 0.08 0.09 0.09 0.09 0.09 0.10
0.27 0.26 0.25 0.24 0.22 0.21 0.20 0.18 0.17 0.17 0.16 0.16 0.15 0.14 0.14 0.13 0.13 0.12 0.11 0.11 0.10 0.10 0.09 0.09 0.09 0.09 0.08 0.08 0.08 0.08 0.09 0.09 0.09 0.09 0.09 0.08 0.08 0.09 0.09 0.09 0.10 0.10 0.10

GFSGL_prec_pwat_099.txt.gz
Precipitable_Water
0.67 0.67 0.70 0.78 0.84 0.89 0.93 0.98 1.04 1.12 1.18 1.23 1.25 1.24 1.22 1.21 1.21 1.17 1.15 1.13 1.06 1.06 1.08 1.06 1.02 1.07 1.07 1.08 1.09 1.12 1.08 1.03 0.87 0.88 0.94 0.99 1.02 1.00 1.04 1.11 1.14 1.15 1.18
0.71 0.69 0.68 0.77 0.81 0.83 0.87 0.92 0.96 0.99 1.04 1.08 1.13 1.15 1.18 1.21 1.20 1.16 1.14 1.11 1.06 1.03 1.06 1.05 1.06 1.10 1.10 1.11 1.09 1.04 1.01 0.97 0.89 0.79 0.91 0.96 1.00 1.05 1.06 1.07 1.10 1.14 1.15
0.78 0.70 0.68 0.70 0.77 0.81 0.85 0.87 0.90 0.91 0.93 0.98 1.00 1.00 1.01 1.09 1.10 1.10 1.08 1.04 1.00 0.99 1.01 1.01 1.03 1.06 1.05 1.09 1.07 1.03 0.99 0.95 0.96 0.93 0.89 1.02 1.03 1.05 1.03 1.07 1.07 1.06 1.09
0.88 0.76 0.67 0.67 0.71 0.77 0.83 0.87 0.89 0.93 0.93 0.91 0.90 0.93 0.94 0.95 0.98 0.99 1.00 1.00 1.00 1.00 1.01 1.03 1.05 1.06 1.05 1.04 1.04 1.03 1.00 0.98 0.99 0.97 0.98 0.99 0.99 1.01 1.01 0.97 0.92 0.99 0.98
1.00 0.86 0.75 0.73 0.74 0.76 0.79 0.83 0.88 0.91 0.94 0.95 0.92 0.90 0.91 0.90 0.90 0.95 0.99 0.99 0.99 0.99 1.06 1.09 1.09 1.10 1.11 1.11 1.09 1.06 1.06 1.02 1.00 0.99 0.97 0.96 0.94 0.93 0.93 0.97 0.92 0.97 0.95
1.08 1.01 1.00 0.95 0.87 0.78 0.79 0.81 0.85 0.89 0.91 0.93 0.91 0.90 0.89 0.89 0.87 0.86 0.89 0.91 0.91 0.91 0.89 0.94 1.00 1.04 1.04 1.05 1.15 1.15 1.12 1.05 0.99 0.99 0.97 0.91 0.93 0.96 0.94 0.94 0.89 0.87 0.83
1.14 1.11 1.06 1.05 0.99 0.96 0.89 0.85 0.83 0.86 0.92 0.91 0.91 0.90 0.88 0.91 0.92 0.87 0.86 0.87 0.87 0.87 0.88 0.89 0.89 0.95 0.98 1.01 1.00 1.00 1.00 1.01 1.00 1.02 0.95 0.90 0.89 0.90 0.92 0.89 0.87 0.82 0.79
1.17 1.15 1.14 1.09 1.06 1.06 1.03 0.99 0.92 0.92 0.90 0.93 0.94 0.95 0.94 0.93 0.94 0.93 0.91 0.89 0.87 0.87 0.88 0.88 0.88 0.87 0.89 0.92 0.91 0.90 0.90 0.91 0.94 0.97 0.93 0.91 0.90 0.88 0.86 0.83 0.77 0.70 0.69
1.05 1.11 1.13 1.13 1.10 1.09 1.08 1.10 1.11 1.05 0.96 0.94 0.96 0.99 0.98 1.00 1.03 1.02 1.01 0.97 0.92 0.90 0.91 0.93 0.91 0.89 0.89 0.89 0.86 0.83 0.83 0.82 0.87 0.91 0.86 0.90 0.80 0.84 0.78 0.69 0.65 0.68 0.64
0.92 0.95 0.97 1.01 1.08 1.06 1.10 1.11 1.15 1.18 1.15 1.12 1.06 1.04 1.05 1.04 1.06 1.09 1.09 1.02 0.95 0.92 0.92 0.92 0.92 0.91 0.86 0.87 0.85 0.78 0.73 0.75 0.73 0.76 0.77 0.73 0.72 0.74 0.72 0.72 0.69 0.63 0.59
0.83 0.85 0.88 0.92 0.95 0.98 1.09 1.16 1.17 1.19 1.19 1.17 1.15 1.15 1.13 1.09 1.08 1.11 1.07 1.05 1.01 0.95 0.91 0.89 0.85 0.86 0.85 0.85 0.84 0.80 0.77 0.75 0.74 0.70 0.68 0.70 0.67 0.65 0.65 0.63 0.62 0.59 0.52
0.80 0.79 0.79 0.82 0.84 0.87 0.96 1.01 1.08 1.08 1.06 1.04 1.04 1.07 1.08 1.09 1.09 1.07 1.11 1.03 0.99 0.93 0.87 0.87 0.86 0.84 0.83 0.81 0.78 0.76 0.74 0.73 0.71 0.67 0.63 0.61 0.59 0.59 0.59 0.57 0.48 0.43 0.39
0.71 0.69 0.71 0.72 0.75 0.78 0.80 0.86 0.92 0.97 0.96 0.94 0.93 0.91 0.91 0.97 0.95 1.02 1.03 1.00 0.95 0.87 0.81 0.84 0.83 0.82 0.78 0.74 0.71 0.68 0.67 0.66 0.63 0.59 0.57 0.56 0.55 0.50 0.45 0.39 0.34 0.31 0.28
0.69 0.69 0.70 0.70 0.70 0.72 0.76 0.78 0.82 0.86 0.86 0.85 0.82 0.84 0.82 0.81 0.83 0.86 0.90 0.91 0.90 0.83 0.79 0.78 0.75 0.70 0.71 0.69 0.66 0.63 0.60 0.59 0.58 0.53 0.49 0.45 0.39 0.33 0.29 0.27 0.24 0.22 0.20
0.62 0.64 0.65 0.67 0.69 0.70 0.70 0.71 0.74 0.77 0.78 0.80 0.76 0.80 0.78 0.76 0.70 0.74 0.72 0.74 0.74 0.76 0.74 0.71 0.66 0.62 0.59 0.56 0.57 0.55 0.54 0.50 0.41 0.36 0.32 0.29 0.28 0.26 0.24 0.23 0.21 0.18 0.14
0.54 0.54 0.56 0.59 0.62 0.64 0.66 0.67 0.71 0.72 0.72 0.72 0.71 0.71 0.74 0.72 0.75 0.71 0.73 0.69 0.67 0.64 0.60 0.59 0.56 0.54 0.52 0.50 0.48 0.42 0.40 0.36 0.32 0.29 0.27 0.25 0.22 0.19 0.17 0.15 0.14 0.12 0.11
0.52 0.51 0.51 0.51 0.51 0.53 0.56 0.56 0.55 0.60 0.63 0.63 0.64 0.65 0.63 0.62 0.64 0.65 0.65 0.63 0.61 0.59 0.54 0.51 0.51 0.49 0.47 0.42 0.37 0.32 0.29 0.27 0.24 0.21 0.19 0.17 0.15 0.13 0.12 0.11 0.11 0.10 0.10
0.53 0.51 0.50 0.50 0.49 0.48 0.47 0.49 0.52 0.52 0.51 0.52 0.56 0.55 0.55 0.53 0.53 0.53 0.54 0.54 0.52 0.51 0.49 0.47 0.44 0.39 0.33 0.29 0.26 0.23 0.22 0.20 0.18 0.17 0.15 0.13 0.12 0.11 0.10 0.10 0.10 0.09 0.09
0.49 0.47 0.47 0.47 0.46 0.46 0.46 0.45 0.44 0.45 0.45 0.46 0.48 0.49 0.48 0.49 0.49 0.50 0.49 0.47 0.45 0.42 0.36 0.31 0.28 0.25 0.23 0.22 0.21 0.19 0.18 0.16 0.15 0.13 0.12 0.11 0.10 0.10 0.09 0.09 0.09 0.09 0.09
0.49 0.47 0.46 0.45 0.44 0.43 0.43 0.42 0.40 0.39 0.39 0.40 0.40 0.42 0.44 0.44 0.42 0.41 0.37 0.33 0.31 0.28 0.27 0.25 0.23 0.22 0.20 0.19 0.17 0.16 0.15 0.13 0.12 0.11 0.10 0.09 0.10 0.10 0.09 0.09 0.09 0.08 0.08
0.44 0.44 0.43 0.42 0.41 0.41 0.40 0.40 0.39 0.39 0.38 0.37 0.38 0.38 0.37 0.31 0.27 0.25 0.24 0.22 0.22 0.21 0.20 0.19 0.18 0.17 0.16 0.15 0.14 0.13 0.12 0.11 0.11 0.10 0.10 0.10 0.09 0.09 0.09 0.09 0.09 0.09 0.09
0.41 0.41 0.40 0.40 0.40 0.39 0.39 0.39 0.39 0.38 0.37 0.34 0.31 0.27 0.25 0.23 0.22 0.20 0.20 0.19 0.19 0.18 0.18 0.16 0.15 0.15 0.14 0.14 0.13 0.12 0.12 0.11 0.11 0.10 0.10 0.09 0.09 0.09 0.09 0.09 0.09 0.09 0.09
0.37 0.37 0.37 0.36 0.36 0.36 0.36 0.35 0.34 0.30 0.27 0.24 0.22 0.21 0.20 0.19 0.18 0.18 0.17 0.17 0.16 0.16 0.15 0.15 0.14 0.13 0.13 0.12 0.12 0.11 0.11 0.10 0.10 0.10 0.09 0.09 0.09 0.08 0.08 0.08 0.08 0.08 0.09
0.36 0.35 0.34 0.34 0.33 0.31 0.28 0.26 0.24 0.23 0.21 0.20 0.20 0.19 0.19 0.18 0.16 0.16 0.15 0.15 0.14 0.14 0.14 0.13 0.13 0.12 0.11 0.11 0.11 0.11 0.11 0.10 0.10 0.09 0.09 0.08 0.08 0.08 0.08 0.08 0.09 0.09 0.09
0.33 0.31 0.29 0.27 0.25 0.23 0.22 0.22 0.22 0.21 0.20 0.19 0.18 0.17 0.16 0.15 0.15 0.14 0.14 0.14 0.13 0.13 0.12 0.12 0.12 0.11 0.11 0.11 0.10 0.10 0.09 0.09 0.09 0.09 0.09 0.08 0.08 0.08 0.08 0.09 0.09 0.09 0.09
0.27 0.27 0.26 0.25 0.24 0.23 0.21 0.19 0.18 0.18 0.17 0.17 0.16 0.16 0.15 0.14 0.13 0.13 0.12 0.12 0.11 0.11 0.11 0.11 0.10 0.10 0.10 0.09 0.09 0.09 0.09 0.08 0.08 0.08 0.08 0.08 0.08 0.08 0.08 0.08 0.09 0.09 0.09

GFSGL_prec_pwat_105.txt.gz
Precipitable_Water
1.06 1.13 1.08 0.92 0.70 0.79 0.83 0.88 0.93 1.00 1.03 1.11 1.19 1.24 1.26 1.27 1.28 1.25 1.23 1.20 1.11 1.14 1.18 1.13 1.16 1.10 1.05 1.02 0.98 1.04 1.05 0.99 0.89 0.93 1.00 1.08 1.09 1.08 1.09 1.11 1.11 1.09 1.12
1.09 1.10 1.04 0.83 0.71 0.80 0.83 0.88 0.94 0.95 0.98 1.00 1.10 1.18 1.22 1.25 1.26 1.24 1.20 1.20 1.16 1.14 1.13 1.09 1.11 1.12 1.06 1.00 1.02 1.03 1.02 1.03 0.96 0.87 0.99 1.02 1.05 1.10 1.11 1.09 1.08 1.11 1.11
1.09 1.05 0.98 0.75 0.71 0.81 0.86 0.90 0.94 0.95 0.98 0.98 1.00 1.04 1.09 1.14 1.13 1.15 1.17 1.15 1.13 1.14 1.08 1.12 1.10 1.08 1.05 1.05 1.06 1.04 1.02 1.04 1.05 1.00 0.98 1.08 1.12 1.14 1.08 1.07 1.06 1.06 1.08
1.09 1.02 0.92 0.73 0.72 0.80 0.87 0.91 0.93 0.96 0.96 0.99 1.00 0.97 0.99 1.01 1.00 1.07 1.11 1.11 1.06 1.06 1.09 1.09 1.07 1.05 1.01 1.01 1.03 1.03 1.04 1.03 1.06 1.04 1.03 1.03 1.07 1.12 1.10 1.03 0.98 1.04 1.01
1.08 1.02 0.93 0.78 0.75 0.79 0.84 0.89 0.92 0.93 0.94 0.96 0.97 0.98 0.96 0.97 0.98 1.00 1.02 1.02 1.02 1.04 1.06 1.08 1.09 1.07 1.03 1.04 1.05 1.05 1.05 1.03 1.02 1.02 0.99 1.01 1.04 1.02 0.99 1.04 1.02 1.01 0.98
1.10 1.08 1.08 0.93 0.81 0.77 0.80 0.84 0.88 0.89 0.93 0.93 0.91 0.91 0.93 0.95 0.97 0.99 1.00 1.01 1.01 1.01 0.99 1.03 1.06 1.06 1.05 1.06 1.06 1.07 1.08 1.01 0.98 1.01 0.98 0.95 1.00 1.00 0.99 0.98 0.97 0.92 0.84
1.17 1.16 1.14 1.11 1.02 0.92 0.86 0.82 0.81 0.84 0.88 0.89 0.90 0.90 0.89 0.93 0.95 0.95 0.97 0.97 0.97 0.98 0.99 1.01 1.02 1.04 1.05 1.02 1.02 1.02 1.02 1.04 1.05 1.04 0.94 0.94 0.91 0.96 0.97 0.92 0.91 0.87 0.79
1.19 1.17 1.18 1.16 1.12 1.11 1.08 1.02 0.99 0.95 0.88 0.85 0.85 0.87 0.91 0.94 0.97 0.96 0.95 0.95 0.94 0.94 0.96 0.96 0.96 0.98 1.00 0.99 0.96 0.93 0.93 0.94 0.94 0.92 0.89 0.87 0.88 0.91 0.91 0.89 0.86 0.82 0.79
1.08 1.07 1.13 1.16 1.13 1.11 1.08 1.10 1.12 1.10 1.06 1.03 1.00 0.94 0.89 0.91 0.98 1.00 0.99 0.95 0.92 0.93 0.95 0.97 0.96 0.95 0.94 0.95 0.94 0.89 0.86 0.83 0.82 0.81 0.80 0.82 0.84 0.85 0.84 0.79 0.72 0.70 0.67
1.02 1.03 1.04 1.02 0.99 1.04 1.05 1.08 1.11 1.12 1.11 1.12 1.07 1.04 1.03 1.01 1.00 1.01 1.01 1.00 0.96 0.96 0.95 0.97 0.99 1.03 1.00 0.96 0.90 0.85 0.79 0.76 0.76 0.76 0.79 0.79 0.76 0.77 0.76 0.76 0.73 0.70 0.66
1.00 0.99 0.99 0.99 0.97 0.98 0.99 1.00 1.01 1.05 1.03 1.00 0.99 1.00 1.02 1.04 1.06 1.09 1.11 1.08 1.01 0.93 0.94 0.96 0.97 0.98 0.95 0.92 0.91 0.86 0.83 0.80 0.76 0.76 0.74 0.76 0.74 0.73 0.72 0.72 0.69 0.66 0.60
0.83 0.84 0.87 0.89 0.90 0.90 0.89 0.90 0.93 0.94 0.92 0.91 0.91 0.90 0.91 0.96 1.01 1.05 1.08 1.09 1.05 1.00 0.95 0.92 0.94 0.96 0.94 0.91 0.86 0.82 0.79 0.77 0.73 0.69 0.65 0.63 0.61 0.63 0.63 0.62 0.59 0.54 0.50
0.75 0.74 0.74 0.73 0.74 0.77 0.78 0.78 0.79 0.82 0.81 0.77 0.78 0.78 0.78 0.81 0.86 0.91 0.94 0.96 0.93 0.92 0.92 0.87 0.85 0.83 0.82 0.80 0.78 0.75 0.73 0.69 0.66 0.63 0.60 0.57 0.57 0.55 0.53 0.49 0.46 0.43 0.40
0.61 0.62 0.62 0.64 0.66 0.68 0.70 0.72 0.73 0.74 0.73 0.71 0.70 0.70 0.70 0.73 0.74 0.77 0.78 0.79 0.80 0.82 0.78 0.73 0.76 0.76 0.74 0.70 0.68 0.65 0.63 0.62 0.60 0.58 0.55 0.52 0.49 0.45 0.43 0.40 0.36 0.34 0.29
0.57 0.55 0.54 0.55 0.58 0.61 0.64 0.66 0.67 0.68 0.69 0.68 0.68 0.68 0.67 0.66 0.68 0.68 0.70 0.76 0.68 0.67 0.68 0.68 0.63 0.60 0.60 0.59 0.59 0.56 0.54 0.54 0.51 0.49 0.46 0.42 0.39 0.35 0.31 0.30 0.27 0.25 0.22
0.56 0.55 0.54 0.52 0.51 0.51 0.51 0.54 0.61 0.64 0.65 0.65 0.66 0.67 0.67 0.65 0.65 0.65 0.64 0.61 0.59 0.58 0.54 0.51 0.50 0.49 0.47 0.47 0.48 0.49 0.47 0.44 0.41 0.38 0.35 0.32 0.29 0.26 0.24 0.24 0.23 0.21 0.18
0.57 0.55 0.53 0.51 0.48 0.47 0.47 0.46 0.45 0.49 0.53 0.54 0.56 0.57 0.56 0.56 0.56 0.54 0.54 0.53 0.53 0.52 0.47 0.46 0.45 0.45 0.44 0.43 0.41 0.38 0.34 0.32 0.31 0.28 0.26 0.25 0.24 0.22 0.21 0.19 0.18 0.17 0.16
0.54 0.52 0.49 0.46 0.45 0.44 0.43 0.43 0.43 0.42 0.41 0.42 0.45 0.45 0.46 0.46 0.47 0.48 0.48 0.48 0.45 0.45 0.43 0.41 0.40 0.37 0.33 0.29 0.27 0.26 0.25 0.23 0.22 0.21 0.20 0.19 0.18 0.17 0.16 0.15 0.15 0.14 0.14
0.48 0.48 0.49 0.48 0.46 0.45 0.44 0.43 0.42 0.41 0.40 0.40 0.40 0.41 0.41 0.42 0.42 0.41 0.42 0.40 0.38 0.36 0.33 0.29 0.28 0.27 0.25 0.24 0.23 0.21 0.20 0.19 0.18 0.17 0.16 0.16 0.16 0.15 0.14 0.14 0.13 0.12 0.12
0.42 0.41 0.41 0.40 0.41 0.40 0.40 0.39 0.38 0.38 0.38 0.38 0.37 0.38 0.39 0.39 0.38 0.37 0.35 0.32 0.29 0.27 0.25 0.23 0.23 0.22 0.21 0.20 0.19 0.18 0.17 0.16 0.15 0.15 0.15 0.14 0.14 0.14 0.13 0.12 0.12 0.11 0.11
0.39 0.39 0.39 0.39 0.38 0.38 0.37 0.36 0.36 0.36 0.36 0.36 0.35 0.35 0.33 0.29 0.26 0.25 0.24 0.23 0.22 0.22 0.21 0.21 0.21 0.20 0.19 0.18 0.17 0.16 0.16 0.15 0.14 0.14 0.13 0.13 0.13 0.12 0.12 0.12 0.11 0.11 0.10
0.38 0.37 0.37 0.37 0.37 0.36 0.35 0.35 0.34 0.34 0.33 0.31 0.28 0.26 0.25 0.24 0.22 0.21 0.21 0.20 0.20 0.20 0.20 0.19 0.18 0.17 0.17 0.16 0.16 0.15 0.14 0.13 0.13 0.12 0.12 0.12 0.12 0.11 0.11 0.11 0.11 0.10 0.10
0.36 0.35 0.35 0.34 0.34 0.34 0.33 0.32 0.29 0.27 0.24 0.23 0.21 0.20 0.20 0.20 0.19 0.19 0.19 0.19 0.18 0.17 0.17 0.17 0.16 0.15 0.15 0.14 0.14 0.14 0.13 0.12 0.12 0.12 0.11 0.11 0.11 0.11 0.10 0.10 0.10 0.09 0.09
0.34 0.33 0.33 0.32 0.31 0.29 0.27 0.24 0.22 0.21 0.21 0.20 0.20 0.19 0.18 0.18 0.17 0.17 0.16 0.16 0.16 0.16 0.16 0.15 0.14 0.14 0.13 0.13 0.13 0.13 0.13 0.12 0.12 0.12 0.11 0.10 0.10 0.10 0.09 0.09 0.09 0.09 0.09
0.32 0.31 0.29 0.28 0.26 0.24 0.22 0.21 0.21 0.20 0.20 0.20 0.19 0.18 0.17 0.16 0.16 0.16 0.15 0.15 0.14 0.14 0.13 0.13 0.13 0.13 0.12 0.12 0.12 0.12 0.12 0.11 0.11 0.11 0.10 0.10 0.09 0.08 0.08 0.08 0.08 0.08 0.08
0.26 0.25 0.24 0.24 0.24 0.23 0.22 0.21 0.20 0.19 0.18 0.17 0.17 0.17 0.16 0.15 0.15 0.14 0.13 0.13 0.12 0.12 0.12 0.12 0.12 0.11 0.11 0.11 0.11 0.11 0.11 0.10 0.10 0.09 0.09 0.08 0.08 0.08 0.08 0.08 0.08 0.08 0.08

GFSGL_prec_pwat_108.txt.gz
Precipitable_Water
0.89 0.97 1.04 1.11 1.17 1.19 0.87 0.77 0.85 0.90 0.95 1.03 1.13 1.21 1.23 1.23 1.27 1.25 1.23 1.24 1.24 1.25 1.26 1.21 1.15 1.21 1.09 1.03 1.02 0.98 0.96 0.94 0.87 0.94 1.06 1.13 1.09 1.12 1.09 1.15 1.17 1.16 1.20
0.90 0.99 1.06 1.14 1.19 1.09 0.76 0.82 0.87 0.89 0.95 0.98 1.00 1.09 1.18 1.23 1.25 1.24 1.23 1.24 1.21 1.20 1.19 1.18 1.14 1.18 1.16 1.13 1.10 1.05 1.04 1.01 0.93 0.87 0.97 1.07 1.03 1.09 1.11 1.13 1.14 1.19 1.15
0.96 1.00 1.08 1.14 1.15 0.93 0.76 0.84 0.88 0.90 0.92 0.94 0.98 1.02 1.11 1.20 1.22 1.23 1.22 1.23 1.21 1.19 1.16 1.10 1.09 1.13 1.14 1.12 1.10 1.05 1.07 1.02 0.99 0.98 0.97 1.06 1.13 1.11 1.09 1.12 1.15 1.15 1.12
1.01 1.03 1.09 1.15 1.10 0.82 0.79 0.86 0.90 0.92 0.93 0.95 0.96 0.96 0.99 1.03 1.07 1.08 1.12 1.15 1.18 1.20 1.20 1.18 1.13 1.12 1.12 1.11 1.10 1.07 1.04 1.01 1.00 1.01 1.00 1.01 1.06 1.14 1.11 1.07 1.04 1.11 1.06
1.04 1.07 1.13 1.19 1.00 0.81 0.81 0.87 0.92 0.93 0.96 0.98 0.98 0.98 0.98 0.98 1.00 1.00 1.04 1.03 1.05 1.07 1.10 1.11 1.06 1.09 1.14 1.11 1.07 1.06 1.03 0.99 0.99 0.97 0.97 0.99 1.00 1.02 1.02 1.09 1.05 1.04 1.01
1.08 1.12 1.18 1.13 0.86 0.80 0.80 0.86 0.89 0.91 0.94 0.97 0.96 0.94 0.95 0.94 0.96 0.96 0.99 1.01 0.99 0.98 0.98 1.04 1.05 1.06 1.06 1.04 1.05 1.04 1.06 1.00 0.96 0.98 0.97 0.94 0.97 1.01 1.07 1.02 1.01 0.93 0.86
1.16 1.18 1.18 1.04 0.84 0.80 0.80 0.84 0.85 0.87 0.91 0.92 0.94 0.94 0.92 0.94 0.96 0.95 0.95 0.94 0.95 0.95 0.95 0.96 0.97 1.00 1.02 1.02 1.02 1.02 1.00 1.01 1.03 1.03 0.97 0.98 0.97 1.02 1.03 0.96 0.95 0.91 0.86
1.17 1.17 1.19 1.14 1.03 0.91 0.84 0.81 0.83 0.85 0.87 0.88 0.91 0.93 0.92 0.94 0.96 0.97 0.97 0.97 0.96 0.95 0.96 0.96 0.95 0.96 0.98 0.98 0.97 0.94 0.93 0.95 0.96 0.98 0.96 0.96 0.96 0.99 0.98 0.95 0.91 0.85 0.81
1.08 1.10 1.11 1.13 1.12 1.11 1.06 1.04 1.02 0.99 0.96 0.96 0.96 0.94 0.92 0.92 0.95 0.98 0.99 0.98 0.98 0.99 1.01 1.01 1.00 0.99 1.00 1.00 0.98 0.93 0.89 0.87 0.88 0.89 0.87 0.87 0.89 0.90 0.90 0.86 0.78 0.73 0.69
1.02 1.05 1.10 1.10 1.10 1.08 1.08 1.09 1.12 1.14 1.13 1.11 1.07 1.06 1.05 1.02 1.02 1.04 1.03 1.02 0.99 1.00 1.03 1.02 1.02 1.02 1.04 1.02 0.96 0.90 0.83 0.81 0.81 0.80 0.82 0.83 0.84 0.83 0.81 0.80 0.77 0.71 0.70
0.98 0.98 1.00 1.05 1.06 1.05 1.04 1.05 1.08 1.09 1.07 1.03 1.01 1.02 1.02 1.02 1.04 1.08 1.08 1.06 1.04 1.00 0.98 0.97 0.98 1.03 1.03 1.00 1.00 0.95 0.90 0.88 0.84 0.83 0.81 0.79 0.78 0.77 0.75 0.75 0.75 0.71 0.66
0.87 0.94 0.95 0.96 0.96 0.96 0.96 0.99 0.99 0.96 0.96 0.94 0.92 0.92 0.93 0.95 0.97 1.01 1.07 1.08 1.07 1.01 0.96 0.97 0.98 0.99 0.97 0.94 0.90 0.89 0.86 0.83 0.79 0.76 0.73 0.70 0.68 0.67 0.67 0.67 0.66 0.64 0.61
0.83 0.86 0.89 0.89 0.89 0.89 0.89 0.89 0.88 0.88 0.86 0.85 0.85 0.84 0.84 0.85 0.86 0.89 0.91 0.92 0.92 0.90 0.86 0.85 0.85 0.87 0.87 0.85 0.83 0.80 0.78 0.74 0.73 0.68 0.65 0.63 0.62 0.62 0.60 0.56 0.55 0.53 0.50
0.69 0.69 0.71 0.71 0.71 0.71 0.71 0.72 0.74 0.76 0.77 0.77 0.76 0.75 0.76 0.76 0.76 0.78 0.78 0.78 0.78 0.77 0.73 0.71 0.76 0.76 0.72 0.71 0.70 0.70 0.68 0.67 0.63 0.60 0.58 0.58 0.56 0.52 0.50 0.50 0.45 0.41 0.37
0.61 0.59 0.57 0.58 0.60 0.62 0.66 0.67 0.68 0.69 0.70 0.70 0.71 0.72 0.70 0.68 0.68 0.70 0.72 0.72 0.71 0.69 0.67 0.66 0.62 0.60 0.63 0.61 0.57 0.58 0.58 0.56 0.54 0.52 0.49 0.46 0.43 0.41 0.38 0.36 0.33 0.31 0.28
0.60 0.58 0.56 0.54 0.53 0.53 0.53 0.55 0.61 0.63 0.66 0.68 0.68 0.66 0.66 0.66 0.66 0.66 0.67 0.65 0.64 0.64 0.61 0.55 0.52 0.52 0.52 0.51 0.48 0.47 0.46 0.45 0.43 0.41 0.36 0.33 0.31 0.29 0.27 0.26 0.25 0.23 0.21
0.58 0.56 0.54 0.53 0.52 0.50 0.49 0.48 0.48 0.51 0.54 0.55 0.56 0.56 0.56 0.56 0.55 0.54 0.53 0.52 0.52 0.52 0.49 0.47 0.46 0.45 0.44 0.43 0.42 0.41 0.38 0.36 0.32 0.29 0.27 0.26 0.24 0.22 0.21 0.19 0.19 0.18 0.17
0.55 0.55 0.52 0.51 0.50 0.48 0.48 0.48 0.47 0.45 0.44 0.44 0.47 0.47 0.47 0.47 0.47 0.47 0.46 0.46 0.43 0.44 0.43 0.41 0.40 0.39 0.38 0.35 0.32 0.28 0.26 0.26 0.24 0.23 0.22 0.21 0.20 0.19 0.18 0.17 0.17 0.16 0.16
0.47 0.47 0.48 0.47 0.47 0.46 0.44 0.43 0.43 0.42 0.40 0.40 0.40 0.41 0.42 0.42 0.42 0.41 0.41 0.39 0.37 0.36 0.36 0.35 0.32 0.29 0.28 0.27 0.26 0.25 0.24 0.22 0.21 0.20 0.19 0.19 0.18 0.17 0.16 0.16 0.15 0.14 0.14
0.42 0.42 0.42 0.41 0.41 0.40 0.40 0.39 0.38 0.37 0.37 0.37 0.37 0.37 0.39 0.39 0.37 0.37 0.36 0.33 0.31 0.30 0.29 0.28 0.26 0.25 0.24 0.23 0.22 0.21 0.20 0.19 0.18 0.18 0.18 0.18 0.17 0.17 0.15 0.15 0.15 0.14 0.13
0.40 0.40 0.40 0.39 0.39 0.38 0.38 0.37 0.37 0.36 0.35 0.35 0.35 0.35 0.34 0.32 0.29 0.28 0.26 0.26 0.25 0.24 0.23 0.23 0.22 0.22 0.22 0.21 0.20 0.19 0.18 0.18 0.18 0.17 0.16 0.16 0.16 0.15 0.14 0.14 0.14 0.13 0.12
0.39 0.39 0.38 0.37 0.37 0.37 0.36 0.36 0.35 0.34 0.33 0.31 0.29 0.27 0.27 0.26 0.24 0.23 0.22 0.22 0.22 0.22 0.21 0.21 0.20 0.20 0.19 0.18 0.18 0.17 0.16 0.16 0.16 0.15 0.15 0.14 0.14 0.14 0.13 0.13 0.13 0.12 0.12
0.37 0.36 0.36 0.35 0.35 0.35 0.34 0.34 0.32 0.30 0.27 0.25 0.24 0.23 0.22 0.22 0.21 0.20 0.20 0.20 0.20 0.20 0.19 0.19 0.17 0.17 0.17 0.17 0.17 0.16 0.15 0.15 0.15 0.15 0.14 0.14 0.13 0.13 0.13 0.12 0.12 0.11 0.11
0.35 0.34 0.34 0.33 0.33 0.32 0.30 0.28 0.25 0.24 0.23 0.23 0.22 0.22 0.21 0.21 0.20 0.20 0.19 0.18 0.18 0.17 0.17 0.16 0.16 0.15 0.15 0.15 0.15 0.15 0.14 0.14 0.14 0.13 0.13 0.13 0.12 0.12 0.12 0.11 0.11 0.10 0.10
0.33 0.33 0.32 0.31 0.29 0.27 0.26 0.25 0.24 0.23 0.22 0.21 0.20 0.20 0.20 0.19 0.18 0.18 0.17 0.17 0.17 0.16 0.15 0.15 0.15 0.14 0.13 0.13 0.13 0.13 0.12 0.12 0.12 0.12 0.12 0.11 0.11 0.10 0.10 0.09 0.09 0.09 0.09
0.28 0.27 0.26 0.26 0.25 0.24 0.23 0.23 0.22 0.22 0.21 0.20 0.19 0.18 0.18 0.17 0.17 0.17 0.16 0.15 0.15 0.14 0.14 0.14 0.13 0.13 0.13 0.13 0.12 0.12 0.11 0.11 0.11 0.10 0.10 0.10 0.10 0.09 0.09 0.09 0.08 0.08 0.09

GFSGL_prec_pwat_111.txt.gz
Precipitable_Water
0.79 0.84 0.86 0.96 1.06 1.13 1.10 1.11 1.11 0.93 0.89 0.89 0.95 1.02 1.11 1.22 1.25 1.21 1.23 1.20 1.22 1.23 1.25 1.27 1.26 1.28 1.22 1.20 1.16 1.14 1.03 0.97 0.85 0.94 1.12 1.17 1.15 1.15 1.14 1.27 1.25 1.22 1.16
0.84 0.88 0.86 0.96 1.06 1.11 1.11 1.11 1.05 0.90 0.90 0.89 0.97 1.00 1.03 1.09 1.23 1.26 1.22 1.22 1.22 1.19 1.21 1.24 1.25 1.27 1.21 1.18 1.15 1.14 1.04 1.04 1.00 0.92 1.00 1.06 1.06 1.10 1.13 1.13 1.17 1.24 1.14
0.91 0.92 0.90 0.98 1.08 1.09 1.13 1.11 0.92 0.94 0.87 0.89 0.92 0.94 0.96 1.06 1.14 1.23 1.25 1.24 1.25 1.25 1.24 1.23 1.23 1.23 1.16 1.16 1.15 1.13 1.08 1.05 1.03 0.94 0.93 1.06 1.06 1.10 1.09 1.20 1.17 1.14 1.12
0.97 0.94 0.93 1.02 1.10 1.11 1.16 1.04 0.91 0.96 0.87 0.88 0.90 0.93 0.96 1.04 1.10 1.14 1.18 1.19 1.22 1.24 1.25 1.25 1.24 1.22 1.17 1.14 1.13 1.11 1.11 1.06 1.06 1.03 1.02 0.98 0.98 1.07 1.09 1.07 1.06 1.10 1.05
0.99 0.96 0.98 1.08 1.13 1.17 1.15 0.93 0.97 0.94 0.90 0.92 0.91 0.93 0.93 0.93 0.97 0.98 1.01 1.06 1.10 1.18 1.22 1.24 1.24 1.24 1.23 1.20 1.12 1.12 1.12 1.08 1.05 1.01 0.99 0.97 0.95 0.99 0.98 1.05 1.03 1.01 1.00
1.04 0.99 1.03 1.10 1.15 1.16 1.08 0.93 0.97 0.91 0.92 0.95 0.92 0.93 0.92 0.92 0.93 0.96 0.97 0.98 1.00 1.00 1.03 1.10 1.14 1.15 1.14 1.09 1.06 1.10 1.12 1.04 0.98 0.96 0.94 0.89 0.92 0.97 1.03 1.01 0.99 0.93 0.87
1.08 1.07 1.07 1.08 1.11 1.15 0.99 0.95 0.94 0.88 0.93 0.94 0.94 0.95 0.93 0.93 0.91 0.92 0.93 0.95 0.95 0.96 0.97 0.99 1.00 1.03 1.04 1.03 1.01 1.02 1.03 1.02 1.01 0.99 0.92 0.93 0.93 0.98 1.02 0.99 0.98 0.95 0.91
1.06 1.08 1.10 1.13 1.16 1.08 0.96 0.91 0.91 0.91 0.90 0.91 0.93 0.96 0.95 0.94 0.94 0.94 0.94 0.94 0.93 0.94 0.95 0.94 0.94 0.95 0.99 0.98 0.94 0.91 0.91 0.92 0.93 0.94 0.93 0.92 0.95 0.98 0.98 0.98 0.96 0.91 0.87
1.00 1.03 1.09 1.15 1.11 1.06 0.92 0.88 0.89 0.90 0.91 0.91 0.93 0.93 0.93 0.93 0.95 0.95 0.95 0.95 0.93 0.93 0.97 0.98 0.97 0.97 0.99 0.98 0.93 0.88 0.86 0.87 0.92 0.94 0.93 0.93 0.94 0.95 0.96 0.93 0.86 0.83 0.77
0.95 1.01 1.06 1.09 1.11 1.05 0.92 0.87 0.90 0.91 0.89 0.86 0.85 0.87 0.87 0.89 0.92 0.94 0.96 0.96 0.93 0.94 0.98 0.98 1.01 1.02 1.04 1.04 0.99 0.94 0.87 0.86 0.87 0.88 0.89 0.91 0.91 0.90 0.91 0.90 0.87 0.80 0.76
0.91 1.00 1.02 1.05 1.06 1.09 1.09 1.03 1.03 1.04 1.03 1.02 1.01 1.00 1.01 1.01 1.00 1.04 1.05 1.05 1.02 0.98 0.95 0.94 0.97 1.03 1.06 1.04 1.01 0.97 0.92 0.91 0.86 0.85 0.84 0.83 0.82 0.82 0.82 0.82 0.81 0.78 0.72
0.86 0.93 0.95 1.00 0.98 1.03 1.05 1.05 1.04 1.01 0.98 1.00 0.99 0.97 0.98 1.00 1.03 1.04 1.06 1.03 1.01 0.96 0.93 0.98 0.99 0.99 0.98 0.97 0.95 0.91 0.89 0.87 0.83 0.79 0.77 0.75 0.73 0.73 0.73 0.73 0.72 0.71 0.70
0.88 0.86 0.89 0.91 0.91 0.95 0.97 0.97 0.97 0.96 0.94 0.92 0.92 0.90 0.90 0.92 0.93 0.95 0.96 0.95 0.92 0.88 0.87 0.85 0.87 0.90 0.87 0.86 0.84 0.82 0.81 0.78 0.75 0.72 0.69 0.67 0.67 0.67 0.66 0.63 0.62 0.61 0.59
0.77 0.79 0.80 0.84 0.86 0.88 0.90 0.90 0.89 0.88 0.87 0.87 0.85 0.84 0.84 0.85 0.85 0.87 0.87 0.84 0.84 0.82 0.80 0.76 0.82 0.73 0.73 0.71 0.71 0.70 0.70 0.70 0.66 0.63 0.61 0.61 0.59 0.57 0.55 0.54 0.49 0.45 0.40
0.63 0.61 0.62 0.65 0.68 0.71 0.71 0.72 0.72 0.74 0.76 0.76 0.77 0.78 0.76 0.75 0.76 0.78 0.78 0.78 0.77 0.74 0.74 0.71 0.68 0.67 0.68 0.66 0.62 0.60 0.61 0.59 0.57 0.55 0.53 0.51 0.49 0.47 0.42 0.40 0.37 0.33 0.28
0.63 0.62 0.59 0.57 0.56 0.57 0.58 0.61 0.68 0.71 0.72 0.72 0.71 0.70 0.71 0.72 0.73 0.73 0.73 0.72 0.71 0.70 0.66 0.62 0.60 0.58 0.56 0.54 0.51 0.50 0.49 0.48 0.46 0.45 0.43 0.40 0.37 0.34 0.30 0.29 0.27 0.24 0.22
0.60 0.59 0.59 0.58 0.57 0.55 0.53 0.52 0.52 0.56 0.59 0.60 0.62 0.63 0.64 0.61 0.59 0.61 0.60 0.58 0.57 0.56 0.51 0.49 0.48 0.47 0.45 0.44 0.43 0.42 0.40 0.40 0.39 0.36 0.33 0.30 0.27 0.25 0.24 0.22 0.21 0.20 0.19
0.53 0.55 0.55 0.54 0.53 0.53 0.52 0.51 0.51 0.49 0.47 0.48 0.51 0.51 0.51 0.51 0.50 0.49 0.49 0.48 0.44 0.44 0.42 0.41 0.40 0.39 0.38 0.38 0.37 0.35 0.33 0.31 0.29 0.28 0.27 0.25 0.24 0.22 0.21 0.20 0.20 0.19 0.18
0.46 0.47 0.49 0.50 0.50 0.50 0.49 0.49 0.48 0.46 0.45 0.45 0.45 0.45 0.46 0.45 0.44 0.43 0.42 0.41 0.39 0.38 0.38 0.38 0.37 0.36 0.34 0.32 0.31 0.29 0.28 0.26 0.25 0.24 0.23 0.22 0.21 0.20 0.18 0.18 0.16 0.16 0.16
0.43 0.44 0.43 0.43 0.43 0.43 0.42 0.41 0.40 0.39 0.38 0.38 0.38 0.39 0.40 0.40 0.38 0.38 0.38 0.37 0.35 0.33 0.31 0.30 0.29 0.29 0.27 0.26 0.25 0.24 0.22 0.22 0.21 0.20 0.20 0.20 0.20 0.19 0.17 0.17 0.17 0.16 0.15
0.41 0.41 0.41 0.40 0.39 0.39 0.38 0.38 0.37 0.37 0.35 0.35 0.35 0.36 0.37 0.36 0.34 0.32 0.32 0.30 0.29 0.27 0.26 0.25 0.24 0.24 0.24 0.24 0.23 0.22 0.21 0.20 0.19 0.19 0.18 0.18 0.18 0.17 0.16 0.16 0.16 0.15 0.14
0.40 0.39 0.39 0.39 0.39 0.38 0.37 0.37 0.36 0.34 0.33 0.31 0.30 0.30 0.29 0.28 0.27 0.25 0.25 0.24 0.24 0.24 0.24 0.23 0.22 0.22 0.21 0.21 0.20 0.19 0.18 0.18 0.18 0.17 0.16 0.16 0.16 0.15 0.15 0.15 0.15 0.14 0.14
0.37 0.37 0.36 0.36 0.36 0.36 0.36 0.36 0.35 0.33 0.31 0.30 0.28 0.27 0.26 0.25 0.24 0.23 0.23 0.22 0.22 0.21 0.22 0.21 0.20 0.19 0.19 0.19 0.19 0.19 0.17 0.17 0.16 0.17 0.16 0.15 0.15 0.15 0.15 0.14 0.13 0.13 0.13
0.36 0.36 0.35 0.35 0.34 0.33 0.32 0.30 0.29 0.29 0.27 0.27 0.26 0.25 0.24 0.23 0.23 0.22 0.22 0.21 0.21 0.20 0.19 0.18 0.18 0.18 0.18 0.19 0.18 0.17 0.17 0.17 0.16 0.15 0.15 0.14 0.14 0.14 0.13 0.13 0.12 0.12 0.11
0.35 0.34 0.33 0.32 0.32 0.30 0.29 0.28 0.27 0.26 0.26 0.25 0.24 0.23 0.23 0.22 0.22 0.21 0.19 0.19 0.18 0.17 0.17 0.18 0.17 0.16 0.15 0.15 0.15 0.14 0.13 0.13 0.13 0.13 0.14 0.13 0.13 0.12 0.12 0.11 0.11 0.11 0.10
0.30 0.30 0.29 0.29 0.28 0.28 0.27 0.26 0.25 0.25 0.25 0.24 0.23 0.23 0.22 0.21 0.20 0.19 0.18 0.17 0.16 0.16 0.16 0.15 0.14 0.14 0.15 0.14 0.13 0.12 0.12 0.12 0.12 0.11 0.11 0.12 0.12 0.11 0.11 0.11 0.10 0.09 0.09

GFSGL_prec_pwat_114.txt.gz
Precipitable_Water
0.72 0.79 0.84 0.81 0.85 0.96 1.07 1.20 1.17 1.11 1.11 1.14 1.06 1.00 0.97 0.91 1.01 1.12 1.17 1.18 1.19 1.20 1.23 1.24 1.21 1.28 1.25 1.23 1.20 1.20 1.12 1.07 0.88 0.96 1.05 1.12 1.10 1.12 1.12 1.18 1.23 1.18 1.17
0.77 0.92 0.90 0.89 0.84 0.94 1.07 1.19 1.19 1.09 1.15 1.09 1.03 1.02 0.93 0.93 1.02 1.07 1.14 1.23 1.21 1.15 1.17 1.19 1.22 1.26 1.24 1.24 1.20 1.17 1.13 1.12 1.00 0.92 1.03 1.08 1.10 1.16 1.19 1.17 1.18 1.16 1.12
0.81 0.92 0.95 0.89 0.85 0.92 1.11 1.17 1.14 1.11 1.12 1.04 1.04 1.01 0.90 0.90 0.95 1.03 1.12 1.20 1.28 1.28 1.25 1.22 1.20 1.22 1.20 1.22 1.21 1.16 1.15 1.11 1.06 0.99 0.99 1.10 1.12 1.15 1.13 1.16 1.13 1.11 1.08
0.81 0.92 0.93 0.90 0.89 0.94 1.12 1.12 1.13 1.14 1.09 1.00 1.03 1.02 0.90 0.88 0.96 1.04 1.09 1.14 1.23 1.25 1.26 1.28 1.26 1.23 1.21 1.21 1.21 1.18 1.14 1.10 1.12 1.05 1.02 1.02 1.05 1.09 1.10 1.03 1.01 1.05 1.03
0.82 0.89 0.96 0.97 0.96 1.01 1.07 1.10 1.16 1.15 1.04 1.01 1.01 0.98 0.89 0.89 0.94 0.99 1.03 1.05 1.05 1.13 1.24 1.27 1.27 1.28 1.28 1.25 1.22 1.18 1.15 1.09 1.07 1.04 1.00 1.01 1.01 0.99 0.99 1.03 0.99 1.01 1.00
0.86 0.94 1.02 1.03 1.02 1.05 1.09 1.12 1.18 1.13 1.03 1.02 1.00 0.95 0.88 0.88 0.91 0.95 0.99 0.98 1.01 1.01 1.06 1.17 1.24 1.26 1.25 1.24 1.24 1.22 1.18 1.08 1.04 1.03 1.01 0.96 0.98 1.00 1.02 1.00 0.97 0.92 0.85
0.90 1.02 1.06 1.07 1.07 1.10 1.11 1.15 1.16 1.06 1.05 1.02 1.01 0.96 0.90 0.91 0.93 0.90 0.92 0.93 0.94 0.96 0.98 1.01 1.06 1.13 1.16 1.17 1.16 1.14 1.13 1.09 1.06 1.02 0.96 0.96 0.96 1.01 1.01 0.96 0.95 0.93 0.89
0.92 0.95 1.07 1.12 1.11 1.13 1.14 1.14 1.12 1.07 1.05 1.04 1.04 0.97 0.94 0.92 0.94 0.91 0.92 0.92 0.92 0.93 0.95 0.96 0.97 0.99 1.02 1.02 1.00 0.97 0.95 0.96 0.97 0.98 0.97 0.94 0.95 0.98 0.97 0.96 0.94 0.91 0.88
0.83 0.95 1.00 1.07 1.12 1.13 1.12 1.14 1.11 1.06 1.05 1.07 1.05 0.97 0.91 0.90 0.94 0.95 0.94 0.93 0.91 0.92 0.94 0.94 0.96 0.96 0.99 0.99 0.93 0.88 0.86 0.87 0.90 0.92 0.93 0.93 0.94 0.95 0.96 0.95 0.89 0.86 0.80
0.81 0.90 0.94 1.00 1.06 1.09 1.12 1.09 1.08 1.04 1.02 0.99 0.94 0.90 0.88 0.89 0.93 0.94 0.95 0.94 0.90 0.89 0.91 0.93 0.97 0.99 1.01 1.01 0.97 0.93 0.88 0.88 0.88 0.88 0.89 0.89 0.91 0.91 0.93 0.93 0.90 0.83 0.79
0.85 0.88 0.91 0.97 1.01 1.07 1.06 1.06 1.01 0.98 0.94 0.90 0.86 0.82 0.83 0.83 0.85 0.90 0.94 0.93 0.91 0.89 0.89 0.90 0.93 0.99 1.03 1.01 1.01 0.97 0.92 0.92 0.89 0.88 0.87 0.86 0.86 0.85 0.85 0.86 0.85 0.82 0.76
0.81 0.84 0.87 0.91 0.93 0.98 1.01 1.02 1.00 0.90 0.85 0.81 0.79 0.79 0.84 0.91 0.97 0.99 1.02 1.05 1.03 0.99 0.94 0.94 0.95 0.99 1.00 1.00 0.99 0.96 0.92 0.89 0.84 0.81 0.78 0.77 0.76 0.76 0.76 0.77 0.77 0.75 0.73
0.75 0.79 0.81 0.84 0.87 0.92 0.94 0.96 0.94 0.90 0.87 0.87 0.86 0.87 0.88 0.91 0.94 0.98 1.00 0.99 0.97 0.94 0.91 0.88 0.86 0.85 0.87 0.89 0.90 0.89 0.87 0.82 0.77 0.75 0.73 0.71 0.70 0.70 0.68 0.67 0.66 0.65 0.62
0.70 0.74 0.76 0.77 0.82 0.86 0.88 0.93 0.89 0.87 0.89 0.87 0.85 0.84 0.83 0.82 0.83 0.90 0.92 0.92 0.90 0.87 0.88 0.82 0.89 0.85 0.87 0.79 0.79 0.79 0.75 0.71 0.68 0.64 0.62 0.63 0.63 0.59 0.56 0.54 0.51 0.47 0.43
0.67 0.69 0.69 0.70 0.74 0.76 0.78 0.80 0.80 0.82 0.83 0.82 0.82 0.84 0.83 0.83 0.84 0.85 0.85 0.84 0.83 0.83 0.80 0.78 0.75 0.73 0.73 0.71 0.69 0.68 0.68 0.65 0.63 0.63 0.57 0.54 0.51 0.48 0.45 0.43 0.40 0.36 0.31
0.62 0.64 0.65 0.64 0.65 0.66 0.69 0.72 0.76 0.77 0.79 0.80 0.79 0.79 0.79 0.80 0.80 0.80 0.80 0.79 0.77 0.75 0.73 0.70 0.68 0.67 0.64 0.63 0.61 0.57 0.56 0.54 0.51 0.49 0.46 0.43 0.40 0.37 0.34 0.31 0.29 0.25 0.22
0.59 0.61 0.61 0.62 0.61 0.59 0.57 0.57 0.57 0.61 0.67 0.70 0.71 0.70 0.70 0.69 0.68 0.68 0.67 0.68 0.67 0.66 0.61 0.59 0.55 0.52 0.49 0.47 0.45 0.44 0.42 0.41 0.41 0.39 0.36 0.33 0.30 0.28 0.26 0.24 0.22 0.20 0.19
0.52 0.54 0.55 0.56 0.56 0.55 0.55 0.54 0.54 0.52 0.51 0.52 0.56 0.57 0.57 0.56 0.54 0.52 0.51 0.50 0.47 0.46 0.44 0.42 0.41 0.40 0.39 0.39 0.38 0.38 0.37 0.37 0.35 0.32 0.29 0.27 0.25 0.23 0.22 0.21 0.20 0.19 0.17
0.47 0.47 0.49 0.51 0.52 0.52 0.51 0.50 0.50 0.50 0.50 0.49 0.50 0.50 0.50 0.49 0.48 0.47 0.46 0.43 0.41 0.39 0.39 0.38 0.38 0.38 0.37 0.37 0.35 0.32 0.30 0.28 0.27 0.26 0.24 0.23 0.22 0.20 0.18 0.16 0.15 0.16 0.16
0.43 0.43 0.44 0.44 0.44 0.44 0.43 0.42 0.41 0.40 0.40 0.40 0.40 0.40 0.41 0.40 0.39 0.39 0.39 0.38 0.37 0.36 0.35 0.34 0.33 0.31 0.29 0.28 0.27 0.26 0.24 0.23 0.22 0.22 0.21 0.20 0.19 0.18 0.17 0.17 0.17 0.16 0.15
0.42 0.42 0.41 0.41 0.40 0.40 0.39 0.38 0.38 0.37 0.37 0.36 0.37 0.38 0.38 0.37 0.36 0.36 0.35 0.34 0.33 0.32 0.31 0.29 0.28 0.26 0.25 0.24 0.24 0.23 0.21 0.20 0.20 0.19 0.18 0.18 0.18 0.17 0.17 0.16 0.16 0.15 0.14
0.39 0.38 0.38 0.38 0.38 0.38 0.38 0.37 0.36 0.35 0.34 0.34 0.34 0.34 0.33 0.31 0.30 0.28 0.27 0.27 0.27 0.26 0.25 0.24 0.23 0.23 0.23 0.22 0.21 0.20 0.20 0.19 0.18 0.18 0.17 0.17 0.17 0.16 0.16 0.15 0.15 0.15 0.15
0.38 0.37 0.37 0.36 0.36 0.36 0.35 0.35 0.34 0.34 0.32 0.31 0.30 0.29 0.28 0.26 0.25 0.24 0.23 0.23 0.23 0.22 0.22 0.22 0.21 0.21 0.22 0.21 0.21 0.19 0.18 0.17 0.17 0.17 0.17 0.16 0.16 0.15 0.15 0.15 0.14 0.14 0.13
0.36 0.35 0.34 0.34 0.34 0.33 0.32 0.32 0.32 0.31 0.30 0.28 0.26 0.25 0.24 0.23 0.23 0.23 0.23 0.23 0.22 0.21 0.20 0.20 0.19 0.19 0.18 0.18 0.18 0.17 0.17 0.16 0.15 0.15 0.15 0.14 0.14 0.14 0.14 0.13 0.14 0.13 0.13
0.33 0.33 0.33 0.32 0.32 0.31 0.30 0.30 0.29 0.28 0.27 0.26 0.25 0.25 0.24 0.23 0.22 0.22 0.22 0.21 0.20 0.19 0.19 0.18 0.17 0.17 0.17 0.15 0.15 0.13 0.14 0.13 0.13 0.13 0.13 0.14 0.13 0.12 0.12 0.12 0.12 0.11 0.11
0.31 0.31 0.31 0.30 0.29 0.29 0.27 0.26 0.26 0.26 0.25 0.25 0.25 0.24 0.23 0.22 0.21 0.20 0.19 0.19 0.18 0.18 0.17 0.16 0.16 0.16 0.15 0.14 0.12 0.12 0.12 0.12 0.11 0.11 0.12 0.13 0.13 0.12 0.12 0.11 0.10 0.10 0.09

GFSGL_prec_pwat_117.txt.gz
Precipitable_Water
0.60 0.61 0.66 0.70 0.76 0.84 0.91 0.95 0.94 1.08 1.13 1.22 1.21 1.17 1.17 1.16 1.09 1.03 1.00 0.99 1.05 1.13 1.20 1.25 1.25 1.26 1.24 1.29 1.28 1.24 1.16 1.12 0.99 1.04 1.08 1.09 1.09 1.10 1.13 1.15 1.16 1.11 1.10
0.63 0.65 0.69 0.79 0.88 0.87 0.91 0.91 0.99 1.10 1.15 1.23 1.21 1.15 1.11 1.05 1.07 1.05 0.96 1.00 1.04 1.08 1.17 1.18 1.16 1.21 1.23 1.27 1.26 1.20 1.15 1.19 1.07 0.96 1.01 1.08 1.08 1.15 1.17 1.16 1.16 1.16 1.15
0.58 0.61 0.70 0.79 0.99 1.01 0.99 0.96 0.99 1.10 1.13 1.21 1.18 1.13 1.03 1.02 1.06 1.05 0.98 0.99 1.03 1.12 1.18 1.22 1.17 1.18 1.17 1.22 1.22 1.19 1.18 1.16 1.14 1.04 1.01 1.09 1.12 1.15 1.14 1.15 1.09 1.11 1.15
0.57 0.62 0.71 0.79 0.97 1.01 1.01 0.93 1.01 1.10 1.11 1.18 1.14 1.12 1.04 1.03 1.05 1.02 0.97 1.00 1.07 1.13 1.20 1.26 1.27 1.24 1.21 1.21 1.20 1.18 1.16 1.12 1.09 1.06 1.04 1.06 1.10 1.16 1.13 1.07 1.04 1.06 1.03
0.60 0.62 0.71 0.82 0.96 1.00 0.99 0.98 1.07 1.11 1.13 1.19 1.12 1.09 1.06 1.01 1.02 0.99 0.98 0.98 1.03 1.08 1.12 1.18 1.24 1.30 1.29 1.29 1.23 1.20 1.18 1.13 1.10 1.06 1.02 1.04 1.04 1.06 1.03 1.07 1.01 1.01 1.00
0.59 0.63 0.73 0.85 0.97 1.00 0.98 0.97 1.08 1.13 1.13 1.17 1.10 1.06 1.02 1.00 1.02 0.98 0.98 0.97 1.01 0.98 0.99 1.07 1.19 1.27 1.27 1.27 1.27 1.26 1.24 1.15 1.10 1.06 1.03 0.98 1.01 1.05 1.07 1.04 1.00 0.94 0.87
0.58 0.65 0.75 0.85 0.98 1.00 1.03 1.00 1.05 1.13 1.10 1.12 1.09 1.05 0.98 0.99 1.01 0.97 0.97 0.98 0.97 0.98 1.00 1.00 1.05 1.17 1.22 1.22 1.21 1.21 1.20 1.20 1.19 1.14 1.04 1.03 1.01 1.04 1.05 1.01 0.99 0.94 0.88
0.56 0.63 0.74 0.86 0.94 1.04 1.01 1.02 1.10 1.14 1.15 1.10 1.09 1.05 1.01 0.98 1.02 0.95 0.92 0.93 0.91 0.92 0.95 0.97 0.98 1.02 1.08 1.10 1.09 1.09 1.09 1.10 1.11 1.12 1.07 1.02 1.02 1.03 1.03 1.00 0.96 0.90 0.87
0.55 0.63 0.74 0.86 0.95 1.08 1.10 1.10 1.13 1.14 1.13 1.13 1.11 1.05 1.00 0.99 1.02 0.96 0.92 0.89 0.87 0.88 0.91 0.93 0.94 0.93 0.97 0.98 0.94 0.92 0.92 0.93 0.98 0.98 0.97 0.96 0.95 0.95 0.96 0.94 0.87 0.83 0.79
0.58 0.65 0.74 0.85 0.92 1.04 1.13 1.16 1.19 1.13 1.08 1.09 1.05 1.03 1.00 0.99 1.00 0.96 0.94 0.93 0.84 0.85 0.87 0.89 0.93 0.96 0.96 0.95 0.91 0.86 0.82 0.82 0.83 0.85 0.85 0.86 0.88 0.90 0.93 0.94 0.92 0.84 0.80
0.63 0.68 0.76 0.82 0.93 1.00 1.06 1.12 1.11 1.10 1.06 1.06 0.99 0.97 0.97 0.99 0.97 0.97 0.94 0.91 0.87 0.85 0.84 0.85 0.89 0.94 0.95 0.96 0.97 0.94 0.92 0.93 0.89 0.89 0.89 0.89 0.89 0.89 0.89 0.89 0.89 0.85 0.79
0.66 0.68 0.74 0.84 0.90 0.93 0.96 1.01 1.03 1.03 1.02 0.98 0.99 0.93 0.93 0.92 0.95 0.94 0.92 0.89 0.85 0.83 0.82 0.86 0.89 0.96 0.97 0.98 0.98 0.95 0.94 0.91 0.89 0.86 0.84 0.82 0.81 0.80 0.81 0.81 0.81 0.81 0.81
0.66 0.68 0.71 0.78 0.84 0.87 0.88 0.92 0.93 0.95 0.92 0.91 0.89 0.89 0.87 0.88 0.86 0.85 0.88 0.91 0.91 0.91 0.89 0.89 0.92 0.95 0.96 0.94 0.92 0.89 0.88 0.86 0.83 0.80 0.78 0.77 0.76 0.76 0.73 0.71 0.70 0.68 0.66
0.64 0.65 0.68 0.70 0.75 0.81 0.84 0.84 0.86 0.87 0.84 0.82 0.82 0.81 0.78 0.83 0.86 0.86 0.88 0.89 0.91 0.90 0.86 0.86 0.89 0.90 0.89 0.86 0.84 0.83 0.82 0.77 0.74 0.73 0.72 0.71 0.70 0.66 0.62 0.60 0.58 0.54 0.49
0.63 0.63 0.64 0.66 0.69 0.72 0.76 0.77 0.79 0.80 0.82 0.79 0.79 0.78 0.80 0.82 0.83 0.87 0.87 0.86 0.85 0.85 0.85 0.84 0.83 0.81 0.81 0.77 0.78 0.77 0.76 0.73 0.71 0.69 0.66 0.64 0.61 0.59 0.52 0.48 0.43 0.39 0.35
0.58 0.60 0.61 0.62 0.64 0.65 0.67 0.69 0.75 0.76 0.77 0.78 0.78 0.79 0.79 0.81 0.81 0.81 0.81 0.80 0.80 0.82 0.78 0.76 0.73 0.72 0.71 0.70 0.69 0.69 0.68 0.65 0.63 0.60 0.56 0.52 0.47 0.43 0.40 0.36 0.32 0.27 0.24
0.53 0.55 0.58 0.59 0.60 0.60 0.62 0.62 0.62 0.65 0.69 0.70 0.70 0.70 0.72 0.74 0.75 0.75 0.74 0.74 0.72 0.71 0.67 0.66 0.65 0.64 0.63 0.62 0.60 0.57 0.52 0.50 0.47 0.43 0.40 0.37 0.35 0.32 0.29 0.26 0.23 0.21 0.19
0.48 0.52 0.54 0.55 0.56 0.56 0.57 0.58 0.58 0.58 0.58 0.59 0.64 0.65 0.66 0.67 0.66 0.63 0.60 0.60 0.58 0.58 0.54 0.50 0.48 0.47 0.46 0.45 0.44 0.42 0.40 0.39 0.37 0.35 0.32 0.29 0.27 0.25 0.23 0.21 0.20 0.19 0.18
0.44 0.44 0.46 0.49 0.51 0.53 0.53 0.52 0.51 0.52 0.52 0.52 0.54 0.55 0.56 0.55 0.54 0.52 0.50 0.48 0.46 0.45 0.44 0.43 0.42 0.41 0.40 0.39 0.38 0.36 0.34 0.31 0.29 0.27 0.26 0.24 0.23 0.21 0.20 0.20 0.19 0.17 0.17
0.42 0.43 0.43 0.43 0.43 0.43 0.43 0.43 0.44 0.44 0.43 0.43 0.43 0.44 0.45 0.45 0.44 0.43 0.43 0.42 0.40 0.39 0.39 0.38 0.37 0.35 0.33 0.31 0.30 0.28 0.27 0.25 0.24 0.23 0.22 0.21 0.21 0.20 0.18 0.17 0.16 0.16 0.16
0.40 0.40 0.40 0.40 0.40 0.40 0.40 0.39 0.39 0.39 0.39 0.38 0.38 0.39 0.39 0.38 0.36 0.35 0.35 0.34 0.33 0.32 0.31 0.30 0.29 0.28 0.27 0.25 0.24 0.23 0.23 0.22 0.22 0.21 0.20 0.19 0.18 0.17 0.17 0.17 0.16 0.15 0.14
0.39 0.39 0.39 0.38 0.38 0.37 0.37 0.37 0.37 0.37 0.37 0.36 0.35 0.34 0.33 0.32 0.31 0.29 0.29 0.28 0.28 0.28 0.27 0.26 0.25 0.25 0.25 0.24 0.23 0.22 0.21 0.20 0.19 0.19 0.18 0.18 0.18 0.17 0.16 0.15 0.15 0.14 0.14
0.36 0.35 0.35 0.36 0.36 0.36 0.35 0.35 0.34 0.33 0.32 0.31 0.30 0.28 0.27 0.26 0.26 0.25 0.25 0.25 0.25 0.24 0.24 0.24 0.23 0.23 0.23 0.22 0.22 0.21 0.19 0.18 0.18 0.18 0.17 0.16 0.16 0.16 0.15 0.14 0.13 0.13 0.13
0.34 0.33 0.32 0.32 0.32 0.32 0.32 0.31 0.31 0.30 0.29 0.28 0.27 0.26 0.25 0.24 0.23 0.23 0.23 0.23 0.22 0.22 0.22 0.22 0.21 0.20 0.19 0.19 0.19 0.19 0.18 0.17 0.18 0.17 0.16 0.15 0.14 0.14 0.13 0.13 0.13 0.13 0.12
0.32 0.31 0.31 0.30 0.30 0.29 0.29 0.28 0.27 0.27 0.26 0.25 0.24 0.23 0.22 0.22 0.21 0.21 0.20 0.20 0.19 0.18 0.18 0.18 0.18 0.17 0.17 0.16 0.15 0.16 0.15 0.15 0.14 0.14 0.14 0.13 0.12 0.12 0.12 0.12 0.12 0.11 0.11
0.30 0.30 0.29 0.29 0.28 0.27 0.26 0.26 0.25 0.25 0.24 0.24 0.24 0.23 0.22 0.21 0.20 0.19 0.18 0.18 0.17 0.16 0.16 0.16 0.16 0.15 0.14 0.13 0.13 0.13 0.12 0.11 0.11 0.12 0.13 0.12 0.12 0.12 0.12 0.11 0.10 0.10 0.09

GFSGL_prec_pwat_120.txt.gz
Precipitable_Water
0.63 0.62 0.60 0.58 0.60 0.69 0.72 0.73 0.83 1.00 1.07 1.00 1.02 1.10 1.25 1.18 1.20 1.20 1.19 1.20 1.04 0.96 1.00 1.03 1.10 1.23 1.25 1.27 1.24 1.24 1.22 1.19 1.05 1.12 1.18 1.19 1.13 1.14 1.14 1.18 1.11 1.10 1.08
0.57 0.57 0.58 0.60 0.60 0.65 0.77 0.82 0.84 0.97 1.06 1.00 1.01 1.08 1.24 1.23 1.17 1.16 1.15 1.12 0.98 0.96 0.98 1.05 1.09 1.19 1.21 1.22 1.20 1.21 1.22 1.22 1.12 1.02 1.13 1.10 1.11 1.17 1.16 1.14 1.15 1.16 1.12
0.55 0.59 0.58 0.59 0.64 0.70 0.81 0.99 1.00 0.99 1.00 0.99 1.02 1.06 1.09 1.25 1.16 1.16 1.10 1.04 1.02 0.99 0.99 1.05 1.09 1.16 1.19 1.19 1.15 1.19 1.21 1.21 1.17 1.09 1.06 1.13 1.15 1.15 1.13 1.14 1.12 1.13 1.16
0.55 0.56 0.54 0.58 0.64 0.74 0.84 1.00 1.07 1.04 1.04 0.98 1.01 1.08 1.25 1.24 1.15 1.08 1.01 1.03 1.05 0.98 1.03 1.08 1.13 1.16 1.19 1.19 1.17 1.17 1.18 1.16 1.14 1.08 1.06 1.04 1.08 1.13 1.13 1.05 1.03 1.08 1.07
0.52 0.53 0.54 0.59 0.66 0.74 0.83 0.97 1.05 1.06 1.07 1.00 1.02 1.13 1.14 1.20 1.12 1.01 1.01 1.03 1.01 0.96 1.03 1.07 1.14 1.18 1.20 1.27 1.23 1.21 1.20 1.14 1.11 1.05 1.02 1.04 1.01 1.02 1.01 1.06 1.01 1.03 1.03
0.49 0.49 0.52 0.56 0.66 0.76 0.85 0.94 0.99 1.01 1.04 1.01 1.10 1.03 1.15 1.15 1.08 1.03 1.01 0.99 1.02 0.97 0.99 1.04 1.11 1.14 1.19 1.22 1.28 1.26 1.23 1.15 1.09 1.06 1.03 0.99 1.02 1.06 1.09 1.07 1.01 0.96 0.89
0.51 0.51 0.53 0.57 0.65 0.76 0.82 0.91 0.99 0.95 1.01 1.05 1.13 0.99 1.10 1.14 1.06 1.00 1.00 1.01 1.01 0.96 0.98 1.00 1.02 1.10 1.14 1.17 1.21 1.22 1.21 1.23 1.21 1.14 1.04 1.05 1.03 1.09 1.11 1.06 1.02 0.99 0.95
0.49 0.50 0.52 0.55 0.62 0.73 0.83 0.85 0.98 0.98 0.96 0.99 1.12 1.23 1.10 1.09 1.04 1.00 0.99 1.00 1.00 0.97 1.00 0.98 1.00 1.01 1.06 1.08 1.11 1.12 1.12 1.13 1.17 1.18 1.16 1.13 1.13 1.14 1.12 1.08 1.06 0.99 0.95
0.48 0.49 0.52 0.56 0.62 0.71 0.79 0.87 1.01 0.99 0.94 1.02 1.08 1.12 1.07 1.03 1.02 0.99 0.98 0.97 0.97 0.92 0.94 0.97 0.99 0.97 0.97 1.00 1.00 1.00 1.03 1.05 1.08 1.11 1.11 1.11 1.12 1.11 1.08 1.03 0.93 0.88 0.80
0.50 0.51 0.55 0.59 0.64 0.72 0.82 0.90 1.03 1.04 0.91 1.07 1.11 1.08 1.06 0.99 1.01 1.00 0.98 0.95 0.89 0.84 0.85 0.88 0.92 0.93 0.93 0.95 0.91 0.88 0.84 0.86 0.91 0.93 0.94 0.95 0.95 0.95 0.96 0.94 0.90 0.81 0.79
0.54 0.54 0.57 0.60 0.65 0.75 0.85 0.90 0.96 1.01 1.01 1.08 1.04 1.07 1.05 1.02 1.02 1.02 0.99 0.95 0.90 0.85 0.83 0.84 0.88 0.92 0.91 0.90 0.91 0.89 0.87 0.88 0.85 0.85 0.83 0.84 0.86 0.87 0.89 0.90 0.92 0.90 0.84
0.56 0.56 0.58 0.60 0.67 0.73 0.80 0.86 0.92 0.98 1.03 0.97 0.97 0.97 1.01 1.03 1.02 1.02 0.99 0.97 0.93 0.88 0.84 0.85 0.87 0.90 0.91 0.91 0.91 0.89 0.89 0.88 0.85 0.85 0.84 0.83 0.84 0.86 0.87 0.88 0.88 0.88 0.87
0.56 0.57 0.59 0.61 0.65 0.70 0.77 0.84 0.87 0.89 0.93 0.92 0.93 0.92 0.92 0.97 0.97 0.98 0.98 0.94 0.90 0.86 0.85 0.82 0.82 0.85 0.88 0.88 0.89 0.90 0.92 0.89 0.86 0.83 0.81 0.81 0.81 0.82 0.83 0.82 0.81 0.80 0.79
0.56 0.57 0.59 0.60 0.63 0.68 0.74 0.80 0.80 0.82 0.84 0.86 0.86 0.88 0.88 0.89 0.90 0.94 0.91 0.90 0.85 0.82 0.82 0.86 0.86 0.86 0.86 0.86 0.86 0.86 0.86 0.85 0.83 0.80 0.79 0.76 0.75 0.74 0.73 0.73 0.70 0.67 0.65
0.53 0.56 0.59 0.61 0.62 0.64 0.67 0.72 0.75 0.77 0.79 0.79 0.81 0.84 0.83 0.82 0.84 0.88 0.87 0.84 0.86 0.85 0.86 0.85 0.83 0.84 0.83 0.82 0.81 0.80 0.80 0.80 0.77 0.76 0.74 0.71 0.68 0.67 0.64 0.62 0.59 0.55 0.51
0.49 0.54 0.56 0.58 0.59 0.60 0.61 0.64 0.70 0.73 0.77 0.78 0.80 0.79 0.79 0.82 0.82 0.82 0.80 0.80 0.82 0.84 0.81 0.77 0.76 0.76 0.75 0.74 0.74 0.73 0.73 0.72 0.72 0.71 0.69 0.65 0.61 0.58 0.53 0.48 0.44 0.39 0.33
0.45 0.50 0.54 0.55 0.56 0.57 0.58 0.59 0.59 0.64 0.68 0.70 0.70 0.71 0.74 0.76 0.75 0.74 0.74 0.73 0.76 0.77 0.73 0.70 0.69 0.68 0.68 0.69 0.67 0.66 0.65 0.66 0.66 0.63 0.59 0.53 0.49 0.44 0.38 0.33 0.29 0.26 0.24
0.43 0.44 0.48 0.52 0.53 0.54 0.55 0.55 0.56 0.56 0.57 0.59 0.64 0.65 0.66 0.67 0.67 0.68 0.67 0.65 0.62 0.64 0.67 0.65 0.63 0.63 0.63 0.61 0.59 0.57 0.54 0.51 0.47 0.45 0.42 0.39 0.34 0.29 0.26 0.24 0.22 0.20 0.19
0.42 0.42 0.42 0.44 0.47 0.50 0.51 0.52 0.53 0.53 0.53 0.54 0.56 0.57 0.59 0.59 0.59 0.58 0.57 0.55 0.54 0.52 0.53 0.52 0.50 0.49 0.48 0.47 0.46 0.44 0.42 0.39 0.36 0.33 0.30 0.28 0.26 0.24 0.23 0.21 0.20 0.19 0.18
0.41 0.41 0.41 0.41 0.41 0.41 0.43 0.43 0.45 0.46 0.46 0.47 0.48 0.49 0.51 0.51 0.50 0.50 0.52 0.52 0.50 0.49 0.49 0.48 0.47 0.45 0.43 0.40 0.36 0.33 0.30 0.29 0.28 0.26 0.25 0.24 0.23 0.22 0.21 0.20 0.19 0.18 0.18
0.39 0.40 0.40 0.40 0.39 0.39 0.39 0.40 0.40 0.41 0.41 0.40 0.41 0.42 0.43 0.42 0.41 0.41 0.40 0.40 0.39 0.38 0.37 0.36 0.35 0.33 0.31 0.30 0.28 0.26 0.25 0.25 0.24 0.23 0.22 0.22 0.21 0.20 0.19 0.19 0.18 0.18 0.17
0.37 0.37 0.38 0.37 0.37 0.37 0.37 0.38 0.38 0.37 0.36 0.35 0.35 0.35 0.35 0.33 0.32 0.31 0.30 0.30 0.30 0.29 0.28 0.27 0.26 0.26 0.25 0.25 0.24 0.23 0.22 0.22 0.22 0.22 0.21 0.20 0.19 0.19 0.18 0.17 0.16 0.15 0.15
0.35 0.34 0.34 0.34 0.34 0.34 0.34 0.34 0.33 0.33 0.32 0.31 0.30 0.29 0.29 0.28 0.28 0.27 0.27 0.27 0.27 0.26 0.26 0.26 0.25 0.24 0.24 0.24 0.24 0.23 0.21 0.21 0.20 0.20 0.19 0.18 0.17 0.17 0.16 0.15 0.14 0.14 0.13
0.32 0.32 0.31 0.31 0.31 0.31 0.30 0.29 0.29 0.28 0.27 0.26 0.25 0.25 0.25 0.25 0.25 0.25 0.25 0.25 0.25 0.25 0.24 0.24 0.23 0.23 0.22 0.21 0.21 0.20 0.20 0.19 0.19 0.18 0.17 0.16 0.15 0.15 0.14 0.14 0.13 0.12 0.12
0.31 0.30 0.30 0.29 0.29 0.28 0.27 0.27 0.26 0.25 0.24 0.23 0.23 0.22 0.22 0.22 0.21 0.21 0.21 0.21 0.21 0.21 0.20 0.19 0.18 0.17 0.17 0.16 0.16 0.16 0.16 0.16 0.16 0.16 0.15 0.14 0.13 0.13 0.12 0.12 0.12 0.12 0.11
0.29 0.29 0.28 0.28 0.27 0.27 0.26 0.25 0.24 0.23 0.23 0.22 0.22 0.22 0.21 0.21 0.20 0.19 0.19 0.19 0.18 0.17 0.17 0.17 0.16 0.15 0.14 0.14 0.13 0.13 0.13 0.13 0.13 0.13 0.13 0.12 0.12 0.12 0.11 0.11 0.11 0.10 0.10

GFSGL_prec_pwat_123.txt.gz
Precipitable_Water
0.78 0.75 0.71 0.69 0.69 0.68 0.67 0.66 0.69 0.76 0.77 0.83 0.91 1.00 1.03 0.97 1.01 1.03 1.12 1.16 1.13 1.15 1.19 1.15 1.07 0.96 1.01 1.09 1.19 1.22 1.21 1.17 1.04 1.17 1.25 1.29 1.25 1.24 1.24 1.24 1.21 1.17 1.12
0.70 0.65 0.60 0.58 0.56 0.56 0.58 0.64 0.68 0.73 0.84 0.83 0.90 0.98 0.99 1.00 0.99 1.04 1.14 1.13 1.12 1.11 1.14 1.13 0.98 0.99 0.98 1.08 1.13 1.18 1.20 1.18 1.13 1.07 1.19 1.20 1.17 1.21 1.23 1.18 1.18 1.19 1.13
0.57 0.55 0.54 0.51 0.53 0.55 0.58 0.64 0.69 0.78 0.89 0.87 0.91 0.98 0.98 1.01 0.96 1.07 1.18 1.13 1.12 1.14 1.13 1.06 0.97 0.96 0.94 1.05 1.12 1.16 1.18 1.16 1.19 1.14 1.12 1.20 1.17 1.16 1.12 1.15 1.10 1.10 1.12
0.54 0.51 0.47 0.47 0.52 0.54 0.58 0.64 0.72 0.84 0.94 0.93 0.94 1.02 1.01 0.98 0.99 1.07 1.14 1.19 1.13 1.14 1.13 1.03 1.03 0.95 0.98 1.06 1.11 1.16 1.19 1.12 1.13 1.12 1.12 1.12 1.13 1.11 1.11 1.05 1.04 1.07 1.04
0.48 0.46 0.47 0.50 0.54 0.56 0.59 0.63 0.72 0.86 0.97 1.03 1.04 1.07 1.03 0.99 1.02 1.07 1.15 1.20 1.12 1.07 1.02 1.02 1.05 1.01 1.07 1.11 1.11 1.10 1.14 1.13 1.10 1.08 1.07 1.08 1.04 1.03 1.00 1.07 1.03 1.04 1.03
0.50 0.49 0.49 0.48 0.48 0.51 0.55 0.62 0.69 0.81 0.97 1.09 1.07 0.99 1.00 0.99 1.07 1.14 1.27 1.18 1.08 0.98 0.96 1.03 1.04 1.01 1.06 1.12 1.14 1.13 1.19 1.15 1.11 1.08 1.07 1.02 1.03 1.06 1.08 1.04 0.98 0.93 0.90
0.49 0.49 0.48 0.49 0.48 0.49 0.53 0.59 0.70 0.80 0.94 0.96 1.04 1.03 1.01 1.00 1.13 1.17 1.16 1.11 1.03 0.99 0.98 0.97 1.00 1.02 1.05 1.07 1.09 1.12 1.16 1.22 1.21 1.15 1.06 1.06 1.04 1.07 1.07 1.02 1.01 0.99 0.97
0.48 0.48 0.48 0.49 0.48 0.52 0.54 0.59 0.72 0.83 0.89 0.99 0.98 0.98 1.00 0.99 1.14 1.13 1.20 1.07 1.03 0.99 0.99 1.01 1.02 0.97 1.00 1.00 0.99 1.02 1.05 1.13 1.16 1.19 1.17 1.14 1.14 1.17 1.13 1.08 1.04 1.02 1.00
0.47 0.47 0.49 0.48 0.48 0.50 0.54 0.60 0.71 0.80 0.84 0.98 0.97 0.98 1.02 1.07 1.11 1.21 1.14 1.03 0.98 0.95 0.99 1.00 1.01 0.94 0.98 1.03 1.00 0.93 0.95 1.03 1.07 1.13 1.15 1.15 1.16 1.16 1.14 1.10 1.00 0.96 0.89
0.48 0.48 0.50 0.50 0.50 0.50 0.56 0.62 0.72 0.79 0.91 0.95 0.93 0.96 0.98 1.07 1.11 1.12 1.07 1.03 0.92 0.89 0.90 0.96 0.97 0.93 0.96 0.97 0.94 0.92 0.90 0.93 0.98 1.03 1.06 1.07 1.07 1.09 1.09 1.10 1.05 0.94 0.88
0.51 0.51 0.50 0.52 0.51 0.53 0.57 0.63 0.72 0.81 0.84 0.90 0.90 0.90 1.02 1.10 1.14 1.17 1.16 1.02 0.91 0.86 0.87 0.90 0.91 0.91 0.92 0.93 0.93 0.92 0.92 0.91 0.89 0.91 0.91 0.92 0.94 0.94 0.94 0.95 0.94 0.91 0.84
0.49 0.49 0.49 0.50 0.51 0.52 0.56 0.63 0.72 0.76 0.81 0.85 0.91 0.87 0.94 0.99 1.07 1.11 1.11 1.05 0.96 0.88 0.86 0.85 0.88 0.88 0.86 0.86 0.87 0.87 0.87 0.88 0.86 0.84 0.82 0.83 0.84 0.85 0.87 0.89 0.91 0.91 0.91
0.44 0.47 0.49 0.50 0.51 0.51 0.54 0.60 0.66 0.73 0.75 0.79 0.84 0.91 0.94 0.99 1.00 1.05 1.03 1.01 0.95 0.87 0.89 0.87 0.87 0.89 0.87 0.86 0.84 0.82 0.84 0.85 0.84 0.81 0.79 0.81 0.82 0.83 0.84 0.85 0.86 0.86 0.85
0.41 0.45 0.49 0.49 0.52 0.52 0.54 0.59 0.62 0.68 0.70 0.75 0.79 0.83 0.87 0.91 0.92 0.94 0.97 0.95 0.90 0.90 0.87 0.87 0.85 0.85 0.86 0.84 0.82 0.82 0.83 0.83 0.82 0.80 0.79 0.81 0.81 0.79 0.79 0.81 0.79 0.78 0.76
0.41 0.43 0.48 0.50 0.54 0.53 0.53 0.57 0.60 0.65 0.71 0.72 0.73 0.78 0.79 0.81 0.85 0.86 0.90 0.90 0.87 0.86 0.86 0.83 0.79 0.78 0.76 0.77 0.81 0.82 0.80 0.80 0.79 0.77 0.75 0.75 0.74 0.74 0.73 0.73 0.71 0.70 0.66
0.39 0.41 0.45 0.49 0.52 0.54 0.54 0.56 0.60 0.63 0.67 0.70 0.71 0.73 0.76 0.79 0.82 0.84 0.84 0.85 0.86 0.85 0.83 0.77 0.76 0.77 0.76 0.76 0.75 0.76 0.77 0.77 0.77 0.75 0.72 0.71 0.68 0.68 0.67 0.65 0.62 0.59 0.55
0.39 0.39 0.41 0.47 0.50 0.52 0.53 0.53 0.53 0.57 0.61 0.63 0.65 0.67 0.69 0.72 0.75 0.75 0.78 0.77 0.79 0.78 0.73 0.71 0.71 0.71 0.72 0.70 0.72 0.70 0.69 0.69 0.71 0.69 0.67 0.65 0.63 0.60 0.57 0.52 0.48 0.42 0.35
0.40 0.40 0.40 0.40 0.46 0.49 0.50 0.51 0.52 0.51 0.52 0.54 0.59 0.61 0.63 0.66 0.67 0.68 0.70 0.70 0.68 0.68 0.67 0.65 0.65 0.65 0.65 0.65 0.64 0.63 0.63 0.63 0.63 0.61 0.58 0.54 0.51 0.46 0.41 0.35 0.31 0.28 0.25
0.40 0.39 0.39 0.40 0.40 0.42 0.45 0.47 0.49 0.49 0.49 0.50 0.53 0.55 0.57 0.58 0.60 0.61 0.62 0.60 0.59 0.59 0.60 0.60 0.60 0.59 0.59 0.58 0.56 0.54 0.53 0.51 0.48 0.45 0.41 0.38 0.35 0.32 0.29 0.27 0.25 0.23 0.21
0.38 0.39 0.39 0.39 0.39 0.39 0.39 0.41 0.42 0.44 0.45 0.46 0.47 0.49 0.51 0.53 0.53 0.53 0.54 0.54 0.54 0.54 0.54 0.53 0.52 0.52 0.51 0.50 0.48 0.46 0.43 0.41 0.38 0.35 0.32 0.29 0.27 0.25 0.23 0.22 0.21 0.20 0.20
0.37 0.37 0.37 0.37 0.37 0.37 0.37 0.37 0.37 0.38 0.39 0.39 0.40 0.41 0.42 0.42 0.43 0.45 0.45 0.46 0.46 0.46 0.46 0.45 0.44 0.43 0.41 0.38 0.36 0.34 0.32 0.30 0.29 0.27 0.26 0.26 0.25 0.23 0.23 0.22 0.21 0.20 0.19
0.36 0.35 0.35 0.34 0.35 0.34 0.34 0.33 0.33 0.32 0.33 0.32 0.33 0.34 0.34 0.34 0.34 0.33 0.33 0.33 0.33 0.34 0.34 0.33 0.32 0.31 0.30 0.29 0.29 0.27 0.26 0.25 0.25 0.24 0.23 0.22 0.22 0.21 0.21 0.20 0.19 0.18 0.17
0.33 0.33 0.32 0.32 0.32 0.32 0.31 0.30 0.29 0.28 0.27 0.28 0.28 0.28 0.28 0.28 0.29 0.29 0.29 0.29 0.29 0.29 0.30 0.29 0.28 0.27 0.27 0.26 0.25 0.24 0.23 0.23 0.23 0.23 0.22 0.21 0.20 0.19 0.18 0.17 0.16 0.15 0.14
0.32 0.31 0.30 0.29 0.29 0.28 0.28 0.27 0.26 0.25 0.24 0.23 0.23 0.23 0.23 0.23 0.24 0.24 0.25 0.26 0.26 0.26 0.26 0.26 0.25 0.25 0.25 0.24 0.24 0.24 0.23 0.22 0.22 0.21 0.20 0.18 0.17 0.17 0.16 0.15 0.14 0.13 0.12
0.29 0.29 0.28 0.28 0.27 0.26 0.25 0.25 0.25 0.24 0.23 0.22 0.22 0.21 0.21 0.21 0.20 0.21 0.21 0.21 0.21 0.21 0.20 0.20 0.20 0.20 0.20 0.19 0.19 0.19 0.19 0.19 0.19 0.18 0.17 0.16 0.15 0.14 0.14 0.13 0.12 0.12 0.11
0.28 0.27 0.27 0.27 0.26 0.26 0.25 0.24 0.23 0.23 0.22 0.22 0.21 0.21 0.20 0.20 0.19 0.19 0.19 0.19 0.18 0.18 0.17 0.17 0.16 0.16 0.15 0.15 0.15 0.15 0.15 0.15 0.15 0.15 0.15 0.14 0.13 0.13 0.12 0.12 0.11 0.11 0.11